GFSSE_sfc_wetblb_000.txt.gz
Wetbulb
68.56 69.77 72.74 72.86 73.52 72.97 72.74 72.09 70.58 68.89 67.97 66.74 65.83 67.17 67.26 68.84 68.70 67.50 67.88 65.67 65.31 65.17 65.66 66.10 66.85 68.18 69.33 69.38 68.63 68.45 67.28 67.30 66.40 66.27 66.38 67.15 67.10 67.91 66.93 65.38 66.28 66.55 66.77
69.43 69.65 72.83 73.76 73.24 72.78 72.34 71.62 70.33 68.71 67.97 67.02 65.76 65.35 65.72 65.67 66.15 65.54 66.18 67.41 65.67 64.62 65.42 66.62 67.11 67.01 67.44 67.57 66.62 66.75 66.09 65.97 64.88 64.96 66.03 66.46 66.33 67.00 65.51 65.09 66.01 68.01 67.58
68.98 69.45 73.43 74.20 73.68 72.87 72.45 70.89 69.82 69.14 67.98 67.04 66.84 66.04 65.82 66.11 65.68 65.98 66.98 66.93 65.66 64.87 65.22 66.40 66.62 67.00 67.51 67.60 66.86 65.90 65.26 65.99 64.59 64.89 65.91 65.14 65.24 65.73 65.82 65.79 65.93 67.80 68.66
69.17 69.61 71.58 73.46 73.52 73.25 72.14 71.14 69.83 69.10 68.23 67.18 66.84 66.73 66.44 67.65 66.09 66.10 65.84 66.03 65.71 65.77 65.08 64.96 65.66 65.62 66.30 66.59 66.70 65.99 65.00 64.53 64.72 65.02 64.67 64.42 64.95 65.24 66.02 65.39 65.85 66.83 67.03
69.34 70.28 71.73 74.17 73.43 72.95 72.13 71.58 70.42 69.46 68.84 67.72 66.69 67.29 67.49 68.68 67.57 67.13 65.76 65.66 65.16 64.67 64.69 64.53 64.33 65.19 65.64 65.93 66.11 66.15 65.04 65.21 63.98 64.34 63.84 64.41 66.00 65.03 65.02 66.37 65.59 66.09 67.23
69.48 70.91 72.27 74.01 73.68 73.42 72.09 71.73 70.50 69.76 68.67 68.24 67.83 67.20 67.88 68.65 68.68 67.74 67.04 65.89 64.68 64.54 64.57 64.51 64.44 64.47 65.03 65.52 65.77 66.25 65.39 65.49 63.82 65.02 63.19 64.04 65.06 65.46 65.06 65.46 65.79 65.42 66.21
69.37 70.84 71.15 73.32 73.09 72.97 71.83 71.07 70.27 69.86 68.85 68.34 67.70 67.85 68.38 68.69 69.87 68.07 67.99 66.43 64.95 64.76 64.93 64.93 65.22 65.25 65.11 64.89 65.07 65.34 65.42 65.53 64.14 65.34 63.90 62.66 64.14 65.11 66.43 66.24 65.71 65.73 65.59
69.59 70.73 70.46 71.84 73.48 73.21 72.13 71.76 70.82 70.32 69.55 68.81 67.66 67.78 68.01 68.97 69.52 69.35 68.20 66.57 65.42 65.41 65.34 64.67 65.85 66.33 66.10 65.91 65.64 65.14 65.23 65.42 63.15 64.15 64.58 63.43 63.49 64.72 66.38 66.61 65.61 66.17 65.64
70.12 70.53 70.64 70.85 72.17 72.54 72.21 71.91 71.58 71.07 69.95 69.25 68.01 67.40 68.04 67.71 68.05 68.46 67.58 66.47 66.53 66.46 65.88 65.87 65.95 66.39 66.83 66.67 66.07 65.58 65.95 65.36 64.09 63.80 63.78 64.12 64.08 63.03 65.18 66.28 66.18 66.51 66.95
69.89 70.35 70.59 71.00 71.65 71.74 71.59 70.81 70.77 70.69 69.90 69.57 69.07 68.63 67.79 67.52 67.31 66.66 67.39 66.84 66.74 66.97 66.60 65.73 65.57 65.64 65.87 66.41 65.67 65.60 65.55 65.09 63.33 63.57 63.54 63.59 64.05 64.42 64.41 64.63 66.13 66.56 66.69
68.25 69.89 70.66 70.53 71.27 71.37 71.10 70.63 70.19 69.63 69.26 68.56 68.02 67.38 67.03 66.47 67.10 66.10 66.13 66.02 66.31 66.29 66.25 66.06 65.73 65.51 66.51 66.12 66.26 65.80 64.60 63.77 62.99 62.48 62.45 63.88 63.62 65.08 65.30 64.77 64.80 66.04 66.44
66.09 68.11 69.82 70.47 70.82 71.13 70.40 70.83 70.38 69.71 69.55 68.91 68.16 67.49 66.80 66.28 66.80 66.13 64.93 65.13 66.00 66.43 66.42 66.25 66.00 65.67 65.69 65.34 65.25 64.86 64.60 64.18 63.63 62.99 62.27 63.86 63.06 64.39 64.61 65.01 64.82 64.76 65.45
64.83 66.74 68.47 69.99 70.69 70.75 70.56 70.65 70.31 69.98 69.54 69.14 68.34 67.77 67.02 66.23 66.42 66.47 66.08 65.73 66.21 64.57 65.77 66.05 65.88 65.49 64.95 64.92 64.87 64.89 64.80 64.53 64.13 63.74 63.51 63.87 62.93 64.42 64.59 63.95 64.64 65.08 64.68
63.65 64.53 66.67 68.73 69.86 70.40 70.62 70.26 70.00 69.37 69.17 68.68 68.49 67.69 67.51 66.93 66.43 66.07 65.80 66.16 66.01 66.10 65.90 66.21 65.83 65.77 65.51 65.32 65.14 64.71 64.74 64.66 64.52 64.32 64.13 63.16 62.81 63.86 64.98 64.80 63.88 63.94 64.95
63.28 64.34 65.06 66.57 68.36 69.45 69.86 70.01 69.80 69.21 68.71 68.54 68.59 68.16 68.02 67.25 66.50 66.57 66.41 66.51 66.64 66.63 66.39 66.11 66.08 65.86 65.67 65.66 65.54 65.22 64.99 65.20 65.29 65.08 65.00 62.34 62.87 62.65 64.04 65.23 65.31 64.73 64.05
62.06 61.80 63.18 64.66 66.28 68.18 68.86 69.31 69.10 69.20 68.87 68.70 68.44 68.17 67.43 67.27 66.92 66.67 66.60 66.72 66.73 66.81 66.74 66.29 65.90 65.50 65.36 65.58 65.24 65.50 65.34 65.52 65.56 65.26 65.25 65.18 63.21 62.64 62.74 64.49 65.59 65.76 65.63
60.22 60.24 60.82 61.46 63.79 66.45 67.76 68.52 68.74 69.04 68.04 68.28 68.37 67.68 67.04 66.90 66.70 66.57 66.30 66.26 66.72 66.70 66.24 66.14 65.72 65.60 65.10 65.10 64.68 65.04 65.15 65.15 64.97 65.03 65.26 65.27 64.97 62.03 62.13 63.25 65.14 65.89 65.94
59.30 60.27 61.12 61.11 62.28 64.87 66.44 67.37 67.84 68.36 68.24 67.90 67.63 67.47 66.25 65.97 65.90 66.00 65.89 65.95 66.13 65.82 65.29 64.64 64.07 63.42 63.42 63.20 62.98 63.39 63.85 64.37 64.47 64.40 64.51 64.79 64.65 64.37 63.61 62.63 62.67 63.94 65.71
58.76 60.60 60.83 61.80 63.26 64.26 65.18 65.68 65.47 65.23 65.91 65.96 66.50 66.40 65.81 65.40 65.18 65.33 64.46 63.37 62.99 62.97 62.80 62.40 62.17 61.82 60.64 60.99 60.52 61.39 62.17 62.64 63.52 64.06 64.26 63.99 64.06 63.94 63.95 62.67 62.10 61.76 62.33
59.44 61.37 62.08 63.18 63.83 64.39 65.02 65.50 65.76 65.50 64.59 63.22 61.58 60.83 60.60 58.93 59.25 59.64 58.50 57.50 58.28 58.07 57.43 57.18 57.13 57.82 57.90 58.61 57.68 58.33 60.24 60.94 61.94 62.72 63.28 63.75 64.67 64.37 64.34 63.99 63.72 63.09 60.40
58.59 59.91 61.66 63.06 64.04 64.75 64.89 63.50 61.65 58.82 58.17 57.49 57.14 56.62 55.88 55.53 55.40 55.41 55.28 55.01 55.05 54.81 54.48 54.53 54.50 53.83 54.07 55.29 53.48 54.23 55.02 57.79 59.53 59.22 62.10 61.12 61.60 62.84 64.28 64.25 64.42 63.47 63.43
56.60 57.47 58.79 60.37 62.09 63.47 63.69 61.27 59.28 57.85 56.87 56.39 55.90 54.93 54.69 53.68 53.28 53.04 53.00 52.90 53.04 52.84 52.78 52.64 52.67 51.58 52.04 52.88 50.84 50.94 48.79 52.31 54.92 55.80 56.26 56.58 57.88 59.40 61.40 63.12 63.43 63.30 63.47
55.21 55.75 56.12 57.38 57.87 58.20 58.46 58.11 57.88 57.62 56.78 55.18 53.91 53.20 52.35 52.05 50.70 50.77 50.73 50.66 50.51 50.86 49.94 50.22 49.91 49.31 47.89 49.92 51.03 48.90 46.81 45.22 49.61 52.25 53.38 54.63 55.71 56.28 57.24 58.76 59.16 59.80 60.92
54.75 56.13 56.14 56.37 56.45 57.03 57.73 56.72 55.54 53.98 51.99 52.03 51.84 51.66 50.97 49.93 47.89 47.38 47.74 47.84 47.82 48.18 47.70 47.73 47.69 47.91 48.00 46.05 48.06 49.09 49.42 48.36 45.63 45.25 50.19 51.42 52.89 53.17 53.98 55.49 56.15 56.29 57.33
54.65 54.81 55.03 54.72 54.34 54.56 54.65 54.43 53.37 51.83 51.39 50.82 50.09 48.93 48.31 47.91 46.40 44.86 45.14 45.62 45.32 45.66 45.71 45.72 45.63 46.39 46.88 45.32 45.18 45.95 46.74 47.44 47.35 45.20 42.63 44.84 48.17 49.30 50.63 52.04 53.52 55.49 55.79
53.99 54.10 53.88 52.81 52.03 52.61 52.28 51.77 51.04 49.74 48.39 47.81 46.50 45.56 45.13 44.85 44.55 43.70 43.66 44.13 44.24 43.93 43.52 43.83 44.42 45.59 45.47 44.20 44.56 45.12 45.09 43.36 42.79 41.89 41.12 42.74 43.34 45.49 47.55 50.01 51.25 53.66 54.87

GFSSE_sfc_wetblb_003.txt.gz
Wetbulb
68.70 71.38 73.20 73.25 73.20 72.75 72.67 71.79 70.69 68.84 68.01 66.62 65.83 67.40 67.97 69.26 67.66 66.72 67.69 67.86 66.35 65.51 66.46 67.15 67.57 68.99 69.62 69.24 68.65 68.29 67.29 66.99 66.23 65.53 65.84 66.46 66.99 66.85 68.30 65.99 66.13 66.56 66.90
69.39 71.13 72.86 73.09 73.08 72.77 72.49 71.46 69.97 68.78 67.98 66.98 65.61 65.51 65.74 65.66 65.94 65.76 66.66 67.07 65.83 65.63 66.14 67.07 67.44 67.91 68.14 68.10 66.39 65.85 65.70 65.92 65.03 65.12 65.49 66.42 67.21 66.17 66.24 65.19 65.00 67.16 68.28
68.57 70.99 72.31 74.03 73.19 72.57 72.20 70.92 69.63 68.56 67.68 66.71 65.79 65.38 65.14 65.83 65.95 66.87 66.31 66.32 65.86 65.28 65.59 65.78 66.28 66.27 66.92 67.25 66.91 66.27 65.27 64.57 64.99 65.09 65.61 63.72 64.12 66.71 65.63 65.56 66.01 66.41 68.94
68.68 70.95 72.36 74.14 73.08 72.76 71.79 70.49 69.27 68.80 67.80 66.31 65.74 66.08 66.53 66.62 66.42 66.71 65.23 65.68 65.31 65.33 65.29 65.18 64.86 65.02 65.26 66.39 66.32 66.16 65.97 64.81 64.48 64.53 63.49 63.76 64.02 66.42 65.50 65.89 65.53 66.02 67.33
68.62 70.07 72.88 74.12 73.00 72.84 71.55 70.65 69.60 68.73 67.87 66.71 65.85 66.05 67.60 67.72 67.91 66.96 66.12 65.91 65.30 64.67 64.67 64.53 64.08 64.42 65.41 65.63 66.02 66.20 66.33 65.68 64.98 64.53 64.02 63.63 64.17 65.33 64.77 65.11 66.17 65.84 66.06
69.03 70.48 72.88 73.92 73.00 72.40 71.58 71.08 69.85 68.94 68.01 67.49 66.66 66.84 67.14 68.41 68.97 68.33 67.73 66.64 65.26 64.74 64.92 64.86 64.75 64.84 64.66 64.72 65.09 65.61 66.41 65.52 64.99 64.39 64.73 63.45 62.82 64.80 65.52 65.46 65.31 65.95 65.76
69.13 70.96 71.58 73.71 72.65 72.20 71.31 70.94 70.16 69.52 68.06 67.26 66.80 66.84 67.60 68.82 69.26 69.20 68.28 67.33 65.94 64.91 64.95 64.97 65.30 65.95 65.89 65.53 65.55 65.36 65.25 66.58 63.54 62.94 63.64 64.48 62.92 64.12 65.31 65.83 66.06 65.98 66.35
69.24 70.61 71.16 72.57 73.15 72.90 71.96 71.41 70.57 70.04 69.35 68.10 66.90 66.68 67.21 68.42 69.29 68.90 68.67 67.51 66.32 65.85 65.91 65.46 65.56 65.76 66.76 66.81 66.58 66.14 65.91 66.11 63.33 62.36 63.06 64.38 65.80 63.48 64.31 65.50 65.88 66.24 66.31
69.99 70.35 70.39 70.60 70.80 72.61 72.42 72.30 71.57 70.82 70.25 68.68 67.49 66.41 66.98 67.21 67.47 68.05 67.73 66.72 66.66 66.75 66.84 66.02 65.57 65.78 65.69 66.18 66.76 66.35 66.76 66.25 63.94 62.87 62.96 63.76 66.09 64.85 64.22 64.36 65.76 66.72 66.62
69.68 70.13 70.29 70.57 70.90 70.50 70.12 71.00 70.88 70.64 70.21 68.65 68.31 68.45 67.88 67.35 67.21 66.73 67.36 67.21 66.49 66.56 66.35 66.28 66.07 65.77 65.92 66.09 66.12 66.99 66.59 66.03 63.31 63.18 63.40 63.39 66.23 65.26 65.65 65.00 64.97 65.65 66.54
68.47 69.66 70.42 70.15 70.82 70.68 70.47 70.53 70.12 69.90 69.59 69.01 68.15 67.44 67.36 65.64 66.77 66.52 66.26 66.55 66.23 66.40 66.36 66.46 66.44 66.29 66.50 66.22 66.31 66.34 66.21 64.05 63.52 63.53 62.86 64.73 65.28 64.80 65.34 65.45 65.48 65.48 65.79
66.50 68.15 69.81 70.17 70.35 70.47 69.72 70.08 69.62 69.59 69.07 68.74 67.98 67.56 67.08 65.93 66.21 66.19 64.69 65.91 66.63 66.80 66.97 66.59 66.58 66.59 66.13 64.98 65.26 65.83 64.44 64.75 64.49 64.12 64.14 65.67 64.71 64.75 65.11 65.07 65.08 65.36 65.62
65.63 67.42 68.60 69.95 70.45 70.40 69.99 69.84 69.46 68.98 68.53 68.13 67.70 67.47 67.20 66.52 66.52 66.72 66.59 66.49 66.59 65.17 66.20 66.68 66.42 65.89 65.50 65.32 65.00 64.80 64.88 64.73 64.83 64.81 64.93 66.20 66.01 65.40 65.59 65.60 65.52 64.93 65.18
64.62 65.62 67.46 68.89 69.90 70.29 70.24 69.54 69.29 68.51 68.31 67.87 67.71 67.50 67.20 66.79 66.77 66.65 66.60 66.96 66.95 66.81 66.41 66.84 66.51 66.53 66.33 66.14 65.93 65.46 65.31 65.29 65.51 65.47 65.47 64.94 66.47 65.93 66.17 66.13 66.38 66.19 65.45
64.19 65.14 65.99 67.64 68.70 69.50 69.74 69.63 69.23 68.65 68.03 67.94 68.24 68.36 68.14 67.48 67.02 67.39 67.22 67.36 67.42 67.38 66.87 66.57 66.58 66.44 66.22 66.14 66.07 65.70 65.44 65.55 65.74 66.03 66.33 64.00 65.35 66.60 66.03 66.25 66.42 67.11 66.95
64.08 64.12 65.41 66.06 67.17 68.60 68.80 69.09 68.88 68.79 68.60 68.42 68.45 68.34 67.88 67.63 67.26 67.17 67.13 67.01 67.06 66.90 66.81 65.62 65.38 64.65 64.99 65.36 64.79 65.03 65.04 65.45 65.57 65.78 66.06 66.21 65.04 65.66 66.42 66.36 66.63 66.74 67.70
61.49 61.62 61.62 62.94 64.94 66.89 68.17 68.69 68.59 68.61 68.11 68.19 68.06 67.87 67.43 67.28 67.16 67.00 66.73 66.14 65.47 65.23 65.00 65.03 64.40 63.94 63.43 63.40 62.80 63.46 63.96 63.92 64.51 64.56 64.90 65.41 65.63 63.83 65.19 66.90 66.71 66.58 66.49
60.53 61.57 62.26 61.80 62.86 65.62 67.45 68.14 68.01 67.71 67.52 67.03 66.90 67.12 66.72 66.56 66.51 66.35 64.79 63.37 63.15 63.09 62.44 61.33 60.56 60.11 60.16 60.28 60.41 61.42 61.78 62.20 62.37 62.90 63.68 64.43 64.77 64.63 64.82 65.51 66.39 66.62 66.27
60.85 61.84 62.45 64.13 64.23 65.50 67.07 67.21 66.50 66.21 66.21 66.44 66.23 65.36 63.38 62.21 62.50 61.42 59.10 58.07 58.18 58.61 57.85 57.36 56.75 56.72 56.24 56.71 57.40 58.04 57.78 59.86 60.99 61.24 61.68 62.88 63.99 64.72 64.79 64.32 63.66 64.15 64.90
62.42 63.04 63.85 64.33 64.89 65.42 65.76 65.92 65.95 63.48 60.83 59.54 58.34 57.84 57.64 56.94 56.85 56.95 56.35 55.83 55.87 56.21 55.85 55.50 54.52 55.52 55.01 55.19 54.25 54.39 56.65 56.82 57.40 58.52 61.13 59.12 58.20 57.99 59.37 61.59 64.46 64.37 62.34
61.66 62.83 63.94 64.04 65.00 65.60 65.33 62.96 60.48 58.23 58.05 57.20 56.68 56.19 55.35 54.64 54.38 54.20 54.41 54.14 54.16 53.62 53.25 52.65 52.33 51.61 51.72 52.96 51.23 52.15 52.34 55.13 54.37 56.04 55.07 55.20 56.65 58.62 57.96 58.85 60.55 62.92 64.32
59.09 60.66 61.52 62.94 64.11 63.05 61.43 60.68 59.52 57.93 56.84 56.09 55.55 54.12 53.61 52.22 51.80 51.69 51.14 51.13 50.93 51.07 50.62 50.07 49.60 48.41 49.31 50.05 47.93 47.51 45.61 48.86 51.36 51.86 52.91 53.86 53.49 55.98 55.29 57.60 57.72 57.76 58.49
56.92 58.06 58.35 58.71 59.16 59.46 59.55 59.14 58.12 57.63 56.77 54.19 53.37 52.80 51.58 50.44 48.52 48.43 48.59 48.25 48.36 49.33 48.32 48.28 47.82 47.62 46.23 48.25 48.56 45.76 42.81 41.72 45.73 50.05 49.58 51.23 50.30 50.67 53.52 52.80 53.91 54.51 54.92
56.35 57.94 57.62 57.72 57.81 58.18 58.45 57.03 55.42 53.49 51.14 51.99 52.03 51.49 50.82 49.26 46.92 46.13 46.40 46.70 46.52 47.03 46.50 46.94 46.35 47.05 46.93 44.70 46.40 46.08 46.69 45.87 41.95 40.70 46.84 47.60 48.52 48.42 48.82 50.78 49.93 50.29 50.73
56.27 56.40 56.03 55.51 55.24 55.51 55.35 54.95 53.72 52.17 51.72 51.26 50.63 49.31 48.28 47.73 46.44 45.05 45.13 45.42 44.99 45.28 45.06 44.96 45.32 45.43 46.40 44.39 43.30 43.85 44.07 45.20 44.72 40.90 38.14 41.22 44.67 46.06 47.58 47.33 48.41 48.83 49.92
55.51 55.13 55.23 53.78 53.36 53.84 53.66 53.06 52.06 50.84 49.97 48.84 47.57 46.64 46.20 45.85 45.19 44.01 43.96 44.04 44.07 43.50 43.16 43.61 44.31 44.86 44.95 44.21 43.37 42.92 41.67 40.94 40.68 39.66 38.33 39.22 40.18 43.59 46.52 46.22 47.89 48.90 49.84

GFSSE_sfc_wetblb_006.txt.gz
Wetbulb
66.80 70.43 73.81 73.89 73.26 72.88 73.04 71.98 70.65 69.03 68.39 66.98 67.12 68.41 69.81 69.16 67.64 67.18 67.73 67.87 66.97 65.79 67.10 68.23 68.94 69.17 69.33 69.25 68.86 67.99 67.90 67.20 66.03 65.74 65.61 65.80 66.11 66.70 67.39 66.85 65.53 65.86 66.34
68.76 70.67 74.01 74.03 73.12 72.93 72.44 71.40 69.64 68.82 68.20 66.93 66.28 67.24 66.68 66.63 67.06 66.24 66.70 66.71 66.85 65.35 66.32 67.09 67.77 67.79 68.33 68.24 66.84 66.05 65.86 65.61 65.72 65.10 66.15 66.16 66.45 66.18 66.20 65.11 65.61 65.16 68.44
67.95 70.35 71.90 74.28 73.79 73.18 72.37 70.93 69.43 68.50 67.49 67.21 65.85 65.79 65.47 65.99 65.73 66.75 67.00 66.47 65.52 65.56 65.85 65.96 65.53 66.05 66.31 67.50 67.45 66.96 66.16 64.90 64.43 64.82 65.39 63.25 61.55 66.39 66.44 65.89 65.36 65.99 67.41
68.60 69.74 70.62 74.24 73.43 72.89 72.36 70.85 69.66 68.84 67.62 66.78 65.76 67.35 66.57 66.35 66.37 66.38 66.03 65.77 65.84 65.21 65.09 65.09 64.77 64.96 65.53 65.99 66.58 66.51 66.63 65.45 64.52 65.57 62.77 61.88 61.85 67.14 66.41 65.77 65.37 65.57 66.57
66.05 69.77 72.09 74.00 73.82 72.85 71.64 70.40 69.52 68.95 68.04 66.79 65.74 65.78 67.11 67.47 68.31 66.72 66.39 65.93 65.84 64.89 64.50 64.47 64.33 64.14 64.42 64.98 65.37 65.92 66.06 65.72 65.44 64.81 61.88 59.87 59.81 64.24 65.83 65.47 65.11 66.27 65.94
65.57 70.50 72.67 73.79 73.89 73.05 71.82 71.01 69.96 69.14 68.43 67.57 66.42 66.51 66.81 68.42 68.79 68.87 67.38 67.46 66.14 65.13 64.78 64.63 64.71 65.03 65.29 65.11 64.79 64.54 64.99 65.73 66.58 61.04 59.77 61.29 59.36 63.90 65.53 65.71 65.95 65.61 65.92
66.25 70.71 72.04 73.65 73.43 72.91 72.34 71.25 70.34 69.66 68.32 67.53 66.72 66.53 67.04 68.87 69.17 69.00 68.11 67.24 66.36 65.60 65.03 65.05 64.46 65.25 66.12 66.60 66.16 66.15 65.44 66.23 62.37 59.15 59.09 59.48 59.99 64.19 64.64 65.59 66.00 66.23 66.16
66.80 69.01 71.27 72.38 72.54 72.85 72.12 71.51 70.82 70.28 69.39 68.72 67.09 66.17 66.56 67.69 68.87 68.97 68.65 67.75 66.84 66.03 66.32 65.66 65.51 65.51 65.98 66.67 67.16 66.84 67.03 66.26 62.95 59.02 58.55 59.07 62.80 65.83 65.30 64.94 65.62 66.05 66.71
67.35 67.69 68.22 69.93 71.04 72.28 72.14 72.12 71.46 71.17 70.59 69.56 68.37 66.91 67.49 66.93 67.05 67.93 68.38 67.41 66.90 66.46 66.62 66.93 66.53 66.09 65.68 66.03 66.25 67.00 67.35 66.49 62.47 60.56 60.60 58.83 64.40 66.46 66.53 66.06 65.19 65.67 66.56
66.30 67.13 66.88 67.95 68.54 69.01 68.42 70.76 70.63 70.38 70.14 69.35 68.76 68.26 67.63 67.08 67.08 67.90 67.78 67.92 66.89 66.64 66.37 65.98 66.23 66.53 66.49 66.17 66.31 67.18 66.79 66.40 62.52 61.02 60.50 59.93 65.56 65.96 66.42 66.19 66.01 65.60 65.82
65.96 66.09 66.57 66.84 68.06 67.93 67.75 69.09 69.76 69.48 69.18 68.57 67.56 66.81 66.13 63.41 63.17 64.92 65.39 66.11 66.19 66.13 66.37 66.52 66.67 66.82 67.25 66.67 66.60 66.30 65.79 62.67 60.65 60.24 59.58 63.57 67.02 66.01 65.99 66.06 66.18 66.26 66.07
63.50 65.06 66.25 66.41 66.99 66.96 68.22 67.61 66.98 67.08 66.43 66.06 65.62 64.74 64.14 62.09 62.17 63.93 63.15 65.04 66.43 67.12 67.23 66.90 67.38 67.69 66.72 64.01 63.04 64.56 63.20 62.20 61.34 60.58 60.02 65.86 67.28 66.62 66.33 65.97 65.98 66.08 66.26
62.81 64.34 65.91 66.39 66.77 66.77 66.26 66.25 65.80 65.91 64.91 64.42 63.89 63.46 63.02 62.65 61.78 61.87 62.46 62.81 62.51 63.92 63.43 64.71 65.11 65.09 63.48 62.93 61.87 61.37 61.23 60.94 60.32 60.50 62.55 66.25 67.89 67.52 67.40 67.35 67.47 66.60 66.62
61.14 63.24 65.25 66.04 66.43 66.49 66.62 65.74 65.11 64.44 64.22 63.26 63.60 63.58 62.44 62.20 62.10 62.10 62.33 62.92 62.92 63.04 62.66 63.24 63.20 64.00 64.08 63.97 63.52 62.96 62.70 61.82 61.56 61.72 61.86 64.85 67.41 68.67 68.14 68.10 68.62 68.22 67.34
60.27 61.53 62.89 64.63 65.70 66.38 66.12 65.95 65.16 64.21 63.95 63.87 64.30 64.51 63.97 63.39 63.46 63.67 63.63 63.69 64.75 64.66 64.33 63.65 63.64 63.73 63.53 63.46 62.90 62.85 62.94 61.85 61.83 62.26 62.07 63.35 65.68 67.97 69.00 68.61 68.36 68.14 67.99
60.15 61.40 62.50 63.18 64.44 65.90 65.77 65.33 64.95 64.45 64.58 64.44 65.03 64.88 64.79 63.79 63.30 63.39 64.15 64.17 64.01 63.96 63.84 63.37 62.59 61.47 60.80 60.53 60.16 59.45 59.24 59.43 59.95 60.38 61.45 61.33 64.39 66.35 68.13 69.21 68.62 68.53 68.41
57.02 57.78 58.52 59.78 62.87 64.12 65.04 65.43 64.77 64.40 64.78 65.11 65.30 64.19 64.48 64.75 63.42 64.45 63.44 62.50 62.07 60.25 58.96 57.26 56.40 56.16 55.72 56.86 56.12 57.71 57.88 58.09 58.42 58.44 59.04 59.90 61.03 62.69 65.60 68.32 69.09 68.88 68.66
56.51 57.86 58.54 59.46 58.77 62.72 64.51 64.71 64.97 65.14 64.20 63.22 63.24 64.43 62.58 62.43 61.92 59.17 55.85 53.17 53.74 53.88 52.91 51.96 51.56 51.46 50.98 50.96 51.79 52.48 52.64 53.47 54.20 56.06 57.17 58.04 58.74 60.10 62.72 65.77 66.67 67.47 67.71
56.96 58.15 59.01 59.35 59.69 62.68 64.11 63.58 63.51 62.32 61.76 59.38 57.40 54.74 54.18 54.28 54.28 53.25 52.00 51.02 51.05 51.73 51.05 50.55 49.53 49.53 48.88 49.57 50.35 49.58 50.39 50.97 51.14 53.72 53.28 52.26 52.72 53.76 54.87 58.83 61.65 63.36 65.00
58.30 59.48 59.90 61.07 61.77 62.58 62.12 61.96 58.06 56.05 54.97 53.69 52.48 51.69 51.72 51.25 51.24 50.47 50.22 49.57 49.57 49.26 48.60 46.76 45.65 46.50 46.24 46.32 47.70 48.28 47.51 48.48 49.44 48.84 48.93 49.95 51.07 51.97 52.68 53.25 53.40 56.41 60.30
58.98 59.19 59.99 60.59 61.25 61.66 60.92 57.00 54.85 53.09 52.27 51.39 50.88 50.05 49.05 48.53 48.90 47.41 47.30 46.94 46.59 46.16 45.12 45.06 43.96 43.19 43.29 43.90 42.85 43.32 43.98 46.16 46.45 46.99 48.18 49.34 47.98 49.53 48.92 50.00 51.16 50.47 51.75
56.54 58.01 59.32 59.33 58.02 57.82 56.95 55.58 54.36 52.08 51.10 50.24 49.53 48.34 47.04 45.69 45.59 45.63 44.07 43.94 43.61 44.02 43.07 42.55 41.92 41.87 42.45 43.24 40.04 40.01 37.60 40.14 43.25 45.07 45.84 46.22 45.16 46.44 47.13 48.18 46.63 46.50 48.40
53.27 53.64 54.85 55.02 55.65 56.25 55.51 54.94 53.08 52.38 50.24 48.36 47.88 46.59 45.58 44.15 43.53 43.23 42.91 42.27 41.89 42.24 41.29 40.94 40.66 40.62 40.19 41.51 41.10 38.10 35.06 34.71 38.65 41.92 42.92 42.97 43.13 44.06 43.98 44.72 45.35 45.52 46.01
52.05 53.07 53.64 54.19 54.11 54.37 53.49 51.95 49.60 47.38 45.87 46.49 46.07 45.60 44.34 43.39 41.99 42.23 42.13 41.51 40.69 41.09 39.51 39.67 41.81 39.93 40.13 38.59 39.58 42.00 38.79 38.12 35.67 34.82 38.97 40.89 40.80 41.91 42.06 42.94 43.82 44.52 44.47
51.73 50.56 50.40 50.60 50.75 50.74 50.33 49.61 48.08 46.31 45.75 45.39 44.55 43.00 42.20 41.67 41.05 41.14 41.00 40.09 39.38 39.61 38.59 38.30 38.09 38.12 39.50 38.42 37.66 37.24 36.94 36.37 36.87 34.88 33.19 35.47 38.71 40.00 41.32 42.25 42.34 42.99 42.49
50.65 49.93 48.99 48.92 49.01 49.11 48.33 47.59 46.42 44.94 44.06 42.58 41.23 40.31 39.95 40.18 40.06 39.46 40.38 38.78 38.42 38.16 37.55 37.64 37.33 37.25 37.47 37.41 37.33 36.47 35.89 34.16 34.34 34.50 33.76 34.20 34.60 37.14 39.85 40.55 40.46 39.75 39.94

GFSSE_sfc_wetblb_009.txt.gz
Wetbulb
66.25 71.19 75.06 74.07 74.32 73.71 73.29 72.03 70.05 69.13 67.75 67.12 68.22 69.95 70.38 68.83 67.70 67.59 68.06 67.41 66.91 66.49 67.09 68.59 69.10 69.65 69.51 69.12 68.68 67.80 67.89 67.11 66.30 65.39 65.20 65.37 64.97 65.93 66.64 66.72 64.89 65.11 66.87
68.80 71.62 74.54 74.00 73.52 73.27 72.92 71.37 69.86 68.86 67.77 66.89 67.02 67.23 67.36 67.46 66.64 67.16 66.97 66.95 66.38 66.11 65.76 66.78 67.22 67.49 68.02 67.99 66.87 66.15 65.92 65.88 65.02 64.77 66.03 66.44 65.77 65.71 66.24 65.86 65.37 64.34 66.76
69.95 72.00 72.81 74.39 74.07 73.43 72.38 70.58 69.63 68.61 67.81 66.64 66.47 66.60 66.29 66.00 66.28 67.15 66.73 66.06 65.79 65.75 65.24 65.17 64.88 65.34 65.59 66.55 66.89 67.05 66.67 65.01 64.45 64.84 65.55 62.74 61.94 65.15 66.65 66.29 65.68 65.55 66.47
70.13 71.01 71.75 74.26 74.14 73.29 72.05 70.70 69.59 68.68 67.62 66.91 66.15 67.38 65.60 66.05 66.07 65.64 65.85 66.40 66.04 65.08 64.63 64.57 64.09 63.68 64.49 65.21 65.92 66.04 66.30 65.59 64.48 65.63 62.76 62.39 61.09 65.69 67.19 66.48 65.97 65.45 66.34
68.53 69.95 71.34 74.17 74.04 73.45 71.92 70.74 69.93 69.27 67.85 67.07 66.29 65.80 67.26 67.56 68.18 67.07 66.56 67.02 66.12 65.25 64.42 64.21 64.10 64.19 63.83 63.68 64.10 65.02 65.59 65.66 65.36 64.88 61.16 60.56 58.33 62.33 66.64 66.09 65.66 65.83 66.18
67.57 69.85 72.83 73.78 74.21 73.23 71.80 70.43 69.96 69.38 68.66 67.42 66.94 66.53 66.83 68.33 68.57 69.52 68.19 67.75 66.41 65.79 65.05 64.47 64.48 64.86 65.37 65.52 65.48 65.20 64.80 64.89 66.90 61.54 58.45 59.06 60.22 63.36 64.83 66.23 66.12 66.03 66.26
68.18 70.05 71.93 74.05 73.77 72.71 71.49 70.71 70.07 69.36 68.64 67.52 67.22 66.93 67.30 68.84 69.15 69.17 68.12 67.43 66.87 66.27 65.73 65.16 64.63 64.83 65.59 66.33 67.17 66.68 66.40 66.73 62.64 59.43 57.99 58.20 58.73 65.22 65.64 65.37 66.06 66.44 66.65
69.19 70.69 71.69 72.78 73.05 72.89 72.37 71.30 70.59 69.84 68.88 68.30 66.94 67.06 66.75 67.58 68.78 69.37 69.05 67.61 66.86 66.25 65.99 66.42 66.05 66.07 65.41 66.09 66.60 67.10 67.65 66.86 63.66 60.25 59.25 57.82 61.26 65.54 66.84 66.33 65.68 65.89 66.62
69.03 69.99 70.07 70.24 71.35 71.78 72.00 71.81 71.46 71.10 70.39 69.24 68.19 67.03 67.87 67.20 67.29 68.05 69.39 68.11 67.21 66.60 66.49 66.95 67.05 66.59 66.42 66.07 66.21 67.19 67.36 67.00 63.56 61.63 61.36 59.24 62.49 65.72 66.72 67.16 66.91 66.47 65.96
66.95 67.80 68.65 68.88 69.58 69.92 69.66 71.09 70.68 70.59 70.25 69.87 68.80 67.94 67.03 66.68 66.61 67.91 68.28 68.25 67.21 66.98 66.94 66.24 66.12 66.60 66.86 66.88 66.76 67.24 66.77 66.57 63.55 62.29 61.47 60.34 64.81 66.54 66.80 66.72 66.94 66.86 66.69
64.50 65.26 66.77 67.84 67.61 68.41 67.57 68.88 69.68 69.47 69.02 68.35 67.35 66.53 65.58 63.12 62.54 64.02 65.54 66.32 67.13 66.27 66.46 66.58 66.98 67.27 67.75 67.15 67.24 66.97 66.13 62.85 61.81 61.34 60.74 62.99 65.63 67.08 67.13 68.01 67.91 66.62 66.85
62.45 63.81 64.98 66.31 66.77 66.93 68.11 67.36 66.89 67.13 66.57 65.81 65.16 63.88 63.68 62.46 61.36 63.62 63.21 65.30 66.34 67.01 67.34 67.24 67.67 68.47 67.28 63.98 62.91 64.29 62.30 62.21 61.50 61.03 60.80 64.25 66.45 67.65 67.95 69.17 68.81 67.98 66.87
62.61 63.43 64.79 64.35 65.60 65.11 66.68 66.21 65.23 64.74 64.62 64.36 64.09 63.57 62.97 61.35 60.44 60.67 60.96 61.71 61.01 62.65 62.54 63.60 62.94 64.23 64.45 63.78 63.24 62.46 62.17 62.32 61.95 61.86 62.61 65.49 67.62 68.16 68.49 69.61 69.52 69.30 68.90
60.81 63.18 64.48 65.17 64.70 64.96 65.09 65.27 64.12 64.69 63.41 61.77 62.36 62.03 60.91 60.71 60.66 60.74 61.06 61.55 62.46 63.36 63.29 63.51 63.56 63.44 63.32 63.16 62.63 62.34 62.12 61.58 61.04 62.26 62.64 63.97 66.80 68.18 68.53 69.43 69.24 69.10 69.04
59.19 61.84 63.25 64.22 64.64 64.91 64.44 64.43 63.42 62.50 62.60 62.39 62.59 62.87 62.74 62.38 63.61 63.38 62.68 63.66 63.57 63.57 63.24 62.53 61.71 60.21 58.84 58.08 57.78 57.09 57.29 58.25 58.62 58.89 58.94 61.88 64.43 66.30 67.14 67.76 68.97 69.17 68.93
58.39 60.38 62.49 63.21 64.63 65.14 64.43 63.86 63.34 63.60 63.99 63.33 64.88 64.69 65.00 63.04 62.25 63.38 63.04 61.97 61.07 59.28 56.46 53.99 52.34 52.32 52.20 52.78 52.41 52.71 54.65 55.53 55.43 55.80 56.90 58.38 62.28 63.86 65.49 65.32 67.05 68.44 67.40
55.45 56.78 58.91 61.31 63.69 64.26 64.57 63.91 64.39 63.28 65.11 64.62 64.16 63.85 63.94 64.02 62.99 60.85 54.58 52.51 53.48 51.85 50.95 50.45 49.88 50.11 49.69 50.55 49.31 51.03 50.05 49.06 50.43 50.54 52.37 53.11 55.10 57.85 59.83 61.39 63.14 63.47 66.48
55.48 56.45 57.11 59.20 61.09 63.35 63.91 63.70 64.44 64.24 63.35 60.82 56.78 55.36 54.60 54.15 54.10 53.08 50.28 48.80 49.61 49.91 48.70 47.90 47.24 46.53 46.29 46.62 46.47 45.69 46.03 48.26 47.19 48.05 49.97 47.90 47.99 50.79 54.63 58.48 58.34 60.57 58.69
55.57 56.45 56.81 56.20 59.17 62.78 62.18 61.54 58.54 56.36 55.64 54.89 53.81 52.26 50.51 50.56 50.57 49.54 48.11 47.15 47.54 47.40 45.63 45.19 44.07 43.07 42.92 43.18 44.32 44.47 44.44 43.86 45.76 47.69 45.51 46.22 47.95 47.33 48.22 52.45 55.82 54.90 55.40
56.25 57.05 57.53 57.67 60.99 60.79 56.48 55.75 54.74 53.24 51.80 50.96 49.09 48.38 48.03 48.10 47.23 46.65 45.75 44.61 45.26 44.49 43.09 42.18 41.08 41.77 41.64 41.35 45.05 43.25 41.83 43.40 43.33 42.57 43.70 46.42 45.41 45.79 45.64 46.01 45.67 46.05 51.83
56.75 57.62 58.49 60.02 60.19 57.75 54.87 52.88 51.34 49.15 48.56 47.87 46.96 45.96 45.05 44.93 44.79 43.27 43.32 42.68 43.10 42.07 40.72 41.20 40.66 40.44 40.67 41.27 39.53 39.42 40.81 42.54 40.74 41.84 42.84 43.18 43.63 43.35 44.61 43.44 43.95 44.23 45.03
55.93 56.66 56.88 56.79 56.97 56.17 55.01 53.00 51.19 49.40 47.38 46.68 45.71 43.56 42.90 42.56 42.89 42.95 41.25 40.77 40.70 40.67 39.61 39.06 38.92 39.02 40.14 40.01 37.12 36.10 34.31 36.48 39.10 41.00 40.55 41.65 39.93 41.82 41.65 42.44 42.34 43.01 42.97
51.97 52.63 53.70 54.13 54.43 54.00 53.27 52.13 50.59 48.78 47.07 45.46 43.88 42.36 41.37 41.53 41.67 41.27 40.57 39.73 39.51 39.30 38.03 37.54 37.63 37.35 37.21 38.34 38.17 35.82 32.24 31.25 35.02 37.72 38.00 38.34 38.87 38.44 40.05 40.75 42.00 42.16 42.54
50.34 51.80 52.75 53.48 53.29 52.68 52.05 50.61 47.91 45.85 44.33 44.26 43.71 41.88 40.44 40.33 39.98 40.54 40.10 39.04 38.38 38.34 36.58 36.81 38.46 36.62 36.58 35.63 37.25 39.72 35.88 34.47 31.61 30.23 35.29 36.96 37.47 39.02 38.77 39.70 40.55 41.03 40.91
48.97 47.88 47.94 48.73 48.92 48.72 48.50 47.26 46.12 44.49 43.65 43.18 41.31 39.92 38.78 38.32 38.97 39.38 38.79 37.68 37.11 37.08 35.79 35.55 34.98 34.83 35.68 34.79 34.99 35.11 33.75 33.69 32.74 30.76 29.36 31.53 36.38 37.35 38.45 38.47 38.06 39.22 38.65
47.24 46.60 46.55 47.27 46.27 46.48 46.67 45.99 44.55 42.38 40.79 39.70 38.38 37.55 37.54 37.53 37.35 37.39 37.97 36.33 35.83 35.70 35.19 35.12 34.63 34.19 33.74 33.73 33.73 33.74 32.96 31.64 32.01 31.62 30.26 31.25 32.16 34.37 36.79 37.63 37.27 36.94 37.78

GFSSE_sfc_wetblb_012.txt.gz
Wetbulb
66.58 71.01 75.13 74.27 74.16 73.67 72.93 71.04 70.14 68.93 67.80 68.43 68.79 70.00 69.76 69.09 68.38 67.78 67.95 66.92 66.35 66.21 66.66 68.58 69.07 69.71 69.40 69.40 68.55 68.11 67.08 66.26 65.95 65.07 64.88 65.46 65.33 65.29 66.15 66.52 65.91 64.11 67.78
68.71 71.86 74.77 74.54 74.42 73.63 72.76 70.91 69.92 68.46 67.54 67.56 67.95 70.28 68.60 68.05 66.82 66.28 66.81 66.50 65.63 65.49 64.93 66.29 66.93 67.14 67.71 67.95 66.75 66.13 65.77 65.58 64.81 64.41 65.30 65.73 65.30 65.20 66.16 66.86 65.64 63.62 66.73
70.33 72.02 72.81 74.43 74.33 73.32 72.25 70.57 69.57 68.57 67.26 67.00 67.32 67.36 66.94 66.43 66.74 66.82 66.66 65.88 65.60 64.93 64.41 64.35 64.65 65.04 65.12 65.98 66.24 66.19 66.17 64.81 64.37 64.45 65.58 62.14 61.22 65.27 66.06 67.05 66.21 65.93 66.17
70.69 71.81 71.82 74.17 73.94 73.00 71.55 70.45 69.41 68.51 67.65 66.82 66.84 66.33 66.68 66.26 67.43 66.47 65.70 65.96 65.94 64.83 64.03 63.92 63.49 63.12 63.89 64.70 65.43 65.91 66.06 65.87 64.78 65.60 61.90 61.61 61.27 64.97 66.36 67.35 66.94 66.16 65.82
69.98 70.96 71.85 74.21 74.20 73.03 71.65 70.44 69.51 68.59 67.77 66.93 66.76 66.67 67.35 67.51 67.55 67.39 65.66 66.89 66.14 65.19 64.29 64.00 63.90 64.07 64.04 63.81 64.06 64.34 65.33 65.69 65.51 64.72 60.39 59.51 58.71 61.78 66.43 67.21 66.44 66.58 66.22
68.00 69.05 72.18 74.14 74.10 73.46 71.89 70.47 69.91 68.95 67.82 66.96 66.75 66.65 67.25 68.08 68.67 68.83 68.13 67.68 66.65 65.86 64.86 64.36 64.25 64.58 65.25 65.80 66.08 65.92 66.09 65.54 66.56 60.87 59.06 58.18 59.62 63.81 65.53 65.77 66.66 66.27 66.20
66.48 68.71 72.10 73.97 74.13 72.99 71.11 70.42 69.95 69.29 68.66 67.07 66.84 67.10 67.72 68.33 68.90 69.19 69.12 67.59 66.79 65.99 65.32 64.91 65.24 65.02 65.34 65.80 66.74 67.22 67.00 67.26 63.15 60.07 58.77 57.58 57.56 64.68 66.05 66.40 65.90 66.10 66.49
67.88 70.00 71.29 73.14 73.20 72.37 71.50 70.89 70.06 69.27 68.68 67.68 67.13 67.56 67.62 67.49 68.54 69.28 68.27 67.38 66.78 66.04 65.77 66.33 66.19 66.58 66.39 65.83 66.03 66.46 67.30 67.23 64.18 60.98 60.14 58.87 61.35 65.06 66.03 66.59 67.06 66.35 66.03
69.12 69.87 70.10 71.29 71.44 71.82 71.63 71.35 71.05 70.06 69.54 68.82 67.87 67.54 68.02 67.69 67.47 68.55 69.16 68.00 67.45 66.63 66.47 66.46 66.83 66.42 66.44 66.73 66.75 66.53 67.32 66.94 63.76 62.07 62.05 60.48 63.04 65.90 66.06 66.31 67.01 67.15 67.03
68.65 69.30 69.03 69.23 70.36 69.69 70.11 70.87 70.74 70.59 70.13 69.72 68.92 67.79 67.66 66.77 66.48 67.99 68.99 68.58 67.39 67.17 67.19 66.87 66.14 66.48 66.96 67.17 67.20 67.76 67.18 66.46 63.00 62.18 62.03 61.41 65.25 67.06 67.56 67.42 67.22 67.29 67.36
66.61 67.66 68.64 68.21 68.42 68.68 68.48 69.16 69.97 69.99 69.52 68.75 67.58 66.54 65.27 62.40 62.06 63.49 65.45 66.21 67.62 67.51 66.66 66.80 67.17 67.66 68.15 67.48 67.53 67.27 66.32 63.23 61.55 61.31 61.00 63.40 66.00 67.76 67.84 67.83 68.69 67.77 67.26
62.62 64.55 67.06 67.46 66.98 67.38 68.91 67.34 66.97 67.12 66.52 65.44 64.86 63.28 63.26 62.00 60.91 61.83 62.75 65.61 67.26 67.29 67.50 67.47 67.88 68.54 67.39 64.56 64.36 64.81 63.33 62.87 62.52 61.87 61.59 64.34 66.59 68.46 68.53 69.35 69.20 69.14 69.14
62.64 64.10 65.60 66.35 65.83 66.19 65.91 65.90 65.35 64.90 64.61 64.35 63.81 63.09 62.58 62.32 59.64 60.85 59.98 60.78 60.58 61.67 61.66 62.82 62.42 62.76 63.53 63.27 62.43 61.81 61.12 60.36 60.38 60.34 62.00 65.11 65.90 67.11 67.43 67.59 68.83 68.83 68.88
60.57 62.90 64.63 65.48 64.82 65.09 65.65 65.55 64.72 63.98 63.38 62.77 63.23 63.06 61.64 59.15 59.44 59.71 61.58 62.58 62.60 63.39 62.79 62.32 60.00 58.01 56.05 55.54 55.22 54.09 54.57 55.68 57.18 58.34 59.29 61.80 62.65 63.69 64.52 65.22 66.07 68.00 68.99
59.35 62.32 63.17 64.00 64.63 64.67 65.07 64.57 63.46 63.31 62.91 61.99 61.54 61.18 61.05 60.98 61.96 62.87 62.40 62.20 60.06 58.31 55.81 53.69 51.29 51.11 50.41 50.95 50.44 50.28 51.13 50.53 50.86 52.45 53.01 58.47 61.07 59.68 60.65 62.29 63.22 64.63 66.36
58.79 62.05 62.73 63.79 64.10 64.38 63.93 62.89 62.11 62.94 63.72 62.37 63.72 64.03 64.30 62.74 61.87 59.80 55.20 55.48 54.04 52.98 51.52 48.55 48.16 47.21 46.86 47.27 47.68 48.09 46.90 46.69 47.32 47.56 49.61 49.96 56.80 56.71 58.38 59.36 60.15 61.79 61.26
57.03 60.04 61.79 62.76 64.07 63.96 63.69 63.09 63.23 63.75 64.48 63.12 59.65 58.49 59.96 59.60 54.80 53.17 52.12 51.64 50.35 48.12 47.31 45.91 45.07 44.97 44.84 45.56 43.95 44.95 44.84 44.49 45.25 45.40 47.12 45.94 47.40 53.25 54.62 55.88 57.59 56.36 56.28
54.62 56.78 58.50 62.61 63.33 63.46 63.09 63.91 63.87 62.49 58.28 55.11 54.05 53.56 53.34 52.98 52.57 50.32 47.56 46.81 46.52 45.23 44.47 43.29 42.88 42.46 42.07 41.70 41.09 42.10 41.51 42.97 43.98 43.40 43.99 43.71 45.70 45.70 48.62 52.58 51.98 52.27 53.20
54.63 55.44 55.37 57.97 62.16 62.66 59.82 57.61 56.39 55.23 53.63 52.48 51.86 50.97 49.96 48.73 48.80 46.43 44.77 44.58 44.27 42.92 41.97 41.97 40.73 40.59 39.73 40.03 41.91 41.87 39.62 40.75 42.54 42.11 39.05 42.03 43.50 43.72 43.24 47.33 48.34 48.57 50.65
54.45 55.01 54.95 55.92 60.20 55.60 54.52 54.12 52.72 51.03 49.98 49.28 46.75 46.88 45.92 45.14 45.07 43.95 42.51 42.79 42.51 41.26 40.25 39.64 38.77 39.39 39.47 38.88 42.80 41.25 38.34 40.79 39.29 38.70 38.89 41.87 40.60 40.45 41.20 40.25 40.58 42.39 48.63
55.10 55.96 55.48 58.64 54.52 54.37 52.70 51.17 50.86 48.41 46.93 43.96 44.05 43.70 43.31 42.91 42.59 41.62 41.08 41.03 41.04 39.52 38.20 38.87 38.42 38.22 38.53 38.56 37.06 36.65 38.28 38.63 36.74 38.79 38.60 37.06 39.56 39.35 39.69 40.32 40.89 40.99 41.29
55.41 56.27 57.42 56.67 53.85 53.59 52.50 49.56 47.97 47.37 45.47 43.18 41.88 40.95 41.32 41.46 41.66 41.39 39.65 39.32 39.06 38.37 37.14 36.80 36.61 36.48 37.85 37.59 34.88 34.16 32.11 34.38 36.42 38.11 37.14 37.82 36.94 38.06 38.93 39.93 39.07 39.91 40.01
53.44 53.76 54.60 53.75 53.15 52.63 51.07 50.06 48.40 46.79 44.61 42.05 40.39 39.44 39.59 40.27 40.49 39.94 38.91 38.27 37.71 37.08 35.76 35.58 35.23 34.93 34.26 35.97 35.69 33.93 30.11 28.74 33.04 34.78 35.85 34.98 36.94 35.67 37.61 37.83 39.05 39.54 39.29
50.67 51.79 52.46 52.64 51.78 51.10 50.57 48.32 46.80 44.74 42.22 42.08 40.66 38.71 38.14 38.79 38.87 39.05 38.41 37.32 36.52 36.24 34.64 34.95 36.37 34.42 33.77 32.30 34.73 37.48 34.21 33.00 28.85 27.91 32.77 35.35 33.99 35.66 35.11 35.35 36.92 37.81 38.02
49.91 49.81 50.40 50.63 50.12 49.09 48.28 47.13 45.25 43.22 42.30 41.16 38.94 37.08 36.57 36.68 37.57 37.69 37.11 35.99 35.39 35.26 33.96 33.54 33.09 32.47 33.30 32.07 32.42 32.37 31.35 31.70 31.20 28.84 27.08 29.25 33.53 35.01 36.22 36.02 35.00 36.54 36.54
46.37 46.70 47.25 48.52 46.65 46.81 46.26 44.77 43.68 41.70 39.65 38.34 36.82 36.06 35.94 35.73 35.92 35.77 36.27 34.69 34.08 33.85 33.41 33.31 32.65 32.06 31.52 31.57 31.27 30.84 30.71 29.29 29.45 28.36 28.18 28.74 28.79 31.95 33.60 35.08 34.82 35.44 35.05

GFSSE_sfc_wetblb_015.txt.gz
Wetbulb
65.40 68.66 75.04 74.15 74.20 73.42 72.52 70.79 70.02 68.84 68.43 68.12 68.35 69.71 70.41 69.57 68.78 68.25 67.48 66.82 66.40 65.69 66.20 68.43 69.30 69.86 69.81 69.50 68.95 68.35 66.75 65.76 65.18 65.19 65.03 64.82 65.20 65.01 65.51 66.40 66.51 63.64 67.37
67.30 70.69 74.81 74.41 74.04 73.30 72.13 70.76 69.74 68.28 68.00 68.00 68.66 69.89 69.79 68.72 67.90 66.99 67.35 66.00 65.88 64.53 64.62 66.30 67.07 67.39 68.05 68.00 66.60 66.16 65.73 65.10 65.07 64.99 65.50 65.02 64.49 64.65 65.43 66.45 65.97 63.09 66.31
69.14 72.10 73.21 74.61 74.73 73.22 72.05 70.70 69.30 68.07 67.35 67.25 67.94 69.72 67.36 66.59 65.53 65.93 66.36 65.46 64.86 64.61 63.93 64.29 64.91 65.48 65.58 65.99 66.43 66.30 66.15 65.01 64.58 64.85 65.38 60.73 60.51 65.20 66.23 66.36 66.77 65.96 66.33
70.72 71.73 71.57 74.63 74.16 73.21 71.73 70.46 69.38 68.09 67.10 67.15 67.08 67.13 66.31 65.98 66.48 65.98 65.67 65.49 65.24 64.67 63.98 63.82 63.70 63.32 63.59 64.26 64.97 65.67 65.93 65.96 65.24 65.57 60.99 60.51 60.22 64.29 66.50 66.73 67.02 66.84 66.59
69.70 70.98 71.30 74.21 73.69 72.76 71.53 70.50 69.37 68.47 67.27 66.81 67.44 66.56 66.51 66.91 66.75 66.51 66.52 66.51 65.99 64.91 64.24 63.88 63.82 64.10 64.40 64.38 64.49 64.36 64.29 64.68 66.08 64.37 60.71 59.11 58.01 62.38 65.70 67.34 66.83 66.42 66.79
68.38 69.36 71.99 74.00 73.99 73.17 71.47 70.50 69.53 68.53 67.71 66.96 67.10 66.95 67.27 67.99 68.39 68.27 68.78 67.97 66.50 65.67 64.65 64.26 64.05 64.05 64.56 65.47 66.18 66.48 66.23 66.17 66.61 59.98 58.72 58.17 58.67 62.48 65.60 66.09 66.05 66.68 66.49
67.01 68.30 71.51 74.06 73.93 72.84 71.62 70.46 69.90 68.92 67.99 67.02 66.77 67.13 67.59 67.90 68.55 69.52 69.22 67.66 66.68 65.68 65.05 64.73 65.05 65.17 65.20 65.31 65.90 66.29 66.49 66.62 63.62 60.60 59.52 58.46 57.60 64.42 65.62 66.28 66.81 66.34 66.03
66.92 68.52 71.39 73.14 73.57 73.06 71.67 70.85 70.16 69.40 68.75 67.04 66.78 67.30 67.78 67.25 68.55 69.07 68.51 67.43 66.92 65.98 65.77 66.09 66.22 66.35 66.59 66.52 66.18 66.01 67.07 67.00 64.32 61.34 60.64 59.83 61.89 65.70 65.78 65.93 66.55 67.29 66.98
67.33 68.76 70.00 71.38 72.12 71.72 71.27 71.08 70.79 69.69 69.16 68.40 67.82 67.89 68.18 67.91 67.62 68.93 68.83 67.76 67.26 66.90 66.53 66.62 66.88 66.45 66.27 66.72 67.06 67.24 67.55 66.90 63.75 62.00 62.12 61.28 63.66 66.72 67.31 67.03 66.90 67.29 67.46
67.73 68.76 69.14 69.68 70.11 69.39 69.34 70.56 70.39 70.00 69.76 69.47 68.53 67.78 67.75 66.97 66.56 67.84 69.20 68.67 67.75 67.35 67.16 67.20 66.74 66.68 67.24 67.57 67.56 68.01 67.41 66.77 63.22 61.79 61.39 61.32 65.48 67.54 68.32 68.20 68.26 68.11 68.00
67.16 67.52 68.65 68.90 69.09 68.94 68.89 69.10 70.04 69.91 69.27 68.74 67.74 66.43 65.32 62.03 61.80 62.98 65.14 66.29 67.28 67.40 67.39 67.04 67.46 67.82 68.25 67.41 67.45 67.14 66.12 63.62 63.37 62.22 61.36 63.63 66.10 67.85 68.71 68.88 68.66 68.50 68.63
64.82 65.70 67.56 67.47 67.62 67.12 68.92 67.28 67.10 67.65 66.72 65.75 64.78 62.82 62.56 61.12 59.97 60.99 62.21 64.88 66.61 67.54 67.15 66.87 67.39 67.23 64.66 63.40 62.87 63.11 60.78 59.72 59.78 60.15 60.32 64.41 64.56 66.35 66.83 66.83 66.99 67.25 67.77
64.34 64.77 66.85 66.61 66.47 66.54 66.95 65.70 65.59 64.86 64.80 63.94 63.10 62.34 61.62 61.67 59.85 60.22 59.95 59.80 60.55 61.07 61.65 62.62 61.41 60.17 55.03 55.25 54.38 53.57 54.14 54.34 54.92 56.56 58.26 60.69 62.26 63.65 63.89 64.15 64.93 65.70 66.58
59.97 63.67 65.68 65.95 64.81 65.20 65.02 64.82 64.72 63.76 63.29 62.75 62.86 62.47 61.21 59.89 58.12 58.72 60.72 62.53 62.63 62.66 57.82 54.85 53.76 51.08 50.73 49.75 49.16 49.09 49.30 49.20 49.42 51.40 52.63 58.57 59.18 60.33 62.16 62.84 63.28 64.26 65.19
57.66 61.61 63.94 64.77 64.21 64.92 63.93 64.19 63.60 63.24 62.96 62.63 62.44 62.58 61.39 59.28 61.03 62.28 58.88 55.59 54.47 54.00 52.47 49.69 47.66 46.89 46.07 46.28 46.22 45.65 45.36 44.83 45.61 47.55 47.80 55.22 56.31 57.81 58.73 60.08 61.31 60.60 60.27
53.38 60.20 62.92 63.94 64.36 64.58 64.73 63.26 63.56 62.83 62.95 62.18 61.70 61.81 63.27 62.88 57.89 54.29 53.81 52.79 51.26 50.40 47.38 45.21 44.27 43.78 42.82 43.20 43.54 43.37 42.02 41.78 43.24 43.10 44.60 44.76 52.87 53.45 55.80 57.48 56.74 56.75 57.21
54.57 58.00 61.79 63.18 63.85 63.83 63.92 63.30 63.72 62.99 63.01 61.00 59.29 60.45 59.85 54.59 53.14 52.57 51.57 49.82 47.35 45.24 43.72 42.47 42.31 42.06 41.05 42.12 40.33 41.71 40.61 41.09 42.89 39.80 41.59 43.31 44.88 49.04 52.24 52.62 53.16 53.59 54.77
54.95 58.50 60.61 64.23 63.44 63.14 62.85 63.84 63.68 60.44 55.88 54.28 53.70 53.57 53.19 52.49 51.36 49.62 46.58 44.74 43.23 42.33 41.63 40.44 40.62 40.27 38.99 38.80 38.38 40.19 38.71 40.45 40.01 38.00 39.47 41.06 41.46 41.96 45.49 49.09 49.70 50.08 52.10
53.77 56.06 59.19 61.99 62.98 62.31 59.89 58.55 56.13 54.10 53.08 52.13 51.61 50.95 50.20 49.26 48.42 47.21 44.80 42.24 41.39 40.61 39.83 39.66 38.82 38.82 37.36 38.12 39.81 40.20 37.66 38.89 38.07 38.55 37.37 38.14 39.83 39.07 40.21 44.11 46.49 46.83 48.66
53.47 54.14 55.00 60.44 60.26 55.24 53.28 52.49 51.77 50.55 49.56 49.25 48.09 47.28 46.61 44.66 43.30 42.24 41.52 40.62 40.30 39.47 38.42 37.56 37.07 37.36 37.64 36.52 40.29 39.51 36.54 39.08 36.55 35.42 36.39 37.64 37.92 37.09 38.36 37.84 37.86 39.61 46.22
52.79 53.41 53.43 57.59 54.27 53.67 51.92 50.72 50.66 47.34 46.36 45.22 45.02 44.48 42.67 41.63 41.21 40.20 40.06 39.64 38.98 37.80 36.41 36.80 36.53 36.00 36.81 36.60 35.05 35.52 36.15 36.31 35.70 35.58 35.97 34.57 35.35 36.59 37.40 37.65 37.87 38.42 38.50
53.99 53.86 55.56 53.24 52.97 52.89 51.89 47.89 47.47 47.20 44.90 43.33 41.28 40.24 40.45 40.39 40.32 40.04 38.82 38.00 37.26 36.40 35.50 34.74 34.67 34.49 34.92 36.05 33.27 32.64 30.37 32.47 34.65 37.13 34.69 35.67 34.05 35.36 36.34 37.12 36.48 37.22 37.02
53.58 54.45 53.47 51.68 51.27 50.68 49.17 48.25 46.34 44.98 43.71 42.02 38.54 38.01 38.42 39.35 39.30 38.57 37.74 37.02 36.01 35.42 34.22 33.61 33.43 32.98 32.12 33.26 34.03 31.33 27.46 26.78 30.35 32.71 33.17 33.41 34.09 33.34 34.49 35.20 36.68 37.02 36.82
52.61 53.29 52.18 51.96 50.35 49.48 49.95 48.90 47.31 43.46 41.41 39.58 37.84 36.60 36.91 37.80 37.71 37.91 37.09 35.96 35.11 34.63 33.25 33.34 34.48 32.40 31.98 30.55 32.87 35.42 32.32 31.15 27.62 26.30 30.93 33.17 32.17 33.85 32.13 33.02 34.58 35.09 36.17
51.02 51.04 50.63 50.19 49.22 47.63 48.33 48.37 46.05 43.31 41.26 38.63 36.42 35.38 35.20 35.70 36.38 36.47 35.77 34.67 34.12 33.90 32.65 32.07 31.50 30.74 31.49 30.19 30.46 30.47 29.39 30.14 29.42 27.30 25.80 27.61 32.14 32.85 32.93 33.58 32.63 33.77 34.44
48.69 49.25 49.37 49.02 47.09 46.71 45.75 44.41 44.26 41.77 39.26 37.13 34.93 34.45 34.48 34.59 34.74 34.55 34.84 33.50 32.85 32.60 31.99 31.72 30.98 30.48 29.96 29.76 29.40 28.77 28.70 27.42 26.93 25.84 25.36 26.91 26.79 29.56 30.90 32.60 33.30 32.59 33.59

GFSSE_sfc_wetblb_018.txt.gz
Wetbulb
64.49 68.09 75.77 74.92 73.98 73.23 72.20 70.81 69.99 68.91 68.47 68.10 68.26 69.38 70.59 69.56 68.98 68.06 67.43 66.92 65.82 65.93 67.05 69.10 70.02 70.25 69.76 70.23 69.71 68.40 67.01 66.11 65.65 65.61 65.28 65.24 64.64 64.95 65.77 65.83 66.08 64.52 65.79
65.72 68.53 74.40 74.78 73.87 73.20 71.90 70.76 69.75 68.75 68.75 67.98 68.61 69.84 69.99 68.96 68.20 67.76 67.07 65.86 65.70 64.68 65.30 66.87 67.46 67.87 68.83 68.54 67.34 66.84 66.19 65.48 65.41 65.22 65.65 64.43 63.73 64.80 65.17 66.05 66.60 63.78 65.67
66.69 70.00 72.89 74.71 74.45 73.00 71.74 70.78 69.32 68.09 68.26 67.77 69.08 70.08 67.99 66.88 65.59 65.54 66.38 65.33 64.67 64.72 64.20 64.92 65.27 65.80 66.10 66.17 66.51 66.52 66.37 65.81 65.09 65.32 64.88 60.08 60.15 64.42 66.03 66.80 66.61 66.20 65.91
69.33 71.61 71.78 74.61 74.27 73.03 71.68 70.74 69.17 68.06 67.19 67.22 68.42 68.21 66.18 66.54 65.62 65.50 65.54 65.05 65.02 64.84 64.06 64.00 63.81 63.60 63.52 63.67 63.97 64.77 65.18 65.37 65.47 65.30 60.86 60.06 59.57 63.69 65.53 66.54 66.97 67.20 66.70
69.80 70.93 71.50 74.56 74.14 72.94 71.75 70.58 69.48 68.06 67.32 67.23 66.81 67.09 66.87 66.41 67.49 66.71 66.01 66.30 65.82 64.86 64.16 63.85 63.99 64.33 64.67 64.86 65.11 65.04 64.99 64.79 65.26 63.27 59.86 58.70 57.92 61.56 64.55 66.27 67.32 66.80 66.49
68.35 69.38 72.41 74.20 74.03 73.21 71.61 70.64 69.61 68.60 67.39 66.90 67.37 67.16 67.06 67.36 67.56 67.26 67.76 67.75 66.47 65.40 64.46 64.20 64.03 64.00 64.10 64.83 65.60 65.34 65.76 66.00 67.07 59.89 59.17 59.12 59.45 62.36 64.32 65.81 66.21 65.95 66.30
67.22 68.71 71.55 74.05 73.55 72.42 71.56 70.66 69.65 68.73 67.90 66.95 67.39 67.18 67.56 67.46 68.30 68.59 68.58 67.81 66.60 65.50 64.87 64.72 65.06 65.41 65.48 65.37 65.61 66.27 66.53 67.55 63.04 61.01 60.14 59.57 58.95 65.02 65.45 65.53 66.33 66.81 66.44
67.24 68.60 70.97 72.97 73.48 72.89 71.82 70.86 69.96 68.97 68.14 67.17 66.96 67.36 67.42 67.45 68.90 69.18 69.17 67.71 66.83 65.89 65.60 65.86 66.38 66.36 66.64 66.64 66.68 66.81 67.06 67.00 64.17 61.21 60.73 60.24 62.59 66.52 67.24 66.96 66.09 66.75 67.62
67.16 68.12 69.82 71.24 72.09 72.18 71.79 71.12 70.86 69.67 69.31 67.92 67.68 67.82 68.38 67.87 67.58 68.91 68.40 67.56 67.02 66.46 66.54 66.75 66.95 66.92 66.57 67.02 67.39 67.67 67.74 67.00 63.65 61.92 61.73 61.12 63.86 66.94 68.12 68.28 68.00 67.63 67.70
66.25 67.75 68.54 69.79 70.52 69.76 69.13 70.52 70.32 70.02 69.62 69.20 68.37 67.99 67.47 67.15 66.56 67.05 69.27 68.62 67.46 67.24 67.14 67.31 67.17 67.27 67.72 67.90 67.89 68.22 67.20 66.22 63.72 63.18 60.83 60.76 65.78 67.84 68.77 68.91 68.92 68.93 68.89
66.45 66.65 67.89 68.43 68.39 68.06 68.02 68.65 69.71 69.47 68.93 68.59 67.33 66.16 65.13 61.93 61.30 62.19 64.78 66.46 66.62 66.96 67.35 67.18 67.82 68.02 66.89 65.54 65.22 63.59 62.24 59.89 59.08 60.04 60.24 63.77 64.38 66.29 67.49 67.02 67.20 67.57 68.10
64.80 66.09 67.08 67.30 67.42 67.32 68.99 67.37 67.00 67.49 66.60 65.50 64.72 62.56 61.63 60.14 59.46 60.63 61.63 64.14 65.58 65.91 65.01 65.81 65.94 63.29 58.79 56.83 54.90 56.23 52.71 53.27 54.31 55.53 56.52 61.63 62.86 64.30 64.63 64.73 65.18 66.06 66.56
63.31 65.50 66.84 66.49 66.58 66.43 66.90 65.72 65.48 65.34 64.88 64.30 62.89 61.74 61.05 60.95 59.55 59.51 59.37 59.43 59.74 61.18 61.94 58.84 54.99 53.74 50.19 49.83 49.55 48.76 48.97 48.93 47.94 51.06 54.32 59.77 60.77 62.12 63.26 63.05 64.39 64.20 65.14
61.43 64.02 65.97 66.56 65.82 65.59 65.45 65.10 64.72 64.15 63.64 62.80 62.48 61.92 60.54 59.82 57.63 58.17 59.18 61.32 58.94 55.15 53.33 51.90 47.70 46.83 46.38 46.17 45.49 44.70 44.36 44.72 45.57 47.25 48.44 57.06 58.94 60.03 60.82 62.79 61.44 60.34 60.89
57.95 61.05 64.23 65.72 65.31 65.47 64.12 64.06 63.92 63.58 63.00 62.65 62.14 62.03 61.32 59.14 59.70 59.73 54.26 53.61 52.60 51.34 49.28 45.03 44.59 43.52 42.75 42.77 42.92 42.27 40.16 41.92 41.76 42.62 43.08 54.54 54.53 56.86 58.88 57.84 57.96 58.15 58.82
53.43 57.36 62.76 64.78 65.15 64.69 64.12 63.16 63.36 63.22 62.76 62.19 62.68 62.92 62.63 62.48 56.75 54.15 52.42 50.81 49.40 48.15 46.09 42.92 41.64 40.29 39.78 40.17 40.68 40.70 38.55 40.92 38.84 38.89 41.65 42.69 51.20 53.59 54.10 54.92 55.19 55.41 57.05
51.43 51.56 60.62 63.72 64.55 64.11 63.98 63.64 63.62 63.68 63.50 61.39 62.64 63.28 59.53 54.97 53.66 52.38 49.94 47.62 46.25 43.15 41.35 40.89 40.40 39.38 38.57 39.42 37.74 39.77 38.37 39.71 37.01 37.50 39.26 40.80 41.79 47.60 50.37 51.76 52.07 52.42 53.81
51.29 54.55 59.16 63.53 63.71 63.76 63.99 63.50 63.04 62.76 58.10 56.46 55.30 54.48 53.26 52.22 51.37 49.03 46.36 44.51 42.68 40.33 39.53 38.93 39.11 38.31 36.73 36.34 35.70 37.93 36.87 39.40 35.74 36.14 37.19 38.67 39.22 38.90 43.31 47.68 48.51 49.00 50.40
52.44 54.76 58.72 61.35 62.37 62.76 62.34 60.10 56.53 55.54 53.90 53.12 52.22 51.20 49.83 48.90 48.43 46.80 44.49 40.56 39.65 38.75 37.88 38.24 37.07 37.44 35.50 35.78 37.23 37.82 35.88 37.37 35.39 37.44 35.52 36.80 36.45 36.72 37.84 42.56 44.94 45.47 46.81
52.51 54.21 58.23 61.00 61.19 57.41 54.42 53.39 52.11 50.77 49.74 49.75 48.34 47.48 46.27 45.39 45.14 43.31 39.74 38.85 38.80 37.76 36.53 36.08 35.52 35.50 36.36 34.81 37.97 37.35 35.29 37.62 35.29 34.24 35.14 36.54 35.18 35.70 36.63 35.95 35.98 37.92 44.46
51.79 52.22 57.92 58.48 54.84 54.10 52.05 50.68 50.92 47.84 46.32 45.21 45.25 44.64 43.94 42.79 40.80 39.59 38.80 37.83 37.33 36.38 34.60 35.22 34.44 33.94 34.68 35.01 33.36 34.11 34.38 34.88 35.00 35.12 34.67 33.63 34.41 34.98 35.75 34.86 35.05 35.91 36.55
51.79 51.89 56.23 55.13 53.82 54.00 53.07 49.23 48.12 47.26 44.31 43.21 43.00 42.15 41.14 39.77 39.41 39.18 37.48 36.42 35.88 35.07 33.94 33.25 32.97 32.67 32.66 33.58 31.00 30.90 28.76 31.08 33.32 34.91 32.93 34.13 32.08 33.47 34.59 35.82 34.10 35.56 35.18
51.61 51.88 53.93 52.38 51.17 50.14 48.13 47.01 44.99 43.86 42.78 41.61 40.70 40.05 38.15 38.42 38.19 37.50 36.66 35.65 34.65 34.40 33.11 32.31 32.21 31.69 30.83 31.50 32.83 29.61 26.30 24.98 28.72 31.63 32.39 32.65 31.70 32.12 32.40 33.25 34.20 35.16 34.92
51.66 52.93 51.26 50.87 49.82 48.65 48.66 47.42 46.81 45.00 42.40 41.12 39.75 36.53 36.14 36.92 36.73 36.74 35.90 34.87 34.10 33.60 32.30 32.76 32.99 31.09 30.70 29.35 30.99 33.73 30.45 29.47 26.35 25.21 29.51 31.44 30.55 32.64 31.24 30.74 32.65 33.41 33.87
51.94 50.83 50.04 49.45 49.09 47.85 48.26 49.89 47.95 44.83 41.74 39.66 37.50 34.67 34.27 34.50 35.33 35.40 34.81 33.83 33.21 32.95 31.69 31.10 30.42 29.60 30.22 28.91 29.08 28.96 27.85 28.58 27.58 25.76 24.62 25.79 30.61 31.50 31.32 30.96 30.40 31.55 32.89
50.13 49.24 48.94 48.51 46.30 46.60 49.37 48.55 46.84 42.20 39.55 37.30 34.10 33.96 33.44 33.57 33.78 33.82 34.12 32.65 31.98 31.84 31.11 30.61 29.92 29.41 28.78 28.49 28.11 27.44 27.27 26.09 25.53 24.53 23.37 25.59 25.78 28.09 30.27 31.35 30.55 30.56 31.44

GFSSE_sfc_wetblb_021.txt.gz
Wetbulb
67.43 70.76 75.42 75.25 74.18 73.32 72.08 71.06 69.92 69.13 68.78 68.76 69.07 70.48 70.70 69.96 69.10 68.29 67.61 66.97 66.20 66.57 68.26 69.45 70.57 70.02 69.73 70.52 69.77 68.51 67.47 66.56 66.32 65.78 65.71 65.14 64.24 64.40 65.25 65.80 65.75 66.41 65.91
68.91 71.08 75.13 75.23 74.09 73.23 71.81 71.04 69.89 69.32 68.73 68.46 68.37 69.83 70.10 69.50 69.03 68.04 67.00 66.14 65.46 65.08 66.58 67.58 68.05 68.70 69.48 68.98 68.17 67.50 66.87 65.92 65.76 65.69 65.26 63.63 63.74 64.90 65.05 65.47 66.22 65.95 65.48
69.46 71.83 73.52 74.80 74.34 73.06 71.70 70.92 69.62 69.08 68.55 68.19 69.66 70.19 68.73 67.39 65.53 65.58 66.60 65.56 64.98 64.98 64.55 65.69 65.90 66.39 66.85 66.75 66.77 66.70 66.33 66.14 65.30 65.47 64.39 64.52 63.93 64.02 65.77 67.08 66.66 67.25 66.18
70.39 72.03 72.70 74.67 74.39 73.13 71.70 70.77 69.30 68.45 68.22 67.75 69.87 69.32 67.68 66.50 65.24 65.84 66.05 65.55 65.52 65.05 64.27 64.28 64.34 64.12 64.11 64.12 64.00 64.21 64.55 64.68 65.15 65.38 64.40 63.77 63.40 63.12 65.15 65.96 66.94 67.59 67.25
70.32 72.72 72.70 74.70 74.30 73.14 71.79 70.67 69.31 68.24 67.56 67.58 68.79 68.56 66.59 66.81 66.66 65.96 65.90 66.11 65.88 64.87 64.45 64.28 64.48 64.82 65.14 65.26 65.50 65.42 65.29 65.30 65.32 64.52 64.47 64.22 64.01 62.31 63.97 65.96 66.77 68.15 67.55
70.94 72.80 73.22 74.37 74.19 73.33 72.22 70.71 69.65 68.09 67.66 67.48 67.15 67.35 67.40 67.40 67.43 67.37 67.74 67.60 66.36 65.11 64.60 64.61 64.58 64.47 64.64 65.04 65.55 66.37 65.95 66.36 66.40 66.02 65.61 64.97 64.96 63.79 65.10 65.16 66.33 66.39 66.51
70.80 72.03 72.90 74.24 74.02 73.20 71.76 70.86 69.79 68.86 67.65 67.45 67.61 67.20 66.95 67.50 67.84 68.74 69.37 67.93 66.71 65.46 64.93 64.99 65.67 66.11 66.29 66.33 66.19 66.07 66.36 67.31 66.10 65.88 65.53 65.30 65.16 65.93 67.04 66.55 65.99 66.80 67.11
70.42 71.31 72.67 73.00 73.29 72.87 72.04 71.06 70.03 68.98 68.22 67.42 67.81 67.45 67.11 67.76 69.22 69.07 68.70 67.88 66.98 65.81 65.64 66.02 66.61 66.82 66.78 66.64 67.01 67.21 67.39 67.24 65.91 66.05 65.80 65.60 64.99 66.64 67.98 68.09 67.87 67.02 67.41
70.21 70.44 72.07 72.63 72.42 71.96 71.70 71.14 70.79 69.57 68.93 68.13 68.27 68.03 68.41 67.54 67.98 69.43 68.86 67.88 67.06 66.34 66.60 66.92 67.32 67.33 67.22 67.70 68.01 68.06 67.88 67.19 66.99 66.78 65.68 65.99 64.47 67.44 68.60 68.77 69.00 68.99 68.54
68.99 70.01 70.96 72.18 72.45 71.95 71.17 70.51 70.35 70.07 69.67 68.74 68.23 67.96 67.44 66.81 66.04 67.50 68.78 68.47 67.41 67.16 67.19 67.45 67.68 68.21 67.97 67.33 66.08 64.60 63.86 64.12 64.89 64.98 65.13 64.88 65.73 66.64 67.89 67.62 67.50 68.15 68.67
67.07 68.81 70.46 71.28 71.90 71.44 70.74 69.74 69.79 69.39 68.74 68.06 66.99 66.05 66.29 66.72 65.11 64.76 65.02 66.25 66.43 66.74 67.20 67.08 67.32 65.24 62.98 60.50 60.40 58.64 59.48 59.88 61.36 61.37 61.74 62.55 63.69 65.19 66.08 65.65 65.93 66.71 67.10
65.97 67.42 69.52 70.55 71.12 70.93 69.76 69.86 69.60 69.05 68.67 68.30 67.23 66.51 66.12 65.10 64.20 63.42 62.92 63.67 64.50 64.93 64.73 64.60 60.49 57.91 57.39 57.13 56.62 56.15 55.74 55.29 56.61 56.93 59.76 61.97 62.83 63.49 64.13 64.53 65.35 65.50 66.54
66.16 67.42 68.18 69.45 70.02 70.45 69.90 69.44 69.21 69.00 68.55 67.70 66.96 66.03 65.51 64.42 64.36 64.44 64.60 64.45 65.42 62.65 57.97 55.28 54.03 54.29 53.80 53.79 53.20 52.61 52.03 53.77 54.72 53.96 57.85 59.64 61.67 63.06 62.38 63.13 61.97 61.97 62.75
64.77 66.52 68.18 68.88 69.22 69.41 69.78 68.99 68.70 68.11 68.14 67.39 66.90 65.80 64.91 64.42 63.01 63.42 64.66 61.25 56.00 55.00 52.29 52.01 51.98 50.83 50.26 50.26 50.37 48.42 48.96 51.46 50.55 52.36 54.77 56.59 58.32 60.66 61.00 60.34 59.78 59.86 61.60
62.32 65.45 67.52 68.66 68.72 68.71 68.48 68.48 68.14 67.60 67.26 67.17 66.51 65.66 65.02 64.01 63.26 58.51 56.67 53.68 52.34 51.46 50.23 50.27 49.14 47.99 47.75 47.71 48.38 47.08 49.05 48.64 47.17 49.91 51.38 54.32 56.38 56.85 57.16 57.78 57.25 58.17 59.32
60.60 62.01 65.67 67.53 68.42 68.45 68.12 67.55 67.50 67.46 67.15 66.49 66.21 65.38 64.18 63.11 58.16 54.82 52.57 50.96 48.98 48.06 47.65 47.70 46.75 46.18 45.61 45.70 46.82 46.50 47.18 47.61 46.50 47.95 48.08 50.16 52.05 53.08 54.00 54.62 54.80 55.09 56.01
56.59 57.21 60.51 65.51 67.72 67.57 67.70 67.35 66.83 66.96 66.53 65.78 65.21 64.41 63.62 58.04 55.45 52.57 50.10 48.21 46.74 45.57 46.64 47.38 46.45 45.52 44.90 44.42 44.31 46.38 45.86 44.79 45.30 44.78 46.80 46.52 46.31 49.10 50.24 51.49 51.61 51.85 52.46
55.76 55.02 56.03 62.27 66.06 66.87 67.01 66.67 66.33 66.24 64.79 62.46 61.58 58.71 56.11 54.46 52.78 49.80 47.31 45.73 44.92 45.95 46.05 45.35 45.54 45.14 43.60 43.30 43.49 45.34 44.81 45.83 43.39 44.11 44.99 44.49 45.11 45.13 45.69 47.29 47.51 48.29 49.47
55.30 55.51 57.46 62.29 64.84 65.69 65.94 65.93 64.90 62.63 58.79 56.71 55.01 53.39 52.45 51.31 49.63 47.17 45.18 44.61 45.03 44.40 44.23 44.32 43.23 44.32 42.32 42.60 42.93 44.37 43.55 45.30 43.43 43.42 42.57 43.50 43.33 43.80 44.19 42.85 43.88 44.14 45.64
55.07 56.17 58.33 62.06 64.36 65.09 62.71 58.66 57.52 54.08 52.10 52.06 51.34 49.66 49.06 47.94 46.56 46.01 44.73 44.22 44.11 43.26 42.52 42.83 42.11 42.48 41.76 41.02 41.26 41.67 43.95 45.79 43.80 43.86 43.73 42.53 43.06 42.26 42.62 42.24 41.91 41.72 43.10
54.93 56.18 59.13 62.08 63.29 59.76 57.29 55.32 54.11 52.72 48.90 47.57 47.28 46.69 45.92 45.14 44.19 44.66 43.55 43.07 42.78 41.65 41.19 41.14 41.77 40.36 40.16 40.82 40.64 41.43 42.56 42.60 43.18 43.65 42.53 41.47 41.81 40.87 41.58 41.38 41.10 40.82 40.76
54.95 55.91 60.26 61.41 58.99 59.06 58.78 56.30 54.42 51.78 48.00 45.40 44.81 43.69 44.30 43.32 44.32 43.56 42.77 41.71 41.58 40.93 40.45 39.87 40.00 39.99 39.43 39.53 37.49 37.98 36.52 39.76 41.05 41.09 41.20 40.80 40.36 40.58 40.61 40.34 39.83 39.69 39.95
53.71 54.97 59.27 57.67 57.27 56.52 53.72 49.97 47.72 46.45 43.74 42.84 42.11 41.62 41.35 42.87 42.91 42.29 41.80 41.21 40.79 40.90 39.41 39.02 39.07 38.72 37.48 38.10 38.72 37.18 35.12 33.83 34.83 39.40 39.85 39.71 39.40 38.78 39.07 38.82 38.56 38.80 38.72
53.86 55.04 57.53 55.30 54.04 52.49 52.94 50.82 50.18 49.20 44.66 43.78 41.67 40.55 40.08 42.06 41.44 41.10 40.76 40.36 39.94 39.53 39.04 38.51 38.08 38.02 38.21 35.94 37.94 37.14 37.63 36.31 32.92 31.80 37.27 38.03 37.65 36.69 37.00 37.39 37.36 37.54 38.00
53.93 54.87 55.07 53.60 52.69 51.70 52.90 52.24 53.02 48.78 43.31 41.08 39.97 38.50 38.74 40.11 40.36 39.92 39.83 39.36 38.80 38.52 37.75 37.57 36.97 36.74 37.04 36.45 35.84 35.75 35.28 35.44 34.92 32.27 30.06 33.10 35.32 36.54 36.60 36.50 36.38 36.64 37.20
54.20 53.72 53.06 52.38 51.20 51.12 51.83 51.61 50.31 44.17 40.84 38.88 38.79 37.47 38.56 38.73 38.60 38.53 38.09 38.13 37.89 37.50 37.16 36.71 36.46 36.08 35.89 35.44 35.49 34.79 34.23 32.92 32.34 31.47 30.08 31.23 31.13 33.76 34.97 35.38 35.70 36.19 36.85

GFSSE_sfc_wetblb_024.txt.gz
Wetbulb
69.54 73.81 75.31 74.40 73.75 73.07 72.15 71.26 70.05 69.62 69.32 69.07 70.38 71.25 70.63 69.98 69.15 68.40 67.89 67.30 66.36 67.05 68.95 69.99 70.25 68.65 69.08 70.50 69.59 68.43 67.38 66.72 66.40 66.23 65.44 64.60 64.35 64.49 65.00 65.89 66.03 66.39 66.19
71.15 74.52 75.58 75.08 74.00 72.93 71.86 70.80 69.90 69.32 68.92 68.72 69.16 71.17 70.49 69.91 68.86 68.31 66.88 66.68 65.27 65.43 67.04 68.10 68.62 69.61 69.69 69.21 68.37 67.52 66.80 66.18 65.88 66.01 64.45 63.48 63.41 65.02 65.23 65.36 65.98 66.79 65.27
71.53 73.89 74.37 74.94 74.50 73.36 71.76 70.76 70.00 69.40 68.49 68.40 69.27 70.20 69.23 66.93 65.96 67.62 66.55 65.40 65.65 65.19 65.52 66.46 66.43 66.67 66.94 67.10 66.95 66.68 66.22 66.00 65.48 65.64 64.60 64.63 64.73 63.56 65.99 66.37 67.05 67.03 66.87
72.01 73.94 73.85 74.55 74.19 72.87 71.71 70.61 69.63 69.27 68.26 69.33 70.49 69.26 67.59 66.27 65.42 66.21 66.06 66.09 65.81 64.95 64.53 64.68 65.09 64.90 64.52 64.52 64.23 64.09 64.40 64.52 65.11 65.00 64.93 63.17 62.85 62.29 64.77 65.92 67.03 67.48 67.64
72.29 73.80 73.66 74.39 73.93 72.57 71.72 70.44 69.36 68.61 67.90 69.09 70.36 68.44 67.69 66.51 66.05 66.28 66.30 66.42 65.85 65.03 64.61 64.87 65.04 65.23 65.46 65.67 65.96 65.86 65.59 65.66 65.48 66.00 66.21 66.06 66.08 63.77 64.22 65.17 66.93 67.57 68.26
71.94 73.44 73.72 74.20 74.01 73.20 71.91 70.41 69.30 68.23 68.04 69.03 68.64 67.63 67.27 66.86 67.16 66.76 66.76 67.09 66.14 65.19 65.16 65.29 65.22 65.29 65.40 65.33 65.64 66.51 66.67 66.84 66.26 66.85 66.82 66.46 66.37 65.69 66.61 66.04 65.82 66.66 66.75
71.53 72.80 73.53 74.41 74.02 73.23 71.70 70.59 69.43 68.42 68.00 67.80 67.86 67.53 67.46 67.40 67.50 67.95 69.05 67.71 66.65 65.50 65.27 65.41 66.12 66.18 66.30 66.48 66.75 66.70 66.34 66.44 67.00 67.49 67.24 67.24 67.08 66.12 67.55 67.98 67.44 66.67 67.12
71.23 72.21 72.71 73.23 73.33 72.98 71.87 71.11 69.94 68.83 67.98 68.09 67.85 67.50 67.71 67.80 69.37 69.09 68.67 67.78 66.96 65.85 65.90 66.17 66.76 67.05 66.89 66.79 67.21 67.50 67.40 67.37 67.08 67.64 67.56 67.63 66.35 66.87 68.27 68.41 68.66 68.81 68.12
71.26 71.72 71.96 73.55 72.76 71.92 71.78 71.21 70.60 69.51 69.07 68.93 68.73 67.86 68.00 67.08 69.23 69.69 68.89 67.86 67.11 66.33 66.81 67.07 67.48 67.49 67.78 68.18 68.07 67.25 66.62 66.18 67.24 67.04 66.53 66.87 66.01 67.70 68.51 68.37 68.19 68.54 69.12
70.83 71.23 71.20 72.76 72.51 72.13 71.62 70.55 70.29 69.95 69.36 68.88 68.49 68.33 67.87 66.39 66.58 68.98 68.72 68.28 67.63 67.16 67.29 67.60 68.22 68.09 66.75 64.44 62.73 61.79 61.80 63.96 66.08 66.15 66.58 65.35 64.16 65.74 67.01 66.87 66.45 67.08 67.74
69.37 70.62 70.97 71.26 71.93 72.02 70.89 70.05 69.81 69.46 68.64 67.87 67.19 66.66 66.60 67.80 66.62 66.42 65.64 66.27 66.22 66.97 66.58 66.90 64.64 63.18 61.32 60.54 58.89 58.02 60.33 62.69 62.88 63.31 63.97 62.53 63.63 64.76 65.02 65.52 66.17 66.56 67.36
68.02 69.27 71.03 71.30 71.28 71.45 70.73 70.64 69.88 69.20 68.64 67.44 66.68 66.42 66.30 65.82 65.81 65.65 64.37 64.03 64.94 64.85 64.34 61.42 59.32 57.74 62.11 62.05 61.38 60.23 60.21 59.69 60.36 59.76 61.44 60.96 62.65 63.54 64.16 64.38 63.18 63.43 64.48
68.42 69.36 70.35 70.98 71.54 71.21 70.27 70.49 69.83 69.37 68.95 68.73 68.18 67.35 66.16 64.94 64.94 66.13 66.91 66.64 67.63 63.39 62.72 57.14 59.60 59.15 58.07 57.90 57.66 56.40 55.31 56.67 57.41 57.91 58.70 58.76 60.81 61.68 63.31 61.68 61.22 61.47 63.24
67.43 69.03 69.81 70.32 71.12 71.57 70.86 70.42 70.03 69.00 69.13 68.45 68.27 66.90 65.80 65.83 66.05 66.32 67.10 65.55 62.82 59.07 54.82 56.27 58.48 56.25 54.84 53.70 53.18 52.15 52.58 53.78 53.90 56.11 56.61 56.84 59.91 60.10 60.02 59.74 59.47 60.45 60.56
65.63 67.89 69.57 70.54 71.03 71.35 70.80 70.48 69.94 68.93 69.10 68.97 68.34 67.17 66.99 66.28 66.08 65.85 63.11 60.58 55.41 54.41 56.62 57.38 55.85 53.69 52.02 51.03 51.68 50.63 51.58 52.19 51.66 54.02 55.40 55.86 56.21 56.83 57.11 57.16 57.14 57.93 58.03
64.36 66.03 68.75 70.05 70.78 71.21 70.73 70.52 69.87 69.15 69.18 69.11 67.98 67.42 67.33 66.82 64.44 59.41 56.50 52.98 51.03 51.59 51.75 53.64 51.92 51.12 50.51 49.73 49.73 50.09 49.58 51.64 51.35 52.36 53.16 52.76 52.57 53.34 53.71 54.05 53.91 53.89 54.37
62.07 62.90 65.37 68.25 70.35 70.71 70.72 70.73 70.11 69.25 69.22 68.63 67.76 67.88 67.52 64.61 58.35 56.17 53.22 50.43 49.02 49.04 51.06 52.02 50.98 50.84 50.13 48.98 48.27 49.30 49.04 49.60 50.33 49.94 51.28 50.88 50.26 49.43 50.09 50.48 50.39 50.72 51.37
61.94 61.63 61.72 62.38 66.87 69.46 70.20 70.51 70.06 69.06 69.29 68.48 68.12 67.65 64.87 59.53 56.25 53.01 50.57 48.31 48.35 49.20 50.90 50.27 50.23 50.19 48.63 47.98 48.00 48.95 48.63 48.82 48.12 48.40 48.60 48.55 48.70 48.39 47.04 46.49 47.07 47.51 48.43
61.09 61.72 61.27 61.62 62.68 66.27 68.87 69.94 69.77 68.93 69.15 67.82 64.88 62.39 59.31 55.69 53.00 50.37 48.24 47.99 49.92 49.85 49.64 48.66 48.27 47.85 46.78 46.81 46.34 47.26 47.75 47.86 47.73 46.93 47.41 47.44 47.14 47.28 46.83 44.21 43.94 44.21 45.12
60.39 61.32 61.51 61.73 63.40 66.06 67.96 68.66 68.69 68.40 66.81 63.82 59.31 56.51 54.71 53.09 50.58 48.16 48.97 49.77 49.60 48.71 47.93 47.55 46.37 46.20 45.34 45.11 44.72 45.66 48.60 49.86 48.32 47.91 47.92 45.71 46.33 45.69 45.62 45.51 45.34 45.06 44.31
60.25 60.43 61.17 61.62 63.86 65.83 66.50 65.96 64.89 61.70 61.07 58.88 54.05 53.20 52.64 48.97 47.36 48.33 48.79 49.11 49.04 48.01 46.58 45.84 45.49 44.52 44.17 44.52 44.87 46.50 47.07 46.66 46.74 47.77 47.57 45.45 45.43 44.52 44.55 44.49 43.91 43.79 43.67
59.20 60.29 61.14 62.31 64.39 65.61 65.70 64.84 64.41 61.02 57.85 56.75 52.57 48.36 50.93 49.37 46.55 48.07 49.40 48.27 47.61 46.30 45.53 44.66 44.69 44.52 43.77 43.68 41.68 43.03 42.13 43.62 45.27 45.29 45.22 44.75 43.85 44.42 43.42 43.15 42.86 42.74 42.74
58.52 59.90 60.76 63.24 64.62 64.96 64.50 64.34 59.95 53.69 50.69 48.74 48.56 43.76 44.55 45.41 47.52 47.16 48.32 47.45 46.77 46.45 44.82 44.12 44.06 43.12 42.74 42.93 42.18 40.64 39.83 39.72 39.55 43.87 43.57 42.91 43.17 42.35 42.38 42.17 41.87 41.79 41.63
58.31 60.37 61.01 63.74 63.52 63.73 63.29 57.93 55.41 54.72 53.05 52.05 48.46 44.22 42.41 44.98 45.51 47.16 46.90 46.41 45.84 45.03 44.07 43.01 42.77 42.70 43.05 41.07 42.81 40.93 41.00 39.55 37.13 36.57 41.72 41.69 41.91 40.39 41.13 41.32 41.01 40.91 40.97
58.22 59.56 60.79 62.68 62.48 61.22 59.52 59.27 58.93 56.99 55.24 48.76 43.97 40.91 41.22 42.65 44.95 45.83 45.69 45.24 44.38 43.86 43.12 42.47 41.72 41.71 42.01 41.43 40.70 40.12 39.86 39.55 39.08 36.19 34.60 38.11 40.05 41.05 40.88 40.17 39.94 39.97 40.40
57.79 59.11 60.44 60.72 59.95 59.50 60.09 59.31 59.38 55.56 48.56 43.60 40.57 39.71 40.02 42.65 44.32 44.45 44.17 44.12 43.47 42.77 42.14 41.70 41.38 40.60 41.41 40.81 40.32 39.33 38.04 36.86 36.55 36.02 35.00 35.77 35.66 38.32 39.81 39.79 39.10 39.25 39.52

GFSSE_sfc_wetblb_027.txt.gz
Wetbulb
70.60 73.94 75.48 74.10 73.35 72.75 72.05 71.47 70.47 69.95 70.05 71.06 71.68 71.36 70.77 69.97 69.05 68.51 67.80 66.78 66.59 68.20 69.54 70.15 70.79 68.89 70.17 70.53 69.61 68.46 67.74 67.24 66.70 66.43 65.09 63.97 64.47 65.05 65.37 66.19 66.39 66.74 66.62
72.27 74.06 75.07 74.46 73.48 72.69 72.07 70.67 69.95 69.64 69.24 69.13 70.63 71.26 70.81 69.76 68.97 67.80 67.62 65.95 65.74 66.44 68.22 68.70 68.88 70.16 70.04 69.49 68.76 68.13 67.42 67.22 66.44 66.41 65.69 64.90 63.53 65.19 66.22 66.40 66.75 66.34 66.54
72.51 74.64 73.99 74.64 74.15 72.84 71.57 70.41 69.83 69.20 68.75 68.57 69.85 70.85 69.12 68.13 68.00 67.64 66.52 66.39 65.81 65.32 66.59 67.26 67.00 67.07 67.23 67.20 67.04 66.70 66.45 66.14 66.19 66.10 65.88 64.45 64.33 64.38 65.24 66.53 67.25 66.99 67.11
73.08 73.62 73.79 74.58 74.09 72.91 71.49 70.49 69.98 68.77 68.70 69.25 70.41 69.52 67.71 66.40 67.16 66.72 66.92 66.82 65.61 65.38 65.47 65.93 65.89 65.68 65.70 65.81 65.60 65.14 65.20 65.19 65.21 65.62 65.61 64.37 63.64 63.85 63.33 65.08 66.75 68.03 67.44
72.60 73.53 73.74 74.41 73.65 72.67 71.43 70.22 69.55 68.93 68.97 70.12 69.88 68.50 67.36 66.52 66.79 67.07 66.96 66.99 65.48 65.25 65.28 65.45 65.69 65.76 65.85 66.01 66.49 66.34 66.06 66.27 66.73 66.81 66.29 66.67 65.78 66.19 65.59 65.45 65.88 67.22 68.07
72.49 73.71 73.39 73.66 73.49 72.99 71.35 70.06 69.15 68.11 68.24 70.78 69.36 68.86 67.19 66.75 66.41 66.52 67.05 67.12 65.65 65.55 65.79 65.88 66.32 66.16 66.11 65.82 65.82 66.25 66.41 66.53 67.34 66.97 66.81 66.79 66.71 66.78 67.50 67.03 66.77 66.35 66.95
71.79 73.84 73.47 73.93 73.53 72.95 71.40 70.25 69.10 68.23 68.55 69.10 68.20 67.58 67.44 67.14 67.47 67.65 68.05 67.51 66.23 65.65 65.69 66.07 66.55 66.50 66.62 66.71 66.95 67.11 67.01 66.96 66.50 67.08 66.88 67.02 66.81 67.22 68.14 68.75 68.53 68.56 67.79
71.36 72.62 73.09 72.99 73.03 72.76 71.57 70.58 69.41 68.52 68.32 68.18 68.24 67.72 68.36 67.63 68.48 68.84 68.72 67.75 66.86 66.06 66.20 66.44 67.12 67.41 67.12 67.44 67.76 67.87 67.61 67.79 66.52 66.05 66.11 66.05 67.16 67.45 68.57 68.71 68.77 68.91 69.09
71.36 71.62 72.67 72.96 72.36 71.83 71.68 71.15 70.52 69.58 69.33 68.96 68.70 68.04 68.23 67.62 70.06 69.62 68.77 67.94 67.16 66.87 67.08 67.50 67.71 67.57 68.20 67.69 66.43 65.57 65.27 66.10 65.42 66.05 65.75 65.86 65.75 66.61 67.47 67.66 67.31 67.50 68.22
70.72 70.85 71.71 72.29 72.63 71.61 70.99 70.57 70.15 69.89 69.33 69.25 69.32 69.04 67.39 66.59 69.06 69.50 69.07 68.28 67.76 67.43 67.69 67.82 68.01 67.45 65.52 63.31 61.74 60.62 62.19 64.07 64.63 64.93 64.83 62.61 64.43 65.76 66.24 66.49 67.16 67.52 67.96
69.31 70.24 70.74 72.07 71.95 71.09 70.26 69.74 69.59 69.29 68.44 67.97 67.39 67.16 66.46 67.00 67.03 67.36 66.18 67.07 67.04 67.27 66.84 65.43 63.78 62.94 62.07 61.22 59.39 59.69 60.82 62.32 61.95 61.59 62.17 62.41 63.60 64.37 65.50 65.77 64.87 64.92 65.70
67.95 69.17 70.25 70.85 71.22 70.49 69.66 69.37 69.16 68.51 67.50 65.57 65.33 66.49 66.43 66.70 66.42 65.98 64.73 65.38 66.37 65.72 63.11 61.37 59.22 59.70 61.25 62.23 61.35 60.67 59.63 58.75 58.79 58.48 59.74 60.99 63.26 64.12 64.76 63.37 62.84 63.46 64.27
68.40 69.17 70.25 70.69 71.04 70.55 69.56 69.44 69.11 68.99 68.08 66.98 65.92 65.31 65.24 65.02 64.88 64.74 65.45 64.94 65.41 63.56 62.92 60.34 60.76 60.22 59.24 58.51 58.11 56.48 54.87 55.94 55.98 56.82 57.02 58.90 61.56 63.76 62.27 61.30 61.24 62.31 62.16
67.32 68.70 69.86 70.96 71.03 71.03 70.14 69.58 69.33 68.51 68.36 67.83 67.29 66.29 64.82 64.03 64.06 64.90 65.56 66.04 64.74 62.56 59.81 59.77 59.96 57.86 56.80 55.14 53.81 52.86 52.99 53.98 52.82 54.87 55.33 58.75 59.31 59.88 59.99 59.51 59.40 60.35 59.57
65.73 67.99 69.30 70.47 71.01 71.28 70.82 70.07 69.58 68.55 68.35 68.38 67.74 66.51 64.91 64.86 64.84 65.67 65.45 63.51 60.77 58.70 59.17 59.12 57.89 56.18 53.59 52.05 51.94 51.62 50.88 52.28 51.44 52.88 54.93 56.31 56.24 56.80 56.97 56.82 56.54 56.53 56.53
65.23 66.36 68.68 69.49 70.82 71.06 70.81 70.32 69.65 69.23 68.67 68.06 68.17 66.59 66.17 66.04 65.95 65.06 63.15 59.22 55.37 54.44 54.90 55.78 53.87 52.20 51.53 51.00 50.39 50.49 50.05 50.96 50.54 51.51 52.54 52.08 53.01 53.21 53.65 53.60 53.25 53.21 53.35
62.58 64.96 66.23 68.67 69.95 70.35 70.45 70.63 70.00 69.57 68.85 67.64 68.12 66.89 66.56 66.82 64.99 62.07 57.65 53.62 51.44 52.59 53.99 53.72 52.12 51.74 51.11 50.29 49.61 49.43 49.53 49.26 49.63 49.19 50.97 51.63 50.40 49.94 49.65 49.94 50.12 50.45 50.93
62.87 62.56 63.51 66.30 68.63 69.79 70.04 70.37 70.06 69.75 68.82 67.79 67.87 67.17 66.92 66.14 61.97 59.32 55.66 51.98 50.85 52.28 52.74 51.70 50.96 50.61 49.69 49.31 48.50 49.26 49.18 48.96 48.34 48.08 49.08 48.80 49.41 48.24 48.05 46.78 46.55 47.31 47.86
62.38 62.60 62.88 63.23 64.59 67.32 69.10 69.75 69.84 69.56 67.79 67.49 67.22 66.75 67.01 63.11 59.99 57.24 53.15 50.59 51.27 52.39 51.74 50.15 49.42 48.56 47.89 47.96 47.34 48.12 48.80 48.82 49.22 47.72 47.66 47.53 47.81 47.88 47.50 46.23 44.21 46.19 45.78
60.74 62.13 62.51 62.76 62.32 63.99 67.28 68.93 69.39 67.90 67.27 67.41 67.78 67.13 64.00 58.96 54.08 51.82 50.63 52.09 52.38 51.40 50.15 49.38 48.28 47.95 46.74 45.96 45.74 46.89 48.80 49.34 49.71 48.52 47.60 47.40 46.98 46.55 46.68 46.77 46.40 46.21 47.03
60.00 60.82 61.22 61.93 62.95 63.38 65.26 66.62 67.66 65.78 65.83 65.68 66.06 63.02 59.19 56.15 52.65 51.13 50.72 51.42 51.85 50.78 49.36 48.74 47.50 46.63 45.71 45.59 46.82 47.36 48.10 46.55 46.88 48.00 48.81 47.16 46.94 46.00 45.51 45.54 44.71 44.24 43.97
59.26 60.41 60.79 61.61 62.55 63.73 66.14 67.73 68.10 65.63 63.24 64.09 61.61 58.42 54.68 53.37 51.40 50.50 51.24 51.18 50.52 49.01 47.82 47.28 47.11 45.91 45.10 44.82 42.24 44.66 43.36 44.19 45.33 46.37 46.43 45.17 44.70 45.43 44.59 44.19 43.24 43.18 43.25
58.39 59.94 60.81 61.68 63.09 64.92 66.43 67.68 65.33 57.98 55.28 53.87 54.51 53.20 52.83 51.34 50.29 49.13 50.68 50.33 49.61 49.54 47.44 46.74 46.32 45.30 44.19 44.10 43.14 40.88 40.97 40.47 40.11 45.33 44.49 44.65 43.79 44.08 43.49 43.32 42.89 42.68 42.38
57.78 60.98 61.41 62.20 63.44 65.47 66.90 65.20 62.24 55.80 53.29 52.41 50.80 50.72 49.36 48.42 48.36 47.22 48.14 49.47 48.66 47.99 46.34 45.37 45.01 44.44 44.51 42.08 43.26 41.73 41.43 39.99 37.10 36.39 43.11 43.37 43.74 41.18 42.35 42.57 42.03 41.66 41.43
56.76 60.06 61.71 62.26 63.81 65.51 65.33 65.26 62.28 57.10 58.36 53.26 49.50 47.01 45.66 46.32 47.49 46.63 47.63 48.12 47.15 47.00 45.37 44.15 43.83 43.14 42.87 41.62 41.14 40.65 40.48 40.57 39.91 37.04 34.71 38.47 41.03 41.96 41.91 41.78 41.15 40.91 40.72
56.15 59.18 61.55 61.59 63.56 64.61 64.63 62.78 59.91 59.46 56.23 48.92 47.28 46.13 44.19 44.84 45.41 46.69 47.12 46.87 46.11 45.03 44.11 43.74 43.18 42.72 41.80 41.06 40.54 39.82 38.58 37.17 36.78 36.33 35.18 35.89 35.78 38.52 40.55 40.68 40.46 39.87 40.39

GFSSE_sfc_wetblb_030.txt.gz
Wetbulb
69.95 72.79 75.15 74.15 73.24 72.65 72.15 71.73 71.34 71.72 72.08 72.27 72.05 71.76 70.87 69.94 69.44 68.64 67.36 66.90 68.00 69.66 69.77 71.39 70.82 70.48 70.97 70.64 69.73 68.66 68.13 67.57 67.39 66.63 65.43 64.26 64.93 66.12 66.07 66.40 66.79 66.27 66.27
71.37 72.89 74.73 74.40 73.24 72.65 72.08 70.97 70.40 70.51 70.74 71.11 71.57 71.43 70.59 69.92 68.91 68.40 66.89 66.30 66.77 68.56 69.13 69.40 69.81 70.54 70.46 69.92 69.14 68.31 67.92 67.27 66.76 66.30 66.60 66.38 65.78 66.08 67.03 67.13 67.75 66.38 66.99
71.52 72.87 73.09 74.26 73.74 72.79 71.28 70.39 69.91 69.57 69.39 69.77 71.39 71.28 70.18 69.17 68.49 67.68 67.18 66.35 65.86 67.07 67.81 67.79 67.45 67.56 67.36 67.02 66.64 66.48 66.14 65.87 65.27 65.38 66.99 63.37 62.19 65.18 65.08 65.62 67.18 67.41 66.71
72.40 72.27 72.33 74.12 73.81 72.46 70.94 70.43 69.75 68.83 69.01 70.22 70.41 68.83 67.89 67.54 67.65 67.70 67.16 65.99 65.77 66.05 66.73 66.83 66.68 66.60 66.68 66.65 66.56 66.49 66.37 65.96 65.93 67.21 64.59 64.04 63.31 65.81 64.18 64.63 65.79 67.65 67.86
71.88 71.83 72.92 74.11 73.63 72.31 71.07 70.53 69.60 69.52 70.18 70.73 70.60 69.05 67.29 67.64 67.97 67.87 67.66 66.07 65.95 65.91 66.03 66.18 66.19 66.27 66.30 66.44 66.73 67.17 66.71 66.86 67.93 67.02 64.24 62.43 62.31 67.00 67.28 66.19 65.60 66.29 67.35
70.84 71.89 73.22 73.79 73.44 72.71 71.47 70.25 69.70 68.98 70.26 70.38 70.38 69.57 68.35 67.29 67.38 67.74 67.94 66.33 66.17 66.36 66.52 67.04 66.99 66.97 67.02 66.89 66.66 66.50 66.45 66.77 67.87 64.60 63.39 65.77 64.96 67.62 68.05 68.41 67.99 67.59 66.53
70.61 71.52 72.40 73.51 73.32 72.61 70.83 70.07 69.07 68.45 70.83 69.23 68.61 68.09 67.67 67.72 67.66 67.52 68.30 67.01 66.28 66.44 66.75 67.37 67.55 67.63 67.37 67.22 67.25 67.24 67.18 67.89 65.28 65.11 64.50 65.20 66.19 68.03 68.52 68.57 68.95 69.19 69.18
70.77 71.28 71.53 72.57 72.93 72.45 71.36 70.43 69.73 68.99 69.93 69.88 69.47 68.66 68.78 68.13 67.95 68.58 68.58 67.50 66.61 66.88 67.20 67.59 68.00 67.83 67.69 67.96 68.05 68.00 68.01 67.58 65.07 63.46 64.01 63.98 67.10 67.37 68.03 68.38 67.89 68.04 68.58
71.21 71.17 70.81 71.07 71.58 71.53 71.15 70.57 70.07 69.75 69.56 69.66 69.68 69.37 68.03 69.36 70.06 69.90 68.68 67.96 67.07 67.58 67.86 68.05 68.15 67.91 68.17 66.55 65.49 64.49 65.12 64.92 61.80 63.42 62.59 61.60 66.73 66.63 67.31 67.31 67.92 68.27 68.63
68.38 70.42 69.98 70.32 70.38 69.83 69.54 70.22 69.73 69.36 69.43 69.50 69.10 68.92 66.59 68.49 69.12 69.64 68.87 68.50 67.91 67.88 68.03 68.28 67.99 67.21 65.37 63.15 61.46 61.28 62.39 62.69 59.07 59.25 59.12 61.27 65.21 65.68 66.74 66.89 66.22 66.10 66.72
67.36 67.44 70.20 70.29 70.31 69.40 68.69 68.77 69.27 69.02 68.19 68.15 67.77 67.01 65.37 64.35 66.84 66.94 66.87 67.55 68.11 67.53 67.45 65.80 65.08 64.46 63.36 62.98 62.43 62.12 61.69 56.05 55.17 57.34 58.22 63.42 64.47 65.76 66.03 64.61 64.09 65.69 65.25
64.87 66.03 68.72 70.28 70.10 69.83 69.25 67.64 66.44 66.81 65.10 64.32 64.26 64.65 64.43 64.07 64.10 65.55 64.47 66.37 67.34 66.71 64.94 63.12 61.55 62.51 62.10 57.65 56.63 59.46 51.65 51.33 52.23 54.74 56.40 61.66 62.30 64.52 64.01 62.91 63.16 63.50 63.61
64.98 65.66 66.55 68.61 69.56 68.55 68.38 67.40 66.75 66.20 64.85 62.63 62.15 63.82 62.92 62.53 61.78 62.44 61.52 62.82 63.02 61.83 58.76 58.35 57.08 56.17 54.21 53.29 51.31 49.17 49.32 49.77 48.38 52.62 57.26 62.33 63.38 63.07 61.81 61.22 61.57 61.66 60.82
64.71 65.57 66.99 67.32 68.40 68.29 68.39 68.01 66.71 66.39 65.60 63.65 62.27 62.83 60.72 60.24 60.28 60.24 62.30 62.39 62.72 60.36 55.83 55.12 54.02 52.99 51.72 48.95 47.86 47.15 46.72 47.86 46.36 51.11 55.81 59.67 59.86 60.38 59.90 59.31 59.28 58.95 58.47
63.24 65.49 66.54 67.23 67.46 68.55 67.96 68.03 66.75 66.24 65.64 64.97 64.15 62.84 61.14 59.85 59.67 60.59 62.10 60.04 55.72 54.86 54.41 53.61 51.63 50.02 47.11 46.65 46.22 45.95 44.96 45.35 45.21 48.72 50.85 57.41 56.88 57.16 57.00 56.75 56.23 55.82 55.44
60.64 64.25 66.64 67.03 68.20 68.86 67.74 67.09 67.42 66.69 65.97 65.95 64.44 63.18 61.59 61.14 61.00 61.05 57.42 54.75 51.67 50.78 50.66 49.55 47.13 46.34 45.43 45.35 45.29 44.65 43.75 43.70 44.04 45.84 48.49 50.56 54.25 54.08 53.72 53.33 53.01 52.90 53.14
58.21 62.49 65.22 66.65 68.32 67.52 68.18 68.11 67.61 67.05 66.30 65.07 66.12 63.42 62.88 62.66 60.91 58.33 53.71 50.69 49.03 49.35 49.80 48.41 47.09 46.23 45.18 45.38 43.47 44.05 43.85 42.85 43.42 43.08 45.76 46.85 48.46 51.69 50.15 49.74 49.90 50.26 50.73
58.30 58.91 62.76 67.45 67.54 67.92 67.93 67.79 67.32 66.82 65.86 64.95 66.28 64.25 62.96 62.84 58.37 54.31 51.27 48.22 47.78 49.72 48.68 46.65 45.08 44.71 43.27 42.84 41.69 42.13 42.68 42.97 42.79 42.82 43.67 43.34 44.36 45.17 47.79 47.59 47.34 48.31 48.27
57.53 58.46 58.84 63.72 66.38 67.06 67.22 67.85 67.37 66.48 66.90 66.38 66.13 64.90 63.61 60.52 57.45 53.41 49.49 47.34 47.13 47.32 46.65 45.63 43.22 42.52 41.21 41.20 41.98 40.98 42.03 42.36 42.70 44.14 41.82 42.71 42.71 42.71 42.04 46.18 45.83 48.23 47.23
56.21 57.46 58.54 59.18 61.85 65.53 67.56 67.54 67.42 66.07 66.09 66.01 65.24 64.57 62.46 58.34 54.98 50.10 47.40 47.27 48.56 46.76 44.76 43.79 42.30 41.95 40.62 39.89 43.54 43.32 42.03 42.88 42.53 41.28 41.23 43.70 41.65 41.69 40.88 41.07 40.17 40.71 47.05
54.63 54.65 56.29 57.93 57.92 59.93 60.86 64.68 65.05 63.00 64.59 65.34 64.19 63.80 58.53 52.87 49.55 47.73 47.73 48.17 48.12 45.83 44.04 43.08 42.02 41.33 39.42 39.64 39.64 40.20 40.81 40.61 41.19 41.72 42.18 41.93 40.91 41.09 40.15 39.92 38.27 38.21 38.93
54.18 54.69 55.70 56.74 58.55 59.14 59.93 62.83 64.32 63.88 63.20 62.84 62.12 59.08 54.47 51.21 48.99 47.94 47.67 47.24 45.76 43.71 42.39 41.79 41.86 40.36 39.35 38.79 36.19 36.87 35.94 38.03 40.01 41.07 40.18 40.04 38.56 39.08 39.36 39.39 37.91 38.14 37.12
54.16 55.23 55.17 56.25 56.69 59.26 59.58 62.53 60.53 58.86 55.12 54.97 55.85 52.58 50.57 50.67 48.08 47.63 47.48 46.99 45.10 43.73 41.61 41.12 40.43 39.92 38.23 37.91 37.24 35.31 33.39 32.84 33.33 37.70 37.89 38.23 37.58 37.22 36.80 37.94 38.53 38.29 37.35
52.66 55.03 55.58 56.11 57.15 58.30 60.99 62.22 59.81 59.45 56.64 52.47 52.13 50.82 48.17 46.51 46.04 46.54 46.71 46.66 44.79 44.35 41.38 40.51 41.26 38.81 38.51 36.73 37.35 39.19 35.74 34.21 31.13 30.08 35.38 36.01 37.03 36.69 36.05 35.98 36.47 36.99 36.93
49.62 51.12 55.38 56.13 56.47 58.17 62.01 62.36 60.30 56.76 53.59 50.59 49.61 47.40 46.06 45.05 44.76 46.19 46.97 45.96 44.93 44.10 39.76 39.28 38.53 37.71 37.29 36.38 35.93 35.25 34.21 34.33 33.77 31.04 28.80 31.47 34.34 35.75 35.81 35.99 35.31 35.23 36.23
49.02 49.97 53.49 55.35 56.13 59.50 61.90 62.54 58.45 55.17 50.56 48.01 46.27 44.97 44.45 46.34 46.21 45.68 45.87 44.74 44.16 42.37 39.79 38.94 38.00 37.30 36.43 35.97 35.56 34.78 33.83 32.09 31.02 30.03 28.25 28.66 29.49 32.48 33.95 34.90 35.03 34.52 34.97

GFSSE_sfc_wetblb_033.txt.gz
Wetbulb
69.21 72.60 75.07 73.82 73.29 72.86 72.88 73.24 73.22 73.05 72.98 72.90 72.50 71.44 70.75 69.95 69.14 67.84 67.39 68.63 69.78 69.89 70.98 71.09 71.25 71.38 71.04 70.53 69.78 68.92 68.22 67.70 66.85 66.05 65.24 64.88 65.97 66.68 66.68 67.54 67.08 66.03 65.95
71.38 72.78 74.53 74.13 73.19 72.71 72.14 71.59 71.37 72.04 72.59 72.37 72.10 71.28 70.43 69.60 68.72 67.63 66.59 67.36 69.23 69.58 70.10 71.30 71.34 71.31 70.74 70.04 69.26 68.12 67.50 66.52 65.72 65.49 66.27 65.88 66.34 66.16 66.76 66.83 67.50 65.76 66.52
71.94 72.87 72.83 74.05 73.73 72.70 71.35 70.64 70.25 70.04 70.91 71.58 71.60 71.13 70.36 69.23 68.33 67.30 66.60 66.35 68.28 68.65 68.50 68.54 68.85 68.60 68.08 67.42 66.82 66.18 65.62 64.93 64.91 65.80 67.33 62.10 61.60 64.57 64.50 64.98 66.68 67.88 66.33
72.16 72.25 72.13 73.80 73.64 72.01 70.81 70.45 70.02 69.55 69.93 71.71 71.22 69.96 69.26 68.53 67.93 66.90 66.28 66.30 66.74 67.63 67.48 67.40 67.32 67.44 67.39 67.20 66.86 66.95 66.52 66.25 66.72 67.80 64.27 62.29 63.01 66.55 65.23 64.58 65.51 67.34 68.14
71.32 71.89 72.36 73.67 73.12 71.86 70.98 70.24 69.43 69.78 71.25 71.27 70.45 69.41 68.58 68.17 68.43 67.68 66.47 66.17 66.21 66.39 66.40 66.49 66.58 66.52 66.60 66.97 67.42 67.07 66.92 66.50 67.70 66.38 63.18 61.32 62.89 67.14 67.82 67.25 65.90 65.66 66.42
70.44 71.50 72.85 73.30 73.04 72.34 71.79 70.70 70.58 70.91 71.15 70.52 70.08 69.51 69.37 68.69 68.76 68.40 66.68 66.68 66.77 66.98 67.24 67.24 67.25 67.31 67.32 67.27 66.99 66.55 66.39 66.81 67.87 64.61 63.91 66.55 65.17 68.06 68.17 68.13 68.12 68.02 67.56
70.11 71.59 72.26 73.44 73.09 72.40 71.70 71.24 70.51 71.11 71.41 70.45 69.54 68.44 68.24 68.17 68.32 68.72 67.20 66.62 66.83 67.17 67.69 67.86 68.05 67.89 67.69 67.77 67.68 67.37 67.55 68.02 64.88 63.24 64.40 65.48 66.32 67.91 68.61 68.80 68.44 68.60 68.85
70.22 71.27 71.79 72.56 72.57 72.07 71.32 70.72 70.30 71.13 70.96 70.21 69.95 69.11 68.83 68.83 68.72 69.08 67.90 66.93 67.15 67.58 67.90 68.30 68.35 68.19 68.28 68.25 68.22 67.63 67.53 66.73 63.92 62.65 61.88 63.61 67.62 67.19 68.11 68.00 68.42 68.90 69.07
70.41 70.40 70.80 70.96 71.03 71.08 70.76 70.19 70.10 71.25 70.78 70.02 70.21 69.59 68.97 69.41 70.01 69.44 68.32 67.43 67.73 67.96 68.30 68.47 68.40 68.72 67.94 66.51 65.01 63.48 64.23 64.01 59.26 59.86 61.36 61.55 67.54 66.94 67.42 67.60 67.64 67.15 67.56
69.68 69.78 69.46 69.83 70.07 69.24 68.77 69.71 69.42 69.60 69.87 70.01 69.94 68.43 67.65 68.67 69.34 69.68 68.84 68.34 68.10 68.32 68.48 68.69 68.58 67.56 65.73 63.68 62.02 62.54 62.63 61.15 56.74 57.90 59.52 62.03 65.54 66.74 66.91 65.59 65.44 66.76 66.01
69.19 69.04 69.23 69.18 68.72 68.30 67.78 67.84 68.76 68.93 68.74 68.51 68.19 66.17 66.05 66.49 67.05 67.00 66.53 67.86 68.55 68.23 67.99 67.16 67.03 65.78 63.79 63.13 62.28 62.19 58.19 50.93 54.72 56.10 57.87 65.01 66.24 66.65 64.97 64.08 65.51 64.95 64.68
66.42 67.76 68.90 68.95 68.58 68.08 68.85 66.90 65.99 66.40 65.25 65.20 65.23 64.28 62.65 63.98 65.04 66.03 65.48 66.80 68.15 67.97 66.41 65.10 63.96 64.01 61.98 56.67 54.45 54.76 49.18 48.85 52.73 53.80 57.46 63.75 63.25 65.01 63.28 63.06 63.53 62.79 62.39
64.04 67.69 69.07 69.06 69.01 67.95 67.53 66.42 65.13 64.54 63.16 62.72 62.81 63.41 62.73 62.20 63.54 62.70 62.57 64.12 63.18 62.53 60.21 59.31 56.49 54.65 51.82 50.65 48.25 46.29 47.71 47.07 50.76 53.68 60.56 63.21 63.40 63.19 61.60 61.68 61.80 60.62 60.10
63.67 64.73 68.94 69.25 69.01 67.96 67.21 65.86 65.28 64.63 63.32 60.76 60.93 62.67 60.33 59.44 61.67 60.37 60.29 61.36 60.95 59.16 55.18 53.62 52.93 50.81 47.87 46.34 45.64 44.68 44.25 44.90 48.94 52.20 57.38 61.24 60.84 60.72 59.71 59.15 58.60 58.03 57.62
63.41 64.68 65.62 68.54 68.05 66.80 66.60 66.25 65.59 64.97 64.55 62.38 60.99 62.46 59.77 60.05 59.64 59.59 60.25 60.87 57.16 55.16 53.52 51.80 48.75 46.49 44.96 44.47 44.14 43.93 42.93 42.99 47.22 50.14 52.02 58.56 58.34 57.90 57.25 56.53 55.71 55.10 54.89
62.84 64.44 66.19 66.03 67.92 67.10 66.61 66.14 65.67 65.67 65.16 63.67 62.28 62.03 60.45 60.35 58.66 59.09 56.74 54.81 52.34 51.05 49.05 47.21 45.41 44.85 43.89 43.30 43.51 42.63 41.60 41.77 43.42 47.75 49.00 51.67 56.16 55.24 54.23 53.35 52.90 52.65 52.95
55.95 64.17 65.78 66.27 67.81 66.97 66.47 66.29 66.11 66.07 65.70 64.50 63.80 62.39 60.42 59.90 59.36 56.34 53.65 50.98 49.46 49.20 47.71 45.84 45.51 44.23 43.16 43.26 41.53 42.07 41.74 41.22 41.33 44.64 46.41 46.42 48.35 53.33 51.07 50.70 50.36 50.78 50.77
55.73 59.59 65.53 67.50 67.32 67.26 66.86 66.27 66.77 66.79 65.36 64.25 64.43 63.57 60.97 60.63 57.87 54.20 51.43 48.92 47.75 47.55 46.12 44.98 44.27 42.38 41.22 40.81 39.66 39.90 40.71 41.37 40.88 41.27 43.51 44.03 43.49 44.56 48.21 48.17 48.21 49.09 49.03
53.65 56.01 62.51 66.04 66.86 67.05 67.27 67.20 67.07 65.59 64.83 64.10 63.93 62.86 62.60 58.69 55.49 53.32 49.90 47.16 46.69 46.02 44.93 44.56 41.64 41.10 39.27 39.35 40.60 39.39 40.46 40.90 41.28 42.61 39.88 40.72 40.80 41.15 40.91 46.94 46.82 47.85 47.68
54.84 54.34 55.85 64.27 66.35 67.40 67.57 67.09 65.87 63.73 65.42 65.33 64.53 63.04 61.19 57.57 54.08 50.63 47.86 46.58 46.23 44.98 43.30 42.36 40.66 39.78 38.77 38.32 42.00 42.00 40.41 41.52 40.87 39.65 40.02 42.03 40.84 40.55 39.56 39.68 38.93 39.38 45.97
50.96 52.00 54.29 57.41 64.86 66.44 66.13 65.25 65.16 63.24 64.17 64.72 64.76 62.47 59.69 56.54 52.14 49.54 47.63 45.96 45.91 44.07 42.37 41.65 40.46 39.36 38.04 37.45 37.89 38.20 39.51 38.95 40.20 40.28 40.51 40.34 39.90 40.19 39.31 38.12 37.04 36.70 37.65
52.05 51.82 51.57 54.04 59.24 65.21 66.17 66.21 64.03 62.06 62.17 63.17 63.21 60.23 55.71 52.89 50.58 49.34 47.62 46.16 45.12 42.85 41.45 40.66 40.54 38.93 37.79 36.76 35.63 35.91 34.67 36.95 37.83 38.71 38.81 39.27 37.13 37.91 38.06 37.94 36.71 36.80 35.87
50.05 51.21 53.06 52.63 55.10 58.46 62.06 62.28 60.07 58.24 56.90 56.69 55.66 53.91 51.32 51.03 50.40 48.67 47.10 46.24 43.44 42.31 40.91 40.06 39.78 39.69 37.28 36.68 35.50 35.50 33.07 32.97 31.87 35.91 36.12 36.41 35.86 35.48 35.24 35.90 37.08 37.06 36.14
47.45 50.22 52.61 53.41 53.75 56.04 56.18 60.55 61.67 61.41 59.83 56.45 55.06 51.69 49.69 49.62 48.75 47.39 46.39 44.72 43.39 42.17 40.51 39.50 39.86 38.25 38.38 36.12 36.29 37.89 34.35 33.24 30.96 30.07 33.72 34.54 34.90 35.57 34.11 34.16 34.55 35.26 35.52
46.93 47.49 50.14 53.19 54.11 54.91 57.15 60.45 61.56 61.10 57.01 52.44 50.08 48.74 49.02 47.84 48.39 47.83 46.60 45.42 44.34 43.42 39.86 39.11 39.55 37.36 36.95 36.15 36.04 34.57 33.40 33.10 31.94 30.21 28.38 30.64 32.61 33.72 34.23 33.62 33.48 33.53 34.33
45.78 45.72 48.00 50.81 52.03 53.51 56.88 60.01 61.07 57.57 51.18 49.31 48.37 46.27 46.55 46.73 47.63 47.72 47.55 46.20 44.74 42.60 40.82 39.66 38.82 37.58 35.86 35.25 34.96 34.23 33.49 31.83 30.27 29.18 27.35 27.30 28.07 30.72 32.34 33.47 32.83 32.45 32.96

GFSSE_sfc_wetblb_036.txt.gz
Wetbulb
69.77 72.43 74.87 74.18 73.95 73.93 73.79 73.22 73.28 73.61 73.53 72.50 71.89 71.10 70.27 69.27 68.28 67.96 69.22 69.87 70.19 70.37 70.08 70.07 70.61 71.66 71.02 70.15 69.67 68.78 68.00 66.75 65.94 65.79 65.45 65.95 66.67 66.71 67.16 67.16 66.29 65.65 66.00
71.05 72.58 74.33 74.10 73.67 73.65 73.48 73.27 73.13 73.07 73.27 72.37 71.53 70.74 70.09 69.07 67.96 66.79 67.96 69.39 69.55 70.77 71.33 71.91 71.59 71.38 70.65 69.77 68.88 67.83 66.46 65.51 65.70 65.59 65.44 64.89 65.91 65.74 66.02 66.98 66.75 65.23 66.02
71.41 72.40 72.42 73.79 73.64 73.23 72.42 72.26 72.40 72.35 72.49 72.10 71.35 70.63 69.81 68.65 67.60 66.52 66.90 68.77 68.87 69.30 69.75 70.63 70.54 69.77 68.52 67.62 66.79 65.69 64.91 65.62 66.60 66.95 66.42 60.73 61.08 64.33 63.91 64.74 66.60 67.87 66.13
71.62 71.99 71.55 73.55 73.40 72.09 71.11 70.48 70.54 71.24 71.45 71.63 71.19 70.57 69.43 68.46 66.95 66.44 66.52 67.85 68.27 68.18 68.18 68.24 68.21 67.90 67.42 66.80 66.41 66.41 66.50 66.91 67.13 67.24 62.53 61.47 63.02 66.62 65.32 64.50 65.55 66.68 67.81
71.16 71.43 71.68 73.48 72.86 71.44 70.80 70.46 69.98 70.56 71.71 71.66 70.79 69.78 68.78 67.92 66.82 66.40 66.45 66.75 67.32 66.97 66.66 66.67 66.58 66.68 66.89 67.27 67.27 66.75 66.48 66.67 67.35 64.97 61.83 60.20 62.99 66.95 67.84 67.79 66.25 65.55 65.84
70.33 70.81 72.39 73.19 72.56 71.96 71.39 70.37 69.78 71.11 71.20 70.21 70.47 69.72 68.35 68.46 67.49 66.70 66.42 66.33 66.48 66.58 66.78 66.90 66.91 66.89 66.88 66.89 66.60 66.53 67.03 67.51 66.20 63.24 63.01 63.87 64.72 67.94 68.11 68.27 68.45 68.23 68.21
69.94 70.89 71.75 73.05 72.40 71.65 70.74 71.17 71.38 71.85 70.21 69.05 68.43 68.75 68.88 68.95 68.58 66.94 66.71 66.80 67.07 67.40 67.52 67.74 68.03 67.98 67.92 67.90 67.56 67.39 67.80 67.31 62.36 61.26 63.54 64.95 64.45 68.04 68.75 68.25 68.31 68.83 68.61
70.05 70.99 71.28 72.03 72.31 72.03 71.22 71.53 72.14 72.34 71.06 69.75 69.88 69.40 68.79 68.80 69.07 67.87 66.78 66.94 67.26 67.75 68.10 68.39 68.31 68.21 68.27 68.14 67.91 66.96 65.69 64.93 60.98 60.13 60.65 61.87 67.41 67.75 68.32 68.84 68.24 68.47 68.47
70.43 70.34 70.58 70.79 70.79 71.00 70.85 70.51 71.44 71.91 70.92 70.04 69.97 70.02 69.76 69.69 69.62 68.95 67.43 67.15 67.62 68.05 68.45 68.45 68.30 68.63 67.86 66.60 64.85 63.34 63.90 63.53 58.56 59.07 61.12 61.16 67.68 67.64 67.83 66.98 67.13 67.12 66.84
69.63 70.01 70.08 69.87 69.59 68.83 68.28 69.56 70.20 70.33 69.67 69.92 69.93 69.29 68.28 68.11 68.81 69.51 68.37 68.15 68.02 68.36 68.46 68.54 68.65 67.52 65.54 63.76 62.64 63.16 61.56 60.93 56.58 58.47 59.75 61.46 66.74 67.42 65.83 65.45 66.54 66.16 64.91
68.51 69.00 69.21 68.86 68.05 67.47 66.75 67.50 69.11 69.71 69.22 69.08 68.36 66.48 66.67 66.38 67.39 67.09 66.41 67.51 68.67 68.50 68.41 67.96 67.58 65.53 63.72 62.05 62.23 59.76 56.27 54.45 54.48 55.93 57.93 66.70 66.81 65.85 64.65 65.48 65.26 64.44 62.88
66.68 67.35 68.75 68.46 67.87 67.25 67.59 65.83 65.15 66.34 65.66 65.71 65.30 63.25 64.56 64.92 65.47 65.83 65.07 66.92 68.61 68.40 67.53 66.71 65.87 63.86 59.93 55.38 49.61 52.90 47.60 51.84 52.57 54.49 58.16 64.37 65.74 64.22 63.21 64.11 62.82 62.07 61.75
67.16 67.68 68.37 68.23 67.99 67.22 66.89 65.67 64.42 64.03 63.63 63.85 63.78 62.78 61.89 64.08 63.74 63.88 63.45 64.47 63.83 63.70 61.15 58.80 56.09 53.40 50.28 48.08 45.98 45.07 46.20 50.47 51.71 56.13 60.94 64.98 64.04 62.86 61.96 62.27 60.44 59.90 59.50
66.23 67.04 68.11 68.35 67.80 67.16 66.98 65.81 64.91 64.06 62.79 62.21 62.76 63.10 61.28 60.12 61.90 61.22 61.49 61.78 61.18 58.65 55.58 53.66 52.28 48.99 45.45 45.13 43.78 42.63 43.89 47.49 50.95 53.39 58.30 62.28 61.86 60.80 60.00 59.18 58.18 57.49 56.86
63.60 66.75 67.83 68.27 67.87 67.36 66.14 65.53 64.76 64.14 63.22 62.04 61.43 62.21 61.41 59.54 61.92 60.94 59.96 60.48 59.88 57.84 53.11 51.50 48.32 44.83 43.64 43.28 42.90 42.19 41.82 44.99 48.50 51.04 52.89 59.49 59.69 58.51 57.69 56.66 55.83 55.27 55.10
62.65 63.98 68.16 68.27 68.31 67.59 66.33 64.96 64.53 64.41 63.97 61.75 60.60 61.10 60.70 60.45 61.09 59.50 59.31 59.62 56.47 53.82 51.42 47.65 44.37 43.80 42.82 42.22 41.86 41.26 40.35 41.91 46.93 48.65 49.52 53.09 57.50 55.99 54.73 53.86 52.93 52.47 52.69
57.70 63.93 65.10 68.25 68.56 66.42 66.43 65.26 64.90 64.89 64.76 63.14 61.38 60.50 60.66 60.49 58.56 58.52 57.86 54.98 51.78 48.76 46.02 44.28 43.73 42.85 42.19 42.06 40.20 40.75 40.40 39.31 44.68 45.83 46.68 46.55 49.59 54.38 52.23 51.35 50.71 50.84 50.58
53.60 57.21 64.13 66.97 67.82 66.68 66.39 65.89 65.50 65.26 65.05 63.80 62.93 61.53 60.61 60.02 58.81 56.29 55.01 52.87 49.16 47.05 45.18 44.56 43.30 41.50 40.30 39.68 38.45 38.66 39.80 40.04 39.59 44.01 44.26 43.73 42.95 44.89 49.20 49.12 48.44 48.75 48.87
51.67 53.57 61.18 65.19 66.54 66.51 66.57 66.21 65.75 65.41 64.86 63.72 63.86 62.39 60.64 59.22 57.04 55.33 53.42 49.81 47.15 45.74 44.23 43.89 41.19 40.75 38.49 38.41 39.60 38.52 39.21 39.62 39.14 41.67 41.02 41.95 40.93 41.89 40.57 47.38 47.98 47.26 47.12
53.13 51.20 57.61 64.09 65.89 66.27 66.10 65.61 65.04 64.00 63.70 63.68 63.75 62.91 60.15 58.50 55.52 54.15 50.28 47.97 46.14 44.66 42.85 41.72 40.36 38.66 37.94 37.54 41.32 40.84 39.02 39.97 38.75 38.15 38.63 40.56 39.90 39.67 38.65 38.47 38.15 39.38 45.44
49.07 49.87 51.19 60.30 64.50 65.80 65.33 64.62 63.97 63.22 62.83 62.95 63.64 62.44 59.89 57.19 54.75 52.96 49.86 46.52 45.43 44.56 42.42 41.15 39.76 38.21 36.96 36.45 37.52 37.88 38.66 37.61 38.69 38.70 38.78 38.27 39.13 38.82 37.85 37.49 36.14 35.89 36.69
49.50 48.79 48.78 52.89 62.45 65.27 65.89 65.93 64.88 64.11 63.52 63.23 63.79 61.42 59.49 56.80 54.97 52.37 49.03 46.64 45.04 42.68 41.18 40.55 40.22 38.03 36.94 35.56 35.61 35.70 35.01 36.58 37.28 37.17 37.81 38.76 36.28 37.07 36.95 36.73 35.30 35.56 35.09
47.58 49.31 50.35 50.20 55.98 63.38 65.67 63.79 59.28 59.03 57.84 57.33 57.95 60.08 58.34 56.33 54.46 53.52 49.40 47.43 44.53 43.34 41.75 40.06 39.71 39.27 36.71 35.58 34.76 36.17 32.94 33.62 32.45 35.11 35.24 34.99 34.54 34.45 34.09 35.09 35.39 35.42 34.87
46.37 47.33 49.43 50.98 51.68 58.25 62.08 62.27 61.79 61.34 60.07 60.94 60.13 56.58 52.99 53.79 53.89 50.53 48.28 47.88 44.83 43.08 41.19 40.13 40.38 38.80 37.69 35.53 35.11 36.51 33.45 33.38 31.33 31.09 33.68 34.11 34.28 34.85 33.55 33.21 33.44 34.06 33.70
45.50 44.97 46.31 48.69 50.59 52.43 57.53 62.41 62.21 62.34 62.23 54.91 52.38 52.25 51.61 51.73 51.29 50.33 48.69 46.67 44.97 44.55 43.00 42.01 38.83 38.14 37.71 38.12 36.62 33.92 32.65 32.12 31.09 30.14 29.18 30.61 32.83 33.21 33.53 33.34 32.89 31.87 32.56
44.20 44.89 45.05 46.19 48.06 50.25 52.60 57.56 61.41 61.68 54.67 52.00 50.46 50.46 49.07 48.37 48.40 48.25 47.55 46.84 46.35 44.29 42.97 41.76 40.26 39.52 38.48 36.69 36.34 33.24 32.81 31.66 30.34 29.33 27.76 27.57 28.02 30.92 32.21 32.77 32.03 31.11 31.09

GFSSE_sfc_wetblb_039.txt.gz
Wetbulb
68.14 72.16 75.11 74.52 74.39 74.66 74.51 74.47 74.25 73.87 73.30 72.39 71.80 71.00 69.94 69.16 69.00 69.41 69.90 69.99 70.09 70.07 69.17 70.20 71.28 71.18 70.71 70.01 69.44 68.45 66.83 66.26 66.23 66.11 66.25 66.95 66.97 66.93 67.16 67.25 67.20 64.73 66.36
70.47 72.33 74.74 74.59 74.12 74.06 73.15 73.38 74.26 74.08 73.37 71.99 71.81 70.57 69.49 68.44 67.53 68.13 69.07 69.67 70.82 70.33 70.35 71.10 71.72 71.16 70.07 69.72 68.50 66.89 65.98 66.18 65.95 65.63 64.81 65.44 66.18 65.91 66.29 67.24 66.37 64.88 65.54
71.11 72.10 72.78 74.30 73.94 73.96 73.64 73.62 73.47 73.13 72.53 71.79 71.41 70.32 69.20 68.19 66.68 67.14 69.06 69.60 70.16 70.95 71.47 71.62 71.34 70.01 68.96 67.75 66.31 65.27 66.20 67.17 67.49 66.90 65.32 60.00 60.39 64.95 64.38 65.70 66.79 67.75 65.67
71.33 71.53 71.32 73.81 73.67 73.46 73.22 72.88 72.69 72.76 72.47 71.66 70.86 70.07 69.20 67.95 66.64 66.66 68.15 67.93 68.87 69.14 69.33 69.03 68.50 67.90 67.08 66.33 66.25 67.04 67.54 67.50 67.07 65.82 61.20 60.77 62.69 67.27 65.81 64.94 65.49 66.39 67.75
70.70 70.87 71.16 73.45 73.11 72.44 71.91 71.70 71.85 71.93 71.87 71.34 70.87 69.85 68.75 67.03 66.52 66.55 67.45 68.09 67.60 67.55 67.42 67.39 67.37 67.33 67.05 67.13 66.87 67.16 67.12 67.41 66.74 64.10 60.07 59.56 62.54 66.89 68.24 68.31 67.08 66.20 65.80
69.91 70.08 72.15 73.12 72.78 72.12 71.54 70.81 70.41 71.20 71.58 71.21 70.45 69.22 68.30 67.03 66.68 66.45 66.57 66.90 66.76 66.46 66.47 66.42 66.25 66.49 66.91 66.95 66.75 67.30 67.83 67.31 64.82 61.79 60.63 61.90 63.56 68.52 69.25 68.96 68.99 68.95 68.71
69.11 69.91 71.36 72.93 72.12 71.40 70.73 70.33 70.98 71.50 71.64 70.24 69.28 68.92 68.37 67.72 66.90 66.65 66.43 66.46 66.64 66.72 66.87 67.16 67.38 67.57 67.78 67.71 67.61 67.81 66.82 65.06 60.48 61.73 62.96 63.51 63.65 68.72 68.77 68.93 69.16 69.29 69.14
69.36 70.31 70.84 71.61 71.87 71.62 70.45 70.71 71.82 71.78 70.73 69.61 69.78 68.74 68.79 68.64 67.33 66.72 66.77 66.93 67.28 67.51 67.73 68.09 68.11 68.01 67.87 67.83 67.33 65.25 64.20 63.65 60.63 59.86 60.51 61.23 67.95 68.33 68.84 68.09 67.98 67.71 67.48
69.92 69.89 69.82 69.84 70.41 70.95 70.57 71.20 71.69 71.66 70.45 69.72 70.10 70.12 69.74 69.61 68.89 67.31 66.89 67.06 67.44 67.80 68.14 68.23 68.22 68.18 67.79 65.90 63.64 62.83 63.72 63.12 57.79 59.25 60.81 60.83 68.24 68.11 66.92 67.24 67.00 66.64 65.89
69.19 69.48 68.97 68.74 69.22 68.57 68.31 70.44 70.93 70.70 69.90 69.40 69.55 69.17 68.56 68.22 68.78 68.72 67.76 67.89 67.83 68.21 68.41 68.21 68.37 67.25 65.10 62.83 62.39 63.68 62.60 60.93 57.08 58.58 59.61 60.72 67.69 66.63 65.97 66.74 66.28 65.24 64.32
68.63 68.66 69.52 68.41 67.80 67.14 66.69 67.35 69.60 69.77 69.06 68.81 68.50 67.42 66.47 65.35 66.67 66.84 66.12 67.22 68.54 68.49 68.47 68.60 67.75 65.30 63.10 62.10 60.27 60.18 58.49 54.30 54.34 55.84 58.37 67.47 66.12 65.42 66.28 65.54 64.55 63.73 62.67
67.17 67.96 68.74 68.54 67.38 66.69 67.17 65.41 65.77 67.20 66.22 66.05 65.31 63.83 64.28 64.52 65.48 66.20 64.65 66.66 68.61 68.68 68.25 67.82 66.39 63.31 58.12 49.84 48.49 51.68 50.68 51.55 52.41 55.16 57.32 66.46 64.80 64.08 64.86 63.43 62.24 61.87 61.89
66.86 67.72 67.89 68.44 67.44 66.72 65.87 64.75 64.07 64.47 64.02 64.11 63.63 62.06 63.30 64.18 64.13 63.68 63.01 64.22 64.36 64.72 62.24 59.80 56.37 52.76 48.82 46.27 44.56 45.14 49.37 50.09 53.71 55.62 61.26 65.46 63.41 62.64 63.42 61.48 60.31 59.79 59.66
66.34 67.00 67.72 68.29 67.30 66.57 65.95 64.96 64.26 64.05 62.86 62.32 62.90 61.98 61.45 61.86 61.97 61.74 61.82 61.89 61.68 60.18 57.52 52.81 50.83 46.83 44.91 43.94 42.56 42.86 46.10 49.61 51.40 53.62 58.39 62.84 61.93 60.96 60.48 59.36 58.10 57.23 56.83
65.88 66.75 67.47 67.89 67.31 66.75 65.75 64.94 64.04 63.62 63.31 63.22 62.66 62.69 61.19 60.86 61.87 61.05 60.70 60.64 59.87 57.23 54.25 51.80 47.42 43.80 42.61 42.48 41.89 41.50 42.99 47.80 49.34 51.44 53.33 60.09 60.26 59.04 58.23 57.12 56.31 55.74 55.07
64.99 66.43 67.41 67.60 67.52 67.05 66.10 65.02 64.16 63.87 63.35 62.49 62.35 62.47 61.91 60.33 61.16 61.34 59.56 59.49 58.63 56.55 52.15 49.58 44.72 42.85 41.94 41.63 40.73 40.02 40.42 46.12 47.55 49.15 50.14 53.74 58.72 56.83 55.73 54.59 53.41 53.08 53.14
60.25 64.07 66.79 67.49 67.78 66.89 66.30 65.43 64.55 63.91 63.84 62.11 61.53 60.81 61.80 60.31 59.87 60.32 59.51 58.15 57.19 53.94 49.86 43.98 42.75 41.90 41.35 41.32 39.36 39.36 39.25 42.53 45.89 46.61 47.42 47.46 50.26 55.21 53.57 52.28 51.84 51.53 51.21
52.92 59.10 64.69 68.35 67.78 67.20 66.48 65.79 64.94 64.11 63.84 62.90 61.40 60.21 60.63 60.49 59.27 58.55 58.17 56.58 52.93 47.71 44.74 43.32 42.20 40.83 40.01 39.48 37.90 38.15 38.61 38.76 43.49 44.41 44.64 44.00 42.95 45.03 49.41 50.04 49.11 49.43 50.09
51.18 52.76 59.69 65.36 67.40 67.43 66.36 66.12 65.07 64.25 64.03 63.30 62.40 60.77 59.40 59.78 58.53 57.51 56.45 54.46 49.35 45.58 43.91 43.72 40.95 40.60 38.92 38.04 38.51 37.56 37.96 37.84 39.29 44.22 41.78 41.48 41.24 42.02 40.37 47.29 48.29 47.68 47.12
49.66 50.16 53.27 62.40 65.52 67.19 66.48 65.70 64.92 63.66 63.95 62.91 63.36 62.21 60.15 59.09 57.74 56.40 53.93 51.01 48.39 44.77 42.96 41.84 40.33 38.40 38.28 37.57 40.79 39.59 38.12 38.81 37.67 38.05 39.70 40.96 39.18 39.76 38.11 38.49 38.03 38.48 46.16
48.24 47.66 49.32 58.05 63.33 65.60 65.14 63.86 63.73 62.63 63.15 62.31 63.17 63.21 60.50 59.01 56.97 55.44 53.35 49.71 47.40 45.82 44.07 41.36 39.28 38.36 36.86 36.22 37.43 37.41 37.75 36.95 37.19 36.90 37.16 37.41 38.43 38.18 37.06 36.58 35.23 35.08 35.91
48.47 47.95 47.10 51.36 61.93 64.30 65.21 65.02 64.79 64.18 63.80 63.41 63.26 62.56 59.94 58.00 57.06 54.69 51.97 49.82 47.56 43.56 41.28 40.32 40.14 37.92 36.60 35.53 35.79 35.47 34.86 36.15 36.47 36.24 36.91 38.37 36.62 37.09 36.55 36.01 35.10 35.37 34.69
46.58 47.94 49.11 47.95 53.84 62.95 65.05 65.01 60.14 60.11 58.10 58.21 59.89 60.59 59.78 58.55 56.45 55.89 53.44 50.91 47.47 45.99 43.09 41.73 40.39 39.77 36.79 34.66 34.55 36.75 32.83 33.36 32.53 33.98 34.21 34.03 33.95 33.94 33.65 34.54 34.81 35.01 34.35
44.82 46.24 47.42 49.02 49.32 55.33 63.62 64.25 62.73 62.05 60.53 61.28 62.14 60.90 56.73 57.34 55.71 55.63 53.41 50.46 48.07 46.09 43.59 43.53 41.14 39.43 37.89 35.35 34.33 35.61 32.73 33.80 32.41 31.10 32.51 32.93 32.58 33.49 32.38 32.53 32.95 33.20 33.00
44.25 44.03 44.54 46.08 48.03 49.88 57.82 63.28 62.79 62.29 62.17 61.04 60.10 57.85 54.55 54.31 54.83 54.67 52.56 50.14 47.90 47.41 47.13 44.89 41.41 40.82 38.73 37.49 35.79 33.76 32.97 33.99 30.82 30.55 29.54 30.20 31.92 32.15 32.16 32.23 31.53 31.03 31.60
43.18 42.99 43.33 44.35 45.75 47.77 49.79 56.17 61.28 61.53 57.53 55.55 53.21 55.97 52.58 51.82 52.02 51.59 50.94 49.51 48.83 47.76 46.65 45.34 43.50 42.32 40.72 39.86 37.46 34.45 35.61 33.88 32.45 30.66 28.09 27.73 27.89 29.88 30.89 31.34 30.79 30.13 30.15

GFSSE_sfc_wetblb_042.txt.gz
Wetbulb
65.85 70.54 75.23 75.40 74.77 74.73 74.95 74.93 74.53 74.01 73.27 72.70 71.54 71.08 70.30 70.02 70.09 70.43 70.28 70.26 70.57 69.45 70.03 71.24 71.41 70.80 70.38 70.11 68.95 67.42 66.92 67.10 66.88 66.98 67.31 67.39 67.18 67.38 67.67 67.43 66.89 64.80 66.92
68.19 72.32 74.83 75.07 74.69 74.68 74.57 74.59 74.56 74.02 73.44 72.30 71.49 70.30 69.25 68.57 68.83 69.25 69.63 70.17 69.84 69.99 69.90 71.24 71.42 70.88 70.05 69.31 67.38 66.77 67.00 66.81 66.40 65.57 65.33 65.39 66.57 65.69 67.47 67.08 66.28 64.87 66.36
70.07 72.14 72.95 74.84 74.83 74.35 73.73 74.21 73.88 73.20 72.90 72.09 71.53 70.22 68.97 67.75 67.14 68.12 69.46 70.40 71.08 71.08 71.53 71.67 71.21 70.11 68.85 67.34 65.84 67.05 67.87 67.85 67.33 66.28 64.47 60.14 61.14 64.76 65.28 66.65 68.00 66.37 65.85
71.08 71.74 71.77 74.51 74.23 73.83 73.99 73.83 73.59 72.75 72.28 71.73 71.08 69.90 68.89 67.54 66.72 68.41 69.41 69.76 70.26 70.58 70.29 69.72 69.04 67.99 66.79 66.11 67.28 68.02 67.99 67.67 66.97 65.28 60.30 60.95 63.56 67.61 65.79 65.37 65.52 67.02 67.51
70.43 70.89 71.38 73.99 74.10 74.03 73.59 73.05 72.95 72.89 72.28 71.41 70.49 69.55 68.54 66.99 66.81 68.11 67.82 68.66 68.94 68.68 68.53 68.49 68.18 67.50 67.03 67.38 67.85 67.74 68.17 67.66 66.42 63.17 59.46 60.29 62.71 66.93 68.68 68.58 67.63 67.07 66.11
68.81 69.16 72.00 73.49 73.80 73.46 72.79 72.61 72.35 72.55 72.06 71.32 70.57 69.45 67.75 66.77 66.89 67.38 68.04 67.61 67.37 67.11 67.13 66.83 66.71 67.16 67.50 67.38 67.60 68.28 67.80 66.52 64.09 61.57 59.35 61.54 63.78 69.26 69.40 69.16 69.22 69.34 69.43
68.09 69.06 70.97 73.23 72.85 71.92 71.22 71.37 71.90 71.50 71.56 71.31 70.36 69.14 67.44 67.08 66.83 66.80 66.94 66.80 66.63 66.62 66.74 66.90 67.03 67.50 68.03 68.12 68.19 67.72 65.96 64.51 61.15 61.17 62.20 62.83 63.33 69.05 69.41 69.13 69.08 69.20 69.06
68.73 69.75 70.43 71.86 72.09 71.75 71.28 70.96 71.45 71.87 72.10 70.86 69.97 68.84 68.19 67.29 67.09 66.79 66.76 66.85 66.90 67.15 67.55 67.94 68.22 68.28 68.26 68.18 66.54 64.98 64.67 63.98 61.04 60.14 60.55 61.26 68.04 68.34 68.54 68.21 67.68 67.34 66.83
69.23 69.19 69.03 69.17 70.03 70.97 70.69 70.63 70.97 72.42 71.37 70.53 70.23 69.78 69.56 68.67 67.57 67.04 67.05 67.29 67.58 67.86 68.24 68.30 68.32 68.43 67.29 64.82 63.78 63.84 64.63 62.53 58.12 59.14 60.57 61.39 68.43 67.36 67.47 67.39 66.60 65.70 65.45
68.65 68.92 67.72 67.70 68.40 67.98 67.92 70.25 71.01 70.55 70.07 69.74 69.86 69.29 68.49 68.23 67.84 67.77 67.81 67.95 67.75 68.24 68.53 68.37 68.51 66.93 63.96 63.33 64.20 64.29 62.82 60.87 57.03 58.37 59.41 63.36 66.95 66.39 67.18 66.54 65.66 64.37 63.73
68.58 68.48 67.62 67.21 67.32 66.97 66.56 68.38 70.13 70.06 68.92 68.53 68.30 67.42 66.55 65.30 66.42 65.93 65.54 67.03 68.44 68.58 68.34 68.30 67.67 64.80 62.25 62.04 62.42 61.07 58.10 53.58 54.08 56.34 59.65 66.95 65.62 66.52 66.09 64.93 64.29 63.46 62.55
66.25 67.41 68.74 67.83 66.65 66.25 67.49 65.65 66.69 67.57 66.46 65.55 65.60 64.93 64.02 63.80 64.79 65.76 64.27 66.35 68.34 68.51 68.62 68.44 66.37 62.70 56.19 47.82 48.98 54.40 51.45 51.20 53.21 55.83 57.25 66.20 64.69 65.41 64.53 62.79 62.28 62.30 61.96
66.55 67.44 68.33 67.92 66.86 66.10 65.83 64.22 64.11 65.21 64.46 64.60 64.01 62.95 62.77 63.70 63.49 63.77 62.59 63.61 64.02 64.73 62.59 61.44 55.65 50.92 47.21 44.95 45.00 47.93 49.64 51.80 54.10 55.68 62.14 65.09 63.32 63.93 62.78 61.14 60.48 60.36 59.51
66.45 66.70 67.33 67.85 67.62 66.15 65.37 64.26 63.80 64.94 63.64 63.50 63.16 61.96 61.69 61.81 62.16 62.06 61.79 61.94 62.09 60.87 58.00 53.45 50.10 45.62 44.51 42.84 42.90 44.44 48.31 51.11 51.76 53.97 59.06 63.09 62.06 61.81 60.69 59.50 58.38 57.84 57.35
65.80 66.69 67.07 67.78 66.99 66.77 64.69 64.20 63.29 64.07 64.13 64.41 62.91 62.02 61.33 61.45 61.49 61.31 61.09 60.89 60.38 58.34 56.02 51.56 47.05 43.25 42.37 41.95 41.42 42.22 46.62 48.53 49.78 51.96 53.83 60.42 61.29 59.82 58.76 57.71 57.19 56.20 55.61
66.11 66.52 67.11 67.24 67.35 67.01 65.69 64.09 63.49 63.31 63.10 62.70 62.54 62.66 60.95 61.53 61.67 61.25 60.03 59.69 58.93 57.31 53.58 50.93 44.80 42.08 41.39 40.89 40.30 40.28 43.94 46.45 47.84 49.50 50.95 54.33 59.48 57.99 56.87 55.56 54.41 54.01 54.35
63.89 66.59 66.69 67.25 67.53 66.79 66.14 64.91 63.87 63.55 63.29 62.64 62.61 61.87 62.12 60.40 61.04 61.25 60.25 58.61 58.25 56.42 51.22 45.98 42.40 41.16 40.66 40.74 39.13 38.70 40.47 44.67 46.27 46.83 48.31 48.50 50.42 56.31 54.84 53.48 53.19 52.42 52.54
56.88 62.15 66.46 67.52 67.56 67.03 66.75 65.85 64.92 63.90 63.39 62.58 62.11 61.68 61.90 60.99 60.11 60.18 59.47 58.70 57.14 53.58 47.72 43.46 41.92 40.39 39.64 39.38 38.07 37.85 37.88 41.10 44.18 44.96 45.10 44.47 43.28 44.81 50.57 51.15 50.25 50.78 50.82
49.83 52.37 61.29 66.45 67.06 67.00 67.03 66.26 65.29 64.11 63.48 63.02 61.90 60.94 60.47 61.02 59.96 59.73 59.00 58.41 54.67 49.39 45.14 43.51 40.67 40.48 38.90 38.04 38.29 37.13 37.06 37.08 40.68 44.54 42.09 41.43 41.36 41.94 40.49 48.10 49.15 48.59 47.80
48.62 49.01 51.00 60.43 66.29 66.90 67.07 66.32 65.44 64.16 63.56 63.12 62.32 61.53 59.03 60.32 59.52 58.96 57.81 56.25 53.15 47.19 43.50 41.97 40.36 38.31 38.51 38.13 40.06 38.62 37.39 37.92 37.01 40.32 40.47 41.47 39.52 39.95 37.88 38.88 37.40 38.10 46.64
47.88 47.40 48.12 51.12 60.83 66.08 66.50 65.22 64.65 63.49 63.60 62.80 62.95 62.65 59.75 59.25 58.51 58.17 57.37 55.39 52.70 49.00 45.25 43.06 39.63 38.46 36.84 37.16 37.52 36.94 37.04 36.37 35.85 36.10 36.93 37.27 37.63 37.96 36.71 36.24 34.98 34.66 35.56
47.88 47.18 46.67 48.51 53.91 61.90 65.68 65.41 64.71 64.79 64.36 63.72 63.06 63.03 61.46 59.13 58.12 57.74 56.70 54.09 51.98 48.91 43.01 41.97 40.07 37.98 36.90 36.97 36.46 35.48 34.58 35.82 35.64 35.87 36.06 37.04 35.94 36.27 35.89 35.45 34.15 34.20 33.80
44.27 45.97 47.70 47.17 50.94 57.92 63.43 64.90 60.44 60.48 59.34 60.96 61.32 62.15 61.45 59.26 58.27 58.12 55.52 53.89 50.84 49.62 46.08 43.58 41.83 40.54 37.54 35.33 35.43 37.64 32.98 34.09 32.81 33.20 33.61 34.25 33.76 33.71 33.29 33.85 33.98 33.95 33.06
43.65 44.25 45.91 47.65 47.79 53.06 60.72 63.10 62.38 62.20 61.52 61.73 62.11 62.40 61.18 58.89 58.05 57.55 55.62 54.01 50.71 49.78 47.85 45.72 45.82 46.91 41.96 36.19 34.59 35.64 33.09 34.47 33.34 31.16 31.91 32.20 32.07 32.95 32.05 32.04 32.26 32.54 32.22
42.73 42.56 43.36 44.86 46.79 48.52 53.46 62.47 62.27 61.68 62.28 60.38 61.19 60.12 59.79 57.69 58.08 57.32 55.80 54.03 50.73 49.15 47.98 46.70 45.32 43.98 43.87 40.38 38.87 35.45 33.74 31.85 30.96 31.98 30.62 30.14 31.43 31.71 31.53 31.52 31.14 30.70 31.23
44.88 44.95 43.83 42.47 43.84 46.10 48.46 55.51 61.55 61.67 61.35 57.51 56.46 58.64 54.79 54.88 55.65 56.26 55.13 52.70 51.58 48.59 47.09 47.45 46.48 45.60 43.38 41.71 40.17 37.64 36.28 33.96 32.32 32.12 32.30 31.25 32.21 30.14 30.40 30.70 30.08 29.65 29.86

GFSSE_sfc_wetblb_045.txt.gz
Wetbulb
68.62 72.10 75.75 75.70 74.99 75.07 75.25 75.23 75.03 74.48 73.75 72.81 72.14 71.52 71.22 71.29 71.29 71.03 70.79 71.09 69.92 70.28 70.98 71.46 71.21 70.82 70.21 69.64 68.35 67.73 68.06 67.90 68.04 68.01 67.69 68.17 67.88 68.00 67.93 67.29 66.85 66.53 67.70
69.92 73.97 75.21 75.48 75.24 75.21 75.50 75.43 74.83 74.31 73.56 72.22 71.26 70.50 69.92 69.74 70.04 69.92 69.73 69.86 70.23 69.75 70.46 71.49 71.33 70.75 69.78 68.19 67.58 67.65 67.44 67.11 66.32 65.94 65.64 66.16 67.09 67.45 67.65 67.58 66.49 66.09 67.76
70.79 73.26 73.59 75.03 75.30 75.40 75.53 74.66 74.43 73.94 73.37 72.25 71.17 69.85 68.92 68.31 68.40 69.01 70.06 70.98 70.30 70.26 71.33 71.55 70.98 69.97 68.53 66.87 67.53 68.26 68.35 67.80 66.59 65.80 65.22 66.44 65.24 65.45 66.81 67.67 67.73 66.54 65.71
72.04 72.83 73.18 74.89 75.22 74.79 75.08 74.59 73.88 73.15 72.51 72.00 71.42 69.97 68.57 67.37 67.79 69.52 70.24 71.21 71.70 71.54 71.09 70.38 69.16 67.64 66.65 67.38 68.33 68.48 68.21 67.69 66.37 64.68 66.48 67.47 67.85 67.11 65.82 65.43 66.51 67.62 67.09
72.08 72.58 73.34 74.62 74.76 74.13 73.94 74.60 73.51 73.22 72.31 71.59 71.03 69.63 68.34 67.08 67.89 69.45 69.78 70.10 69.89 69.78 69.55 69.14 68.25 67.44 67.72 68.14 68.34 68.54 68.40 67.51 66.07 64.91 66.23 67.79 68.41 68.38 68.82 68.61 67.85 66.85 66.50
71.70 72.33 73.50 73.93 73.78 73.75 74.06 73.82 73.33 72.98 72.19 71.56 70.32 69.39 67.90 66.96 67.95 68.05 69.06 68.72 68.11 68.03 68.00 67.83 67.73 67.67 67.95 68.01 68.50 68.57 67.58 66.55 65.64 65.34 66.35 67.07 68.37 69.22 69.91 69.66 69.60 69.50 69.78
70.93 71.83 72.40 73.47 73.90 73.72 73.31 73.13 73.14 72.84 72.04 71.45 70.64 69.36 67.32 67.20 67.40 68.22 67.79 67.64 67.21 67.23 67.14 67.04 67.58 67.90 68.29 68.38 68.58 66.99 65.92 65.15 66.15 66.08 67.03 67.75 68.59 69.34 69.37 69.12 69.00 68.81 68.71
70.49 71.32 71.70 72.10 72.80 72.64 72.30 72.13 72.48 72.37 72.15 71.52 70.25 69.01 67.64 67.34 67.13 67.29 67.21 67.05 67.00 67.17 67.68 68.19 68.59 68.62 68.55 67.76 66.27 65.50 65.94 65.06 65.71 66.34 66.42 68.00 68.99 68.35 68.74 68.04 67.30 66.72 66.87
70.74 70.95 71.31 71.27 71.35 71.16 71.23 71.22 71.49 72.26 72.44 71.56 70.71 69.77 68.99 68.42 67.72 67.13 67.23 67.37 67.60 67.93 68.39 68.62 68.64 68.46 66.63 64.98 64.43 65.29 64.34 62.90 65.03 65.29 65.72 67.95 68.04 67.40 67.88 66.98 66.10 65.54 64.90
70.43 70.62 70.69 70.84 70.68 70.42 70.08 70.02 70.28 71.11 70.92 70.41 70.02 69.11 68.18 67.31 67.33 68.06 67.92 68.21 68.21 68.57 68.77 68.73 68.48 65.94 64.47 64.57 65.51 64.90 63.00 61.75 63.78 64.39 66.99 66.96 66.91 67.64 67.25 66.15 64.89 64.39 63.71
68.76 69.95 70.30 69.95 70.00 69.74 69.26 68.96 70.18 69.78 69.18 68.64 68.69 67.34 67.13 68.04 67.22 66.57 66.08 67.13 68.34 68.91 68.74 68.64 67.05 63.82 62.78 64.53 63.04 61.29 59.68 61.25 63.25 65.10 66.95 66.87 66.47 67.09 65.90 64.94 64.27 63.46 62.78
66.99 68.13 69.36 69.64 69.24 69.08 68.27 69.40 70.68 69.92 68.87 68.07 68.43 68.44 68.30 68.38 68.39 67.04 65.04 66.33 68.10 68.48 68.74 68.71 65.32 61.07 57.34 56.33 59.05 58.02 58.88 58.85 61.74 64.25 65.95 66.25 65.50 65.63 63.98 62.93 62.88 62.58 61.94
66.69 67.21 67.67 68.80 69.25 68.85 68.19 68.48 69.23 69.44 67.80 67.55 68.05 67.97 67.62 67.18 67.88 68.03 66.82 66.79 68.03 66.13 67.76 66.46 61.94 59.02 54.32 53.79 54.68 57.16 57.16 59.80 61.78 63.38 65.10 65.19 64.01 64.14 62.34 61.36 61.21 60.39 59.38
66.58 67.05 67.77 69.42 68.58 68.59 68.61 67.61 67.63 68.13 67.77 67.07 66.81 67.24 66.78 66.46 66.50 67.45 66.56 66.42 67.22 67.30 65.20 63.35 59.24 54.81 52.27 50.81 52.63 54.95 56.30 58.78 60.97 62.93 63.87 63.21 62.95 62.50 60.92 60.08 59.03 58.36 58.08
65.92 66.99 67.48 68.50 67.87 67.76 68.02 67.63 66.80 66.93 67.87 67.05 66.98 66.21 66.23 65.91 65.68 66.29 66.64 65.88 66.20 65.83 63.88 60.18 55.80 52.63 50.74 49.57 50.33 52.81 54.80 56.35 58.47 60.76 62.13 60.87 62.13 60.82 59.40 58.66 57.96 56.80 56.40
67.02 67.10 67.96 67.66 68.16 67.70 66.70 67.06 66.72 66.32 67.03 67.29 66.89 66.44 65.52 65.57 65.79 65.83 65.91 65.29 65.11 64.79 62.65 59.18 54.52 51.23 50.29 49.43 48.37 49.91 53.38 55.12 56.71 58.28 59.53 59.89 60.49 59.72 58.21 56.91 55.61 55.06 55.47
65.98 67.99 67.96 68.10 68.21 67.61 66.95 67.22 66.89 66.50 65.88 66.50 66.53 66.30 65.67 65.18 65.58 65.81 65.52 64.63 64.48 63.78 60.90 57.04 51.45 49.47 48.68 47.90 47.87 48.01 51.69 53.45 54.65 55.75 56.96 57.37 57.31 57.57 56.67 54.98 54.40 53.38 54.02
57.67 64.88 68.01 68.53 68.06 67.74 67.31 66.80 67.32 66.53 66.28 65.77 66.23 66.10 65.65 64.82 65.08 65.48 64.97 64.19 64.08 62.66 58.77 55.01 50.75 48.73 48.56 48.12 47.02 46.91 48.23 51.54 52.66 53.45 54.12 54.02 53.25 53.29 54.41 52.82 51.98 52.42 51.70
53.49 55.30 63.45 67.86 68.08 67.81 67.55 67.11 66.61 66.68 66.03 65.93 65.06 64.92 65.07 64.99 64.12 64.61 64.50 64.25 63.47 61.72 56.99 53.08 49.31 49.15 47.65 46.91 46.30 46.27 46.22 47.48 50.72 50.82 51.73 50.87 50.65 50.93 50.50 50.91 51.87 50.51 48.85
52.53 52.91 54.22 62.76 67.59 68.63 68.35 67.58 66.67 65.83 65.73 66.35 65.23 64.49 63.97 64.25 63.86 63.53 63.44 63.82 62.60 60.39 56.93 51.32 49.61 47.19 47.90 47.27 44.04 44.51 46.06 46.17 46.26 49.80 49.81 48.51 48.57 48.64 47.93 48.97 48.51 47.72 47.25
51.81 51.37 51.57 52.75 60.84 67.22 66.49 65.85 65.41 64.00 64.50 64.68 65.15 64.53 63.16 63.17 63.14 62.90 62.80 62.59 61.56 59.92 57.11 52.96 48.84 46.63 45.06 45.61 44.97 44.90 44.82 45.09 45.04 45.90 48.27 47.93 46.38 46.53 45.71 46.13 45.33 44.60 44.43
49.58 50.82 51.15 51.11 53.10 59.60 65.89 66.81 66.42 65.48 65.21 65.05 65.21 64.51 63.87 62.37 62.29 62.59 62.62 61.72 60.34 58.97 55.50 51.29 48.39 45.47 45.23 44.94 45.39 44.46 43.06 43.43 43.76 43.69 44.48 45.35 45.46 45.12 44.30 43.82 43.33 42.90 43.51
46.35 47.90 49.29 50.69 51.57 53.97 61.31 65.99 66.16 64.98 63.25 64.41 63.78 63.54 63.87 62.74 61.86 61.73 61.72 61.20 59.59 58.49 54.43 51.46 48.84 48.22 44.62 43.13 44.24 47.25 41.31 43.70 41.92 41.50 41.97 43.17 43.50 43.37 43.93 42.59 41.73 41.63 41.68
46.85 46.93 47.07 48.33 49.91 51.54 56.31 63.25 64.34 62.32 61.71 63.09 63.57 63.87 63.72 63.50 61.51 60.97 60.88 60.00 58.62 57.47 56.04 52.04 49.11 48.57 47.89 43.57 40.30 40.01 41.24 44.49 42.99 39.67 39.64 40.63 40.98 41.14 41.79 40.82 40.51 40.31 40.27
48.84 48.86 48.13 46.88 47.24 49.30 51.49 58.93 63.42 63.20 63.22 64.08 64.14 63.70 63.53 62.46 61.84 60.82 60.46 59.32 57.92 57.23 57.30 54.05 49.44 48.46 48.89 47.67 44.18 38.99 38.49 37.63 37.10 40.98 39.73 37.80 38.13 39.29 39.96 39.98 39.83 39.82 39.27
49.01 49.37 49.64 49.40 49.61 48.65 49.02 51.10 59.18 62.98 62.86 62.59 62.48 62.34 62.62 61.43 60.74 60.50 59.84 58.86 58.15 56.34 55.53 52.87 51.99 50.51 49.31 48.79 46.67 42.95 41.44 39.86 37.36 38.73 36.61 37.18 38.20 37.66 37.83 37.74 38.56 38.69 38.11

GFSSE_sfc_wetblb_048.txt.gz
Wetbulb
71.78 74.28 76.31 76.34 75.48 75.34 75.60 75.30 75.13 74.88 74.03 73.42 72.83 72.50 72.34 72.10 71.86 71.34 71.15 70.37 70.18 70.99 71.48 71.39 70.85 70.36 70.16 69.12 68.39 68.61 68.41 68.53 68.37 68.26 67.89 68.49 68.32 67.95 67.41 66.98 66.19 66.94 66.98
72.83 74.30 75.63 75.77 75.66 75.68 75.75 75.57 75.20 74.37 73.23 72.54 71.73 71.11 70.89 70.87 70.78 70.18 69.72 70.63 69.71 70.48 71.48 71.72 71.31 70.25 68.97 68.38 68.13 67.68 67.34 66.77 66.63 66.12 66.44 66.80 68.30 67.81 68.60 67.13 66.47 67.78 68.29
72.64 74.30 73.97 75.40 75.59 76.02 75.92 75.05 74.38 73.46 72.83 72.14 71.05 69.95 69.39 69.38 69.24 69.36 70.92 70.28 70.32 70.39 71.72 71.58 70.67 69.55 67.90 67.94 68.29 68.39 67.85 66.76 66.77 66.31 65.72 66.14 64.87 66.48 67.58 68.37 66.71 65.95 65.73
73.81 74.56 74.28 75.17 75.70 75.90 75.52 74.40 73.90 73.20 72.65 71.96 70.92 69.67 68.31 67.82 68.74 69.98 71.66 71.92 71.50 71.57 71.51 70.34 68.83 67.29 67.50 68.28 68.44 68.35 67.85 66.97 66.11 65.49 67.82 68.14 67.70 66.22 65.56 66.10 67.36 67.65 66.78
73.40 73.86 74.58 75.25 75.61 75.68 75.24 74.54 73.78 73.05 72.57 72.16 71.59 69.42 68.04 67.41 69.94 70.59 71.00 71.16 70.83 70.23 69.68 68.83 67.76 67.48 68.00 68.42 68.45 68.56 68.04 66.73 65.11 67.07 68.58 69.44 68.87 69.33 68.85 68.06 67.23 66.55 66.85
73.05 73.81 73.96 74.66 74.34 74.44 74.40 74.32 73.62 72.93 72.27 71.47 70.74 69.58 67.69 67.33 69.34 69.48 69.86 69.29 69.08 69.11 68.93 68.37 67.59 68.25 68.35 68.33 68.66 68.07 67.37 66.67 66.03 67.56 68.08 68.05 69.25 69.60 70.28 69.90 69.81 69.83 69.93
72.52 73.21 73.56 74.38 74.38 73.78 74.06 74.08 73.83 72.98 72.21 71.15 70.38 69.17 67.47 67.44 68.33 68.08 68.65 68.13 67.95 67.72 67.37 67.75 67.97 68.05 68.35 68.61 68.24 66.83 66.32 65.67 67.21 67.11 67.72 68.88 69.32 69.49 69.61 69.06 68.47 68.58 68.90
72.33 72.41 72.81 71.91 72.90 73.23 73.42 73.51 73.46 72.90 72.14 71.30 70.39 68.64 67.62 67.57 67.89 67.93 67.54 67.34 67.33 67.37 67.43 67.93 68.38 68.55 68.58 67.82 66.41 65.98 66.20 66.68 66.52 66.85 67.33 68.98 69.13 68.87 68.66 67.54 67.07 66.86 66.67
72.70 71.77 71.86 71.94 71.66 71.55 71.87 72.28 72.73 72.70 72.24 71.79 70.83 69.19 68.87 68.49 67.90 67.39 67.18 67.17 67.29 67.84 68.39 68.70 68.74 68.54 66.83 65.26 65.09 65.92 64.87 63.77 67.29 66.89 66.92 67.64 67.96 68.12 67.68 66.57 65.84 65.31 65.06
72.09 71.52 71.35 71.43 71.87 72.01 71.76 70.65 70.90 71.60 71.48 71.01 70.32 69.27 67.97 67.43 67.72 67.96 68.26 68.19 67.99 68.48 68.81 68.89 68.27 65.67 64.86 65.78 65.73 64.64 63.47 63.75 66.41 66.74 67.77 66.80 67.20 67.84 67.23 65.53 64.70 64.12 63.81
70.66 71.31 71.42 70.86 71.14 70.99 69.99 69.73 69.94 69.98 69.95 69.37 68.87 67.43 66.63 67.04 67.11 66.97 66.78 67.71 68.74 69.31 68.98 68.83 66.10 64.30 65.32 64.54 63.77 61.86 61.68 65.83 65.35 66.03 66.67 66.91 67.04 66.90 65.74 64.56 63.76 63.17 62.80
67.46 69.49 71.16 71.13 70.61 70.02 68.78 69.41 68.30 70.54 70.75 70.44 68.80 68.41 68.46 68.21 67.50 66.22 65.31 66.83 68.18 68.86 68.92 68.16 64.70 62.07 61.21 63.06 62.55 59.59 63.28 63.06 64.69 65.48 65.78 66.45 66.35 65.29 64.01 63.41 63.07 62.46 61.71
67.90 68.44 69.23 70.69 70.63 69.61 68.92 69.12 69.00 70.79 70.14 69.94 68.37 68.13 68.51 68.58 68.72 67.94 66.64 66.79 67.98 66.30 67.87 67.40 64.33 62.60 60.76 60.25 60.42 61.27 61.14 61.52 62.33 64.08 64.94 65.78 65.40 63.99 62.29 61.89 61.53 60.34 59.40
67.29 68.27 68.70 69.31 70.56 69.83 69.61 69.06 68.93 69.57 69.94 69.15 68.63 67.84 68.29 67.92 68.21 68.22 67.55 66.46 67.16 67.88 67.76 67.98 65.72 62.79 60.34 58.69 59.12 59.43 58.98 59.91 61.28 62.24 64.18 63.91 64.32 62.59 61.35 60.41 59.59 58.79 58.49
67.42 68.16 68.49 68.97 70.94 70.11 69.76 69.77 69.26 68.95 69.32 69.46 69.20 68.33 67.78 67.58 67.47 68.20 68.12 67.53 66.42 67.24 67.25 66.60 64.92 61.17 58.97 57.37 56.86 57.28 57.27 57.91 59.40 61.89 63.04 61.58 63.22 61.49 60.30 59.28 58.67 57.68 57.36
69.14 68.93 68.64 68.93 70.04 70.70 68.45 69.97 69.81 69.64 69.36 69.64 69.17 68.88 68.02 67.32 67.33 67.37 67.55 67.58 67.14 66.68 66.77 65.92 64.17 60.65 58.40 56.51 55.13 55.68 56.37 57.02 57.90 59.60 60.81 61.26 61.78 61.05 59.22 58.50 56.84 56.29 56.70
65.51 68.51 69.90 70.15 70.25 69.59 68.39 68.43 69.99 70.19 69.64 69.13 69.14 69.13 68.58 67.63 66.95 66.83 66.90 67.24 67.38 67.18 65.94 65.38 63.09 59.89 57.40 55.33 54.71 54.22 55.45 56.04 56.62 57.96 58.91 59.29 59.00 58.95 58.61 56.52 55.50 54.94 55.38
59.16 61.24 65.84 68.89 70.22 70.05 68.98 68.90 68.78 69.87 69.94 69.51 69.35 69.02 68.54 67.87 67.35 66.83 66.60 66.88 67.68 67.10 65.41 64.07 61.49 58.06 56.66 55.05 54.30 53.36 53.71 54.85 55.49 56.14 57.23 57.49 57.32 56.49 55.84 55.48 54.48 53.71 53.64
58.69 58.91 59.48 64.93 68.07 69.57 69.82 68.78 68.67 68.60 69.32 69.94 69.40 68.86 68.67 67.93 67.26 66.77 66.48 66.76 67.33 66.55 64.82 63.30 61.39 59.29 56.42 54.86 53.89 53.04 52.18 53.04 54.09 54.17 55.11 55.56 55.46 54.90 54.63 53.35 53.87 53.50 50.98
58.10 58.58 58.84 59.83 64.01 67.53 69.57 68.49 68.21 67.30 67.59 70.06 69.62 69.04 68.69 68.18 67.60 67.06 66.15 66.27 66.66 65.76 64.73 62.73 60.12 58.26 57.19 55.70 51.32 50.35 51.21 51.03 52.30 53.40 53.65 53.74 53.43 53.48 53.05 52.07 51.33 50.26 48.97
55.17 56.10 57.25 57.61 59.02 62.82 65.62 67.16 66.44 65.37 65.93 66.31 67.95 69.34 68.78 67.92 67.30 66.81 66.06 65.75 65.89 65.01 64.58 62.80 60.16 56.79 53.83 54.63 50.94 50.32 49.92 50.10 49.63 50.46 52.75 52.53 51.62 51.64 51.33 51.23 50.75 49.54 47.85
51.90 53.45 55.02 56.10 57.07 58.27 62.03 66.18 67.40 67.19 66.92 67.72 66.90 66.55 67.13 67.67 66.93 66.60 66.06 65.49 65.27 64.70 64.31 63.42 60.37 55.95 55.61 52.80 52.46 52.93 49.41 48.29 47.89 48.69 50.00 50.82 50.89 50.47 49.58 49.36 49.21 48.19 47.88
53.35 52.53 52.23 53.37 54.97 56.14 57.65 61.31 65.28 67.30 67.79 66.52 66.29 65.36 66.15 66.60 66.86 66.56 66.01 65.98 65.30 64.81 63.81 63.57 60.63 57.13 54.53 51.81 53.52 55.14 49.74 49.51 47.60 48.22 47.49 48.57 49.26 49.12 48.98 48.65 47.80 47.15 46.78
53.99 54.97 54.41 53.23 52.92 53.80 55.33 56.19 59.00 62.79 63.31 64.57 64.93 65.91 66.82 65.39 65.46 66.03 65.62 65.48 65.22 64.67 63.02 62.68 60.81 58.53 58.18 52.10 50.62 49.89 49.47 49.68 47.39 41.22 44.92 45.88 47.34 47.42 48.20 47.81 46.08 45.21 44.78
54.40 54.69 55.51 55.41 55.08 54.26 53.68 54.78 56.32 59.81 63.12 63.85 64.32 65.00 65.59 65.95 64.69 63.92 63.98 64.32 64.33 63.83 62.89 62.25 59.78 58.16 58.50 56.57 51.43 48.51 46.66 45.92 46.28 46.54 44.75 41.26 43.94 44.92 45.79 45.82 45.14 44.48 43.68
54.36 54.41 54.85 54.67 55.04 55.21 55.04 53.75 54.41 56.49 60.61 62.04 63.40 64.01 65.16 65.32 63.85 63.27 62.57 63.05 63.82 63.35 61.90 61.58 59.90 57.58 57.02 57.04 52.80 51.07 49.59 48.75 46.48 45.37 45.14 42.32 41.27 43.06 43.59 43.23 42.64 43.03 42.37

GFSSE_sfc_wetblb_051.txt.gz
Wetbulb
72.54 73.78 76.38 75.90 75.88 75.67 75.43 75.23 75.26 75.18 74.79 74.04 73.53 73.02 72.98 72.43 71.80 71.26 70.82 70.37 70.73 71.25 71.69 71.48 70.89 70.75 69.98 69.41 69.42 69.08 68.94 68.41 68.42 68.36 68.49 69.12 68.20 67.61 67.14 67.31 67.83 66.72 67.94
73.82 73.55 76.19 75.95 75.91 75.86 75.97 75.61 74.95 74.51 73.73 72.91 72.32 71.99 71.52 71.33 70.60 69.99 70.32 69.96 69.57 70.65 71.51 71.32 70.93 69.79 69.19 68.89 68.29 67.87 67.29 67.08 66.36 65.99 67.63 68.10 69.00 68.90 68.69 67.03 68.20 67.88 67.75
73.22 74.29 74.53 75.37 76.00 76.20 75.92 75.00 74.14 73.53 72.84 72.07 71.31 70.41 70.03 69.97 69.30 69.68 70.55 70.14 69.68 71.03 71.74 71.23 70.14 68.68 68.55 68.49 68.53 67.94 67.16 67.31 66.57 65.88 67.12 64.75 65.15 67.46 68.62 67.53 67.39 66.40 66.44
73.46 74.13 73.82 75.41 75.97 76.01 75.24 74.44 73.73 73.16 72.52 71.42 70.53 69.24 68.40 68.24 69.67 71.75 71.61 70.94 70.72 71.66 71.27 69.96 68.32 67.75 68.36 68.48 68.54 68.07 67.26 66.86 65.71 66.52 67.36 67.33 66.50 66.55 66.19 67.10 68.01 67.61 66.83
73.67 73.88 74.54 75.49 75.87 75.73 75.28 74.55 73.58 73.04 72.48 71.29 70.24 68.88 67.88 68.80 70.51 71.64 71.91 71.50 71.21 70.40 69.33 68.27 67.61 68.01 68.43 68.55 68.63 68.25 67.14 65.58 66.07 67.41 67.90 68.89 69.12 69.43 69.24 68.62 68.68 68.59 66.83
73.16 74.26 73.97 75.24 75.54 75.33 74.93 74.36 73.57 72.95 72.37 71.22 70.41 69.03 67.38 69.14 70.25 70.73 70.33 70.15 69.93 69.86 68.85 68.15 67.96 68.30 68.48 68.70 68.50 68.04 67.19 66.01 66.61 67.26 67.64 69.10 69.21 70.16 70.59 70.02 69.81 70.37 69.49
72.42 74.42 73.86 74.83 74.74 74.72 74.38 73.83 73.77 72.85 71.86 71.30 70.49 68.80 67.41 68.64 69.07 69.96 68.94 68.83 68.61 68.24 68.04 67.92 68.07 68.27 68.53 68.71 67.76 66.79 66.29 66.30 66.76 66.77 67.65 67.38 68.85 69.70 69.63 69.03 68.93 68.81 68.79
72.14 73.14 73.00 72.82 73.55 73.39 73.78 73.80 73.74 72.92 72.24 71.33 70.90 68.40 67.42 68.09 68.34 68.40 68.20 68.01 67.83 67.50 67.57 67.86 68.13 68.53 68.56 67.75 66.52 66.34 65.80 66.56 66.26 66.27 67.85 67.23 69.19 68.78 68.27 67.42 67.01 66.84 66.69
72.54 71.91 72.13 71.75 71.35 71.81 72.14 72.58 73.36 73.14 72.33 71.46 70.47 68.73 68.51 68.71 68.83 68.00 67.67 67.47 67.50 67.73 68.01 68.53 68.72 68.48 66.81 65.63 65.88 65.95 64.82 65.42 66.03 66.03 67.13 66.36 68.57 68.28 67.33 66.38 65.82 65.31 65.10
72.28 71.38 71.28 71.43 71.45 71.36 71.60 71.17 71.82 72.18 71.63 71.10 69.76 69.03 67.82 67.37 67.63 67.78 68.06 67.92 67.80 68.31 68.81 68.94 68.35 66.10 65.21 65.45 65.66 64.81 64.36 64.86 66.04 65.89 66.54 66.41 68.17 67.91 66.63 65.62 64.41 64.25 64.21
71.18 71.27 71.34 70.97 71.38 71.34 71.09 70.71 70.23 70.58 70.38 69.45 68.69 67.18 66.29 66.31 66.44 66.32 66.87 67.94 69.02 69.32 69.15 68.79 66.15 65.03 65.94 65.65 64.52 63.40 63.86 65.00 64.69 64.85 66.04 67.63 67.48 66.90 65.69 64.52 63.57 63.44 63.01
69.52 70.51 71.10 70.82 70.60 70.56 69.37 69.89 68.54 68.67 70.67 69.43 68.98 67.65 66.53 66.63 66.13 65.69 65.90 67.19 68.07 68.82 69.24 67.75 65.30 64.17 64.80 63.43 62.86 61.53 62.56 63.02 63.45 64.07 65.28 67.61 66.36 65.30 64.40 63.87 63.45 62.61 61.36
68.10 69.71 70.81 71.05 70.76 69.94 68.64 68.89 67.91 68.23 70.30 70.47 69.40 67.83 66.94 67.51 66.93 65.97 66.09 65.88 67.14 65.95 67.21 67.12 64.38 61.83 61.80 61.78 62.31 62.04 61.84 61.62 61.60 63.09 64.68 66.71 65.40 64.03 63.07 62.51 62.02 60.58 59.62
68.16 68.25 69.10 71.04 70.85 70.02 69.11 68.42 68.26 69.47 69.67 69.19 69.05 67.69 67.27 67.61 67.71 66.42 65.72 65.16 66.26 66.97 66.86 67.41 66.41 64.00 62.10 61.03 60.88 60.89 60.51 60.14 60.16 61.53 63.55 64.06 64.94 63.48 62.01 61.36 60.17 59.37 58.90
68.13 69.42 68.75 69.46 70.53 70.69 69.39 68.99 68.73 68.68 69.57 69.30 68.79 67.91 67.47 67.59 67.18 67.73 67.22 66.38 65.88 66.96 66.82 67.23 66.49 64.08 62.09 60.48 59.83 59.58 58.81 58.80 59.11 61.02 63.46 62.14 64.07 62.60 61.35 60.28 59.45 58.82 58.31
68.63 69.28 69.91 68.81 69.37 70.97 70.09 69.74 69.79 69.70 69.74 69.75 69.31 68.66 67.46 67.37 67.27 67.39 67.39 67.25 66.47 66.06 66.50 66.30 65.69 63.91 61.21 59.63 58.31 58.09 58.29 58.23 57.93 59.64 61.68 61.26 62.64 62.32 60.45 59.89 58.55 57.58 57.86
68.19 69.65 70.05 70.07 70.47 70.56 70.97 69.96 70.19 70.65 70.22 69.69 69.85 69.51 68.30 67.48 67.16 66.97 67.01 67.22 67.42 67.07 65.99 65.77 65.18 63.85 61.06 59.00 57.52 56.96 57.40 57.61 57.12 57.69 59.29 60.69 59.89 60.13 60.71 59.28 57.54 56.90 56.99
61.63 62.32 66.51 69.57 70.47 70.42 70.56 69.92 69.35 70.60 70.54 70.05 70.02 69.93 69.21 68.23 67.62 66.87 66.62 66.60 67.34 67.42 66.79 65.38 64.40 62.20 60.04 58.06 56.70 56.38 56.01 56.70 56.35 56.37 57.96 58.13 58.86 57.72 58.17 58.29 56.73 55.91 56.10
60.16 60.68 61.00 62.54 66.09 69.37 70.33 70.09 69.01 68.93 69.94 70.58 70.29 69.86 69.59 68.95 68.16 67.14 66.58 66.65 66.70 67.05 65.12 65.32 63.92 61.57 59.42 58.26 57.13 56.55 55.08 55.71 55.33 55.05 55.60 56.75 57.22 56.88 55.91 57.04 56.57 56.18 54.77
58.98 59.36 59.79 60.24 60.66 63.79 67.44 69.15 69.56 68.27 68.26 69.28 70.54 70.21 69.73 69.43 68.87 67.85 67.14 66.68 66.49 66.37 65.36 65.16 63.41 62.28 60.50 58.60 55.83 54.50 54.64 54.18 55.02 54.72 54.29 54.88 55.30 54.96 54.98 53.01 51.87 51.79 52.85
56.55 57.11 58.08 58.73 59.48 60.11 62.96 64.98 68.16 66.74 66.70 66.61 69.12 70.66 69.88 69.45 69.02 68.40 67.41 66.84 66.57 65.71 65.64 65.24 63.55 61.37 59.09 59.33 55.53 53.01 53.35 53.16 52.02 52.67 54.03 53.85 53.65 53.43 53.45 52.32 50.73 50.61 49.09
53.61 54.26 55.40 56.97 58.41 59.38 60.10 62.15 65.86 67.92 66.52 66.74 66.96 67.81 69.39 69.78 69.21 68.16 67.71 66.79 66.31 65.22 65.05 64.43 63.26 60.58 58.65 57.93 53.24 52.86 50.36 50.32 50.32 50.85 51.21 52.15 52.17 51.65 51.24 50.79 50.53 49.92 48.98
54.74 54.98 54.20 54.25 55.46 57.15 58.70 59.69 61.54 65.94 67.59 67.22 67.20 66.92 66.53 67.33 68.84 68.49 67.62 67.18 66.57 65.72 64.42 64.27 63.85 60.83 56.85 56.01 55.32 54.89 51.64 50.33 48.56 49.60 48.84 49.79 50.41 50.09 49.68 49.31 48.96 48.76 48.22
55.00 56.42 56.32 55.93 54.98 54.99 56.17 56.26 56.89 58.82 61.68 64.92 65.97 66.73 66.80 67.11 66.17 66.78 66.20 66.44 65.98 65.87 64.75 64.47 64.17 62.08 58.70 54.59 53.36 54.13 56.27 52.38 49.07 43.64 47.38 47.59 48.72 48.71 48.59 48.41 47.71 47.46 46.38
55.35 55.71 56.44 56.66 56.54 56.61 55.64 55.13 55.53 55.97 58.19 61.56 64.18 64.60 64.84 66.15 66.96 65.43 64.96 65.12 64.96 64.57 64.33 64.45 63.63 62.44 58.87 57.70 52.31 53.14 51.92 49.70 48.57 47.95 42.79 42.87 45.71 46.68 47.93 47.54 46.65 45.70 44.85
55.36 55.48 55.70 55.19 55.51 56.59 56.54 56.56 54.87 54.96 55.50 57.38 60.80 62.76 63.47 64.75 65.71 66.13 63.88 63.39 63.41 63.29 63.13 63.28 63.72 62.17 59.67 59.02 56.96 54.61 51.26 49.39 47.09 46.26 46.11 44.28 42.28 43.45 45.12 45.97 45.36 44.48 44.07

GFSSE_sfc_wetblb_054.txt.gz
Wetbulb
70.16 73.46 76.18 76.94 76.50 76.41 76.08 75.58 75.35 75.24 75.07 74.33 73.93 73.64 73.18 72.55 71.87 71.46 70.85 70.90 71.48 72.00 72.18 71.65 71.28 70.64 70.47 70.33 69.92 69.29 68.65 68.62 68.65 69.07 69.42 69.08 68.59 67.49 67.93 69.06 69.39 66.77 69.10
71.10 73.21 75.91 76.38 76.26 76.31 76.19 75.71 75.45 74.87 74.25 73.67 73.16 72.56 71.99 71.40 70.58 70.31 70.86 70.11 70.77 71.77 71.52 71.46 70.29 69.91 69.61 69.06 68.48 67.94 67.61 66.83 66.42 67.84 68.77 68.71 69.19 69.39 67.74 67.96 69.28 67.21 68.69
70.81 72.80 74.40 75.66 75.88 76.13 75.95 74.79 74.49 73.92 72.94 72.25 71.83 71.23 70.74 70.35 69.31 70.43 70.26 70.50 70.76 72.03 71.85 70.51 69.49 69.25 68.99 69.00 68.24 67.71 67.68 66.95 66.40 66.82 68.19 63.08 64.46 68.27 68.88 68.76 67.66 67.06 67.69
72.06 72.13 72.48 75.49 76.13 76.09 75.47 74.40 73.93 73.17 72.07 71.15 70.38 69.64 69.02 69.03 71.32 71.70 71.03 70.81 71.87 71.99 70.82 69.14 68.63 68.75 68.68 68.79 68.20 67.56 67.27 66.30 66.48 67.90 65.93 66.69 65.70 67.77 67.83 68.04 68.25 67.92 68.15
71.75 72.22 73.80 75.66 76.07 75.63 75.00 74.53 74.16 73.44 71.85 70.82 69.75 68.81 68.47 70.29 72.11 72.10 71.97 72.19 71.80 70.57 69.05 68.34 68.34 68.49 68.66 68.76 68.46 67.38 66.05 65.99 67.52 67.09 66.62 66.72 67.68 69.72 70.24 70.53 70.46 68.70 68.64
71.16 72.18 74.36 75.42 75.74 75.35 74.85 74.39 74.07 73.26 72.05 70.55 69.75 68.38 68.62 70.98 71.57 71.15 71.10 70.66 70.92 70.33 68.82 68.38 68.34 68.63 68.97 68.83 68.50 67.75 66.84 67.22 67.67 64.77 67.20 68.86 67.56 70.38 70.51 70.17 70.11 70.09 70.14
71.61 72.29 73.70 75.21 75.43 75.04 74.20 73.82 73.91 73.53 72.02 71.13 69.82 68.23 68.26 70.21 70.79 70.07 69.71 69.75 69.31 68.93 68.36 68.44 68.50 68.66 68.94 68.41 67.71 66.88 66.20 67.04 64.28 65.97 66.69 66.84 67.27 69.47 69.05 69.09 68.82 68.53 68.65
71.36 71.93 72.32 73.36 74.31 74.39 73.57 73.36 73.48 73.29 72.53 71.62 69.87 68.19 68.14 69.31 70.02 69.26 68.92 68.67 68.23 68.14 68.20 68.14 68.56 68.77 68.67 67.55 66.80 66.34 66.50 66.34 64.89 64.75 65.88 66.59 69.07 68.68 68.11 67.36 66.93 66.82 66.94
70.77 70.71 70.33 70.26 71.43 72.25 72.51 72.85 72.78 73.18 71.99 71.29 70.38 69.19 69.16 69.35 69.29 68.40 68.28 68.33 68.17 67.98 68.38 68.71 68.79 68.42 66.99 66.21 66.31 65.77 66.03 65.76 62.24 63.59 65.71 64.46 69.05 67.94 67.19 66.46 65.82 65.65 65.44
68.70 69.73 68.98 68.68 69.16 69.92 70.72 71.40 71.83 71.81 70.97 70.74 69.46 68.68 67.44 67.10 67.69 68.46 68.09 68.51 68.72 68.77 69.13 69.10 68.48 66.46 65.72 65.74 65.58 65.08 65.00 64.71 60.88 62.77 64.19 66.27 68.39 67.63 66.53 65.23 64.77 64.68 64.15
68.56 67.67 68.72 68.55 68.57 69.21 69.36 69.69 70.66 70.75 70.15 69.11 67.95 66.76 65.47 63.83 64.76 65.46 65.85 67.28 68.68 69.50 69.81 68.95 66.79 65.90 66.34 66.01 65.33 65.03 64.02 60.61 60.32 61.61 63.88 68.35 67.63 66.86 65.66 64.57 64.03 63.66 62.91
66.20 67.12 67.46 68.36 68.81 68.82 69.45 68.39 67.92 68.89 68.82 67.83 65.99 64.25 63.36 62.63 63.10 64.44 65.18 66.91 68.40 68.99 69.35 68.20 66.41 65.99 64.77 61.03 60.14 62.31 58.88 58.73 58.64 61.82 64.61 67.82 66.62 65.75 64.89 64.35 63.57 62.48 61.41
66.00 67.23 67.47 67.26 67.16 66.75 65.55 66.48 65.51 65.95 67.54 67.69 66.81 64.69 63.60 63.19 62.28 63.57 63.75 63.99 64.25 64.67 66.04 65.22 62.78 59.41 57.79 58.32 58.17 57.28 57.37 56.77 56.16 60.32 65.35 66.93 65.71 64.80 63.99 63.48 62.49 61.07 60.42
65.84 66.26 67.63 68.12 67.19 66.16 65.20 64.37 64.22 65.12 67.30 67.86 67.80 65.39 63.44 62.50 62.45 61.45 62.61 61.81 63.07 63.41 63.59 63.97 62.01 59.27 57.71 56.71 55.90 56.07 56.43 55.71 54.42 59.16 62.92 65.35 65.45 63.85 62.86 62.23 61.12 60.22 59.90
65.53 66.79 67.60 67.60 67.63 66.92 65.09 64.51 64.20 64.20 67.58 66.79 65.44 64.58 64.00 63.15 63.39 63.13 62.09 61.87 62.62 63.04 62.83 64.02 63.15 61.69 57.55 56.36 55.63 55.22 54.37 54.08 53.73 58.01 58.95 63.26 64.42 63.44 62.27 61.61 60.59 59.93 59.40
65.42 66.62 67.64 68.17 67.48 67.80 66.11 65.39 64.78 64.93 65.68 66.12 65.27 64.99 63.78 63.63 63.50 63.57 63.26 62.51 61.43 61.74 62.59 63.83 63.40 59.94 57.32 55.93 54.10 53.85 53.18 52.90 52.57 56.04 58.31 60.29 63.14 63.24 61.69 61.02 60.55 59.61 59.33
65.73 66.64 67.63 67.52 67.65 67.09 67.54 66.63 66.32 66.78 66.88 65.90 66.31 65.75 65.28 63.72 63.45 63.15 62.98 62.77 62.75 62.19 61.65 61.51 61.22 60.29 56.81 55.15 52.92 52.24 52.42 52.16 52.04 52.75 57.70 57.54 59.79 61.18 61.87 60.90 59.83 59.11 59.24
56.84 57.52 66.03 69.12 68.25 67.80 67.93 68.13 66.90 66.97 67.80 66.73 66.76 66.74 65.71 64.93 63.75 62.85 62.56 62.40 62.98 63.00 61.72 60.84 60.12 58.65 55.86 53.28 51.53 50.90 50.85 51.81 51.32 51.24 53.64 56.58 55.91 55.86 59.59 61.29 59.42 58.33 58.32
55.55 56.74 57.38 58.65 63.70 67.83 68.03 67.26 66.94 67.07 66.87 67.99 67.88 66.70 66.46 66.07 65.04 63.90 62.27 62.32 62.81 62.33 62.12 61.51 59.81 58.08 54.65 52.56 51.83 50.90 49.54 50.21 50.66 51.86 51.50 52.35 54.07 53.56 52.64 58.30 58.60 58.39 57.97
53.53 54.16 54.84 56.29 57.39 57.92 62.07 66.27 67.20 65.27 66.51 66.99 67.33 67.32 66.66 66.22 65.33 64.23 63.09 62.32 62.47 61.51 61.58 61.11 59.33 58.15 55.23 53.81 53.61 51.86 48.89 48.87 49.83 49.40 49.06 51.88 51.29 51.34 51.12 50.71 50.12 50.76 56.92
50.99 51.52 52.24 53.23 54.87 55.07 55.27 58.41 65.57 65.47 65.86 65.87 67.37 67.08 67.52 66.09 65.86 64.22 64.15 63.48 62.71 62.20 62.27 61.94 59.94 57.80 55.19 54.11 50.43 47.77 47.37 47.96 47.32 48.31 48.94 48.81 49.98 50.34 49.09 48.12 47.27 46.38 49.04
49.51 49.69 49.81 50.53 52.68 54.47 54.83 55.44 58.16 65.47 65.94 65.96 65.40 66.39 66.16 66.93 66.63 65.35 64.09 63.89 63.05 62.07 60.80 61.79 61.14 58.63 55.35 54.50 48.85 45.98 43.40 45.34 46.24 46.74 46.92 48.64 48.19 48.80 48.64 47.80 46.88 45.74 44.93
50.78 51.36 51.98 51.80 51.40 51.50 52.17 53.50 53.91 55.14 63.41 63.30 63.08 63.81 65.60 66.04 65.64 66.38 65.88 64.73 62.25 62.12 61.25 61.06 61.27 59.06 56.63 53.44 51.47 48.95 46.30 45.21 42.96 44.73 45.27 46.14 46.79 46.10 46.71 46.91 46.41 46.47 44.68
51.10 52.60 53.46 53.54 52.49 51.73 51.09 50.62 50.34 50.75 51.71 58.93 63.27 65.04 65.24 65.22 64.95 65.17 64.64 64.73 65.39 64.79 63.16 62.09 61.22 59.86 56.61 53.12 51.27 52.85 51.49 48.33 43.73 39.65 42.81 43.40 45.47 45.91 45.93 44.98 45.70 45.71 44.91
51.86 51.83 52.12 52.46 52.51 52.70 52.41 50.93 49.70 49.72 50.95 52.24 54.14 58.19 61.41 62.46 64.07 63.93 64.05 64.16 63.56 64.36 63.56 63.14 61.77 61.53 59.98 56.50 53.10 49.89 51.01 46.47 43.65 42.43 37.96 41.22 43.06 44.09 44.72 45.87 45.03 44.69 44.03
50.52 50.52 50.75 51.34 51.50 52.15 52.24 52.27 51.37 49.44 49.01 49.32 50.38 52.52 57.21 59.28 60.51 62.60 62.75 63.12 63.28 63.00 63.08 62.49 62.85 61.27 61.11 58.96 55.42 52.47 50.53 50.76 46.71 42.63 43.64 41.21 41.62 42.39 44.35 44.50 43.96 42.67 41.56

GFSSE_sfc_wetblb_057.txt.gz
Wetbulb
69.75 74.12 76.82 76.86 76.18 76.00 75.87 75.55 75.38 75.47 75.16 74.36 74.03 73.71 73.00 72.29 71.81 71.23 71.24 71.75 72.30 72.36 71.91 71.47 71.08 71.16 70.92 70.38 69.49 68.92 68.61 68.47 68.66 69.20 69.12 69.63 68.19 68.88 69.80 68.73 68.39 67.20 68.89
72.34 74.73 76.40 76.58 76.56 76.45 76.18 75.36 75.57 75.15 74.61 74.15 73.69 72.97 72.05 71.16 70.68 71.00 70.28 71.01 71.87 71.77 71.40 70.56 70.31 70.10 69.64 69.00 68.41 67.83 67.23 67.25 68.10 68.36 69.36 68.67 69.52 68.37 68.16 68.35 68.44 67.73 69.07
72.26 74.78 75.05 76.06 76.33 76.29 75.82 75.22 74.71 74.34 73.69 73.00 72.54 71.68 70.96 69.58 70.32 70.39 70.68 70.98 72.19 72.11 70.48 69.95 69.64 69.32 69.17 68.37 67.92 67.76 67.72 67.35 66.61 67.78 68.17 63.26 65.11 69.12 69.16 67.91 67.95 67.92 68.13
72.58 73.52 73.86 75.58 76.17 75.99 75.31 74.59 74.08 73.37 71.77 71.13 70.72 70.15 69.27 70.83 71.50 71.00 70.99 71.76 72.41 71.17 69.64 69.27 68.83 68.69 68.71 68.08 67.54 67.47 67.54 67.19 66.95 67.89 65.65 63.64 65.90 68.54 68.98 68.75 68.41 69.18 68.09
70.70 71.85 74.00 75.41 75.98 75.69 74.98 74.64 73.98 72.64 71.13 70.28 69.58 69.08 69.96 72.24 72.20 71.72 72.01 72.39 71.35 69.72 68.93 68.62 68.36 68.53 68.61 68.23 67.25 66.80 66.81 67.47 68.51 67.61 66.28 66.70 67.08 70.07 70.99 70.96 69.10 69.38 69.59
70.39 72.20 74.37 75.47 75.64 75.22 74.86 74.58 73.87 72.18 71.07 70.01 68.98 68.98 71.14 71.93 72.25 72.10 71.53 71.46 70.89 70.06 68.70 68.49 68.63 68.97 68.81 68.45 67.73 67.13 67.15 67.68 66.67 66.91 66.63 68.50 67.32 70.40 70.27 70.39 69.89 70.15 70.09
70.97 72.65 74.12 75.42 75.40 75.06 74.38 73.85 73.67 73.16 71.21 70.26 68.97 68.70 71.05 71.43 71.19 71.13 70.57 70.06 69.57 69.15 68.63 68.60 68.81 69.02 68.66 67.99 67.14 66.77 66.92 66.91 63.93 66.51 65.90 65.89 66.83 69.36 68.90 68.58 67.88 68.18 68.38
71.12 72.56 73.57 74.22 74.71 73.95 73.68 73.27 73.34 73.03 72.45 70.45 69.05 68.25 70.20 70.97 70.22 69.90 69.53 69.05 68.91 68.72 68.45 68.51 68.89 69.02 68.26 67.46 66.58 66.07 66.63 66.14 63.42 64.43 65.32 65.27 68.71 68.22 67.73 67.23 67.10 67.03 66.88
71.03 71.16 71.52 72.57 72.69 72.30 72.28 72.28 72.60 72.68 71.98 71.11 70.02 69.41 70.01 70.09 69.77 69.18 69.00 68.69 68.49 68.43 68.35 68.72 68.87 68.40 67.27 66.72 66.02 65.57 66.29 65.58 61.18 63.91 65.22 65.01 68.81 67.41 67.11 66.20 66.04 65.57 65.12
69.57 69.74 68.33 68.75 69.73 69.91 70.83 71.27 71.44 71.09 70.78 70.42 69.42 68.76 67.81 67.73 68.21 68.92 68.64 68.97 68.90 68.78 68.95 69.02 68.67 67.03 66.17 66.20 65.42 66.00 65.52 64.40 60.54 62.96 64.61 65.88 68.20 67.44 66.22 65.54 65.10 64.52 63.99
68.05 68.02 67.78 67.52 67.91 68.52 69.61 70.12 70.49 69.91 69.51 68.69 67.71 66.54 65.55 64.05 65.28 65.95 65.87 67.49 68.96 69.51 69.44 69.12 67.46 66.54 66.75 66.17 65.58 65.10 64.27 59.59 58.93 62.97 64.68 68.39 67.70 66.89 65.73 64.76 64.15 63.31 62.78
64.47 66.30 67.29 67.12 67.85 68.11 69.76 68.26 68.44 69.16 67.67 65.62 65.16 63.97 62.55 62.31 63.00 64.61 64.20 66.47 68.54 69.13 69.41 68.73 67.18 66.83 64.90 60.82 60.17 62.85 58.72 57.31 59.48 62.47 64.76 67.93 67.12 66.40 65.23 64.50 63.61 62.16 61.70
63.25 66.05 66.03 67.02 67.59 67.41 68.32 67.45 66.74 66.93 67.20 65.39 63.90 63.35 62.16 62.31 61.55 62.53 63.31 64.58 64.27 64.95 66.37 65.86 64.15 61.61 59.96 58.50 57.91 57.13 56.66 55.19 58.45 62.48 65.52 67.17 66.42 65.74 65.07 64.04 62.74 61.41 60.92
64.35 64.68 66.62 66.86 65.25 65.09 67.26 65.72 64.82 65.24 66.58 66.44 64.94 63.68 61.88 60.10 60.36 62.52 62.45 62.21 62.39 63.07 63.34 62.34 60.60 58.70 56.07 55.85 56.86 55.27 55.40 54.83 55.02 60.64 63.78 65.65 65.96 64.96 64.21 63.69 62.08 61.12 60.51
64.46 65.49 66.21 66.64 66.57 64.18 64.07 64.18 62.37 64.49 66.15 67.24 66.55 64.90 63.02 60.87 60.65 61.72 61.41 61.08 61.60 61.85 62.79 62.58 61.63 59.85 56.89 55.19 54.29 53.86 53.74 53.95 52.63 59.55 60.95 63.43 65.02 64.43 63.50 62.61 61.84 61.15 60.59
64.70 65.31 66.17 66.62 66.64 66.52 63.44 62.64 62.40 62.78 65.78 66.42 65.58 64.81 63.73 61.92 62.58 61.37 60.73 60.49 60.74 61.37 62.27 62.89 62.79 61.44 58.11 55.15 54.36 52.87 52.41 51.98 51.13 58.02 58.33 61.38 64.23 64.07 62.97 62.31 61.76 61.17 60.77
64.65 66.02 66.10 66.54 66.94 66.16 66.15 64.41 63.66 63.37 64.81 64.74 64.35 64.21 63.21 62.25 62.34 62.79 61.72 60.33 60.56 60.68 61.85 60.96 62.15 60.26 56.41 55.25 53.15 51.88 51.35 50.78 50.24 56.92 57.43 58.89 60.88 62.16 62.92 61.96 61.67 60.93 60.58
58.73 64.51 66.48 68.15 67.01 66.08 65.95 66.46 65.05 65.91 66.17 64.99 65.05 64.52 64.12 63.63 62.36 61.80 61.68 61.42 61.91 60.98 60.58 59.31 59.10 58.25 55.49 53.31 51.07 50.29 49.91 50.38 50.23 51.43 56.54 57.21 57.27 57.61 61.23 62.26 61.64 60.58 60.58
52.16 54.32 62.08 66.55 66.12 65.64 65.87 66.36 65.90 65.90 65.90 66.67 67.30 66.69 65.55 64.74 63.46 62.04 61.38 61.47 61.74 61.36 60.48 60.17 58.78 57.95 54.88 52.36 50.92 49.93 48.81 49.22 49.82 50.71 52.24 55.43 55.45 54.93 54.79 60.10 60.93 60.17 60.45
49.48 50.20 51.14 54.39 58.99 65.73 67.04 65.87 65.69 65.37 65.55 65.88 66.28 66.60 65.91 64.85 64.14 62.63 62.16 61.51 61.42 60.52 60.36 59.91 58.63 57.33 55.21 53.26 52.93 51.28 48.85 48.05 49.16 48.76 48.55 53.81 54.98 53.81 52.92 53.18 54.79 54.70 58.96
47.70 47.92 48.03 49.60 50.60 52.73 53.66 58.50 63.53 64.57 64.32 63.86 65.61 66.79 66.51 65.83 64.40 63.13 62.94 61.99 61.10 61.08 61.38 60.43 59.08 57.54 54.77 52.87 49.76 48.00 46.36 46.47 46.80 48.00 47.84 48.09 50.92 52.71 51.77 51.90 51.34 49.40 52.89
49.55 50.13 50.16 50.09 49.95 50.10 51.84 52.24 56.84 63.63 64.51 65.66 65.42 64.73 65.37 65.04 64.82 64.23 62.85 61.84 61.12 60.57 59.48 59.88 59.78 57.09 56.94 53.77 50.09 45.33 43.39 44.37 45.69 46.13 46.48 47.91 47.70 49.49 50.46 50.77 49.17 47.17 47.16
50.38 50.49 51.64 51.15 50.93 50.41 49.94 50.44 50.92 51.72 57.55 62.18 62.08 62.63 63.95 64.38 64.66 65.03 64.18 63.25 62.72 60.49 60.52 59.42 60.11 58.92 57.48 54.47 51.93 48.22 43.66 42.76 42.51 44.14 45.88 46.71 47.17 46.95 48.67 48.61 48.22 47.42 45.81
50.25 50.97 51.50 51.77 51.77 51.77 50.67 49.08 47.74 48.30 48.06 52.62 57.49 62.50 63.03 63.52 63.92 64.07 63.99 63.75 62.18 62.04 61.56 61.06 59.86 59.05 56.32 54.55 53.15 52.32 50.74 47.72 43.21 41.71 42.14 43.92 45.65 46.68 47.05 46.75 46.44 46.35 45.76
50.96 50.62 50.59 51.17 50.94 50.96 50.30 50.62 48.22 47.11 47.59 48.71 49.55 50.31 53.87 61.59 63.51 63.72 63.71 62.32 61.52 61.06 61.53 61.04 61.21 60.36 60.13 59.23 54.69 51.84 50.78 49.60 46.94 42.99 40.84 42.20 44.06 45.73 46.89 48.26 46.02 44.93 44.03
48.94 49.09 49.29 49.58 50.02 50.19 49.46 49.56 49.34 48.45 47.81 47.65 47.61 47.95 49.47 53.01 57.21 60.52 62.18 62.52 61.93 61.29 62.09 62.02 61.72 60.78 60.63 59.96 58.17 56.00 52.99 51.71 50.49 44.12 42.92 42.85 44.29 46.71 46.51 45.72 44.79 44.21 43.13

GFSSE_sfc_wetblb_060.txt.gz
Wetbulb
70.60 74.34 76.61 76.38 75.82 75.58 75.56 75.32 75.33 75.30 74.92 74.04 73.87 73.13 72.57 71.86 71.35 71.76 71.86 72.33 72.15 71.90 71.66 71.41 71.44 71.41 70.73 69.78 69.16 68.88 68.82 68.71 68.58 69.40 68.97 68.87 69.23 69.58 68.92 68.91 68.74 66.91 68.73
72.29 74.88 76.22 76.33 76.28 76.06 75.89 75.41 75.59 75.12 74.79 74.51 73.59 72.78 71.56 71.13 70.83 70.62 71.24 71.98 71.65 71.05 70.52 70.23 70.13 69.96 69.31 68.67 68.04 68.01 68.25 68.29 68.50 68.66 68.71 68.70 68.77 68.48 68.15 68.57 68.95 67.62 68.58
73.33 74.66 75.14 76.04 76.17 76.08 75.50 74.99 74.89 74.40 74.17 73.88 72.76 71.73 70.26 69.55 70.31 70.35 71.00 72.17 72.09 70.64 70.20 69.57 69.23 69.20 68.52 68.07 68.12 68.25 67.71 67.46 67.96 67.58 66.55 63.72 65.95 68.85 67.56 67.56 67.96 67.89 67.71
73.70 74.34 74.56 75.93 76.09 75.78 75.31 74.66 74.16 73.02 72.03 71.73 71.33 70.14 69.82 71.31 70.75 70.96 71.27 72.51 71.42 70.20 69.51 68.79 68.56 68.52 67.99 67.54 68.19 68.41 67.89 67.11 66.56 67.24 63.64 63.43 65.84 68.80 69.14 68.17 69.17 68.36 67.66
72.64 73.32 74.20 75.72 75.74 75.49 74.75 74.33 73.31 71.66 70.74 70.25 69.83 69.54 71.52 71.98 71.38 71.09 72.31 72.16 70.21 69.44 68.78 68.23 68.21 68.19 67.67 67.31 67.43 67.62 67.93 67.77 68.85 67.26 64.58 66.22 67.09 70.23 70.54 69.54 69.16 69.55 69.76
69.66 71.73 73.78 75.34 75.50 75.02 74.72 73.99 72.84 71.34 70.34 69.47 69.19 70.58 72.66 72.65 72.06 72.80 72.14 70.88 70.32 69.81 68.48 68.34 68.61 68.48 68.17 67.73 67.64 67.74 67.70 68.39 67.78 66.24 66.66 68.22 68.42 70.43 70.12 70.15 70.40 70.23 69.93
70.51 72.39 73.25 75.13 75.24 74.86 74.59 73.75 72.93 71.42 70.48 69.22 68.91 71.34 72.31 71.69 72.05 71.62 70.64 69.97 69.43 68.95 68.44 68.61 68.83 68.68 68.08 67.41 67.19 67.39 67.17 66.97 64.39 65.23 65.15 65.02 67.55 69.37 68.64 67.70 68.24 68.72 68.86
70.88 72.44 73.46 74.07 74.35 74.41 74.14 73.72 72.97 72.26 70.75 69.50 68.77 70.91 71.35 71.12 70.81 70.56 69.96 69.45 69.14 68.80 68.54 68.70 68.88 68.62 67.86 66.96 66.62 66.80 66.48 65.59 64.71 64.56 64.59 64.76 68.33 67.67 67.50 67.19 66.76 66.50 66.67
71.65 72.17 72.77 73.02 72.94 72.08 72.34 72.44 72.51 72.42 71.31 70.40 69.66 70.73 71.06 70.64 70.35 69.91 69.34 69.18 69.04 68.68 68.43 68.81 68.88 68.45 67.54 66.69 65.83 66.14 66.03 65.11 63.07 63.91 65.01 64.40 68.39 67.20 66.29 66.27 65.77 65.32 65.23
70.39 71.00 69.92 70.59 70.95 69.99 70.44 71.02 71.26 71.51 70.78 70.07 69.34 69.24 68.48 68.71 68.75 69.53 69.03 69.18 69.14 68.87 68.77 68.81 68.76 67.72 66.81 66.28 65.66 66.26 64.76 63.89 61.69 62.98 63.99 64.68 67.78 67.10 66.27 65.53 64.77 64.22 63.69
68.47 68.65 68.58 68.45 68.71 68.74 68.97 69.30 70.13 69.88 69.57 68.81 67.92 66.83 66.22 64.88 65.98 66.30 66.33 67.56 68.86 69.37 69.18 68.94 68.18 66.90 66.94 66.22 65.74 65.32 63.16 58.66 60.76 62.93 64.13 68.45 67.80 66.77 65.75 64.80 64.02 63.19 62.63
65.02 66.19 67.25 67.22 67.39 67.60 69.64 68.22 67.88 67.96 66.68 65.38 64.81 63.86 62.94 62.84 63.40 65.13 64.27 66.49 68.55 69.06 69.17 69.19 67.71 67.11 65.39 60.64 59.66 62.88 58.29 56.25 59.46 62.49 64.18 68.26 67.22 66.60 65.20 64.39 63.36 62.46 61.93
63.85 65.13 66.03 66.12 66.85 67.02 67.19 66.88 66.90 66.88 65.54 64.18 63.52 62.86 61.53 61.87 61.32 62.09 61.88 63.60 64.19 65.24 65.91 66.93 64.66 62.63 59.51 58.02 57.33 56.99 56.85 54.62 59.84 62.34 64.93 67.70 67.02 66.49 65.44 64.17 62.83 61.76 61.37
64.30 64.64 64.98 65.55 65.64 66.10 66.94 66.73 66.44 66.52 65.88 63.87 63.27 62.80 60.83 59.58 59.74 60.58 61.32 62.22 62.30 63.13 63.30 62.97 61.07 59.60 57.23 57.74 56.66 55.82 54.69 53.33 58.46 61.19 63.05 65.97 66.85 65.79 65.42 64.28 62.73 61.59 61.09
63.77 65.07 65.43 65.75 64.45 64.43 65.79 65.61 64.28 65.00 66.08 65.93 64.37 63.51 61.82 60.06 59.28 60.88 61.39 61.43 61.36 61.47 62.48 61.88 60.76 59.88 57.25 54.77 54.49 55.11 53.56 52.74 53.80 60.03 61.27 63.60 65.66 65.78 64.64 64.02 62.86 61.83 61.28
63.97 64.68 65.68 65.99 65.85 63.44 62.97 63.44 63.12 63.21 64.33 65.97 65.83 64.83 63.59 61.36 60.22 60.89 61.14 61.04 60.86 61.40 62.24 62.32 62.08 60.94 59.44 55.84 54.04 52.82 52.56 52.22 51.01 58.28 59.83 61.12 64.45 65.13 64.64 63.67 62.91 62.11 61.75
64.46 64.94 64.81 65.46 66.28 65.64 64.01 62.15 61.26 62.32 63.91 64.81 65.79 65.84 65.01 61.83 61.11 60.81 60.71 60.41 60.49 60.63 61.25 61.33 61.58 61.33 59.82 58.10 54.32 53.45 52.30 51.09 49.91 56.56 58.16 59.44 61.71 62.90 64.20 63.66 62.93 62.35 61.78
63.42 64.53 65.44 67.21 66.19 65.43 65.39 65.65 63.71 62.99 62.87 64.23 64.53 64.43 64.70 64.33 61.73 61.32 61.00 60.40 60.43 59.35 60.35 59.95 60.80 60.23 59.01 56.91 54.98 52.25 50.77 50.18 49.71 52.25 56.82 58.38 58.55 59.51 62.15 63.61 62.99 62.43 61.88
54.61 58.20 64.39 65.73 66.04 65.91 65.41 65.52 65.74 64.52 64.83 65.38 64.39 64.11 63.47 63.35 62.44 62.09 62.04 62.07 61.18 60.33 59.39 59.17 58.43 58.43 57.07 54.33 52.56 51.03 49.51 48.79 49.21 49.81 54.91 56.03 56.81 57.40 56.79 60.66 62.02 61.94 61.99
47.65 48.55 50.79 54.93 59.99 64.89 65.17 64.78 64.82 64.54 64.57 64.95 65.69 65.83 64.86 63.77 63.09 61.68 61.05 60.88 60.98 60.35 59.79 58.53 58.19 57.01 56.25 56.22 54.69 52.06 49.08 48.11 48.11 47.96 48.34 55.84 55.90 55.75 54.65 54.58 57.44 57.90 60.44
48.23 47.71 47.19 48.29 48.63 50.88 55.65 60.58 62.53 62.87 63.88 63.00 64.19 65.88 65.67 65.47 64.28 62.57 61.69 60.84 60.34 59.97 60.57 59.83 58.79 57.35 56.80 53.29 52.42 49.01 46.82 47.53 46.37 47.55 47.19 48.83 54.22 54.86 53.46 53.25 54.24 52.94 55.10
48.63 49.20 49.38 49.16 49.15 48.81 49.75 50.47 54.38 61.60 63.16 63.98 64.04 64.21 64.44 64.39 64.58 64.09 62.27 61.59 60.63 59.85 59.26 58.97 58.50 56.86 56.31 54.02 52.15 47.95 48.40 47.74 45.94 47.25 46.33 47.49 48.19 53.14 53.08 52.62 52.23 50.47 49.66
49.07 49.38 50.49 50.48 50.27 49.61 49.00 49.29 49.81 50.57 54.15 60.96 61.73 62.00 63.27 63.82 63.67 63.40 63.52 62.61 61.35 59.98 59.92 58.56 58.18 57.45 58.33 53.51 52.45 53.19 43.91 45.22 43.46 44.33 45.05 47.09 47.63 47.37 51.00 52.88 51.04 50.39 48.18
48.78 49.47 50.00 50.36 49.93 50.72 49.99 48.70 47.12 47.01 47.22 50.12 53.68 57.39 57.23 61.40 62.37 63.06 62.72 62.45 62.53 61.34 59.98 60.18 59.23 58.56 57.49 57.59 52.90 54.08 50.90 47.71 43.85 43.70 42.72 42.73 44.20 45.50 46.53 47.61 50.30 50.17 49.55
49.26 47.96 47.97 49.24 49.64 49.26 49.07 49.12 48.21 46.94 46.65 47.52 48.05 47.86 48.75 51.60 55.62 60.55 62.12 61.88 60.49 61.45 61.21 60.34 59.29 57.85 58.49 58.72 55.25 52.20 53.49 51.51 49.30 46.66 48.13 43.76 46.91 47.04 49.03 48.27 47.61 47.65 48.18
47.29 47.78 48.02 47.88 47.89 48.51 48.74 48.48 48.19 47.69 47.66 47.32 47.79 48.26 48.54 49.23 52.73 53.43 56.19 59.54 60.59 60.12 59.49 59.59 59.52 58.72 58.98 58.99 59.33 57.46 55.73 52.39 51.93 49.66 45.51 45.64 44.32 47.46 48.44 48.53 47.69 46.85 46.93

GFSSE_sfc_wetblb_063.txt.gz
Wetbulb
69.67 73.65 76.29 75.86 75.69 75.53 75.34 75.04 74.86 74.86 74.29 73.70 73.19 72.33 71.98 71.77 72.04 71.87 72.13 72.22 72.02 71.78 71.57 71.53 71.57 70.95 70.25 69.67 69.43 69.40 68.78 68.75 69.02 68.63 68.76 69.58 69.66 68.83 69.54 69.03 68.88 67.02 68.17
72.23 74.43 75.83 76.02 75.65 75.63 75.53 75.30 75.28 74.91 74.60 74.10 73.10 72.30 71.73 71.00 71.03 71.38 71.96 71.51 70.82 70.47 70.10 70.15 70.38 69.81 69.03 68.62 68.91 68.92 68.64 68.18 68.82 68.60 68.48 68.21 68.71 68.07 68.93 68.91 68.79 66.78 68.28
72.89 74.35 74.70 75.79 75.94 75.95 75.50 74.97 74.90 74.60 74.24 73.66 72.59 71.56 70.32 70.44 70.28 70.89 71.97 71.75 70.70 70.23 69.42 69.09 69.21 68.95 68.49 68.59 68.44 68.10 68.14 67.92 67.25 67.19 67.06 64.47 65.55 67.36 67.46 67.54 67.63 67.50 67.00
73.27 74.06 74.21 75.79 75.94 75.46 74.86 74.49 73.88 72.81 72.30 71.98 71.35 69.89 70.10 70.19 70.61 70.64 72.22 71.74 70.52 69.76 68.72 68.39 68.59 68.16 67.89 68.82 68.83 68.27 67.76 66.92 66.42 66.96 62.21 64.00 65.95 68.88 67.73 68.20 68.67 67.32 67.30
72.81 73.75 74.33 75.61 75.60 75.29 74.59 73.69 72.46 71.65 71.13 70.83 70.08 69.93 71.27 70.82 70.96 70.99 72.53 71.09 70.02 68.93 68.09 67.88 67.93 67.57 67.66 68.21 67.92 68.04 67.78 67.96 68.49 66.61 63.03 65.89 66.86 69.58 69.10 69.13 69.15 69.64 70.30
71.27 72.38 74.57 75.14 75.39 74.95 74.28 73.29 71.89 70.88 70.19 69.57 69.35 70.90 72.68 71.26 71.19 72.55 71.98 70.48 70.13 68.92 67.91 67.94 67.92 67.71 67.61 67.90 67.92 68.05 69.04 69.09 67.39 65.50 65.94 67.97 67.77 70.10 70.15 70.13 70.16 70.23 70.40
70.29 71.20 73.81 75.13 75.17 74.71 73.91 73.04 72.19 70.75 69.72 69.22 69.86 71.92 72.74 72.16 72.49 72.34 70.54 69.61 69.14 68.49 68.07 68.42 68.30 68.01 67.67 67.50 67.54 67.76 67.91 67.76 64.93 64.50 64.35 65.19 67.00 68.85 67.86 67.14 67.40 69.30 69.21
70.74 71.68 72.97 73.74 74.27 74.32 73.79 73.05 72.32 70.85 69.71 69.08 70.62 71.60 71.53 71.37 71.74 70.85 69.81 69.27 68.92 68.41 68.23 68.50 68.36 67.78 67.21 66.83 66.86 66.98 66.82 66.86 64.93 63.77 63.85 64.06 68.10 67.25 66.91 66.53 66.04 66.16 66.56
71.18 71.26 71.59 72.28 72.67 72.94 73.05 72.58 72.21 71.58 70.77 69.85 70.75 71.67 71.55 70.76 70.53 70.13 69.44 69.06 68.85 68.39 68.05 68.39 68.31 67.71 67.06 66.45 65.85 66.04 66.05 66.12 63.01 63.55 64.30 63.91 68.12 66.62 66.11 65.65 65.26 64.96 65.02
70.37 71.21 70.41 70.73 71.37 71.00 71.36 71.46 71.16 70.99 70.41 69.71 69.48 70.15 69.54 68.91 69.08 69.49 69.01 69.36 69.20 68.50 68.29 68.34 68.19 67.58 66.82 66.27 65.55 66.18 64.48 65.51 62.05 62.88 63.44 63.56 67.60 66.34 65.84 64.94 64.31 63.69 63.25
69.04 68.84 69.34 69.27 68.75 68.54 68.35 69.34 70.44 70.20 69.45 68.66 67.88 67.24 66.71 65.49 66.21 66.64 66.60 67.60 68.80 69.10 68.62 68.37 68.27 67.29 66.96 65.80 65.66 65.45 62.17 59.11 60.16 62.16 63.08 66.97 67.42 66.63 65.68 64.47 63.51 62.72 62.15
65.59 66.86 67.97 68.03 68.00 67.60 69.23 67.57 67.36 67.96 66.72 65.41 64.85 64.06 63.37 63.13 63.62 65.18 64.33 66.28 68.42 68.93 68.94 68.96 68.56 67.43 65.44 60.08 58.83 61.18 57.82 56.09 58.43 61.70 63.09 68.18 67.38 66.61 65.49 64.41 63.28 62.35 61.57
65.53 65.76 66.72 66.26 66.74 66.95 67.29 66.61 66.14 65.73 64.68 63.89 63.23 62.65 61.72 62.25 61.56 62.41 61.62 63.04 63.77 65.09 65.24 66.72 64.92 62.69 59.91 57.75 56.97 56.29 56.86 54.66 57.68 61.30 64.11 67.88 67.48 67.11 65.89 64.71 63.34 61.95 61.47
63.50 64.40 65.16 65.40 65.58 65.73 66.09 66.34 65.93 65.67 64.33 62.99 62.76 62.27 60.59 59.38 59.26 59.82 60.01 61.00 61.58 62.74 62.75 63.16 61.64 60.73 59.08 57.86 56.55 55.68 54.75 53.55 56.71 60.59 62.44 66.11 67.75 66.87 66.04 65.06 63.55 62.05 61.33
63.41 64.21 64.29 64.71 64.92 65.43 65.30 65.27 65.16 65.34 65.39 64.10 62.90 62.46 61.11 59.21 58.63 59.71 59.95 60.50 60.89 61.10 61.59 61.74 60.98 59.96 58.37 56.00 55.28 55.38 55.85 54.15 53.15 59.15 60.67 63.35 66.07 67.17 65.83 65.53 64.18 62.65 61.65
63.54 64.46 64.97 64.97 64.64 64.54 65.08 64.47 64.54 64.45 65.33 65.11 64.07 63.29 62.17 60.60 59.19 59.59 60.29 60.61 60.40 60.56 61.06 61.56 61.40 60.16 59.26 57.75 55.54 53.78 54.22 54.44 52.54 56.68 59.70 60.75 64.64 66.04 66.19 65.14 64.53 63.15 62.41
63.07 64.58 65.03 65.45 65.45 63.78 64.75 64.46 63.37 63.47 63.97 64.94 65.31 64.60 63.51 61.91 60.07 59.79 60.09 60.09 60.75 60.31 60.48 60.70 60.61 60.46 59.73 59.11 56.37 54.34 52.55 51.97 51.07 51.52 57.64 59.02 60.77 63.39 65.17 64.93 64.53 63.65 62.73
63.10 64.11 64.34 66.45 65.72 64.35 63.39 63.11 62.60 62.04 61.91 63.31 64.76 64.94 64.86 63.59 61.45 59.91 59.69 59.88 60.48 59.28 59.69 59.56 59.97 59.43 59.73 58.90 57.80 55.57 52.81 51.20 50.39 49.49 55.20 57.68 58.76 60.19 62.40 64.90 64.95 63.91 63.14
60.81 62.75 63.95 64.81 64.99 65.28 64.81 64.67 63.52 62.08 61.38 62.05 62.82 63.78 64.29 64.62 62.86 61.63 60.52 60.34 59.70 59.31 58.88 59.29 58.49 59.07 57.89 58.30 57.39 57.12 53.93 50.88 50.06 50.28 51.13 55.48 57.19 58.78 57.91 60.81 62.99 63.18 63.43
47.39 49.61 55.37 60.17 61.35 64.54 64.76 64.39 64.10 64.05 63.52 63.99 64.17 63.34 63.26 63.33 62.79 61.30 61.30 60.86 60.43 59.74 58.53 57.34 58.23 56.93 58.16 58.22 57.66 56.52 52.45 51.15 48.27 48.18 48.15 53.72 56.13 57.43 56.78 56.03 57.31 59.04 61.59
46.86 46.66 46.61 48.23 48.18 52.24 60.34 61.79 61.92 62.20 63.03 62.85 63.64 64.98 65.04 64.43 63.09 61.68 61.29 60.70 60.38 59.74 60.10 59.20 57.79 56.53 55.84 53.50 51.96 50.98 49.19 48.19 47.71 48.23 48.09 49.26 53.62 56.37 56.42 55.94 55.54 55.78 57.32
47.87 48.13 48.41 48.64 48.59 47.93 49.16 50.36 56.10 60.53 62.00 62.60 62.88 63.06 64.11 64.28 64.48 63.83 62.24 61.67 60.73 59.46 58.95 59.01 57.95 56.43 55.81 53.74 52.92 47.93 52.62 52.60 46.61 48.63 47.24 48.31 48.11 52.72 54.83 55.63 54.68 54.21 54.04
48.50 48.54 49.18 49.01 48.95 48.31 47.93 47.79 48.22 48.86 51.58 57.12 59.36 60.84 62.01 62.78 63.36 63.08 63.36 62.53 61.57 59.74 59.35 58.73 57.61 57.05 57.97 53.59 53.69 56.49 49.36 47.83 45.36 46.17 45.23 46.36 47.60 45.82 50.67 52.91 53.32 53.44 52.99
48.10 48.72 49.00 49.00 48.94 49.13 49.06 47.90 46.08 45.76 46.04 47.72 50.05 51.78 50.67 51.86 55.90 59.58 61.16 61.40 61.39 60.53 59.09 58.95 58.41 57.84 56.40 56.44 51.45 53.81 53.33 50.41 49.01 49.41 44.62 43.66 46.20 45.04 46.59 48.97 52.30 52.82 52.21
47.81 47.07 47.46 48.04 48.15 48.29 48.05 48.18 47.37 46.61 46.38 47.07 47.55 48.16 48.77 49.56 53.19 53.85 55.47 58.72 59.44 59.91 59.86 59.41 58.16 56.76 57.03 56.80 54.30 54.19 53.87 53.36 49.67 47.07 50.14 50.95 46.01 46.04 47.34 47.64 48.92 50.59 51.41
46.43 46.62 46.43 47.04 46.65 47.09 47.39 47.46 47.56 47.05 47.12 47.59 47.91 48.40 49.02 49.61 51.03 51.27 52.56 52.70 55.14 59.30 59.29 58.28 58.35 57.51 56.85 56.51 56.62 56.94 55.59 53.23 51.24 50.19 47.99 49.32 48.36 49.02 47.42 48.52 48.68 47.15 47.55

GFSSE_sfc_wetblb_066.txt.gz
Wetbulb
67.76 72.49 76.23 75.94 75.72 75.52 75.18 74.95 74.63 74.29 73.91 73.38 72.86 72.41 72.23 72.14 71.85 72.24 72.06 72.16 71.98 71.77 72.04 71.90 71.22 70.90 70.36 70.35 69.90 69.26 69.21 69.11 68.83 69.18 69.13 69.91 68.99 70.14 70.02 69.58 69.02 66.44 68.20
70.63 73.85 75.70 75.91 75.69 75.51 75.25 74.79 74.87 74.67 74.38 73.62 72.48 71.69 71.43 71.40 71.45 72.23 71.49 71.04 70.62 70.28 70.41 70.81 70.24 69.53 69.49 69.80 69.54 69.11 68.84 68.85 68.22 68.06 67.98 67.73 68.58 68.91 69.37 68.82 68.13 66.61 67.98
72.29 74.00 74.39 75.65 75.82 75.93 75.54 74.75 74.60 74.22 74.22 73.14 72.27 71.54 70.97 70.52 71.07 71.97 71.64 70.95 70.51 69.60 69.15 69.55 69.45 69.02 69.16 69.00 68.84 68.84 68.22 67.72 67.80 67.79 67.19 64.49 64.61 67.66 67.77 67.73 67.69 67.36 67.08
73.05 73.57 73.59 75.53 75.89 75.52 74.95 74.42 74.25 73.43 72.67 72.05 71.13 69.92 69.72 70.43 70.59 72.10 72.04 70.90 70.29 68.88 68.40 68.88 68.60 68.44 69.24 69.19 68.85 68.48 68.00 67.02 66.60 65.70 62.98 65.21 66.38 68.29 68.28 69.36 68.62 68.37 67.99
72.53 73.30 74.07 75.54 75.55 75.11 74.49 73.83 72.77 72.30 71.82 71.04 69.99 70.59 70.59 70.58 70.59 72.51 71.95 70.66 69.48 68.23 67.97 68.12 67.96 67.95 68.66 68.37 68.37 68.45 68.12 68.48 67.75 65.12 64.84 65.89 66.71 69.04 69.84 69.87 70.23 70.63 70.92
72.18 72.22 74.46 75.03 75.36 74.79 73.88 73.21 71.93 71.22 70.60 69.96 69.57 71.28 70.96 71.03 70.86 72.42 71.34 70.08 69.04 67.97 67.76 67.85 67.70 67.69 67.97 68.18 68.20 69.26 69.65 68.58 66.23 64.80 65.59 67.75 67.07 70.07 69.64 69.56 69.48 70.58 70.41
71.36 72.55 73.82 75.12 74.98 74.35 73.48 72.84 71.76 70.45 69.99 69.66 70.79 72.37 71.63 71.24 71.92 72.15 70.39 69.46 68.70 67.85 68.03 68.07 67.93 67.88 67.79 67.79 68.07 68.46 68.84 67.90 64.66 64.03 64.29 64.47 65.90 68.28 67.77 67.39 67.13 67.87 69.28
70.47 71.54 73.22 73.85 74.20 73.68 72.99 72.51 71.80 70.29 69.43 69.88 71.45 72.31 72.66 72.70 72.57 71.21 69.58 69.08 68.58 68.05 67.95 68.19 68.17 67.76 67.44 67.35 67.49 67.28 67.96 67.05 64.33 62.95 63.02 63.57 68.12 67.71 67.04 66.79 66.18 65.70 66.69
70.49 70.45 71.43 72.79 72.79 72.69 72.42 72.19 71.81 71.01 70.19 70.33 71.41 72.05 71.48 71.36 71.13 70.38 69.33 69.01 68.55 67.94 67.66 67.90 67.94 67.80 67.40 67.01 66.56 66.03 66.24 66.41 62.39 62.96 63.88 63.38 68.13 66.73 66.28 65.68 65.19 65.04 64.97
69.56 69.94 69.24 70.36 71.30 71.47 70.98 71.18 70.89 70.57 69.84 69.59 70.51 70.37 69.36 68.81 69.40 70.05 69.21 69.40 69.20 68.43 67.92 67.97 67.91 67.53 66.94 66.57 65.89 65.36 64.40 65.74 61.24 62.21 62.77 62.95 67.10 66.08 65.72 64.79 64.23 63.58 63.15
69.82 70.09 68.79 68.97 68.81 69.02 69.58 69.74 70.17 69.79 68.91 68.26 68.09 67.81 67.05 65.56 65.99 66.13 66.56 67.63 69.11 69.10 68.19 68.06 68.02 67.34 66.67 64.93 64.81 64.82 61.47 59.92 59.91 61.51 62.36 65.27 66.94 66.19 65.25 64.22 63.21 62.42 61.99
67.12 67.86 68.26 67.91 67.63 67.00 68.63 67.80 67.63 67.73 66.36 65.01 64.58 64.32 64.01 63.66 63.57 65.25 64.46 66.15 68.12 68.68 68.68 68.37 68.65 67.83 64.73 59.35 58.25 61.09 57.90 56.32 57.48 60.72 62.20 66.07 67.72 66.59 65.65 64.44 63.13 62.08 61.32
65.48 66.30 67.32 67.16 67.14 66.82 66.89 66.20 65.85 65.75 64.76 63.80 63.07 62.63 62.17 62.32 61.66 62.10 61.28 62.03 63.01 64.39 64.47 65.71 64.61 62.33 59.73 57.90 56.41 55.91 56.97 55.86 54.46 59.37 62.97 66.22 68.02 67.22 66.44 65.00 63.90 62.29 61.35
64.12 65.07 65.84 66.15 66.01 65.82 66.07 65.67 65.21 64.70 63.73 62.76 62.52 62.01 60.50 59.78 59.59 59.66 59.77 60.00 60.91 61.88 62.21 62.21 62.02 60.90 59.35 58.04 55.88 55.19 55.04 54.59 53.24 58.40 60.98 65.02 67.67 67.38 66.79 65.80 64.55 62.79 61.75
63.28 64.09 64.45 64.81 64.93 65.36 64.91 65.02 64.86 64.57 64.17 63.21 62.42 61.97 60.78 59.22 58.22 58.31 58.74 59.05 59.88 60.41 60.92 60.89 61.08 60.43 59.10 57.86 55.71 55.00 54.74 53.86 52.76 56.49 59.59 62.28 65.76 67.39 66.77 66.20 65.55 64.04 62.54
63.29 63.91 64.44 64.41 64.55 64.81 64.51 64.38 64.59 64.56 64.75 63.96 62.84 62.45 61.58 60.13 58.69 58.39 58.86 59.31 59.47 60.18 60.32 60.64 60.54 60.33 59.52 58.34 57.95 56.07 53.54 52.75 52.68 52.11 57.11 59.53 63.96 66.15 66.81 66.00 65.77 65.13 63.85
62.81 64.34 64.39 64.44 64.66 63.83 64.21 64.39 64.00 64.41 64.86 64.49 64.40 63.33 62.52 61.44 60.02 59.05 59.11 59.35 59.89 60.00 59.88 59.64 59.83 59.83 59.25 59.20 58.16 58.14 55.70 53.34 51.82 51.18 52.87 57.55 59.94 63.41 65.34 66.15 65.61 65.46 64.40
62.39 63.27 64.34 66.16 65.11 63.84 63.49 64.14 64.01 63.39 63.24 63.93 64.11 63.88 63.60 62.84 61.35 59.55 58.79 59.04 59.88 59.42 59.32 58.80 58.80 58.47 58.79 58.68 58.19 58.39 57.34 53.98 52.14 50.78 50.72 55.15 57.88 59.97 62.69 65.31 66.02 65.51 64.91
61.13 62.36 63.13 64.14 64.69 64.63 63.18 62.81 62.61 62.64 61.53 62.12 62.71 63.42 63.84 64.06 62.71 61.23 60.02 59.76 59.13 58.75 58.31 58.47 58.03 58.27 57.27 57.44 58.05 58.53 57.10 55.38 53.88 52.69 49.51 51.44 55.44 58.40 59.11 61.22 63.49 64.15 64.79
47.85 53.27 58.48 62.98 63.63 63.91 64.07 63.58 63.12 62.61 61.56 61.48 61.42 61.93 62.71 63.06 63.31 61.24 60.91 59.85 59.14 58.42 57.73 57.20 57.86 57.29 57.87 57.73 57.98 57.87 55.67 54.89 53.08 50.45 51.85 49.89 53.63 55.93 57.80 57.57 58.21 60.29 62.16
46.34 46.71 47.19 50.46 48.66 56.51 61.73 61.55 61.39 61.49 62.13 62.58 62.97 63.91 63.71 62.68 61.83 60.88 61.09 61.37 60.94 59.45 59.78 58.75 57.39 56.28 55.48 54.56 52.88 52.87 51.58 51.28 50.22 50.47 49.30 48.38 49.81 53.96 55.50 56.69 56.90 56.31 57.44
46.99 47.28 47.91 48.36 47.90 47.57 50.16 52.01 58.05 59.93 60.96 61.78 62.19 62.45 62.68 63.42 63.72 63.09 61.37 60.38 59.79 59.39 58.94 58.38 57.53 55.85 55.65 53.64 55.50 51.70 54.29 53.29 48.69 48.73 47.67 48.07 47.81 48.88 53.58 54.83 54.54 54.15 54.32
47.53 48.14 48.71 48.24 48.47 48.42 47.64 47.41 47.61 48.07 50.08 54.10 57.20 58.96 58.40 58.33 61.05 62.04 62.44 62.47 61.63 60.02 59.53 58.33 57.43 56.55 56.73 53.61 53.41 56.05 52.03 50.22 48.68 50.78 48.60 47.62 46.03 45.25 47.38 51.84 53.05 53.83 53.16
47.07 48.15 48.55 48.76 48.62 48.79 48.60 47.52 45.87 45.18 45.33 46.41 47.81 48.91 48.81 49.95 52.25 54.90 56.32 58.68 60.02 60.06 59.29 59.05 58.19 57.03 55.82 56.94 51.82 53.44 52.35 51.96 51.23 50.75 49.60 48.21 46.72 45.98 46.26 47.65 51.91 53.14 53.97
46.57 46.23 46.81 47.36 47.69 47.88 48.12 48.17 47.27 46.53 45.96 46.30 47.17 48.52 49.12 50.09 51.59 51.93 52.58 53.09 57.07 58.97 59.93 59.70 58.10 56.81 55.73 56.02 53.62 51.69 51.99 51.99 50.90 50.06 50.99 51.39 47.80 47.13 45.75 47.72 47.07 50.94 51.18
45.65 45.64 45.76 45.89 45.55 46.52 47.30 47.77 47.56 46.91 46.84 47.45 47.62 48.31 48.80 49.39 49.81 49.39 50.22 50.36 51.37 53.13 56.92 59.30 59.86 58.31 56.36 56.34 56.35 56.54 55.67 53.80 51.88 49.80 48.52 48.91 49.82 50.80 46.29 47.13 47.43 48.29 46.58

GFSSE_sfc_wetblb_069.txt.gz
Wetbulb
70.21 74.27 75.94 76.45 75.79 75.54 75.32 74.87 74.21 74.35 74.01 73.17 72.88 72.75 72.51 72.11 72.73 72.12 72.53 72.24 71.99 72.20 71.96 71.84 71.66 71.47 71.17 70.60 70.14 69.85 69.25 69.20 69.19 69.74 69.41 69.68 70.52 70.46 69.99 69.33 68.44 68.21 68.53
72.11 74.73 75.90 76.31 76.07 75.75 75.41 75.03 74.80 74.58 74.12 73.51 72.30 72.05 71.93 71.73 72.44 71.57 71.35 70.88 70.49 70.72 71.30 70.82 70.56 70.72 70.72 70.34 69.82 69.55 68.98 68.39 68.30 68.20 67.83 68.02 69.42 69.55 68.84 68.30 68.10 67.29 68.08
72.81 74.54 74.91 75.80 75.94 75.85 75.60 74.73 74.52 74.58 74.01 72.89 72.23 71.53 71.08 71.44 72.33 71.79 71.41 71.01 69.81 69.66 70.14 70.30 70.02 70.10 69.98 69.69 69.41 68.77 68.49 68.37 68.21 67.83 67.37 68.22 67.73 68.62 68.73 68.03 67.72 67.92 67.41
73.46 74.04 74.35 75.56 75.95 75.88 75.25 74.49 74.26 74.35 72.72 71.96 71.10 70.47 70.63 70.92 71.98 72.15 71.43 70.77 69.21 69.05 69.39 69.34 69.37 69.85 69.78 69.47 69.21 68.82 68.16 67.42 67.10 66.90 69.19 69.08 68.77 68.82 70.08 70.17 70.22 69.76 68.29
73.35 73.88 74.18 75.49 75.75 75.51 75.01 74.47 73.45 72.64 71.94 70.96 70.14 70.45 70.61 70.58 72.11 72.62 71.33 70.04 68.63 68.51 68.80 68.62 68.70 69.37 69.00 69.04 69.02 68.94 69.45 67.95 67.24 69.10 70.23 70.14 70.66 70.42 70.72 70.50 70.80 71.47 70.13
72.97 73.87 74.43 75.11 75.34 75.01 74.21 73.65 72.68 72.06 71.39 70.44 71.30 71.18 70.78 70.86 72.17 72.35 70.82 69.46 68.40 68.27 68.29 68.14 68.28 68.57 68.69 68.86 69.58 70.13 69.38 67.93 67.73 69.95 70.03 70.21 70.00 69.32 69.07 68.57 68.87 70.35 69.76
72.31 73.90 74.32 74.92 74.84 74.12 73.60 73.03 72.16 70.84 70.28 70.69 71.56 71.89 71.21 71.03 72.21 71.61 70.19 69.22 68.39 68.51 68.44 68.22 68.29 68.42 68.29 68.55 68.90 69.38 69.13 67.81 69.06 68.95 68.43 68.34 68.57 68.36 68.30 67.73 67.23 67.28 68.77
71.98 73.71 73.89 73.64 74.04 73.54 73.18 72.54 71.76 70.37 70.04 71.50 72.96 72.64 72.08 71.99 72.31 70.86 69.53 69.17 68.71 68.38 68.67 68.53 68.14 68.01 67.84 67.90 67.69 68.36 68.17 67.13 67.12 67.68 67.68 68.01 68.58 67.73 67.48 66.78 66.40 66.06 65.86
73.02 73.13 73.63 73.62 72.80 72.10 72.14 71.89 71.50 70.72 70.49 71.48 71.88 72.41 72.60 72.20 71.48 70.32 69.36 69.16 68.75 68.23 68.58 68.61 68.42 67.95 67.61 67.10 66.61 66.02 66.98 66.08 67.64 67.74 66.88 67.47 67.89 67.08 66.61 65.83 65.17 64.98 65.14
72.18 72.26 72.78 73.15 72.68 71.91 71.35 70.74 70.46 69.98 69.52 70.64 70.75 69.84 68.90 68.81 69.47 70.33 69.22 69.51 68.93 68.16 67.94 68.31 68.33 67.75 67.17 66.57 65.87 64.99 65.37 65.77 67.28 67.25 67.67 67.55 67.40 66.31 65.97 64.99 64.36 63.81 63.59
70.49 71.53 71.79 71.99 72.30 71.85 71.20 70.15 69.84 69.17 68.35 68.55 69.18 67.71 67.85 69.78 69.61 68.91 67.13 67.78 69.03 68.68 67.91 67.98 68.00 67.40 65.83 64.52 64.67 64.64 63.13 66.75 67.08 67.08 67.45 65.88 67.59 66.42 65.47 64.43 63.53 62.90 62.49
67.56 69.14 70.94 71.14 71.05 71.41 70.72 70.73 70.31 69.29 68.27 67.17 68.43 69.70 69.32 68.78 68.87 68.29 66.23 66.32 68.12 68.63 68.53 67.97 68.16 67.39 65.37 64.83 64.14 62.66 64.65 63.73 64.72 66.15 66.63 65.74 67.80 67.35 66.09 64.69 63.51 62.37 61.53
67.38 68.21 70.17 70.61 70.32 70.06 70.11 70.23 69.83 69.33 68.36 67.41 66.72 67.41 67.68 67.47 67.47 67.56 67.30 67.05 67.85 65.78 68.22 68.18 68.46 68.28 65.62 64.58 62.84 62.58 62.92 63.03 62.80 62.69 64.90 65.50 67.57 68.20 67.12 65.66 64.51 62.75 61.64
66.39 68.13 69.78 70.10 69.96 69.47 69.38 69.47 69.42 68.66 68.04 67.12 66.58 65.94 65.89 65.70 65.48 65.73 65.68 65.55 65.60 66.96 67.15 67.31 67.16 67.12 65.86 64.30 62.89 61.34 60.94 61.70 62.07 61.41 63.24 63.87 66.43 68.23 67.61 66.72 65.62 64.10 62.65
66.76 67.88 68.64 69.20 69.39 69.08 68.81 68.77 68.66 68.38 67.85 67.45 66.51 65.85 65.24 64.47 63.98 64.22 64.27 64.26 64.33 65.61 65.99 66.05 65.91 65.81 65.60 64.80 63.83 61.86 61.00 61.20 60.53 60.10 62.04 62.08 64.40 67.21 67.74 67.12 66.61 65.78 64.12
66.86 67.12 67.67 68.02 68.79 68.77 68.53 68.42 68.39 68.36 68.20 67.40 66.76 66.34 65.46 64.88 64.03 62.97 62.37 62.73 63.05 64.44 64.99 64.84 64.64 64.72 64.79 64.74 64.25 63.94 63.09 61.58 59.90 59.70 60.16 61.89 62.93 65.18 67.10 67.38 66.71 66.28 65.63
66.12 67.14 66.82 67.28 67.72 67.67 67.95 68.17 68.14 68.38 67.97 67.97 67.58 66.88 66.20 65.38 64.61 63.96 63.12 62.65 63.59 64.08 63.88 64.18 64.07 64.13 63.97 64.04 63.82 64.28 63.89 63.48 62.19 61.14 59.29 59.68 61.03 61.77 64.81 67.10 66.92 66.34 66.02
65.52 65.92 66.94 67.15 66.96 66.93 67.01 67.48 67.68 67.70 67.92 67.94 68.02 67.97 67.33 66.49 65.54 64.64 63.91 63.54 63.74 63.78 63.80 63.55 63.51 63.18 63.06 63.15 63.17 63.54 63.54 63.58 63.29 62.36 60.21 58.92 59.31 60.38 62.29 64.81 66.27 66.49 66.11
64.67 65.16 65.68 66.88 67.08 67.01 66.79 66.69 66.97 67.10 66.81 67.18 67.14 67.30 67.41 66.90 66.24 65.21 64.68 64.72 64.29 63.63 63.05 62.82 62.66 62.48 62.44 62.69 62.30 62.86 62.72 62.69 63.05 62.15 62.04 60.83 59.65 59.31 60.72 61.90 63.37 64.50 65.51
56.27 61.24 64.80 65.72 66.46 67.02 66.92 66.04 65.75 65.68 65.79 65.99 65.93 66.20 66.42 66.29 66.38 65.90 65.38 64.96 64.45 63.75 63.35 62.58 62.13 62.36 62.03 62.24 60.91 60.77 61.92 62.03 62.17 61.90 61.60 61.18 59.75 59.20 59.63 60.41 61.46 62.23 62.41
49.76 52.52 57.97 62.40 61.39 64.63 65.13 65.04 65.21 65.15 65.63 65.81 65.61 65.45 65.17 65.05 64.95 65.13 65.02 64.83 64.06 62.52 63.80 63.38 62.64 61.25 61.30 61.18 59.56 60.23 59.92 60.56 60.24 60.40 60.71 59.53 58.41 57.45 58.21 58.69 59.64 60.55 61.47
49.95 50.34 51.04 52.80 52.11 55.17 60.53 61.90 64.04 64.49 64.73 65.19 65.46 65.66 65.65 65.80 66.16 65.73 64.51 64.01 63.65 62.89 62.55 62.59 62.01 61.53 60.79 59.90 60.40 57.67 57.12 58.93 58.42 57.62 57.32 56.67 56.64 55.76 55.55 56.80 57.96 58.62 59.53
50.47 50.96 51.18 51.44 51.26 51.55 51.34 51.76 52.10 52.87 54.31 57.24 59.55 61.18 53.93 55.21 58.37 61.98 63.66 64.45 64.49 63.05 62.75 63.30 62.17 60.83 60.50 59.95 59.30 59.19 55.06 53.86 53.77 57.49 56.03 55.61 55.27 54.32 54.06 54.45 56.01 57.05 57.78
50.32 51.06 51.03 51.04 51.16 51.52 51.94 51.34 50.70 50.69 50.61 50.61 51.54 52.08 52.73 54.82 55.36 55.83 56.56 57.89 60.22 61.97 62.46 62.36 61.79 60.66 59.96 59.45 57.19 57.06 58.15 56.43 54.32 53.09 55.79 54.72 54.51 54.02 53.67 53.56 53.54 55.21 56.33
49.64 49.82 49.84 50.30 50.43 50.77 51.29 51.51 51.19 50.27 49.96 50.22 51.48 52.35 52.66 53.58 53.33 53.16 53.83 54.74 55.63 58.07 59.25 59.57 61.00 59.97 59.31 59.78 58.30 57.93 57.06 56.46 55.45 53.04 51.53 53.75 53.88 56.03 56.14 54.55 53.70 53.19 54.09
48.54 48.69 49.06 49.01 48.58 49.94 50.74 50.92 50.78 50.67 50.49 51.11 51.20 51.69 51.76 52.39 52.04 50.94 51.39 52.45 53.79 54.76 56.16 57.49 58.99 60.22 59.69 58.72 59.35 58.15 57.37 55.72 54.49 52.82 50.80 51.52 52.20 54.25 54.88 54.71 53.16 52.01 50.67

GFSSE_sfc_wetblb_072.txt.gz
Wetbulb
72.42 75.02 75.84 76.13 75.38 75.28 74.96 74.76 74.16 73.97 73.62 73.21 73.02 72.66 72.42 72.82 72.41 72.78 72.28 72.12 72.56 72.30 72.36 72.50 72.30 71.56 71.06 70.62 69.94 69.43 69.06 69.61 69.57 68.76 69.20 70.52 70.58 70.13 68.96 68.44 69.72 68.61 69.06
72.93 75.07 75.64 76.17 76.05 75.70 75.34 74.66 74.45 74.23 73.89 73.11 72.46 72.24 72.05 72.45 71.71 71.44 71.04 70.72 71.12 71.40 71.25 71.52 71.55 71.22 70.77 70.25 69.87 69.31 68.86 68.71 68.39 68.03 68.50 68.85 69.47 68.77 68.57 68.46 68.68 67.90 68.41
72.82 74.35 75.51 75.72 76.00 75.98 75.42 74.46 74.20 74.19 73.54 72.52 71.99 71.67 71.77 72.70 71.99 71.73 71.08 69.85 69.93 70.68 70.79 70.74 70.80 70.58 70.13 69.77 69.13 68.97 68.89 68.30 67.92 67.62 68.00 69.25 69.58 69.68 70.02 69.37 68.76 68.54 67.66
73.65 74.64 74.98 75.68 75.99 75.70 74.76 74.27 74.12 73.42 72.51 71.90 71.48 70.94 71.36 72.40 72.28 71.84 70.83 69.23 69.49 69.67 69.91 70.19 70.32 70.12 69.86 69.59 69.21 68.66 68.26 68.18 68.09 68.16 70.03 69.93 69.63 70.62 71.05 71.23 71.53 70.30 68.48
73.98 74.35 75.16 75.70 75.81 75.48 74.61 74.45 74.55 72.75 71.80 70.84 70.16 70.61 70.80 72.06 72.79 71.87 70.27 68.87 68.86 69.29 69.02 69.63 69.84 69.43 69.42 69.42 69.42 69.77 68.60 68.06 67.66 70.67 70.63 70.77 70.89 70.04 69.84 69.79 71.03 70.13 69.10
73.60 73.99 74.51 75.22 75.56 75.11 74.71 73.93 72.85 72.30 71.49 70.66 71.28 70.73 70.87 71.90 72.91 71.48 69.68 68.56 68.53 68.59 68.55 68.92 69.05 69.04 69.13 69.89 70.21 69.63 68.71 67.86 69.64 70.23 70.35 69.53 69.33 68.87 68.87 68.20 68.24 69.67 70.30
72.76 74.07 74.60 75.19 75.22 74.44 73.96 73.26 72.28 71.45 70.90 71.54 71.74 71.11 71.25 71.82 72.53 70.87 69.51 68.64 68.67 68.55 68.44 68.61 68.83 68.69 68.80 69.15 69.64 69.56 69.04 68.10 69.30 68.92 68.60 68.72 68.66 68.40 68.30 67.50 67.08 67.06 67.60
72.66 73.21 74.03 73.65 73.92 73.62 73.23 72.52 71.53 70.49 70.67 71.91 72.63 71.76 71.67 72.80 71.76 70.45 69.53 68.91 68.72 68.85 68.63 68.47 68.43 68.20 68.22 68.03 68.63 68.79 67.88 67.35 67.70 67.86 68.03 68.09 68.12 67.90 67.42 66.67 66.12 66.28 66.43
73.33 72.78 73.73 73.82 73.12 72.19 72.08 71.76 71.46 71.05 71.50 71.62 73.23 72.72 72.60 72.12 71.32 70.37 69.41 69.12 68.47 68.66 68.70 68.48 68.15 67.84 67.57 67.19 66.68 66.93 67.17 66.20 68.55 68.16 67.10 68.17 67.65 67.34 66.73 65.83 65.18 64.65 64.66
72.23 72.01 73.61 73.50 73.06 72.38 71.37 70.57 70.18 69.96 70.57 71.23 70.73 70.05 69.39 69.38 69.59 70.34 69.61 69.49 68.75 68.20 68.47 68.41 68.14 67.53 66.94 66.28 65.64 64.79 65.78 66.42 68.84 68.54 68.79 67.76 67.30 66.63 66.14 65.21 64.22 63.66 63.39
71.52 72.11 72.71 72.05 72.62 72.51 71.86 70.37 69.34 68.65 69.07 69.65 69.21 67.73 68.45 70.72 70.47 69.60 67.45 68.26 68.80 67.95 67.92 68.10 68.04 66.93 65.30 65.02 64.38 63.51 63.33 68.37 68.78 68.66 68.42 65.82 67.10 66.62 65.71 64.59 63.63 63.03 62.46
69.66 71.24 72.47 72.31 72.24 72.13 71.41 71.22 71.33 69.50 68.09 68.03 69.49 70.13 70.07 70.28 70.62 70.19 67.60 67.05 67.58 67.77 67.93 67.71 67.98 66.91 65.52 67.10 65.94 63.71 66.23 66.81 67.02 67.46 67.40 65.46 66.83 67.90 66.72 65.32 63.97 62.73 61.82
69.25 69.86 71.90 72.16 72.47 72.08 71.42 71.66 71.50 71.05 70.38 69.80 69.20 69.23 68.51 68.09 68.72 68.74 69.10 68.91 69.40 66.40 69.29 68.26 68.39 67.83 66.73 67.01 66.16 64.95 64.80 65.32 65.79 65.80 66.30 65.20 66.82 68.21 67.75 66.97 65.46 63.82 62.36
67.84 68.40 71.72 72.19 71.99 71.98 71.88 71.60 71.38 70.93 70.65 70.19 69.80 69.27 69.03 68.12 67.36 66.60 66.52 66.92 66.84 67.16 68.05 68.49 67.64 66.88 66.63 66.51 66.00 64.88 63.94 63.93 64.62 64.92 65.16 63.73 65.52 67.56 68.29 67.63 66.87 65.45 63.86
68.90 70.00 71.57 72.02 72.01 71.67 71.77 71.68 71.52 71.06 70.54 70.49 70.15 69.53 69.35 68.46 67.31 67.16 66.05 65.64 65.52 66.20 67.11 67.27 66.79 65.99 65.62 65.57 65.84 65.67 65.01 64.60 64.45 64.09 63.94 62.58 63.74 65.88 67.82 67.87 67.22 66.95 65.96
69.17 70.28 71.34 71.43 71.60 71.83 71.58 71.52 71.34 71.33 70.94 70.70 70.44 70.01 69.20 68.95 68.16 67.13 66.91 64.82 65.12 65.90 67.22 67.33 67.19 66.93 66.73 66.61 66.08 66.23 65.98 66.33 65.83 65.12 64.34 63.91 63.06 64.30 66.14 67.47 67.54 67.03 66.65
69.38 70.45 70.62 70.66 71.08 70.95 71.37 71.65 71.40 71.19 70.74 70.53 70.55 70.42 69.76 69.19 68.77 67.53 67.40 66.90 65.79 67.00 66.55 66.84 66.92 66.95 66.72 66.85 66.57 66.81 66.86 66.88 66.84 66.51 66.20 64.77 64.02 61.75 63.17 65.25 66.95 67.29 66.84
68.96 69.54 69.97 69.57 69.92 70.61 70.95 71.10 70.94 70.87 70.79 70.81 70.94 70.98 70.45 69.88 69.31 68.58 67.75 67.83 68.30 67.40 67.12 66.84 66.72 66.28 66.34 66.42 66.44 66.94 66.91 66.97 66.88 66.80 66.81 66.03 64.86 63.94 63.54 63.17 64.94 66.55 66.86
68.48 68.82 68.24 69.23 69.38 69.67 70.11 70.36 70.52 70.55 70.39 70.74 70.90 70.81 70.75 70.37 69.61 68.74 68.15 68.19 68.61 68.07 67.73 67.29 66.87 66.69 66.19 66.36 66.11 66.17 66.51 66.55 66.68 66.27 66.20 66.22 66.08 64.87 65.06 63.64 62.88 64.23 65.93
65.28 67.70 68.12 68.62 69.11 70.02 70.22 70.02 69.88 69.76 70.13 70.56 70.50 70.41 70.35 70.26 69.63 68.92 68.49 68.37 68.41 67.73 67.50 67.70 66.92 67.41 66.35 65.84 64.77 64.31 65.84 66.23 66.14 65.84 65.84 65.76 65.98 65.46 64.51 64.27 64.24 63.48 61.91
56.63 60.88 65.53 67.39 68.57 69.14 68.99 68.57 68.62 68.32 69.01 69.13 69.42 69.50 69.15 68.96 68.52 68.02 68.03 68.27 68.39 67.42 67.44 67.58 66.83 65.61 65.35 65.84 63.77 64.09 64.85 64.90 64.52 64.70 65.10 64.86 64.36 63.59 62.57 62.50 62.80 62.97 62.88
55.39 56.81 58.79 62.57 66.75 67.13 68.43 68.76 68.92 69.06 69.16 69.41 69.75 69.00 68.78 68.75 68.75 68.51 68.27 68.03 68.11 67.28 67.07 66.74 66.10 64.72 64.71 65.62 62.50 61.74 58.75 60.40 62.27 62.88 63.54 62.74 62.83 62.60 60.97 60.53 61.07 61.01 61.37
55.00 55.74 56.30 57.32 58.11 59.13 61.87 62.40 61.95 62.11 62.20 63.57 65.85 66.59 60.63 59.94 61.17 63.25 64.63 65.31 65.70 65.73 64.50 65.04 64.84 63.33 61.56 63.81 62.70 61.68 58.29 55.30 58.87 61.45 61.47 61.53 61.03 60.96 59.83 59.06 59.14 59.44 59.69
54.89 55.88 55.97 55.88 55.74 55.70 55.89 56.38 57.37 58.99 58.19 57.39 57.45 57.36 57.32 57.80 57.96 58.17 58.64 59.69 61.31 63.12 63.24 63.69 64.43 63.84 62.39 61.19 60.96 60.69 61.55 60.15 56.39 55.35 58.91 60.37 59.75 60.12 60.52 60.41 59.15 58.42 58.46
54.42 55.02 55.18 55.11 55.15 55.54 56.18 56.21 56.35 55.25 55.77 55.76 56.20 55.76 56.59 56.82 56.25 56.15 56.78 57.67 58.47 59.57 60.57 60.71 60.35 60.40 61.66 60.85 60.50 59.72 59.72 59.33 58.33 55.25 52.70 55.97 59.33 59.07 59.63 59.35 58.81 58.04 57.23
54.12 53.99 54.29 54.03 53.73 54.92 55.53 55.40 55.43 55.20 54.94 55.20 55.56 55.93 56.21 56.87 56.14 54.42 54.24 55.47 56.28 56.79 57.83 58.39 58.38 59.09 59.27 60.12 60.81 59.99 59.17 57.21 57.20 55.49 53.08 53.84 54.56 55.96 56.59 58.12 56.02 54.37 53.58

GFSSE_sfc_wetblb_075.txt.gz
Wetbulb
72.91 74.57 75.95 75.73 75.17 75.07 74.87 74.41 73.99 73.63 73.44 73.17 72.37 72.75 72.54 72.75 72.79 72.23 72.20 72.47 73.22 72.81 72.93 72.49 71.95 71.49 70.93 70.05 69.50 69.27 69.32 68.64 68.57 69.76 70.43 70.63 69.43 69.11 69.50 69.61 70.35 67.95 68.46
73.79 74.53 75.55 75.75 75.64 75.33 74.87 74.52 73.93 73.72 73.65 72.79 72.08 72.29 72.10 71.76 71.53 71.06 70.80 71.35 71.38 71.88 72.09 71.74 71.62 71.10 70.58 70.12 69.74 69.51 69.54 69.11 68.20 67.91 69.38 68.73 69.82 70.09 69.54 68.94 69.29 67.25 67.92
73.38 74.31 74.74 75.75 75.99 75.67 74.80 74.15 73.60 73.06 72.82 72.30 71.96 72.08 72.62 72.09 71.81 70.73 69.80 70.32 70.95 71.06 71.04 71.12 70.99 70.54 69.97 69.52 69.51 69.42 69.02 68.47 67.63 67.78 68.90 69.51 70.20 71.30 71.75 71.22 69.91 69.22 67.49
73.67 73.81 74.29 75.66 75.75 75.54 74.47 73.93 73.54 72.73 72.31 71.97 71.40 71.75 72.82 72.29 71.86 70.37 69.28 69.72 70.10 70.32 70.23 70.46 70.29 70.08 69.79 69.54 69.25 68.86 68.99 68.67 68.44 69.70 69.77 69.29 69.96 70.48 70.81 71.45 70.81 69.77 69.64
73.71 73.99 74.35 75.46 75.66 75.17 74.33 74.32 73.52 72.40 71.51 70.89 71.04 71.24 72.08 72.69 71.75 70.06 68.92 69.29 69.53 69.55 70.16 69.88 69.78 69.60 69.92 69.96 69.96 68.96 68.34 68.36 69.18 69.95 68.93 69.28 68.99 68.95 69.31 69.65 70.48 70.72 70.63
73.45 74.59 74.69 75.30 75.43 74.98 74.79 74.64 73.02 71.99 71.16 70.55 70.79 71.03 71.45 72.95 71.58 69.66 68.77 68.87 68.98 69.00 69.36 69.38 69.25 69.45 70.13 70.13 69.73 69.04 68.40 69.56 69.58 68.77 68.48 68.76 67.82 68.68 68.43 67.88 67.97 68.33 68.97
72.52 74.72 74.55 75.15 75.08 74.80 74.05 73.61 72.71 71.91 71.17 71.48 71.02 71.09 71.51 72.98 71.11 69.72 68.80 68.86 68.73 68.70 68.84 69.06 68.97 69.05 69.41 69.70 69.68 69.53 68.69 68.58 68.15 67.75 67.62 67.58 67.56 68.11 67.53 66.71 66.58 66.87 67.46
72.59 72.63 74.01 73.69 74.03 73.79 73.25 72.56 71.70 70.88 71.08 72.07 71.62 71.54 71.69 72.42 70.90 69.95 69.09 68.87 68.88 68.61 68.55 68.60 68.52 68.51 68.31 68.83 69.11 68.61 67.72 68.08 67.39 67.30 67.43 67.48 68.29 67.92 67.18 66.22 65.51 65.26 65.53
73.05 72.39 72.95 73.24 72.77 72.23 72.10 71.74 71.45 71.49 72.03 72.16 72.78 72.58 72.99 71.78 71.14 70.08 69.48 68.79 68.75 68.91 68.60 68.20 68.08 67.99 67.56 67.24 66.78 67.21 67.10 67.32 67.48 67.10 66.58 67.39 68.04 67.45 66.68 65.77 65.03 64.70 64.68
72.21 72.32 72.60 72.56 72.35 71.50 70.38 70.40 70.29 70.92 71.40 72.19 72.10 71.38 70.01 69.49 69.63 70.27 69.85 69.41 68.44 68.48 68.56 68.30 67.76 67.41 66.78 66.19 65.48 64.72 65.17 66.73 67.63 67.34 67.25 66.84 67.09 66.76 66.26 65.33 64.55 64.06 63.48
70.20 71.46 72.55 71.46 71.66 70.63 71.13 69.30 68.64 69.24 70.08 69.31 68.82 68.40 68.46 70.13 69.78 68.54 67.63 68.69 68.76 67.97 67.93 68.03 67.87 66.73 65.55 65.36 64.78 64.12 64.23 66.78 67.05 67.09 66.99 66.87 66.89 66.93 66.07 64.99 64.19 63.61 62.73
68.75 70.06 70.85 70.91 70.62 70.83 70.65 69.76 69.75 66.23 69.65 69.48 69.33 69.07 69.96 70.01 70.03 69.35 67.68 67.55 68.11 67.98 67.94 67.82 68.06 67.36 65.78 66.21 64.91 63.92 64.64 65.55 65.54 66.08 66.53 66.63 66.20 67.73 67.50 66.04 64.55 63.40 62.52
69.00 70.32 70.38 70.61 70.88 70.34 70.44 70.39 70.68 69.66 68.11 67.86 68.55 68.69 68.06 67.92 68.55 67.98 68.78 68.23 68.61 66.06 68.42 67.52 67.38 67.25 66.92 66.28 65.48 64.51 64.22 64.40 64.70 65.30 66.02 66.09 66.01 67.39 68.29 67.71 66.26 64.87 63.21
69.15 70.36 70.49 70.46 70.72 70.44 70.33 70.71 70.50 70.01 69.94 69.40 69.49 69.26 68.37 67.27 66.73 66.12 65.86 66.33 66.52 66.76 66.94 67.89 66.97 66.43 65.99 65.83 65.52 64.98 64.39 63.90 63.89 64.73 65.05 64.54 65.03 66.62 67.89 67.99 67.75 66.74 65.20
68.05 68.54 71.03 70.63 70.75 70.29 70.17 70.21 70.41 70.08 69.86 69.88 69.68 69.41 68.87 67.95 66.89 66.72 65.79 65.07 65.05 65.03 65.86 66.45 66.64 65.77 65.25 65.01 65.25 65.17 64.92 64.89 64.73 64.82 64.72 62.95 64.21 64.87 66.58 67.80 67.73 67.41 67.11
68.34 69.05 70.32 70.43 71.15 70.22 70.22 69.93 70.10 70.50 70.14 70.13 70.10 69.82 69.16 68.68 68.03 66.87 66.82 65.16 64.60 65.37 66.52 67.08 66.98 66.80 66.64 66.71 66.29 66.37 66.12 66.19 66.36 66.02 65.70 65.44 63.65 64.42 65.19 66.71 67.39 67.48 67.19
69.14 69.68 69.87 70.11 70.36 69.34 70.18 70.12 70.50 70.41 70.11 70.05 70.20 70.13 69.58 69.29 68.97 67.68 67.32 67.37 65.79 66.81 66.74 66.86 66.88 67.00 66.66 66.85 66.56 66.91 66.93 66.95 66.82 66.65 66.88 66.89 65.69 62.52 64.07 64.86 66.20 66.92 67.30
69.25 69.04 69.99 70.24 69.91 69.51 69.48 70.06 70.10 70.57 70.37 70.43 70.61 70.64 70.09 69.53 69.25 68.87 68.29 68.17 68.88 68.03 67.58 67.32 67.12 66.65 66.58 66.58 66.45 66.94 67.22 67.25 66.79 66.79 67.15 67.12 66.83 65.37 63.89 64.36 64.84 65.20 66.44
69.04 69.32 69.56 69.98 69.69 69.74 69.78 70.05 70.19 70.33 70.42 70.65 70.89 70.76 70.76 70.49 69.99 69.07 68.43 68.38 68.73 68.54 68.19 67.68 67.28 67.15 66.48 66.11 65.61 66.65 66.81 66.52 66.77 66.56 66.41 66.65 66.88 66.67 66.10 64.73 63.21 63.67 64.80
68.09 69.27 69.83 69.81 69.75 69.97 70.18 70.00 69.88 69.92 70.36 70.72 70.58 70.67 70.78 70.64 70.39 69.68 68.96 68.54 68.52 68.06 67.58 67.77 67.12 67.45 66.64 66.33 65.44 65.18 65.85 66.14 66.64 66.33 65.79 65.54 65.44 66.09 66.09 65.26 64.78 63.16 61.63
61.80 66.66 68.58 68.68 69.12 69.44 69.13 68.62 68.76 68.27 69.27 69.85 70.35 70.50 70.23 70.14 69.89 69.44 68.69 68.47 68.72 67.85 67.78 67.84 67.10 66.07 65.84 66.51 64.37 64.15 64.70 65.86 65.07 64.86 64.98 64.44 64.49 65.00 64.10 62.90 63.12 63.07 63.05
56.75 61.69 64.81 67.23 68.42 68.93 69.16 69.31 69.51 69.51 69.61 69.82 70.31 69.83 69.83 69.38 69.07 68.37 67.90 67.67 67.70 67.22 66.74 66.43 65.99 64.82 64.51 65.40 62.22 61.80 58.83 60.22 61.79 63.44 63.54 63.17 62.93 63.24 61.85 61.48 60.73 60.83 61.28
56.12 57.06 59.41 62.00 65.21 66.52 68.17 68.11 65.80 65.03 65.00 66.04 67.71 67.33 64.59 62.93 63.70 63.90 64.02 64.32 65.19 65.42 64.75 64.71 64.35 63.57 62.17 63.63 64.44 61.56 57.70 55.64 58.61 61.53 61.41 61.82 61.67 61.68 61.14 60.84 59.85 59.83 59.44
56.23 58.10 57.54 58.27 58.76 59.41 60.13 62.22 62.99 63.53 63.11 61.72 61.53 60.49 58.94 58.78 58.91 58.95 59.36 59.96 60.67 62.56 63.37 63.43 63.72 63.51 63.10 61.11 62.97 63.11 62.98 61.19 56.97 54.72 59.88 60.15 60.41 59.61 60.14 60.30 59.73 59.09 58.35
56.72 56.83 57.30 57.17 57.14 57.10 57.56 58.00 57.72 57.07 57.43 56.66 56.21 56.34 56.79 57.41 57.13 56.72 57.10 57.59 58.07 59.08 59.60 60.09 60.40 60.32 60.50 59.16 58.74 60.02 60.52 60.40 59.42 56.21 53.89 55.82 59.27 59.58 59.54 58.92 58.81 57.40 56.11
56.17 56.29 56.67 55.86 55.88 56.70 57.23 57.26 57.11 56.88 56.11 55.64 55.94 55.99 56.46 56.96 56.59 55.54 55.23 55.82 56.45 56.76 57.09 58.28 58.88 58.22 58.13 58.04 59.23 59.63 58.39 57.99 56.36 55.40 54.25 55.37 55.02 55.31 56.16 57.29 55.28 53.73 52.67

GFSSE_sfc_wetblb_078.txt.gz
Wetbulb
71.17 73.30 76.04 75.85 74.88 74.76 74.50 74.23 74.00 73.83 73.83 72.55 73.20 72.37 73.20 72.34 72.04 72.62 73.10 73.39 73.75 73.50 72.66 72.13 71.83 71.08 70.40 69.89 69.62 69.06 68.24 69.01 70.18 70.07 69.84 70.25 70.45 70.68 70.68 70.31 68.57 66.92 68.92
71.96 73.16 75.51 75.72 75.63 75.14 74.67 74.21 73.93 73.95 73.63 73.06 72.55 71.87 71.77 71.62 70.96 71.25 71.87 71.82 72.81 72.81 72.16 71.39 71.35 70.82 70.52 70.34 70.00 69.75 69.23 68.79 68.49 69.38 69.71 69.95 70.61 71.86 71.35 70.05 69.45 66.49 68.16
71.75 72.81 74.25 75.50 75.59 75.18 74.69 73.71 73.82 73.55 73.27 73.05 72.80 72.20 71.99 71.42 70.17 70.20 70.83 71.12 71.58 71.89 71.41 70.90 70.87 70.25 69.93 70.05 69.81 69.66 69.36 69.00 68.63 69.30 69.13 68.36 68.28 71.77 71.78 70.62 70.47 70.30 69.52
72.38 71.98 72.87 75.52 75.55 75.29 74.32 73.67 73.63 72.69 72.28 72.23 72.57 72.98 72.45 71.38 69.80 69.80 70.00 70.47 71.00 70.70 70.21 70.48 70.30 69.99 69.78 69.54 69.13 69.57 69.81 69.62 70.10 70.29 67.91 67.23 67.19 69.95 70.98 70.95 71.15 71.38 71.22
71.83 72.30 73.85 75.31 75.43 75.02 74.33 74.06 72.82 72.15 71.94 71.66 72.23 72.82 72.56 71.27 69.65 69.34 69.76 69.87 70.08 69.96 69.66 70.03 70.00 70.40 70.31 70.05 69.17 69.33 69.83 70.39 70.39 68.54 65.52 65.47 64.89 67.89 69.09 69.22 68.99 69.72 70.56
70.85 72.82 74.31 75.00 75.12 74.76 74.59 74.08 72.58 71.55 70.69 71.31 71.83 72.23 72.99 71.37 69.57 69.04 69.39 69.34 69.77 70.15 69.67 69.61 69.74 70.31 70.14 69.79 69.21 69.68 69.98 69.89 68.99 64.63 64.82 67.06 65.35 67.67 67.21 67.01 67.34 68.23 68.69
72.08 73.04 74.07 74.95 74.95 74.75 74.52 73.64 72.96 71.64 71.16 71.17 71.41 71.75 73.20 71.28 69.69 68.90 68.99 68.99 69.03 69.31 69.36 69.32 69.37 69.67 69.84 69.75 69.57 69.08 68.76 68.47 65.01 63.94 64.63 64.81 65.37 67.82 66.91 66.19 65.78 65.86 66.77
72.02 72.29 73.29 73.68 74.09 73.70 73.54 73.16 72.69 71.98 71.97 71.67 72.32 72.48 72.77 71.20 70.07 69.20 69.14 69.00 68.89 68.95 69.05 68.94 68.87 68.61 68.85 69.15 68.86 68.31 68.28 67.35 65.28 63.52 64.49 64.78 68.26 67.77 67.16 66.05 65.33 65.07 65.08
71.45 71.58 72.06 72.20 72.19 72.07 71.92 71.55 71.55 72.04 72.56 72.36 72.42 72.49 72.60 71.22 70.64 69.76 69.00 69.20 69.17 68.80 68.57 68.43 68.26 67.91 67.56 67.11 66.66 66.74 67.14 66.69 63.76 63.80 65.52 64.58 68.26 67.69 66.84 65.88 65.47 64.81 64.43
70.81 71.07 70.82 70.48 70.28 68.93 68.52 70.22 70.85 71.33 71.57 72.38 71.82 71.40 69.87 69.30 69.42 70.09 69.40 69.25 69.00 68.82 68.69 68.36 67.84 67.36 66.67 66.05 65.42 66.04 65.23 65.23 62.73 64.02 64.45 65.39 67.75 67.04 66.58 65.78 65.07 64.51 63.79
69.74 70.76 70.28 70.08 69.55 68.93 67.50 67.88 69.38 69.96 69.92 70.06 69.68 68.58 67.66 67.18 67.67 67.32 67.57 68.21 68.76 68.82 68.43 68.21 67.65 66.61 66.72 65.67 65.76 65.09 64.32 61.43 62.30 63.19 63.61 67.73 67.56 67.01 66.43 65.40 64.76 64.09 63.38
68.39 69.78 70.61 69.82 68.64 68.77 68.64 64.97 64.58 68.59 67.51 67.31 67.79 66.91 66.97 66.45 66.73 67.52 66.06 67.28 68.42 68.22 68.18 68.27 68.34 67.88 66.14 62.43 61.29 63.70 60.21 60.49 60.71 61.34 63.71 67.31 66.66 66.95 67.61 66.71 65.12 63.99 62.97
68.09 69.42 69.69 69.37 69.37 69.08 68.07 66.77 64.33 63.44 65.47 65.86 65.99 65.66 65.43 66.34 65.77 65.92 64.93 64.94 64.96 65.32 65.24 66.74 66.14 65.87 63.31 62.40 61.34 60.17 59.89 59.43 59.37 60.27 64.45 66.74 66.58 66.70 67.50 67.88 67.32 65.77 64.06
67.76 68.70 69.20 69.72 69.15 68.86 68.59 66.92 67.69 65.83 64.34 63.70 64.69 64.88 63.29 62.08 62.37 62.40 63.39 64.46 64.21 64.26 63.89 64.27 63.99 64.09 62.27 62.18 61.34 60.56 60.08 59.10 58.91 59.24 62.19 64.87 66.15 65.85 66.88 67.83 67.78 67.76 66.46
67.40 68.18 68.88 69.51 69.38 68.92 68.42 67.30 67.48 65.85 65.95 66.05 65.75 65.72 64.73 63.35 62.32 61.66 60.50 60.54 60.57 60.20 60.40 61.53 62.11 61.61 60.63 60.55 60.58 60.61 60.55 60.08 59.50 59.57 59.31 62.74 64.50 65.64 65.67 66.76 67.65 67.66 67.70
67.20 67.16 67.97 68.92 69.51 69.13 68.45 67.50 67.70 67.33 66.42 66.16 66.18 66.05 65.85 64.39 63.29 62.48 62.24 60.86 59.43 60.07 60.83 62.24 62.37 62.36 62.34 62.25 62.12 62.19 61.65 61.49 61.58 61.60 61.20 60.29 63.88 64.91 65.55 65.73 66.77 67.46 67.71
67.34 68.03 67.40 67.99 69.24 68.92 68.69 68.44 68.11 66.98 67.54 66.23 66.48 66.56 65.92 65.67 64.87 63.21 62.69 61.61 60.21 61.30 61.84 61.98 62.34 62.62 62.30 63.18 62.39 63.00 63.02 62.55 62.48 62.29 62.56 62.37 62.02 62.81 64.57 65.39 65.74 66.56 67.26
66.64 66.74 68.09 69.33 68.45 68.24 68.42 68.47 68.33 67.92 66.33 66.99 66.81 66.67 66.68 66.42 66.18 65.17 64.21 64.13 64.80 62.89 63.17 62.89 62.74 62.47 62.33 62.30 62.07 62.57 63.22 64.32 63.54 63.03 63.24 63.01 62.95 62.23 62.44 64.80 66.01 66.08 66.09
66.40 65.88 66.35 67.95 67.12 67.81 68.18 68.47 68.21 67.71 67.35 67.83 67.21 67.15 67.25 67.12 66.65 65.52 64.94 64.86 65.18 64.79 64.11 63.87 63.35 63.08 62.39 63.63 63.79 63.88 63.86 62.63 62.95 64.09 62.63 62.63 62.76 63.07 62.79 63.80 63.15 63.67 64.84
64.89 66.16 66.80 66.91 66.73 66.75 67.81 67.70 67.39 67.16 67.64 67.92 68.02 67.99 68.62 68.18 68.23 66.87 65.73 65.23 64.90 64.11 63.84 63.75 63.51 64.93 64.16 64.20 64.01 63.05 62.55 62.53 62.46 62.21 62.24 62.90 61.68 61.66 62.14 61.03 60.33 60.19 61.81
58.91 64.35 66.41 66.30 66.54 66.63 66.29 65.50 65.82 65.76 66.68 66.55 67.14 68.32 68.39 68.24 68.00 67.33 66.88 66.49 66.37 65.41 64.96 64.61 63.73 62.76 62.25 62.82 61.47 61.14 61.18 62.13 62.03 62.03 61.87 60.71 59.74 61.02 59.06 58.23 58.03 57.88 58.15
53.74 60.65 63.54 65.81 65.68 65.59 66.28 65.55 65.91 65.84 66.36 67.08 67.63 67.22 65.98 66.30 66.64 66.65 65.69 65.78 65.82 65.39 65.30 65.01 64.55 63.42 63.44 63.33 61.28 60.26 55.50 56.53 58.14 58.91 59.40 59.04 58.30 57.80 57.68 56.54 56.20 56.05 55.58
52.13 54.66 60.12 61.60 64.39 65.76 65.73 64.28 63.09 62.27 62.90 63.16 65.34 64.91 60.21 60.33 61.19 61.04 62.13 62.85 63.39 64.07 63.68 63.76 63.27 62.46 61.50 62.19 62.68 60.20 55.43 51.91 54.80 56.70 57.16 57.34 56.67 56.58 55.41 56.41 56.51 55.65 54.80
52.75 54.10 54.37 56.85 57.99 58.30 59.03 61.49 60.83 60.30 60.37 57.61 58.49 56.92 55.59 55.99 55.97 56.29 56.37 56.24 56.22 57.83 59.28 61.08 62.45 61.21 59.76 58.31 58.94 60.76 59.60 58.10 52.95 51.55 54.79 55.60 55.62 55.94 56.51 56.94 56.47 55.25 53.17
53.73 53.94 54.08 54.52 54.95 54.73 54.72 56.01 56.53 54.09 52.63 52.45 52.55 53.07 53.58 54.16 54.27 54.33 54.47 54.43 54.54 55.44 55.74 56.28 56.43 56.58 57.05 55.75 55.34 56.76 57.12 57.20 55.89 53.38 50.33 52.76 55.62 56.08 56.14 55.54 53.33 51.35 50.77
53.56 53.41 53.50 53.16 53.12 53.69 53.71 53.54 53.24 52.29 51.30 51.18 51.72 51.98 52.89 53.85 53.50 53.08 53.46 52.98 53.09 53.24 53.22 53.78 54.83 55.31 54.88 55.46 56.34 56.37 56.27 55.67 55.25 54.63 53.98 54.50 53.60 54.34 54.23 52.31 51.15 50.32 50.32

GFSSE_sfc_wetblb_081.txt.gz
Wetbulb
71.03 73.61 75.67 75.62 74.81 74.27 74.32 74.07 73.80 73.72 73.01 73.12 73.15 72.68 72.12 72.68 73.11 73.90 73.76 73.77 73.93 72.57 72.07 71.83 71.14 70.32 70.10 69.91 68.86 69.05 69.98 69.77 69.70 70.67 70.91 71.19 71.69 70.88 69.83 68.26 67.91 66.57 69.65
72.37 73.73 75.28 75.49 75.40 74.86 74.36 73.91 73.60 73.62 73.45 72.87 72.26 71.72 71.13 71.33 72.27 72.40 73.00 73.18 72.81 72.10 71.53 71.39 70.85 70.67 70.51 70.34 70.22 69.92 69.59 68.96 69.27 70.55 69.91 69.34 71.08 70.98 70.70 70.29 70.07 67.65 68.09
72.33 73.68 74.29 75.35 75.15 74.88 73.97 73.40 73.62 73.54 73.39 73.19 72.96 71.44 70.56 70.27 71.06 71.46 71.95 72.31 72.34 71.08 70.64 70.76 70.32 70.53 70.42 70.41 70.34 70.25 70.10 69.63 68.61 69.06 68.90 66.10 68.07 71.44 71.21 71.26 71.57 70.67 69.72
71.97 72.94 74.01 75.14 75.10 74.77 73.64 73.00 72.96 72.87 72.71 73.61 73.37 71.93 70.23 69.78 70.11 70.46 71.32 71.22 70.94 70.32 70.23 70.12 69.91 69.89 69.70 69.70 70.31 70.60 70.74 70.82 70.50 68.46 65.61 65.73 66.44 69.88 69.89 70.61 70.73 70.79 70.84
70.82 72.80 74.07 74.92 74.88 74.49 73.66 72.99 72.46 72.02 72.01 72.91 73.46 72.50 70.30 69.43 69.91 70.07 70.67 70.56 69.79 69.90 69.81 70.09 70.27 70.18 69.90 69.69 70.08 70.63 70.52 70.22 69.01 66.68 64.70 63.79 63.63 66.84 68.43 68.71 69.04 69.69 69.59
70.18 72.71 74.17 74.69 74.81 74.39 73.84 73.12 72.03 71.72 71.58 72.23 73.19 72.33 70.50 69.19 69.83 69.88 69.90 70.11 69.62 69.88 69.64 70.09 70.26 70.07 69.75 69.71 70.32 70.00 69.41 69.54 66.81 63.86 64.19 65.71 63.66 66.86 66.58 66.44 66.78 68.07 68.33
71.59 72.95 73.64 74.68 74.67 74.43 73.86 73.07 72.25 71.15 71.35 71.74 72.74 72.31 70.79 69.28 69.29 69.49 69.34 69.51 69.62 69.45 69.42 69.59 69.95 69.87 69.72 69.54 69.14 68.72 68.55 68.05 63.59 63.38 63.82 63.98 64.47 67.30 66.60 65.83 65.61 65.66 66.25
71.76 72.73 73.23 73.37 74.01 73.99 73.45 73.01 72.47 71.97 71.52 71.95 72.86 73.03 71.01 69.67 69.08 69.12 69.04 69.10 69.22 69.31 69.20 69.20 69.01 69.27 69.28 68.80 68.31 67.98 67.98 66.88 63.92 63.38 63.83 64.37 68.04 67.51 66.95 66.19 65.27 64.94 64.85
72.12 72.03 72.17 72.15 72.03 72.03 72.18 72.09 72.15 72.32 71.98 72.37 73.01 72.64 71.49 70.51 69.72 69.18 69.24 69.08 68.98 69.01 68.78 68.63 68.37 68.01 67.55 66.91 66.05 66.17 66.06 65.83 62.28 63.40 64.67 64.23 68.37 67.58 66.82 66.19 65.63 64.84 64.41
71.00 70.82 70.31 70.05 69.82 68.61 68.50 70.43 71.17 71.32 71.53 71.70 71.56 70.94 69.55 68.96 69.13 69.68 69.15 69.51 69.08 68.73 68.43 68.15 67.86 67.46 66.71 65.96 65.59 65.95 64.91 64.64 61.21 62.59 63.60 64.67 68.00 67.26 66.74 66.01 65.37 64.76 63.93
69.73 69.64 69.33 68.18 67.11 66.44 67.34 69.03 69.73 70.24 70.44 70.10 69.67 68.13 67.49 67.18 67.39 67.22 67.01 67.97 69.03 68.88 68.52 68.23 67.63 66.81 66.24 65.62 65.68 65.21 64.26 60.09 59.44 61.85 63.02 67.95 67.98 67.25 66.73 65.81 65.12 64.32 63.52
67.79 68.33 68.87 68.04 66.82 65.88 66.80 66.32 67.09 68.40 68.40 68.50 68.87 67.00 66.61 65.13 65.57 67.11 65.83 66.92 68.35 68.34 68.32 68.31 68.20 67.72 65.77 61.67 60.62 63.26 59.89 58.77 58.63 61.01 62.82 67.51 67.29 67.10 67.45 67.02 65.53 64.32 63.31
68.33 68.86 68.50 67.75 67.13 66.39 63.67 63.28 64.67 66.11 65.91 66.36 67.12 66.67 65.63 65.63 65.35 64.91 64.29 65.14 64.72 64.88 64.80 66.50 65.85 65.34 62.84 61.93 60.71 59.47 59.22 57.93 57.62 58.30 63.74 67.02 67.32 66.50 66.97 67.69 67.80 66.21 64.46
67.58 68.04 68.99 68.48 68.18 67.45 65.57 64.64 61.62 65.04 64.24 63.66 64.69 64.46 62.15 63.06 63.78 63.39 63.14 63.11 63.10 63.84 62.87 63.26 62.91 63.02 62.97 61.97 60.02 59.58 59.00 57.83 57.69 57.75 60.82 65.33 67.05 66.42 66.29 67.06 67.83 68.01 67.24
65.65 67.74 68.30 68.82 68.49 68.19 67.17 66.10 64.02 62.32 62.71 62.74 63.98 63.51 62.13 61.07 60.28 60.05 61.10 62.41 62.28 61.98 61.48 62.17 62.00 61.34 59.98 59.37 59.50 59.28 59.06 58.85 58.17 58.05 57.87 62.86 65.00 66.47 65.92 66.00 66.79 67.55 67.71
66.77 67.18 67.92 68.50 68.90 68.64 67.94 65.80 67.15 66.36 65.11 64.38 64.19 64.23 63.80 62.54 61.18 60.60 59.57 58.70 57.94 58.02 58.35 59.76 60.78 60.82 60.56 60.55 60.60 60.59 60.08 59.70 59.80 59.90 59.41 59.63 63.92 65.22 66.38 66.15 66.19 66.59 67.51
67.06 67.29 67.35 67.43 68.98 67.85 67.97 67.70 67.19 66.86 66.72 65.05 64.89 65.10 64.66 64.29 62.85 61.52 61.15 60.33 58.30 59.02 59.58 60.12 60.85 61.04 60.84 61.66 61.05 61.74 61.90 61.63 61.27 61.01 61.31 60.75 60.99 62.97 65.13 66.52 66.65 66.63 66.84
66.57 66.89 67.63 69.24 68.25 68.15 67.99 68.11 67.15 67.93 66.51 66.60 65.22 65.04 65.09 65.04 64.78 62.68 62.07 62.45 61.79 59.86 60.94 61.25 61.27 60.99 60.89 60.81 60.84 61.54 62.43 63.37 63.56 61.91 62.16 61.87 61.73 62.47 62.81 65.61 66.91 66.93 66.50
66.25 65.87 66.28 67.17 66.82 67.60 67.65 68.22 67.73 67.67 66.24 65.76 65.88 66.93 66.18 65.56 65.58 64.64 63.98 63.86 64.08 63.44 62.34 62.18 62.10 61.77 61.29 62.04 63.05 63.42 63.36 63.10 62.02 62.90 61.63 61.68 61.57 62.71 61.61 63.07 63.40 63.69 64.49
65.39 65.86 66.21 66.76 67.36 67.84 67.42 66.65 67.38 66.71 66.80 66.87 67.05 67.13 67.07 66.93 66.46 65.83 64.70 64.10 63.79 63.08 62.84 62.67 62.41 63.22 63.48 63.39 63.64 62.58 61.90 62.00 61.83 61.30 61.29 61.99 61.37 61.25 61.80 61.48 61.02 60.07 61.71
61.51 64.57 65.81 65.78 65.50 65.62 65.38 64.98 64.46 65.19 65.90 66.34 66.69 67.94 67.61 67.34 67.52 66.72 66.39 65.85 65.96 65.04 64.66 64.80 64.30 63.50 62.37 62.24 61.94 60.75 60.42 61.14 60.97 61.11 61.29 60.76 60.53 59.32 57.28 56.64 55.85 55.62 57.14
56.41 61.62 64.04 65.62 64.77 65.51 65.47 65.50 64.78 65.49 65.65 65.60 65.85 63.64 64.61 64.92 65.12 65.09 64.89 65.53 65.43 64.94 64.70 64.53 64.15 63.13 63.03 63.29 61.01 59.93 56.74 56.07 57.07 57.19 57.61 59.07 58.28 57.52 55.91 55.78 55.20 54.54 54.72
51.18 58.20 61.72 63.60 65.33 65.54 65.50 64.39 62.54 62.84 62.70 63.47 64.05 61.61 58.55 60.02 59.61 59.56 60.63 62.29 62.64 63.22 62.91 63.15 62.97 62.19 60.98 61.51 62.42 59.87 55.70 51.72 53.52 55.62 56.28 56.20 55.59 54.96 55.11 55.54 55.44 55.09 52.85
50.70 54.10 58.84 60.42 61.37 62.86 63.90 62.64 61.81 61.18 60.54 59.51 60.99 56.17 55.87 55.82 55.25 55.62 55.59 55.56 55.24 55.63 55.70 56.89 57.80 58.22 57.09 56.87 57.24 58.87 57.68 57.89 54.71 52.53 53.92 54.64 55.05 56.03 54.31 54.79 53.44 52.33 50.91
50.62 51.50 54.18 55.66 56.01 57.73 57.84 60.72 60.18 55.84 54.40 52.00 53.04 53.10 53.47 53.60 53.73 53.81 53.64 53.49 53.61 54.12 54.15 54.75 55.22 55.39 55.48 54.48 53.87 53.75 53.76 54.08 54.78 53.70 50.27 51.58 54.08 54.02 52.97 51.10 51.09 50.78 49.73
50.47 51.45 51.94 53.44 53.33 53.89 54.53 54.44 56.35 51.60 50.77 50.70 50.73 51.02 51.92 52.36 51.94 51.87 52.22 51.32 51.30 51.49 51.17 51.35 52.02 52.82 53.65 53.63 53.59 53.12 52.99 52.58 52.21 52.09 51.08 51.29 50.95 52.95 50.80 50.80 49.76 49.39 48.68

GFSSE_sfc_wetblb_084.txt.gz
Wetbulb
70.73 73.03 75.28 75.09 74.29 73.83 74.30 73.80 72.72 72.93 72.95 73.06 72.54 73.16 73.58 73.79 73.81 73.81 73.60 73.16 73.18 72.09 71.69 70.66 70.23 70.23 69.38 69.92 70.76 70.62 70.58 71.37 71.06 70.76 71.02 71.40 70.37 70.44 69.58 68.45 67.91 66.51 69.45
72.13 73.30 75.01 75.06 74.79 74.51 74.02 73.60 72.81 73.08 73.37 72.75 71.69 72.04 72.94 73.25 73.60 73.67 73.34 72.81 71.98 71.42 71.35 70.74 70.75 70.99 70.91 70.72 70.45 70.01 70.23 70.83 70.16 69.52 69.27 69.76 70.52 71.13 71.48 70.29 69.79 66.98 68.04
72.01 73.20 73.80 74.97 74.64 74.24 73.66 73.08 73.16 72.94 72.85 72.52 70.76 70.82 71.86 72.40 72.52 72.83 72.47 71.80 70.89 70.99 70.61 70.80 70.93 70.95 70.86 70.79 70.77 70.71 70.40 69.44 68.23 69.24 68.34 65.37 67.93 71.06 71.70 71.15 70.64 70.92 71.03
72.15 72.85 73.26 74.58 74.39 74.08 73.24 72.84 73.18 73.43 72.90 72.61 70.24 69.92 70.62 71.08 71.62 71.52 71.00 70.39 70.15 70.26 70.06 70.23 70.26 70.31 70.60 70.85 71.00 71.13 70.43 69.38 68.96 67.56 64.51 64.47 66.41 69.36 70.04 70.68 70.64 70.02 70.34
71.87 72.92 73.47 74.18 74.26 73.81 73.05 72.81 72.82 73.03 73.02 72.73 70.53 69.54 69.90 70.26 70.84 70.63 70.41 69.81 69.90 69.83 69.79 69.89 70.09 70.17 70.18 70.58 70.85 70.29 70.28 68.87 67.93 65.45 63.08 62.16 61.92 66.07 67.63 68.69 68.91 68.67 68.83
71.22 72.52 73.55 73.82 74.17 73.56 73.12 72.88 72.36 72.68 72.80 72.27 70.77 69.29 69.71 70.01 70.44 70.32 69.95 69.86 69.66 69.83 70.02 70.01 69.83 69.72 69.95 70.54 69.95 69.68 68.96 67.94 65.99 63.45 63.48 64.70 62.43 66.40 66.34 66.11 66.76 67.53 67.39
71.46 72.64 72.91 73.77 73.81 73.20 72.68 72.58 72.36 72.24 72.93 72.54 71.10 69.47 69.59 69.90 69.87 70.27 69.79 69.58 69.50 69.52 69.80 69.95 69.80 69.86 69.79 69.38 68.88 68.81 68.22 67.00 63.01 62.89 63.18 63.13 63.66 67.08 66.55 65.69 65.45 65.45 66.11
71.56 72.20 72.70 72.72 73.35 73.13 72.40 72.02 71.88 72.19 72.36 73.24 72.00 70.01 69.10 69.42 69.52 69.58 69.60 69.53 69.39 69.43 69.54 69.77 69.67 69.29 68.81 68.30 68.00 67.51 67.36 65.87 63.76 62.84 63.50 63.85 67.65 67.24 66.92 66.02 65.02 64.78 64.80
71.75 71.50 71.58 72.14 72.12 72.08 72.18 71.95 71.68 71.93 72.12 72.80 72.35 71.23 69.99 69.51 69.26 69.03 69.06 69.15 69.22 69.10 68.95 68.74 68.54 68.30 67.71 66.63 65.88 66.12 65.78 65.57 61.32 62.75 64.36 64.12 68.33 67.48 66.66 65.90 65.20 64.51 64.03
71.46 70.93 69.96 69.51 69.95 69.09 69.51 70.88 71.12 71.17 71.45 71.96 71.45 70.29 69.06 68.26 68.62 69.62 69.20 69.23 69.01 68.67 68.51 68.26 67.83 67.34 66.60 65.65 65.92 65.71 64.84 63.50 60.69 62.08 62.91 63.64 68.02 67.42 66.67 65.75 65.00 64.42 63.81
69.83 69.67 69.11 67.53 66.59 66.44 67.76 69.19 70.13 70.25 70.09 70.01 69.41 67.94 67.24 66.78 66.82 66.80 66.76 68.20 69.06 68.81 68.26 67.91 67.41 66.74 66.48 65.59 65.50 65.05 64.07 58.85 58.35 61.08 62.28 67.21 68.01 67.46 66.95 65.82 64.96 64.17 63.39
67.70 68.47 68.50 66.94 65.65 65.60 68.72 67.03 67.17 69.10 68.32 68.29 68.37 66.72 66.03 65.32 65.43 66.29 65.24 66.79 68.53 68.60 68.40 68.14 67.84 67.40 65.15 60.69 60.12 62.24 59.33 57.86 57.40 60.44 61.96 67.65 67.61 67.08 67.61 67.04 65.67 64.33 63.28
67.40 67.70 67.84 66.37 65.37 63.98 65.98 65.38 65.94 66.43 66.90 67.08 67.41 66.00 65.26 65.06 64.34 64.82 63.84 64.48 64.12 64.57 64.09 65.76 64.69 64.08 61.84 61.13 60.62 59.59 58.77 57.96 56.20 57.42 62.95 66.94 67.54 66.87 66.78 67.50 67.95 66.37 64.68
65.88 67.28 67.41 66.98 65.60 63.00 64.02 64.41 64.69 65.70 65.14 65.18 66.24 65.98 64.35 63.39 63.67 62.92 62.49 62.71 62.47 63.16 61.87 62.06 62.12 62.03 62.15 61.70 60.70 59.04 58.61 57.40 56.67 56.82 58.58 65.47 67.44 67.16 66.68 66.81 67.47 68.00 67.79
60.52 62.77 67.75 67.11 66.25 64.27 62.98 62.87 62.42 63.55 64.30 64.50 64.15 64.34 62.68 62.95 63.09 62.48 62.14 62.06 61.69 61.92 61.77 61.44 61.84 61.86 61.35 61.53 59.61 58.53 58.48 57.73 57.58 57.46 56.90 62.12 65.53 67.45 66.98 66.37 66.58 67.13 67.79
59.74 63.83 67.82 67.01 67.05 65.85 65.01 64.08 61.85 62.07 62.90 62.47 62.84 63.31 61.33 61.78 60.48 59.65 59.05 60.71 60.93 59.60 60.96 58.87 61.22 60.45 59.06 59.03 59.23 59.10 58.74 58.66 58.69 58.65 58.55 58.12 63.52 65.60 67.27 66.60 66.73 66.94 67.13
64.71 66.58 67.82 67.61 67.41 66.82 66.31 65.68 66.57 64.63 64.19 63.12 63.32 63.34 62.94 62.26 60.85 60.28 59.21 58.04 57.19 57.29 57.32 58.51 59.61 59.98 59.98 60.59 60.23 60.90 61.00 60.82 60.62 60.06 60.21 59.86 60.19 62.63 65.02 66.52 67.14 67.41 66.91
66.23 66.95 67.68 69.09 67.96 67.06 67.10 66.41 66.86 66.62 65.82 65.54 65.04 64.24 64.00 64.03 62.96 61.03 60.72 61.25 60.07 57.82 58.60 59.02 60.05 59.94 60.07 60.20 60.15 60.92 61.21 63.18 63.24 62.94 62.28 62.32 61.85 62.28 62.93 65.47 67.08 66.85 66.13
65.56 65.82 66.76 67.72 67.70 67.71 67.47 67.76 66.73 67.29 66.06 66.40 66.14 64.57 64.40 64.49 64.58 63.27 62.17 62.37 62.88 61.90 60.10 60.80 61.03 61.06 60.74 61.30 62.50 63.07 63.15 63.00 62.52 62.47 61.29 61.32 61.01 61.86 61.93 62.07 63.34 63.54 63.76
64.74 65.79 66.67 67.21 67.23 67.70 67.92 67.02 66.99 66.68 65.58 66.18 66.05 65.62 66.28 65.46 65.41 64.53 63.94 63.64 63.30 62.49 62.35 62.27 62.04 62.00 62.93 62.64 63.39 63.08 62.96 62.84 61.70 61.16 61.12 61.44 60.82 60.60 60.74 62.04 59.18 59.54 62.62
62.87 63.90 64.83 66.25 66.76 66.75 65.69 64.53 64.61 64.44 65.25 66.19 67.18 67.30 66.50 66.39 66.08 64.43 65.25 64.88 64.97 64.19 64.15 64.19 64.12 63.52 62.31 62.88 61.96 60.33 59.45 60.23 60.08 60.34 59.88 59.65 60.21 59.93 58.73 56.36 55.40 56.50 58.82
61.11 62.55 63.51 64.95 65.30 65.67 65.78 65.01 64.85 63.83 64.33 65.00 65.68 64.98 65.65 66.46 65.94 64.83 64.26 64.08 64.75 64.63 64.54 64.37 64.00 62.88 62.73 62.83 59.89 58.76 54.25 55.74 56.15 56.13 56.26 57.15 57.13 56.56 56.54 55.89 55.19 55.62 54.51
54.98 60.64 63.28 63.97 64.98 64.97 65.24 64.56 63.12 63.62 63.48 62.89 62.10 60.96 61.40 62.20 62.02 61.63 61.57 61.89 61.60 62.14 61.25 60.36 61.21 61.20 59.39 58.96 59.20 57.73 53.64 51.28 52.79 55.36 54.94 55.00 54.83 55.08 55.44 55.20 54.65 52.70 51.10
49.99 56.70 61.89 63.76 64.21 64.55 64.72 63.46 62.20 62.21 61.75 62.43 62.96 58.34 57.90 58.42 57.29 56.20 55.92 55.52 56.29 55.97 55.15 55.69 56.43 56.92 56.96 55.84 55.93 57.73 56.30 58.02 53.89 50.67 53.66 54.04 54.34 54.95 54.84 53.39 52.21 50.61 49.53
49.87 50.59 57.97 60.93 61.91 61.86 62.61 62.98 61.91 60.57 59.67 56.91 56.27 55.20 54.68 54.48 53.79 53.91 53.78 53.62 53.36 53.83 53.62 53.89 54.03 54.00 54.54 54.10 53.42 52.50 51.73 51.76 52.13 51.52 51.28 50.97 52.54 51.15 50.32 50.91 50.48 49.25 49.42
47.75 49.26 53.15 56.00 57.03 59.10 59.01 61.22 60.74 58.72 54.42 54.65 54.95 54.48 54.08 54.42 52.20 51.67 51.76 51.11 51.00 50.74 50.11 50.24 50.69 51.06 52.25 52.51 52.68 51.99 51.49 50.80 50.63 50.01 52.05 51.39 49.76 49.80 49.26 49.72 49.29 48.42 47.35

GFSSE_sfc_wetblb_087.txt.gz
Wetbulb
70.03 72.17 74.67 74.61 73.81 73.79 73.68 72.54 72.01 72.75 73.14 73.09 73.83 74.30 74.12 74.23 73.98 73.70 73.28 72.89 72.24 71.26 70.40 70.07 69.65 70.46 70.86 71.37 71.38 71.65 70.93 70.79 71.39 71.10 70.50 70.74 70.84 70.42 69.61 68.08 67.82 65.60 68.57
71.27 72.52 74.66 74.81 74.19 74.01 73.44 72.23 72.71 72.38 73.01 72.59 73.70 73.92 74.03 74.00 73.74 73.49 73.02 72.22 71.76 70.84 70.46 71.04 70.74 70.97 71.18 71.00 70.88 71.10 70.88 69.75 69.65 69.81 69.42 69.41 70.58 71.34 70.87 69.80 69.64 68.65 69.61
71.44 72.59 73.08 74.48 74.31 73.89 73.01 72.67 72.53 72.79 72.27 71.79 72.71 73.38 73.61 73.72 73.68 72.90 71.92 71.47 71.06 70.58 70.89 71.21 71.19 71.14 70.97 70.99 70.71 70.38 69.66 68.89 68.77 68.28 67.83 65.20 66.43 71.05 70.86 70.85 70.75 70.85 71.59
71.81 72.35 72.39 74.06 73.66 73.38 72.64 72.26 71.97 71.83 70.97 70.69 71.71 72.75 72.70 73.05 72.71 71.82 70.89 70.59 70.46 70.41 70.80 70.99 71.03 71.17 71.17 71.18 70.60 70.24 70.58 69.71 67.73 66.49 63.10 63.12 65.57 69.15 69.98 70.06 69.88 69.75 70.41
71.48 72.42 72.52 73.70 73.53 73.38 72.47 72.39 71.74 72.22 70.51 69.84 70.72 71.74 71.90 71.77 71.51 70.60 70.55 69.85 69.80 69.90 70.25 70.45 70.56 70.66 70.86 70.33 70.46 70.21 69.18 67.78 66.75 64.11 61.53 60.93 61.16 65.63 67.49 68.41 67.69 67.49 68.42
70.82 71.56 72.90 73.27 73.43 73.41 73.06 72.88 72.60 72.38 71.09 69.52 69.68 70.16 70.97 70.78 70.17 70.22 69.74 69.64 69.57 70.04 70.04 70.34 70.35 70.32 70.67 69.93 69.84 69.82 68.85 67.31 65.42 62.67 62.49 63.71 61.67 66.40 66.20 65.89 66.63 67.31 67.46
71.33 71.83 72.02 73.37 73.10 72.39 72.30 72.40 73.04 72.70 71.48 69.77 69.49 69.89 70.12 70.47 70.11 69.88 69.78 69.38 69.55 69.80 69.78 69.82 70.02 70.28 69.93 69.36 69.10 68.66 67.90 66.02 62.50 62.35 62.32 62.28 63.15 67.09 66.63 65.81 65.41 65.50 66.29
70.85 71.45 71.66 72.04 72.38 72.37 71.97 71.85 72.37 73.16 72.19 70.31 69.28 69.77 69.89 70.36 69.57 69.38 69.47 69.24 69.38 69.58 69.71 69.59 69.69 69.46 68.76 68.22 68.11 67.76 66.91 65.73 63.08 62.32 62.56 62.90 67.30 67.15 66.79 65.75 65.11 64.80 64.76
70.93 70.91 70.94 70.94 71.26 71.41 71.42 71.47 71.80 72.35 72.68 71.61 70.27 69.78 69.95 69.82 69.85 69.46 69.38 69.22 69.29 69.29 69.21 69.17 68.91 68.33 67.45 66.57 66.10 66.25 66.08 64.93 61.48 62.30 63.87 63.60 68.17 67.06 66.54 65.75 65.21 64.57 63.96
69.66 70.15 70.41 69.58 70.32 69.57 69.58 70.57 70.70 71.14 71.53 71.43 70.33 69.28 68.41 68.05 68.42 69.35 69.06 69.42 69.11 68.88 68.55 68.12 67.76 66.92 66.09 65.57 65.58 65.42 64.61 63.75 60.54 61.84 62.35 62.93 67.51 66.86 66.28 65.57 64.99 64.38 63.79
69.34 69.53 68.80 67.85 67.91 67.58 68.00 69.19 69.89 70.21 70.18 70.18 69.01 67.37 66.49 65.36 66.28 66.64 66.59 67.93 68.85 68.60 68.07 67.76 67.09 66.34 66.31 64.54 64.81 64.76 63.01 57.77 57.47 59.94 61.70 64.92 67.73 66.83 66.43 65.65 64.86 64.08 63.29
66.97 68.68 68.36 66.69 65.84 66.23 68.84 67.35 67.25 68.43 68.24 69.51 67.09 65.80 65.34 64.69 64.49 65.60 65.18 66.92 68.49 68.44 68.29 67.61 67.20 67.07 64.79 60.00 59.45 61.29 58.18 57.23 56.69 59.03 61.44 65.54 67.96 67.11 67.33 66.73 65.64 64.45 63.49
67.04 68.12 67.24 65.55 64.78 64.98 66.62 65.66 66.36 66.72 66.71 67.32 66.15 65.41 64.62 64.59 63.51 63.69 62.97 63.86 63.53 64.47 63.42 64.81 63.56 62.97 60.83 60.20 59.98 59.16 58.70 57.50 55.93 56.50 61.57 65.55 67.73 67.49 66.85 67.26 67.99 66.66 65.35
62.79 62.03 64.28 65.09 64.37 63.02 65.69 65.20 65.64 65.86 65.46 66.04 66.46 65.48 63.70 62.95 62.56 62.74 62.10 62.06 61.74 62.11 61.03 60.99 61.20 61.00 61.02 61.05 59.90 59.80 58.43 57.66 56.18 56.05 56.94 63.40 67.34 67.56 67.25 67.06 67.18 67.87 68.18
61.95 62.43 63.10 62.61 65.31 63.10 64.43 64.35 64.74 64.95 65.07 65.33 66.01 65.63 64.25 62.90 62.49 62.39 61.69 61.29 61.01 60.92 61.03 60.41 60.89 61.20 60.80 60.76 61.18 59.03 58.02 57.56 57.00 57.06 56.49 59.92 65.17 67.20 67.27 67.17 67.04 67.31 67.82
59.34 60.32 63.00 62.13 65.83 63.92 63.31 63.15 64.10 63.52 64.56 64.37 64.48 65.54 63.94 63.07 62.77 62.39 61.57 61.21 60.73 60.75 61.06 60.62 59.46 60.84 60.37 58.26 58.22 57.76 57.46 57.61 57.82 58.00 58.09 58.00 61.65 65.31 67.01 66.87 67.21 67.45 67.50
61.34 61.66 62.08 62.07 66.15 65.30 63.45 63.02 62.97 64.21 64.17 63.36 63.81 63.78 63.00 61.96 62.04 61.80 59.56 58.32 60.15 59.47 57.88 57.10 57.93 59.00 58.96 59.65 59.46 60.15 60.34 60.26 60.33 60.04 60.32 61.03 60.81 62.08 64.40 66.64 67.19 67.72 67.06
61.03 59.94 60.86 63.81 67.79 67.34 66.48 64.86 64.18 62.98 63.01 63.46 62.76 63.16 63.04 62.02 61.16 59.98 59.30 58.57 58.38 56.79 56.83 57.03 58.31 58.69 58.96 59.47 59.62 60.53 60.70 61.96 62.48 62.96 62.35 62.11 62.10 62.00 62.42 64.71 67.10 66.72 65.17
60.35 61.67 61.75 64.46 67.06 67.22 67.46 67.09 66.66 65.93 64.51 63.82 64.30 64.23 63.31 63.41 62.66 61.30 60.73 60.80 61.59 58.88 58.18 59.20 59.68 60.08 60.08 60.49 60.97 62.68 62.58 62.83 63.09 62.68 61.18 61.55 61.29 60.84 61.09 62.09 63.40 63.52 64.11
64.67 65.16 65.77 67.08 67.39 67.09 67.38 67.46 67.02 66.34 65.54 65.82 65.24 65.25 64.54 64.23 64.24 63.24 62.38 62.25 62.60 62.19 61.82 61.21 60.82 61.63 61.75 62.29 62.97 63.01 62.89 62.77 62.48 61.45 60.65 60.89 60.54 60.60 59.87 60.67 59.66 60.53 63.18
63.54 64.65 65.73 65.51 66.25 66.16 65.81 65.40 65.29 65.18 65.40 64.40 64.75 65.74 65.36 65.36 64.54 64.24 63.66 63.32 63.12 62.59 62.44 63.38 63.25 62.92 62.81 62.45 60.28 58.41 58.18 59.30 59.09 58.87 57.03 56.69 57.83 59.89 59.16 57.85 57.13 59.42 60.55
60.92 63.17 63.94 64.88 65.19 65.90 66.20 65.75 65.79 65.72 65.45 65.18 65.61 65.57 66.02 65.61 65.32 64.70 64.00 63.39 63.37 63.50 64.46 63.99 63.01 62.57 61.67 61.00 57.92 57.04 53.30 55.21 55.05 55.55 55.14 54.85 55.22 55.62 55.10 55.79 55.71 55.12 54.02
55.57 60.76 62.68 64.20 64.94 65.89 66.11 64.45 63.24 63.44 63.40 62.84 63.20 63.16 63.25 63.94 64.27 63.88 63.61 63.05 62.45 62.24 62.30 60.80 59.41 59.20 57.74 57.53 57.74 57.15 53.62 50.61 51.88 55.09 54.54 53.41 53.84 53.12 54.41 54.67 53.58 52.06 51.34
49.80 55.91 61.95 63.71 64.46 64.94 64.64 63.65 62.77 62.05 61.13 62.02 61.43 59.84 60.17 59.78 60.14 60.41 59.57 59.32 57.79 56.97 56.12 55.64 55.91 56.44 56.86 55.64 54.96 55.91 54.85 56.53 52.90 49.16 52.60 52.91 53.27 53.46 52.58 52.50 50.51 49.88 50.41
49.99 48.81 56.79 61.30 62.67 62.92 64.26 64.09 63.28 61.02 60.77 60.08 58.51 56.81 56.28 57.69 57.54 57.88 57.14 55.80 55.55 54.84 53.72 53.30 52.58 52.31 53.07 53.22 53.26 51.76 50.70 50.71 50.88 52.19 50.81 49.42 50.86 48.69 48.77 49.08 49.17 48.25 49.88
49.12 48.52 51.33 56.81 59.37 60.59 61.72 62.22 62.05 60.81 58.00 56.83 55.61 55.51 54.97 54.84 55.19 55.31 54.77 53.59 51.86 51.45 50.91 50.67 50.50 50.10 50.69 51.11 51.26 51.28 50.82 49.43 48.69 47.98 48.96 48.75 48.16 48.60 49.13 49.35 48.66 47.15 47.52

GFSSE_sfc_wetblb_090.txt.gz
Wetbulb
69.40 71.66 74.45 74.20 73.33 73.31 72.48 72.20 72.65 72.76 73.22 73.99 73.97 74.18 73.71 74.10 73.97 73.52 73.00 72.25 71.36 70.43 70.21 71.21 71.48 71.19 71.59 71.70 71.36 70.74 71.09 70.80 70.78 70.81 70.66 71.32 70.98 69.90 69.02 68.46 67.90 65.58 68.33
70.72 72.11 74.33 74.37 73.76 73.70 72.37 72.12 72.73 73.03 72.90 74.09 74.43 74.03 74.21 74.20 73.85 73.24 72.73 71.87 70.73 70.64 70.35 70.74 71.22 71.61 71.25 71.59 71.46 70.52 69.69 70.42 70.24 69.58 68.97 68.22 70.73 70.61 71.16 70.96 71.65 70.12 70.02
70.98 72.17 72.76 74.30 74.09 73.29 72.06 72.23 72.09 72.11 72.34 73.42 74.11 74.36 74.35 73.93 73.55 73.01 72.28 71.37 70.80 71.13 71.33 71.33 71.43 70.99 70.94 70.82 70.45 70.00 69.44 68.66 68.86 68.35 67.51 64.81 66.54 71.08 70.12 70.26 70.54 71.11 70.16
71.30 71.85 72.23 74.03 73.54 72.86 72.27 72.14 72.07 71.63 71.68 72.88 73.48 73.62 73.69 73.66 72.78 72.00 71.16 70.81 70.75 71.32 71.23 71.25 70.98 71.23 71.24 70.73 70.49 70.68 69.73 67.71 66.99 65.64 61.94 62.29 64.61 69.28 69.36 68.58 68.46 68.65 69.37
70.90 71.55 72.31 73.66 73.36 72.95 72.56 72.09 71.68 70.87 70.93 72.01 72.70 73.12 73.30 73.46 71.95 71.08 70.88 70.29 70.67 70.84 70.64 70.86 71.16 71.11 70.41 70.61 70.13 69.30 67.70 66.99 65.98 63.11 60.70 60.48 61.19 65.63 67.57 67.87 67.59 67.93 68.11
70.48 70.86 72.69 73.03 73.21 73.02 72.47 71.95 71.04 70.08 70.01 70.83 71.33 72.24 72.12 71.60 70.67 70.22 70.12 69.76 70.07 70.41 70.42 70.92 70.87 70.76 70.13 70.77 70.00 69.25 67.74 66.90 64.83 61.77 61.56 63.51 61.95 66.57 66.46 66.07 66.37 67.20 67.11
70.83 71.09 71.48 73.23 72.92 72.90 72.59 72.56 72.44 70.47 69.39 69.65 70.18 70.75 70.77 70.43 70.34 70.13 69.51 69.48 69.82 70.20 70.50 70.54 70.63 70.35 69.67 69.51 69.32 68.67 67.14 65.59 61.96 61.50 61.58 61.80 63.35 67.22 66.80 65.91 65.57 65.68 66.80
70.57 70.63 70.88 71.67 72.45 72.68 72.12 72.59 72.84 71.06 69.49 69.37 69.77 70.41 69.82 70.10 69.87 69.09 69.14 69.43 69.72 69.91 70.06 70.27 70.33 69.66 68.91 68.70 68.36 67.76 66.75 65.25 62.60 61.72 61.99 62.51 67.33 67.27 66.87 66.06 65.40 65.12 65.03
70.12 69.85 70.01 70.04 70.65 71.05 71.48 71.66 72.00 72.21 70.69 70.05 70.26 70.40 70.40 69.11 68.84 69.01 68.90 69.28 69.42 69.64 69.53 69.51 69.24 68.55 67.53 66.95 66.67 66.41 66.03 64.92 60.85 61.79 63.34 63.04 67.81 66.95 66.70 66.02 65.57 65.07 64.72
68.91 69.56 69.60 68.81 68.65 68.45 68.43 70.39 70.59 71.00 70.60 69.84 69.60 68.99 68.24 68.06 67.65 68.33 68.89 69.32 69.22 68.88 68.66 68.29 67.82 67.05 66.31 65.70 65.59 65.34 64.54 63.73 60.05 61.38 61.77 62.33 67.21 66.52 66.24 65.68 65.29 64.84 64.35
67.41 68.89 69.17 68.44 67.53 67.54 67.61 68.28 69.64 70.26 70.09 69.17 68.11 67.00 66.13 64.90 65.61 65.91 66.46 67.95 68.89 68.51 67.99 67.54 66.93 66.08 65.18 63.67 64.32 64.46 61.57 57.26 56.79 58.84 61.23 64.23 67.60 66.74 66.26 65.61 64.93 64.42 63.79
66.87 67.60 68.16 67.39 66.56 66.56 68.96 67.23 66.61 68.24 69.50 68.93 66.08 64.63 64.01 63.82 64.21 65.23 64.88 66.76 68.28 68.12 67.95 67.07 66.65 66.55 63.61 59.46 58.97 60.68 57.32 56.61 56.06 57.42 60.93 64.98 67.42 67.65 67.13 66.77 65.77 64.80 63.92
67.37 65.64 64.24 64.80 65.34 66.03 66.69 66.20 65.76 66.19 67.03 68.21 65.41 64.41 63.83 63.71 63.00 62.64 62.34 63.44 62.92 64.08 62.79 63.85 62.42 61.89 59.84 59.42 59.44 58.81 58.44 57.32 56.20 55.76 58.97 64.92 67.02 68.18 67.27 67.02 67.88 67.12 66.26
63.26 62.60 63.18 62.58 64.46 63.49 65.57 65.31 65.49 65.65 65.58 67.53 65.25 64.48 63.09 62.29 61.81 61.98 61.46 61.39 60.97 61.36 60.10 60.04 60.40 60.00 59.93 60.09 59.04 59.36 58.47 57.57 56.64 55.76 56.37 61.04 65.19 67.87 67.84 67.34 67.26 67.71 68.50
62.70 62.48 63.13 63.46 62.66 64.52 63.12 64.26 65.52 65.07 65.18 66.00 66.21 65.37 63.82 62.73 61.99 62.30 61.82 61.07 60.65 60.32 60.26 59.51 59.82 60.23 60.03 60.12 60.16 60.01 58.61 57.32 56.97 56.78 56.51 59.54 61.68 66.32 67.50 67.57 67.46 67.62 68.00
62.09 61.02 62.58 63.48 63.07 63.59 62.55 63.61 64.47 65.03 65.04 65.04 66.11 65.54 64.40 63.41 62.95 62.50 61.87 61.18 60.57 60.16 60.32 60.17 59.38 59.37 60.20 58.75 58.18 58.03 57.20 57.01 57.49 57.83 58.08 58.14 61.59 63.41 65.84 67.18 67.38 67.84 67.90
60.47 60.09 61.14 62.97 63.98 63.60 63.82 62.81 63.51 64.90 64.73 64.12 64.52 65.36 64.88 63.73 63.15 63.08 62.40 61.35 61.10 60.85 60.30 58.72 57.92 58.41 58.66 59.26 59.03 59.76 59.90 59.88 60.05 59.94 61.17 60.45 61.58 61.70 63.44 65.95 67.15 67.78 67.21
59.82 59.81 60.83 63.39 63.63 65.21 64.67 64.76 64.67 63.37 63.89 64.10 63.88 63.65 64.39 63.29 62.65 61.92 61.22 59.56 58.52 58.50 57.51 55.70 56.68 57.79 58.27 58.67 59.07 60.08 60.39 60.88 62.37 62.70 62.79 62.43 62.03 62.23 62.94 64.24 65.84 67.08 65.77
60.79 60.25 60.67 62.05 63.57 65.61 66.61 66.34 65.28 65.69 64.23 63.53 63.44 62.83 63.22 62.73 61.68 61.46 60.16 59.45 59.10 57.10 56.81 57.26 57.69 59.09 59.34 60.07 60.48 61.20 62.01 61.48 62.95 62.87 61.79 61.40 61.11 60.91 60.56 61.91 62.86 64.03 64.93
60.62 60.59 60.45 61.60 63.46 65.43 66.31 65.89 66.54 66.50 65.80 65.23 64.10 63.76 63.99 63.16 62.31 61.19 60.25 60.31 61.27 60.19 59.21 58.77 58.94 60.45 61.15 61.59 62.11 61.93 61.20 60.62 60.21 59.49 58.97 59.55 59.44 60.05 59.95 59.36 59.53 61.08 63.28
59.98 60.33 60.49 60.61 63.81 64.15 64.60 64.40 65.31 64.74 65.75 65.31 65.33 65.27 64.38 63.79 63.64 62.24 62.07 61.61 62.06 62.01 61.57 61.34 61.68 60.75 62.29 61.11 59.79 57.45 56.79 57.66 56.96 56.13 55.49 55.26 56.70 57.88 57.76 57.18 57.71 58.44 58.98
61.53 61.27 61.38 61.72 64.32 65.74 65.04 64.00 64.62 64.98 65.51 65.45 65.80 64.99 65.52 64.97 64.45 64.03 63.55 62.62 62.40 61.77 62.15 63.72 63.42 60.48 59.24 59.29 56.39 54.63 51.97 54.02 54.11 54.43 54.14 53.89 53.67 54.59 54.27 54.83 54.73 54.56 54.48
60.72 63.05 63.51 63.46 64.66 64.95 65.19 65.20 63.02 62.92 62.93 63.24 64.31 64.68 65.28 65.32 65.29 64.04 63.56 62.96 62.53 62.39 61.99 60.67 59.79 59.22 57.14 56.33 56.58 56.33 53.63 49.69 51.18 53.89 52.70 52.37 52.27 52.31 52.67 52.68 51.93 52.24 52.24
51.95 59.13 62.21 63.03 63.81 64.53 64.85 63.97 62.51 62.03 61.86 63.34 63.78 62.62 61.39 61.49 61.03 62.10 62.82 62.32 60.43 59.35 59.35 58.61 57.43 56.42 56.12 54.65 54.20 54.57 53.76 56.30 51.90 48.74 51.67 51.79 50.87 51.15 50.88 49.93 49.29 50.92 50.89
49.39 48.96 54.97 60.18 61.35 62.28 63.03 63.63 63.26 62.72 61.41 60.79 60.39 59.72 58.49 59.01 59.54 59.38 59.08 58.61 57.55 57.19 56.34 56.32 54.16 53.00 52.98 52.33 52.16 51.21 50.07 49.54 49.75 51.99 48.81 48.15 49.14 47.78 48.10 47.95 48.66 49.13 50.10
48.89 48.48 47.81 52.75 58.48 60.77 61.18 61.89 61.75 61.11 59.86 59.54 58.21 57.99 57.58 57.11 56.05 56.41 55.99 55.29 54.32 52.60 51.69 50.97 50.89 50.88 51.26 50.72 50.17 50.03 50.01 48.94 47.38 46.75 48.71 49.46 47.11 47.18 47.07 48.82 48.56 47.91 48.41

GFSSE_sfc_wetblb_093.txt.gz
Wetbulb
70.54 73.26 74.49 74.29 72.82 72.59 72.39 72.54 73.30 73.56 73.91 74.07 74.08 73.88 74.28 74.18 73.93 73.49 72.74 71.78 71.33 72.32 72.91 72.20 71.68 72.25 72.02 71.32 71.26 70.86 70.89 71.12 71.28 70.81 71.20 71.43 70.41 71.15 71.11 69.86 69.70 68.57 69.19
71.90 73.27 73.94 73.89 73.38 72.75 72.52 72.69 72.93 73.16 73.65 74.44 74.18 74.12 74.26 74.24 73.85 73.11 72.27 71.22 70.64 71.14 71.55 71.57 72.00 71.84 71.62 70.98 70.29 70.05 70.64 70.55 69.88 69.31 69.12 69.90 70.66 71.10 70.63 71.17 71.20 70.32 69.92
72.00 72.96 72.92 73.84 74.24 73.35 73.01 72.81 72.46 72.79 73.71 74.25 74.37 74.79 74.30 74.13 73.68 72.88 71.70 71.18 70.78 71.20 71.51 71.82 71.40 70.94 71.01 70.72 70.24 69.77 68.85 69.58 68.82 68.10 68.10 69.95 70.18 70.37 69.58 70.67 70.84 70.90 71.04
72.36 72.62 72.46 73.57 73.96 72.98 72.38 72.33 72.12 72.29 73.09 73.89 74.20 74.42 74.59 73.81 73.25 72.26 71.13 71.16 71.82 71.65 71.86 70.95 70.90 71.12 70.93 70.92 70.64 69.65 67.65 67.47 66.66 65.77 66.02 66.76 67.78 68.81 68.68 68.37 68.87 68.83 69.44
72.06 72.72 72.60 73.43 73.43 73.14 72.21 72.22 71.81 71.76 72.54 73.18 73.51 73.66 73.52 73.79 72.25 71.09 70.78 71.75 70.78 70.74 71.20 71.30 71.37 70.76 70.73 70.27 69.40 67.75 67.15 66.63 65.60 65.70 65.82 66.42 66.43 66.90 67.74 67.91 68.11 68.16 68.76
71.78 72.49 72.83 73.08 73.30 73.27 72.98 72.27 71.17 71.24 71.88 72.58 72.61 72.84 73.29 72.46 71.33 70.47 70.50 71.11 71.17 71.28 71.04 71.23 70.79 70.65 71.74 70.42 69.37 68.16 67.43 66.43 65.47 66.39 66.66 66.78 66.91 67.10 66.78 66.33 67.15 67.53 67.61
71.20 72.14 72.54 72.82 73.15 72.59 72.44 71.84 70.70 70.45 71.04 71.40 72.17 72.25 71.84 70.71 70.29 69.94 69.63 70.27 70.38 70.66 70.93 71.02 70.51 70.13 70.04 70.05 69.15 67.97 66.91 65.35 66.04 66.33 66.76 67.30 67.41 67.27 67.05 66.27 65.96 66.15 67.00
70.70 71.60 71.66 71.52 72.49 72.24 72.10 72.24 71.03 69.65 69.95 70.65 71.41 71.14 70.25 70.37 69.91 68.79 69.21 69.46 69.75 70.35 70.76 70.55 70.20 69.54 69.28 68.93 68.63 67.78 66.32 65.32 65.38 66.22 66.80 67.39 68.26 67.46 67.00 66.30 65.77 65.58 65.25
70.88 71.06 71.09 71.42 71.45 71.41 71.68 71.55 71.18 70.28 70.16 70.29 70.37 69.78 69.96 70.06 68.35 68.60 68.76 69.09 69.62 70.12 70.46 70.31 69.60 68.53 67.76 67.40 67.26 66.82 66.28 64.48 66.35 66.50 66.06 67.60 67.96 67.11 66.70 66.18 65.76 65.36 65.10
70.31 70.31 69.98 70.57 70.65 70.46 70.84 70.69 70.71 69.89 69.76 69.68 68.57 69.16 67.86 67.33 67.07 67.77 68.68 69.15 69.27 69.62 69.46 69.10 68.29 67.40 66.55 66.01 65.51 65.22 65.28 63.63 66.51 66.45 66.89 67.40 67.22 66.71 66.32 65.86 65.47 64.94 64.55
68.12 69.57 69.35 69.01 69.20 69.51 69.66 69.79 70.15 69.48 68.80 68.44 68.01 66.79 66.96 67.35 67.40 67.58 67.22 68.03 69.10 68.82 68.28 67.84 67.24 66.07 64.69 64.16 64.65 64.35 62.24 64.08 64.01 64.89 66.84 64.58 67.15 66.94 66.38 65.66 65.05 64.54 63.90
66.21 67.67 68.48 68.85 68.61 68.79 68.66 69.74 70.42 70.21 69.06 68.18 67.91 67.84 67.74 68.02 68.16 67.54 66.42 66.96 68.35 68.02 67.78 67.25 66.69 65.75 64.13 64.76 64.71 62.48 63.96 63.52 63.38 63.56 65.93 64.69 66.67 68.04 67.14 67.11 66.20 65.46 64.59
66.54 65.27 66.99 67.09 68.28 68.68 68.48 68.56 69.13 70.46 70.04 68.30 67.13 66.89 67.05 67.00 67.26 67.07 67.58 67.51 67.72 65.63 66.99 66.97 66.62 66.19 64.23 64.83 65.13 65.27 64.42 63.98 64.11 63.25 62.94 63.61 66.64 68.03 67.95 67.17 68.12 68.14 67.17
63.28 63.68 65.08 66.36 65.83 66.75 68.01 67.98 67.97 68.63 69.60 67.83 67.10 66.63 66.23 65.68 65.84 65.34 65.61 66.01 65.85 66.25 65.12 65.33 65.57 65.24 64.83 64.83 65.10 65.04 64.83 64.22 64.34 63.89 63.30 60.66 62.73 66.86 68.35 68.08 67.85 68.02 68.35
62.68 63.36 63.95 64.32 64.94 65.32 66.30 67.30 67.60 67.75 68.84 68.81 67.35 67.36 66.70 65.73 64.97 65.39 65.08 65.13 65.18 65.22 65.04 64.38 64.53 65.21 65.30 65.13 64.91 64.43 64.76 64.00 63.64 63.93 63.98 60.40 61.58 63.83 67.19 67.99 68.15 68.19 68.20
63.34 63.07 64.09 64.23 64.49 65.10 64.93 66.18 66.98 67.39 67.86 68.80 68.27 67.81 66.74 66.10 65.40 65.04 65.55 64.92 64.71 64.72 64.58 64.63 64.48 64.94 65.03 65.01 63.52 63.62 63.90 63.95 64.19 64.48 65.27 65.34 61.87 63.25 64.65 66.85 67.78 68.11 68.12
62.77 62.61 63.01 63.68 64.58 65.00 65.56 64.48 65.76 67.13 67.34 66.97 68.20 68.46 67.19 66.25 65.77 65.81 65.70 65.43 64.97 64.99 64.39 64.30 63.81 62.72 63.45 63.42 63.52 64.48 64.87 65.29 65.35 65.68 65.83 65.59 64.53 62.27 63.45 65.74 67.54 68.18 67.90
62.95 61.52 61.80 62.65 64.36 65.24 65.79 64.92 65.24 65.45 66.77 66.53 66.36 66.90 68.05 66.77 66.16 65.88 65.69 65.81 65.74 64.49 64.16 63.02 61.14 61.50 62.32 63.08 63.95 64.84 65.18 65.45 65.98 65.77 66.04 64.95 66.15 65.81 64.53 64.33 65.54 66.66 67.34
61.63 60.63 61.25 62.91 64.03 65.38 66.06 66.10 66.10 65.86 65.50 65.87 66.29 65.40 66.20 67.21 66.55 65.83 65.30 65.29 64.17 62.02 62.09 61.47 60.89 62.18 63.01 64.15 64.40 65.66 66.15 66.05 66.09 65.32 65.18 65.12 65.46 65.45 65.75 63.72 62.56 63.83 65.80
61.05 61.04 61.32 62.12 63.16 64.98 67.02 66.58 67.06 66.77 66.57 66.13 65.36 64.94 65.24 65.99 65.93 65.12 64.69 64.41 63.17 61.44 60.72 60.85 61.41 62.40 63.31 64.31 63.72 64.42 65.57 65.33 64.18 63.40 63.04 62.67 62.71 62.72 63.67 64.28 64.84 64.42 63.35
60.83 60.56 60.52 61.53 62.74 64.69 64.84 64.14 64.41 63.95 65.73 66.30 67.02 66.02 65.23 65.26 65.37 64.90 64.11 63.24 63.13 62.98 62.62 62.33 63.46 63.46 64.10 65.24 64.06 62.93 62.66 62.86 61.64 61.32 60.98 60.47 61.21 61.72 62.78 63.35 63.68 63.89 62.61
60.00 60.82 60.50 60.95 62.01 64.58 64.43 64.58 63.86 65.00 65.84 67.06 67.28 66.45 66.23 65.06 65.28 64.80 64.21 63.66 63.67 63.78 64.34 64.54 64.11 64.26 63.98 63.80 61.75 60.09 58.13 59.35 60.21 59.23 59.34 58.58 58.64 59.90 59.73 60.12 60.28 59.45 58.91
59.86 60.34 60.72 61.02 61.71 64.19 64.93 64.63 64.38 64.88 63.86 64.19 65.61 65.36 65.61 65.25 64.84 65.17 64.39 64.33 64.46 64.23 63.54 63.25 62.80 62.95 62.62 61.62 61.08 61.37 56.77 54.98 57.09 58.89 57.62 57.32 57.27 57.70 57.94 57.26 56.66 56.25 55.31
61.66 62.25 61.62 61.82 62.02 63.38 65.17 64.08 63.11 61.28 61.49 62.68 63.20 63.30 62.57 63.45 63.56 64.04 63.90 63.61 62.26 61.22 60.94 59.30 59.11 59.72 60.97 60.45 60.11 58.60 59.63 59.29 54.86 52.69 56.59 56.69 55.25 55.35 55.73 55.58 55.26 54.44 53.54
54.87 59.21 62.26 63.19 63.09 63.69 63.93 63.98 62.93 62.48 62.72 62.03 61.93 60.62 59.90 60.57 60.92 61.98 62.55 61.37 59.77 58.38 57.28 57.37 56.02 55.78 56.84 57.15 56.99 56.82 56.28 56.31 56.76 55.09 51.19 53.93 54.59 53.10 53.48 53.57 53.84 53.38 51.50
52.65 52.60 52.54 59.15 61.47 62.73 63.51 63.48 63.13 62.74 62.18 61.55 61.71 60.37 58.70 57.54 58.08 57.64 58.40 59.25 58.15 56.18 55.17 54.02 53.66 54.20 54.41 54.54 54.79 55.00 54.77 53.83 52.88 52.79 51.21 51.50 52.31 53.35 52.92 52.87 52.62 52.30 51.22

GFSSE_sfc_wetblb_096.txt.gz
Wetbulb
71.97 74.27 74.75 74.42 73.39 72.94 72.56 73.53 74.08 74.38 74.03 75.42 75.17 74.54 74.05 73.89 73.65 73.29 72.51 72.29 73.97 74.06 72.03 72.39 72.94 71.82 71.90 71.17 71.24 71.57 71.53 71.28 71.56 71.29 71.22 71.41 71.94 71.91 71.06 70.64 71.51 69.14 70.65
73.07 73.56 74.26 74.00 73.21 72.75 72.79 73.73 73.74 74.09 74.08 74.73 74.72 74.43 74.12 73.89 73.59 72.87 71.92 71.79 72.95 72.75 71.95 72.72 72.12 70.99 70.65 70.43 70.63 70.65 70.77 70.49 70.24 69.87 70.48 70.30 70.57 70.95 71.64 70.47 71.42 70.62 70.79
72.42 73.14 73.47 73.51 73.71 73.59 73.46 73.31 73.34 73.42 74.28 74.22 74.59 74.99 74.37 73.67 73.29 72.27 71.41 71.24 71.83 71.77 72.16 72.55 72.14 70.72 70.70 70.28 69.56 69.43 70.06 69.20 68.53 68.21 69.14 69.15 69.00 69.63 69.39 70.51 71.43 71.24 71.14
72.43 72.90 72.99 73.83 73.76 73.54 72.99 72.95 73.11 73.32 74.55 73.93 74.37 74.41 73.95 73.58 72.85 71.92 71.29 71.35 72.38 72.79 71.93 71.02 70.69 71.08 70.99 70.39 68.85 67.80 67.88 67.15 66.00 66.44 66.11 66.40 66.26 68.36 68.70 69.00 69.02 69.72 70.80
72.44 73.23 72.82 73.68 73.55 73.37 72.65 72.56 72.66 73.22 74.15 74.04 73.77 73.32 73.39 73.28 72.44 71.50 72.13 72.41 71.43 72.21 71.65 71.61 71.11 70.77 70.47 69.12 67.73 67.16 66.82 66.38 65.55 67.44 66.90 67.23 66.66 67.17 67.69 67.76 67.99 68.87 70.08
72.49 72.86 72.75 73.34 73.40 73.00 73.10 72.70 72.41 73.03 73.75 73.46 73.31 73.21 73.25 72.88 71.43 71.18 71.98 71.42 71.33 72.01 71.87 71.02 70.98 70.92 70.16 69.08 68.16 67.56 67.05 65.94 67.02 67.43 67.44 67.28 67.35 66.99 66.72 66.67 67.41 67.68 68.37
71.85 72.36 72.97 73.09 73.45 73.36 72.91 72.35 72.24 72.59 72.70 72.84 72.76 72.59 72.60 71.93 71.01 70.78 71.03 71.09 71.43 71.50 71.29 70.63 70.75 70.86 70.21 69.33 68.38 67.39 66.44 65.06 67.05 67.14 67.63 67.79 67.72 67.21 66.85 66.43 66.11 66.15 66.57
71.39 71.95 72.55 71.73 72.63 72.81 71.99 71.63 71.86 72.04 72.25 72.22 72.55 72.35 71.57 71.12 70.33 70.12 70.42 70.60 71.04 71.41 71.07 70.37 70.15 69.78 69.61 69.40 68.35 67.30 65.99 66.21 66.84 67.37 67.55 67.73 67.64 67.24 66.83 66.22 65.85 65.71 65.43
71.76 71.45 71.65 71.96 71.54 71.25 71.17 70.62 70.88 71.30 71.42 71.74 71.58 71.20 71.01 70.30 68.74 70.07 70.20 70.49 70.71 70.96 70.97 70.35 69.48 68.92 68.53 68.25 67.91 67.01 65.84 64.57 68.10 67.80 66.98 68.13 67.68 66.93 66.58 66.16 65.76 65.51 65.29
70.84 71.00 70.82 70.90 70.05 69.80 71.44 69.99 69.61 69.99 70.16 70.41 70.11 69.23 68.00 67.39 67.93 69.38 69.21 70.06 70.69 70.62 70.36 69.82 68.68 67.54 66.80 66.36 65.95 65.59 65.50 65.28 68.35 68.51 68.42 67.79 67.24 66.58 66.11 65.72 65.36 65.11 64.87
69.52 70.28 71.09 70.17 69.87 69.52 70.57 70.15 69.12 69.00 68.67 68.19 67.97 66.63 66.92 68.15 68.18 68.12 67.60 68.16 69.69 69.81 69.24 68.53 67.69 66.36 65.33 65.12 64.35 63.79 63.18 67.42 66.77 67.20 68.51 65.26 66.67 67.14 66.48 65.74 65.28 64.82 64.22
67.11 68.29 69.45 69.79 69.19 70.29 69.83 70.71 69.57 68.07 68.56 68.57 69.19 67.55 68.16 68.11 68.14 68.06 67.09 67.56 68.99 68.75 68.46 67.58 66.63 65.44 63.88 65.40 65.52 62.86 66.43 66.49 66.33 66.22 67.37 64.98 66.35 68.16 67.72 67.78 66.98 66.22 65.29
65.95 66.48 67.73 68.08 68.50 68.85 69.60 70.72 70.48 69.21 67.62 67.20 68.52 68.83 68.44 68.04 67.95 67.96 68.27 67.90 67.80 65.64 66.81 66.81 66.49 65.72 65.18 66.40 66.96 66.78 66.56 66.31 67.25 66.81 65.03 62.85 66.12 67.78 68.74 67.98 68.21 68.59 67.71
60.68 65.96 67.67 67.76 67.22 67.44 69.78 70.16 70.44 69.94 69.07 68.13 66.76 66.63 66.86 66.39 66.31 66.45 66.50 66.81 66.69 66.34 65.90 65.73 65.38 65.16 65.01 66.04 66.53 66.50 66.59 66.57 66.79 67.42 66.90 62.00 62.99 65.58 68.01 68.75 68.52 68.36 68.45
60.51 64.77 67.23 68.19 67.98 68.12 67.32 68.25 69.87 70.26 69.34 68.87 68.91 67.27 66.33 65.44 65.18 65.63 65.69 65.98 65.99 66.52 66.10 65.63 66.34 66.33 66.08 66.37 66.72 66.71 66.59 66.86 66.89 67.59 67.78 61.83 62.31 64.04 65.79 67.82 68.51 68.61 68.66
61.33 63.61 65.27 67.79 67.92 68.06 67.50 67.46 67.30 69.56 70.29 69.53 68.69 68.58 68.29 67.58 66.55 66.44 66.68 66.71 66.67 66.79 66.51 66.49 66.68 66.83 66.89 67.04 66.83 66.78 66.97 67.16 67.36 67.62 68.14 67.86 63.11 63.76 65.10 66.72 67.97 68.57 68.41
61.92 63.67 63.87 65.50 67.23 67.38 67.26 67.23 67.54 67.13 68.33 69.49 69.44 69.94 69.08 68.19 67.72 66.55 67.15 67.10 67.17 66.90 66.64 66.75 66.48 66.47 65.95 66.50 66.33 66.75 67.18 67.64 67.71 67.28 67.38 67.48 67.10 62.83 63.67 65.90 67.25 68.43 68.41
63.55 63.00 63.66 64.78 65.42 67.87 67.76 67.21 67.49 67.92 67.14 67.57 69.49 70.15 69.96 68.72 68.10 67.44 67.43 68.00 67.87 67.19 66.85 66.05 65.31 64.23 65.07 65.98 66.22 66.95 67.36 67.49 67.24 67.09 66.98 66.56 66.85 66.80 65.43 65.03 65.61 66.45 67.19
63.34 62.97 62.18 62.98 63.47 65.85 67.90 67.26 67.25 67.96 68.63 68.43 68.01 68.11 68.94 69.38 68.37 67.34 67.42 68.24 67.92 67.00 66.28 65.74 64.54 64.05 64.74 65.99 66.73 67.41 67.33 66.91 66.64 66.62 66.40 66.28 66.42 66.29 66.45 65.20 63.22 63.05 65.05
62.93 62.83 62.64 62.81 63.55 65.28 67.31 67.85 67.35 67.00 67.38 68.41 68.50 67.95 67.56 68.52 68.97 67.77 67.44 67.75 67.77 66.53 64.74 64.73 63.86 64.83 66.06 66.60 65.31 64.94 66.04 66.17 65.58 65.02 64.94 64.58 64.59 65.04 65.48 65.61 66.14 65.80 63.88
62.21 61.69 62.03 62.45 63.89 65.75 66.92 65.84 66.31 66.18 67.03 67.18 66.95 67.23 67.86 67.41 67.89 67.42 67.00 67.27 67.09 65.68 65.09 65.14 64.80 65.01 65.08 66.48 64.72 63.86 64.22 64.81 64.58 64.39 64.48 63.74 63.56 64.07 64.56 65.02 65.87 66.25 64.21
60.49 60.50 61.27 61.91 62.67 64.76 65.41 65.64 65.97 66.25 67.23 67.81 68.23 68.23 68.07 67.29 66.99 66.43 66.25 66.26 65.91 65.71 65.67 65.52 65.81 65.24 65.46 66.40 63.36 63.05 59.01 60.46 62.57 62.82 63.46 62.39 62.17 62.98 62.88 63.22 64.00 63.97 63.71
59.40 60.57 61.60 61.68 62.68 62.92 65.17 65.61 66.05 66.51 66.84 66.03 66.54 67.68 68.18 67.42 66.94 66.33 65.77 65.20 65.75 66.41 65.53 65.03 64.14 63.76 63.58 64.88 63.97 61.69 57.42 55.46 58.56 60.97 61.10 61.58 61.31 61.80 61.93 61.84 61.25 60.58 59.65
60.17 61.48 62.01 61.87 62.12 63.15 65.45 64.86 63.91 63.75 62.78 64.16 64.99 64.74 63.50 65.51 65.41 64.66 65.08 64.08 63.59 63.51 63.19 62.50 62.27 62.53 63.90 61.99 63.82 62.91 63.09 60.88 54.80 53.31 58.73 60.23 60.04 59.33 59.96 60.20 60.26 59.20 58.32
61.00 61.38 62.00 62.63 62.60 63.21 64.07 63.92 64.18 62.00 62.09 63.38 63.28 61.85 61.22 61.26 62.57 63.44 63.82 62.58 61.10 60.25 59.86 59.21 58.83 58.63 59.00 58.07 57.76 58.10 57.54 58.17 58.11 55.45 52.11 54.55 57.92 58.34 58.53 58.24 58.22 57.78 56.17
56.42 58.43 62.80 63.02 63.00 63.40 63.34 63.52 62.64 61.97 62.60 62.31 62.47 61.87 61.15 60.51 60.09 60.58 61.12 61.31 60.52 59.49 58.58 58.47 58.67 56.27 55.05 56.42 56.62 56.46 55.83 54.70 54.30 53.85 52.93 53.18 53.00 54.90 56.11 56.62 55.98 56.21 55.85

GFSSE_sfc_wetblb_099.txt.gz
Wetbulb
72.16 73.46 74.82 74.42 73.62 73.21 72.71 72.84 73.03 73.33 75.31 75.70 74.93 74.64 73.95 73.67 73.52 73.12 73.05 72.96 73.30 72.95 73.16 72.83 72.79 72.24 71.00 71.91 72.17 71.56 71.37 71.44 71.05 70.93 71.36 71.40 72.16 71.40 71.26 71.32 71.84 70.63 71.35
73.16 73.58 74.30 74.42 73.48 73.05 72.56 73.76 74.37 73.79 75.27 75.14 74.81 74.36 74.03 73.78 73.55 72.60 72.83 73.70 73.38 72.07 73.42 72.11 71.15 71.06 70.96 71.09 71.12 70.76 70.99 70.67 70.42 70.23 70.60 69.75 70.45 71.09 70.45 71.01 72.11 70.57 71.70
72.55 73.28 73.42 74.01 73.80 73.54 73.42 73.88 74.01 74.09 74.92 74.87 74.81 74.83 74.06 73.83 73.25 72.36 72.67 73.37 72.60 72.47 72.92 71.42 70.79 70.45 69.99 69.68 70.12 70.31 69.84 69.31 68.40 68.53 69.74 67.23 68.53 69.83 69.73 70.86 71.81 71.66 71.80
72.49 73.25 72.34 73.47 73.59 73.65 73.38 73.51 73.61 74.13 74.11 74.36 74.61 74.70 74.30 73.40 72.67 71.79 72.12 72.61 72.91 73.10 72.58 71.23 70.89 70.70 70.18 68.55 68.20 68.21 67.46 66.30 65.24 66.52 66.07 65.25 65.37 68.69 69.36 69.48 70.25 71.20 71.32
72.05 72.78 72.43 73.62 73.64 73.67 73.27 73.24 73.34 73.79 74.25 73.89 74.10 74.06 73.59 73.17 72.16 71.44 72.25 72.76 72.68 71.65 70.96 71.20 70.93 70.67 69.18 67.83 67.27 66.89 66.35 65.57 66.37 67.92 66.92 67.08 66.07 67.06 68.24 68.64 69.06 69.94 70.30
71.64 72.76 72.62 73.44 73.72 73.49 73.30 72.93 73.16 73.86 73.67 73.81 73.60 73.61 73.09 73.16 72.36 72.31 71.88 71.91 71.22 72.03 71.56 70.92 70.72 69.91 68.62 68.09 67.71 67.19 66.37 65.81 67.57 67.02 66.76 67.20 66.38 67.17 67.03 67.13 67.66 68.22 68.77
71.16 71.54 72.71 73.19 73.41 73.22 72.84 72.71 73.38 73.91 73.82 73.57 73.08 72.85 73.18 72.84 71.85 72.07 71.36 71.26 71.61 71.85 70.85 71.04 70.94 70.31 69.32 68.58 67.75 66.91 65.67 65.99 66.66 66.93 67.20 67.00 66.80 67.40 67.16 66.73 66.33 66.02 65.97
71.08 71.85 72.18 71.85 72.57 72.86 72.55 72.54 72.79 73.55 73.28 72.94 72.78 72.87 72.86 72.08 71.36 70.28 70.37 71.20 71.60 71.38 70.63 70.78 70.73 70.36 69.54 68.65 67.89 66.84 65.31 66.28 66.69 66.78 67.25 66.79 67.84 67.48 67.06 66.49 66.24 66.06 65.80
71.04 71.48 71.42 71.87 71.50 71.44 71.46 71.80 72.10 72.61 72.34 72.21 72.27 72.21 71.29 70.52 70.69 70.98 70.99 71.23 71.96 71.50 70.61 70.21 69.79 69.42 69.13 68.85 67.93 66.67 65.34 65.97 67.03 66.75 66.98 66.91 68.02 67.01 66.68 66.24 65.98 65.81 65.59
64.54 71.04 70.85 71.34 70.94 70.80 70.09 70.26 70.48 70.92 71.00 71.05 70.86 69.60 68.53 67.86 69.09 70.14 69.80 70.57 71.15 71.53 70.89 69.72 68.92 68.27 67.69 67.23 66.54 65.99 66.02 65.97 67.22 67.16 67.01 66.66 67.14 66.60 66.05 65.68 65.57 65.42 65.04
62.71 63.29 70.09 70.37 69.97 68.83 67.74 68.68 69.32 69.36 69.22 69.00 68.16 66.70 66.50 67.54 68.37 68.18 67.93 68.74 70.23 70.72 70.20 69.13 67.98 66.92 66.44 65.85 65.38 65.00 64.52 66.24 65.34 65.97 67.05 67.17 67.36 67.11 66.55 65.84 65.40 65.08 64.56
59.93 61.08 61.52 69.36 68.01 67.93 67.18 67.67 67.16 68.29 68.57 68.93 68.59 67.31 67.07 67.14 68.07 68.29 66.94 67.90 69.35 69.26 69.04 68.25 67.00 65.70 64.34 64.62 63.88 63.13 64.46 65.23 65.01 64.97 66.55 66.58 66.24 67.78 67.93 67.77 67.38 66.36 65.56
60.81 61.69 60.70 67.70 67.96 68.01 68.51 67.88 66.56 66.35 66.69 67.40 67.53 67.71 67.43 66.82 67.37 68.16 67.68 67.65 67.88 66.05 66.84 66.59 65.70 64.50 64.47 64.97 65.59 65.25 65.28 65.08 65.68 65.69 64.72 66.16 66.21 67.20 68.24 68.60 68.29 68.49 68.10
61.03 60.94 62.45 67.52 68.26 68.17 69.45 68.77 66.71 65.75 66.48 67.17 67.79 67.20 67.01 67.11 66.71 66.76 66.40 66.48 66.38 65.56 65.55 65.55 65.31 65.07 64.72 65.12 65.60 65.18 65.26 65.99 66.04 66.33 64.88 63.77 64.27 65.21 66.90 68.41 69.01 68.93 68.61
60.42 61.14 61.06 65.85 66.60 68.68 69.08 69.62 68.30 66.62 66.01 65.88 67.19 67.22 66.86 66.14 65.47 66.06 65.74 65.87 65.99 65.59 65.24 64.54 64.51 64.24 63.82 65.07 65.88 65.68 65.70 66.13 66.30 66.52 66.97 62.91 63.89 64.72 65.74 66.89 68.08 68.87 68.82
61.23 60.92 61.60 66.32 65.94 66.66 67.24 68.08 69.26 67.98 67.22 67.13 66.06 65.65 65.43 65.37 65.26 65.21 65.02 65.17 65.40 65.90 65.80 65.41 65.09 65.52 65.65 65.91 65.66 66.17 66.19 66.55 66.61 66.83 67.24 66.04 64.44 64.92 65.66 66.88 67.79 68.59 68.64
60.84 61.24 61.40 63.58 67.19 66.41 66.27 67.22 68.63 69.10 68.51 67.21 68.01 67.25 66.73 66.61 66.00 66.01 66.07 66.46 66.36 66.17 65.38 65.53 65.51 66.03 65.57 65.99 65.98 66.40 66.56 66.86 67.14 66.73 66.89 67.34 65.86 63.45 65.34 66.76 67.11 67.96 68.40
61.04 61.08 63.32 64.85 64.98 66.94 66.74 66.49 66.29 67.60 69.31 69.15 68.44 68.56 67.98 67.39 67.31 66.58 67.49 67.04 66.88 66.55 65.88 65.04 65.01 64.30 64.06 64.86 65.41 66.03 66.39 66.90 66.54 65.98 66.37 66.12 66.87 66.13 65.46 66.22 66.62 65.80 66.41
62.05 61.96 63.10 64.51 64.36 64.73 66.97 66.91 66.89 66.50 66.93 68.23 69.24 69.40 68.91 68.20 67.85 67.90 67.81 67.92 67.41 66.68 65.92 65.58 64.66 63.56 63.07 64.65 65.30 65.94 65.35 66.41 65.90 65.50 65.40 65.63 65.71 65.67 65.45 64.93 64.42 63.92 64.37
62.63 62.94 63.46 63.36 63.19 63.20 66.28 67.16 66.87 67.31 67.48 67.40 67.29 67.78 68.89 68.80 68.41 68.06 67.76 67.52 67.54 66.67 65.29 65.23 64.28 63.82 64.42 64.37 64.26 64.26 65.26 65.67 65.94 65.05 64.12 63.64 63.88 64.57 65.13 65.34 65.72 63.11 64.53
63.60 62.44 61.85 60.73 62.21 63.50 65.35 65.50 65.26 64.73 66.24 67.15 67.68 67.47 67.07 68.02 68.47 67.99 67.89 67.41 67.35 66.50 65.61 64.91 64.48 63.90 64.73 65.84 63.73 63.48 64.14 64.49 64.23 63.69 63.90 62.95 62.85 63.57 63.75 63.92 64.72 65.18 62.68
61.66 61.27 61.23 60.94 62.21 63.21 64.50 65.44 65.41 66.35 67.25 66.84 67.66 67.74 68.10 67.65 68.05 67.86 67.39 67.04 66.79 66.20 65.72 65.14 64.89 64.84 65.85 65.14 62.53 62.69 58.61 60.14 62.06 61.81 62.48 61.68 61.45 62.78 62.16 62.46 63.38 63.39 63.08
59.90 61.11 60.69 61.32 62.35 63.51 63.97 64.48 65.54 66.25 66.15 65.61 66.65 67.06 67.65 67.94 67.99 67.68 67.04 66.75 66.45 66.15 64.32 65.80 65.91 64.76 63.41 64.75 64.17 61.12 57.37 55.31 58.10 60.65 60.90 60.35 60.24 60.88 61.24 61.30 61.31 61.29 60.33
59.15 60.95 61.36 61.52 61.82 62.33 63.41 62.77 63.14 63.11 62.18 64.30 65.88 66.19 65.89 66.29 66.15 66.61 66.62 65.87 65.66 65.10 63.28 63.20 63.07 63.58 63.37 61.73 63.06 62.90 62.27 59.64 54.56 53.19 58.62 59.25 59.40 58.82 59.32 60.03 59.76 59.28 58.82
58.35 58.95 60.29 61.48 61.91 61.91 62.25 63.09 63.20 62.32 62.40 63.51 64.54 64.22 64.05 64.43 65.10 65.32 65.43 65.04 63.81 61.88 60.69 60.08 59.39 59.19 58.72 56.86 56.82 56.65 57.48 57.52 57.56 54.81 52.17 55.51 57.58 57.97 58.28 58.13 58.25 58.28 56.64
59.62 60.15 60.69 60.87 61.34 62.44 63.02 62.62 62.48 60.71 60.94 60.73 62.13 62.54 62.42 61.88 62.99 63.25 63.87 63.14 62.04 60.84 59.83 59.57 59.57 59.27 58.30 57.64 57.07 56.09 54.75 53.78 53.60 53.19 52.24 52.96 53.38 55.40 56.70 56.83 56.57 56.68 55.96

GFSSE_sfc_wetblb_102.txt.gz
Wetbulb
70.54 72.36 75.10 74.36 73.75 73.36 73.02 72.96 73.30 74.80 75.87 75.87 74.90 74.74 74.23 74.15 74.01 73.68 72.78 72.75 73.04 73.40 73.44 73.51 72.19 71.82 72.66 72.45 71.80 71.40 71.42 71.34 71.56 71.01 71.43 72.02 71.72 71.18 71.72 71.68 72.17 70.66 71.74
71.79 72.44 74.53 74.72 73.73 73.32 72.87 73.44 73.61 74.16 75.44 75.22 75.15 74.35 73.84 73.94 73.53 73.11 73.31 73.24 72.67 73.32 72.80 72.51 71.06 71.23 71.75 71.47 71.07 70.72 71.08 70.95 70.65 70.66 69.76 69.20 70.18 71.49 71.58 71.85 72.20 70.97 72.08
71.61 72.49 73.44 74.47 74.07 73.82 73.57 74.51 74.11 73.94 75.29 75.12 74.76 74.67 74.09 73.85 73.52 73.43 73.59 73.44 73.07 72.81 71.46 70.95 70.56 70.53 70.60 70.31 70.28 70.35 69.98 69.18 68.64 69.79 69.89 66.43 67.35 70.60 70.58 71.48 71.83 71.76 71.99
71.98 72.06 72.26 74.06 73.96 73.51 74.00 73.95 74.51 73.74 75.17 74.91 74.44 74.83 74.68 73.79 73.02 73.67 73.61 73.76 73.65 73.35 71.48 70.73 70.34 69.90 68.96 69.37 69.01 68.22 66.92 65.50 67.21 68.07 63.53 63.70 66.01 69.27 69.67 70.56 71.17 71.25 71.21
71.54 71.86 72.13 73.75 73.74 73.69 73.71 73.63 73.93 74.38 74.49 74.38 74.25 74.22 74.32 73.88 72.56 73.03 73.29 73.31 73.42 72.64 71.84 71.04 70.65 69.48 68.04 67.62 67.06 66.04 65.91 66.85 67.81 66.17 63.94 62.43 62.59 67.25 69.04 69.57 69.62 70.19 69.95
71.22 71.26 72.23 73.38 73.68 73.60 73.69 73.71 73.84 74.20 73.89 73.99 73.57 73.79 73.43 73.57 72.71 73.21 72.85 72.57 71.58 71.71 71.68 70.80 69.83 68.49 68.13 67.88 67.29 66.63 66.55 67.06 67.34 63.15 63.29 66.17 64.05 67.60 67.33 67.19 67.58 68.30 68.59
70.70 71.20 71.76 73.42 73.68 73.58 73.29 73.40 73.80 73.92 74.17 73.37 73.46 73.18 73.07 73.33 72.95 72.56 71.89 70.78 71.86 71.91 71.22 70.64 69.85 69.12 68.59 67.98 67.23 66.37 66.25 67.11 64.19 63.41 63.69 63.85 64.30 67.64 67.50 67.13 66.70 66.37 66.16
70.31 70.98 71.31 71.94 72.94 72.94 73.08 72.97 72.94 73.68 73.65 73.34 73.47 73.07 72.89 72.86 72.43 70.59 69.85 69.56 71.97 71.31 71.05 70.93 70.35 69.66 69.00 68.37 67.43 66.23 66.62 66.26 64.72 63.62 63.84 64.08 68.04 67.79 67.55 66.99 66.77 66.56 66.48
67.62 70.57 70.65 70.51 71.43 71.51 71.79 72.08 72.10 73.43 72.97 72.76 72.37 72.23 71.86 70.86 69.67 69.83 69.57 71.25 71.60 71.14 71.01 70.87 70.36 69.94 69.40 68.41 67.46 66.41 66.47 65.98 63.09 63.50 65.31 64.19 68.29 67.51 67.31 66.95 66.71 66.60 66.35
65.27 64.62 63.45 64.87 69.68 69.25 69.52 70.66 70.33 71.72 71.61 71.59 71.05 70.37 69.09 68.32 68.74 69.75 69.10 70.50 70.95 71.10 70.87 70.57 69.47 69.00 68.53 68.12 67.26 67.24 65.90 65.49 61.95 63.76 64.37 65.21 67.85 67.05 66.53 66.23 66.09 65.86 65.64
62.96 62.21 62.14 62.21 61.79 67.91 67.65 68.89 69.71 69.81 69.82 69.45 68.67 67.20 66.71 66.79 67.79 67.83 67.81 68.71 69.89 70.73 70.50 69.56 68.43 67.74 67.17 66.14 65.93 65.40 64.74 62.05 61.12 62.60 63.46 68.27 68.13 67.35 66.69 66.05 65.68 65.47 65.04
60.44 60.51 61.48 61.91 61.52 61.33 67.57 67.34 68.03 69.18 68.87 68.16 66.93 65.82 65.84 66.25 66.88 67.37 66.84 67.99 69.61 69.66 69.29 69.05 67.92 66.95 64.87 60.86 60.47 63.02 59.64 60.80 60.30 61.10 63.44 67.43 67.30 68.11 67.88 67.71 67.30 66.47 65.79
60.31 60.47 60.79 61.19 61.77 61.45 61.23 65.79 66.93 67.65 67.36 67.54 66.17 65.79 64.93 65.65 65.19 66.22 66.67 67.28 66.96 65.58 65.74 65.92 64.67 62.54 59.91 59.83 60.46 59.04 59.91 60.28 60.34 61.23 64.49 66.80 67.12 67.23 67.99 68.70 68.47 68.50 68.48
59.76 60.17 61.01 61.39 61.26 61.29 61.91 64.30 63.81 65.49 66.75 66.37 65.74 64.80 64.03 64.38 64.97 65.08 64.76 64.52 64.18 64.02 63.03 62.85 62.37 61.44 60.86 60.93 60.46 60.72 60.77 60.93 61.70 61.96 62.21 65.05 66.79 66.83 67.39 68.11 68.82 69.05 68.76
59.15 60.04 61.54 63.21 63.52 64.69 66.30 64.63 63.57 63.24 64.06 65.10 64.60 64.49 63.92 63.93 62.71 64.36 64.15 64.01 63.13 62.13 61.50 61.04 60.53 60.01 59.96 60.06 61.16 61.47 61.22 61.44 61.73 62.05 60.00 62.61 64.82 66.52 66.49 67.03 67.62 68.13 68.67
60.70 60.41 61.26 64.96 65.68 65.78 66.65 66.16 62.98 63.10 62.37 63.61 64.33 64.69 63.60 63.16 61.68 61.58 61.56 61.57 61.25 61.15 60.80 60.51 60.06 60.48 60.52 61.55 61.69 61.99 61.73 61.71 62.00 62.41 62.23 61.24 64.50 65.63 67.15 67.42 68.01 68.33 68.40
61.28 60.92 61.39 64.59 65.50 65.07 65.48 65.22 66.40 64.97 63.87 62.10 62.00 62.02 61.96 62.20 61.28 61.00 60.80 61.04 61.81 62.32 61.98 61.85 61.07 61.63 62.11 62.39 61.46 62.44 62.44 62.50 64.09 63.87 64.30 63.97 63.29 63.70 66.00 67.45 68.01 67.62 67.30
60.47 60.39 61.85 63.36 62.61 63.26 64.51 65.31 66.32 65.96 65.18 64.91 63.78 63.02 63.10 62.89 62.59 62.69 63.56 63.35 63.36 62.51 61.99 61.42 61.24 61.07 60.90 60.96 60.93 61.86 62.11 63.00 63.05 62.53 62.00 62.90 63.06 63.76 63.71 66.08 67.10 66.61 66.04
60.35 60.66 61.62 61.82 60.47 61.84 63.62 65.10 65.00 65.68 65.97 65.33 65.45 65.27 64.67 64.78 64.34 64.11 64.63 64.48 63.91 63.17 62.28 62.36 60.90 60.23 59.40 59.80 61.55 62.17 63.66 63.58 63.27 62.06 60.58 60.86 60.82 60.83 60.93 63.59 64.08 63.55 64.31
60.93 61.10 61.92 61.50 60.62 62.10 63.58 64.45 64.32 63.96 64.56 65.26 66.46 66.77 66.48 65.61 65.58 65.33 65.38 65.06 64.55 63.80 62.78 62.37 61.15 60.74 60.01 60.34 62.84 62.31 62.58 61.95 60.97 59.95 59.24 60.12 59.96 60.78 60.99 61.21 61.08 61.75 63.33
60.85 61.05 61.43 62.07 62.02 62.43 62.69 62.69 63.13 62.82 63.36 63.19 64.27 65.77 67.36 67.10 67.02 65.70 65.10 64.87 64.99 63.96 63.16 62.14 61.25 60.25 59.26 62.70 61.47 60.85 59.72 60.16 59.20 58.72 58.76 57.43 58.86 59.85 59.54 59.89 61.25 60.79 60.37
60.05 60.68 61.06 60.78 61.75 62.40 62.65 63.16 63.03 64.13 64.63 65.41 65.78 65.36 65.33 65.58 66.66 66.65 65.79 65.01 65.29 64.11 63.47 62.73 61.17 60.63 61.69 62.75 59.34 58.00 54.44 55.77 57.25 58.03 57.77 57.52 56.45 58.28 58.60 59.33 59.58 60.69 59.78
59.70 59.90 59.83 60.38 61.25 61.95 62.57 62.49 63.09 63.29 63.37 63.97 64.27 64.37 64.84 65.39 65.73 65.54 65.29 65.00 64.23 64.14 63.11 62.83 62.86 62.20 60.56 61.29 60.94 58.07 53.29 50.96 53.23 57.25 56.60 55.79 55.48 55.56 56.78 57.92 58.12 58.05 56.50
59.56 60.30 60.49 60.37 61.03 61.85 62.22 61.41 60.96 59.94 59.57 61.56 63.37 64.28 63.89 64.76 64.80 64.72 64.17 64.19 63.54 63.20 62.47 61.94 62.48 60.53 60.74 59.60 60.53 59.92 57.94 56.52 51.20 48.67 54.78 55.78 55.74 55.51 54.79 55.11 56.07 56.24 54.65
58.49 59.12 59.84 60.63 61.11 61.33 61.31 61.28 60.56 59.38 60.52 61.25 61.69 61.52 62.22 62.95 63.61 63.96 63.82 63.35 62.88 62.42 61.37 60.72 59.97 59.24 58.85 56.87 56.24 55.34 54.08 54.27 55.11 52.48 49.61 51.48 54.93 55.00 55.31 53.87 53.75 53.44 52.85
58.59 58.79 59.34 59.47 59.79 60.99 61.47 61.18 60.59 59.96 59.73 59.51 60.15 60.63 60.93 60.91 61.40 61.70 62.45 62.22 61.83 61.12 60.44 59.78 58.77 58.04 58.37 57.44 55.98 54.58 53.65 52.51 51.92 51.60 50.40 50.93 50.69 52.33 53.94 53.06 52.61 51.96 52.29

GFSSE_sfc_wetblb_105.txt.gz
Wetbulb
69.74 72.35 75.08 74.38 73.74 73.45 73.15 73.47 75.11 75.82 75.55 75.35 74.86 74.53 74.47 74.33 73.55 72.58 72.18 72.74 73.07 73.29 73.23 72.08 73.07 72.95 72.40 71.62 71.41 71.65 71.84 71.33 71.68 71.25 71.06 71.60 71.85 72.10 71.97 71.87 71.80 70.60 71.70
71.00 72.94 74.72 74.65 73.90 73.42 73.28 73.76 74.44 75.49 75.11 75.28 75.39 74.45 74.33 74.26 73.63 73.05 72.73 73.39 73.44 73.48 72.66 71.83 72.58 72.03 71.83 70.52 71.41 71.42 71.02 70.49 70.29 70.56 69.37 69.02 70.49 71.75 72.03 71.69 72.18 70.94 72.12
71.17 72.83 73.33 74.45 74.38 73.91 73.50 73.55 73.85 75.06 75.32 74.84 74.90 74.33 74.15 73.77 73.35 73.60 72.89 73.52 73.24 72.51 71.66 71.28 71.25 71.22 70.65 70.16 70.91 70.93 70.43 69.58 68.91 69.45 68.67 66.05 67.63 71.13 71.89 71.61 71.86 71.99 71.95
71.63 72.43 72.78 74.26 74.31 73.54 73.58 73.69 73.47 74.20 75.42 75.04 74.67 74.89 74.57 73.67 73.79 73.87 73.53 73.31 72.62 71.45 70.80 70.41 70.26 70.24 70.35 70.03 69.45 68.77 67.14 67.78 69.23 67.13 62.88 64.63 66.87 69.98 71.02 71.32 71.03 70.61 70.98
71.41 72.00 72.64 74.08 74.14 73.57 73.87 74.07 73.81 73.83 75.25 74.84 74.42 74.73 74.25 73.99 74.20 73.54 74.06 73.49 72.76 71.91 71.26 70.16 69.29 68.64 68.50 67.67 66.62 67.12 67.98 68.65 67.85 65.16 62.07 61.91 62.87 68.38 69.85 69.76 69.59 69.63 69.36
70.70 70.85 72.89 73.75 74.01 73.80 74.10 73.81 74.06 73.73 74.58 74.78 74.20 74.10 73.78 74.01 73.75 73.41 73.69 72.70 72.36 71.91 71.42 70.30 68.44 68.04 67.72 67.30 67.37 67.58 67.64 68.02 66.05 62.72 63.08 65.08 63.45 67.40 67.47 67.26 67.35 67.45 67.04
69.32 70.69 72.04 73.63 73.89 73.87 73.79 73.75 74.14 74.28 73.77 74.25 74.06 73.81 73.37 73.43 73.25 73.41 72.87 71.86 72.08 71.74 70.52 69.19 68.59 68.42 68.11 67.56 67.24 67.07 67.17 67.32 62.85 62.49 62.73 62.87 64.01 67.85 67.68 67.28 66.93 66.59 66.59
69.92 70.39 71.36 72.32 73.15 73.33 73.60 73.40 73.77 73.62 73.93 73.52 73.50 73.75 73.38 73.20 73.03 72.81 71.93 71.56 71.86 71.12 70.45 69.81 69.33 68.90 68.35 67.59 66.94 66.49 66.78 66.18 63.68 62.89 63.04 63.69 68.17 67.94 67.83 67.32 67.06 66.95 66.82
67.73 67.75 65.26 68.27 71.40 71.73 72.39 72.40 72.82 72.94 73.35 72.89 72.62 72.74 72.19 71.78 71.79 71.41 70.36 71.64 71.83 71.38 71.42 70.43 69.72 69.24 68.72 67.88 66.66 66.63 66.37 65.85 61.51 63.18 64.50 63.78 68.45 67.80 67.50 67.15 67.02 66.78 66.60
63.76 63.21 63.60 62.92 62.15 64.12 69.39 70.61 71.00 71.35 71.85 71.70 71.15 70.59 69.90 68.94 68.88 69.22 68.77 70.23 71.29 71.46 71.22 70.81 70.02 69.64 69.12 68.21 66.97 67.06 65.85 64.91 60.98 63.35 63.60 64.49 67.95 67.25 66.79 66.35 66.23 66.06 65.82
62.17 62.42 62.81 62.38 62.37 62.10 63.37 68.69 69.59 69.74 70.24 69.56 69.42 67.92 67.17 67.44 67.42 67.22 67.25 68.59 69.92 70.60 70.56 69.87 69.15 68.66 67.91 66.64 66.20 65.62 64.69 60.92 60.06 62.64 63.44 68.12 68.24 67.41 66.75 66.12 65.76 65.51 65.00
59.49 60.61 61.85 62.26 61.92 62.08 62.81 62.67 67.13 69.07 68.86 69.34 68.54 67.52 67.05 67.02 67.03 66.71 66.62 67.64 69.31 69.57 69.38 69.26 68.40 67.56 65.16 60.79 60.71 63.24 59.56 58.88 58.15 61.84 63.58 68.49 68.56 68.54 68.20 67.75 67.05 66.43 65.95
58.97 59.76 60.74 61.39 62.06 61.77 61.52 61.36 62.97 67.48 67.83 67.49 66.72 65.99 66.25 66.13 66.23 66.87 67.16 67.53 67.80 66.40 66.32 66.67 65.30 62.60 60.04 59.14 58.96 57.54 57.78 58.17 58.36 61.67 64.11 67.27 68.05 67.80 68.46 68.84 68.63 68.63 68.54
58.96 58.82 60.13 61.15 61.87 61.31 61.77 60.65 61.20 66.23 67.15 66.61 65.84 65.65 65.36 64.17 65.47 65.73 66.20 66.54 66.18 64.81 63.64 63.20 61.93 60.47 59.30 58.79 58.84 58.93 59.05 59.50 59.75 60.07 62.51 65.70 67.83 67.87 68.06 68.28 68.58 68.97 68.79
58.13 58.98 59.46 60.44 60.63 61.22 61.25 61.54 63.70 66.02 67.14 66.61 65.97 65.40 65.37 64.53 64.91 64.09 63.43 64.71 63.40 63.30 62.38 61.59 60.80 59.92 59.12 58.77 59.80 60.16 59.90 59.93 59.94 60.33 59.75 63.22 65.83 67.65 67.55 67.47 67.66 68.09 68.31
58.87 58.98 60.38 61.15 60.89 61.99 61.79 62.63 63.65 65.29 66.40 66.32 65.70 65.26 63.37 64.94 64.34 63.66 63.62 63.55 62.98 62.01 62.22 60.98 59.27 58.17 58.25 58.30 59.41 61.20 61.40 60.24 60.46 60.26 59.41 60.73 64.38 65.94 67.81 67.85 68.01 68.42 67.91
59.73 59.71 59.87 61.45 63.27 63.74 63.99 65.19 64.59 63.74 65.10 65.01 65.11 64.96 64.19 63.96 63.19 62.68 62.91 62.54 62.11 60.67 59.65 59.06 58.67 59.28 59.68 60.08 60.01 60.75 61.25 61.22 61.54 63.12 62.91 62.09 63.15 63.45 65.96 67.88 67.83 67.67 67.31
60.05 59.99 60.87 63.44 64.24 63.63 64.44 64.85 64.46 63.06 63.24 64.37 63.50 63.54 63.70 63.14 61.42 61.13 61.04 60.40 60.70 60.63 60.34 59.75 59.68 59.30 59.56 59.76 60.17 61.11 61.43 62.08 62.01 62.29 60.73 62.16 63.02 62.64 63.52 65.59 66.96 66.80 65.94
59.77 60.59 61.00 62.65 62.20 62.89 62.91 64.25 64.21 63.99 62.95 62.82 62.33 62.04 61.87 61.82 61.27 62.35 61.86 62.36 61.91 61.14 60.74 60.56 59.75 59.58 58.80 58.57 60.03 60.99 61.62 62.83 63.37 61.57 59.87 59.99 59.83 59.86 59.97 63.23 63.60 62.99 64.13
59.82 60.82 61.25 61.44 60.86 62.35 62.32 62.64 64.48 63.97 64.08 64.61 63.15 63.19 63.11 63.23 62.80 63.95 63.80 63.49 62.75 61.95 61.06 60.99 59.61 59.41 58.44 58.37 60.95 61.30 61.74 62.24 61.01 58.68 57.71 59.14 59.42 59.82 59.33 59.59 60.50 61.19 63.27
59.77 59.74 59.99 61.11 59.70 60.67 60.08 61.25 62.06 62.28 63.02 63.27 64.54 64.77 64.80 64.57 64.57 64.31 64.44 63.98 63.53 62.63 61.79 61.44 60.50 59.38 58.23 60.73 60.04 60.64 60.28 60.55 58.49 57.62 56.92 56.88 58.52 58.53 58.53 59.97 59.91 59.35 59.80
59.41 59.80 59.91 60.42 60.69 61.14 61.46 62.42 62.33 62.44 62.83 63.82 63.84 64.47 65.94 65.34 65.51 65.00 64.56 63.77 63.76 62.98 62.23 61.61 60.24 59.70 59.65 60.91 58.40 56.56 54.43 55.30 56.66 57.10 56.30 56.23 56.58 57.31 57.92 58.63 59.61 58.67 57.00
58.57 59.73 60.60 60.91 61.56 61.57 61.43 62.35 62.26 62.30 63.01 62.84 63.61 62.81 63.75 64.99 65.66 65.81 65.11 64.55 63.92 63.59 62.69 62.24 61.15 60.37 59.77 59.66 59.84 57.96 53.52 51.43 54.03 56.28 55.85 54.93 54.76 55.83 56.70 57.33 56.98 56.35 55.44
58.49 59.75 60.33 60.86 60.95 61.31 61.79 61.13 60.41 59.44 59.18 60.53 61.50 62.54 63.05 64.07 64.65 64.80 64.67 64.14 63.40 62.51 61.86 61.84 62.36 61.17 60.56 58.62 59.22 58.87 57.48 55.56 50.94 51.09 55.12 55.10 55.04 55.16 54.82 54.96 55.46 54.37 53.30
58.91 59.56 60.06 60.55 60.82 60.91 61.08 61.10 60.10 58.82 59.94 60.53 61.19 60.78 61.13 61.82 62.49 62.70 62.80 62.54 62.68 61.89 61.07 60.72 59.87 59.39 59.58 59.21 57.61 56.33 54.73 54.07 55.05 51.66 49.31 52.36 54.70 54.72 53.40 53.20 53.65 52.44 53.23
59.00 59.02 59.40 59.28 59.64 60.32 60.89 60.81 60.04 59.18 59.28 59.33 59.92 60.42 60.67 60.38 60.73 61.52 61.86 61.87 61.58 61.30 60.52 59.58 59.28 58.46 58.29 57.28 55.04 54.57 53.31 51.79 50.89 51.64 50.02 50.19 51.19 51.50 53.64 53.73 52.11 51.31 50.96

GFSSE_sfc_wetblb_108.txt.gz
Wetbulb
69.49 71.91 74.86 74.21 73.87 74.36 75.25 75.63 76.12 75.68 75.24 74.93 74.66 74.32 73.92 73.52 72.12 71.73 73.17 73.08 73.19 72.87 71.78 72.57 72.75 71.18 71.06 71.25 72.24 71.78 71.93 71.41 70.93 71.00 71.12 71.92 72.18 72.02 72.12 71.81 71.61 70.18 71.85
70.63 72.57 74.63 74.42 73.78 73.70 74.53 75.48 75.79 75.49 75.17 75.32 74.33 74.29 74.32 73.49 72.25 72.59 73.26 73.38 73.46 72.49 73.01 72.63 72.24 71.32 71.15 71.67 71.26 70.91 70.71 70.26 69.75 69.84 69.47 69.47 71.07 71.78 72.18 71.57 72.05 70.65 71.96
70.72 72.65 73.24 74.32 74.24 74.16 73.93 74.14 75.19 75.26 75.16 75.02 74.96 74.46 74.37 73.57 73.05 73.10 73.66 73.40 73.21 72.16 72.17 71.66 71.26 70.13 71.24 71.33 71.20 70.74 70.00 69.52 69.08 68.81 68.60 65.98 68.50 71.78 71.76 71.42 71.86 71.74 71.66
71.75 72.49 72.47 74.35 74.30 73.67 73.37 73.06 74.33 75.36 75.10 74.77 74.54 74.86 74.47 73.59 73.69 73.14 73.50 73.02 72.28 71.47 71.25 70.95 70.44 69.60 70.66 70.58 69.51 67.87 68.33 68.41 68.40 66.59 63.39 64.97 67.46 70.97 71.11 71.13 70.62 70.26 70.23
71.30 71.97 72.52 74.26 74.20 73.62 73.61 72.97 73.04 74.61 75.09 74.91 74.27 74.71 74.59 73.90 74.08 73.33 73.43 73.03 72.25 71.43 70.51 70.15 70.04 69.98 69.36 68.57 67.74 68.83 68.34 67.84 67.10 63.94 61.56 61.85 63.83 68.71 69.48 69.31 68.78 68.66 68.28
70.84 71.53 73.15 73.98 74.06 73.85 74.22 74.04 72.82 73.99 75.01 74.65 74.32 73.99 74.13 73.84 73.83 73.88 73.34 72.14 71.49 71.14 70.15 68.94 68.63 68.02 67.17 68.14 68.35 68.54 68.35 67.46 65.46 62.50 62.81 64.74 62.52 67.52 67.43 67.33 66.91 66.86 66.69
69.96 71.19 72.48 73.96 73.96 74.26 73.92 73.92 73.75 73.56 74.71 74.37 74.15 73.52 73.85 73.62 73.64 72.89 72.76 72.19 71.79 71.48 69.70 68.42 68.19 67.82 67.55 68.02 67.83 68.16 67.63 66.68 62.12 61.67 61.98 62.39 63.82 67.90 67.75 67.20 67.00 66.99 66.92
69.59 71.20 71.95 72.66 73.26 73.50 73.64 73.50 73.98 74.24 74.17 74.03 73.91 73.59 73.71 73.13 72.88 72.86 72.45 72.22 71.53 70.38 68.99 68.61 68.43 68.04 67.62 67.60 67.27 67.29 67.18 65.67 63.17 62.03 62.65 63.49 68.04 67.98 67.96 67.53 67.20 67.17 67.21
68.87 66.91 67.86 70.36 70.91 71.92 72.57 72.89 73.30 73.60 73.00 73.18 73.45 72.86 72.55 71.98 72.19 72.59 71.98 72.10 71.21 70.18 69.62 69.17 68.91 68.54 68.12 67.50 66.80 66.63 66.62 65.25 61.53 62.51 63.86 63.63 68.68 68.00 67.75 67.33 67.13 66.98 66.73
64.15 64.11 63.53 63.87 64.47 64.45 67.98 70.51 70.96 71.80 71.76 72.28 71.84 70.87 70.17 69.66 70.11 71.41 70.35 70.97 71.38 71.34 70.90 70.32 69.32 68.88 68.34 67.62 67.00 66.32 65.32 64.29 60.64 62.35 62.99 63.50 68.03 67.50 67.14 66.83 66.58 66.22 65.90
62.74 62.81 62.17 62.13 62.41 62.88 62.53 66.24 68.93 69.57 69.86 70.34 69.67 68.40 68.06 69.11 68.08 66.59 66.72 69.23 70.59 71.19 71.08 70.39 69.79 69.61 68.65 67.03 66.36 65.64 64.18 59.98 60.21 62.18 62.83 67.69 68.08 67.29 66.73 66.35 66.08 65.72 65.25
60.78 61.19 61.26 61.39 61.75 61.66 63.18 61.14 63.75 67.83 67.81 68.60 68.82 68.57 68.20 67.16 66.88 66.47 65.86 67.32 69.40 69.62 69.62 69.76 69.22 68.39 65.67 61.17 60.26 62.59 58.98 58.57 57.59 61.51 62.73 68.25 68.62 68.42 67.98 67.31 66.85 66.48 66.06
60.21 61.11 60.81 61.17 61.72 61.83 61.75 60.86 61.65 65.75 67.62 67.11 67.07 67.85 67.06 66.78 65.96 65.75 66.62 66.93 67.13 66.01 66.45 66.94 65.98 63.19 60.18 58.36 57.73 56.75 56.88 56.92 57.58 61.34 63.32 67.91 69.05 68.88 69.18 68.89 68.76 68.67 68.42
58.17 59.47 60.20 60.86 61.69 62.04 63.06 61.96 61.07 62.61 65.83 67.00 66.68 66.32 66.18 65.72 65.52 65.40 66.40 66.76 66.19 64.57 64.18 63.34 62.18 60.76 59.07 58.20 57.78 57.90 57.39 57.93 58.51 60.69 61.54 65.76 68.38 68.28 68.43 68.76 68.92 69.01 69.03
57.52 58.22 59.50 60.27 60.73 61.13 61.30 61.38 61.13 62.16 64.72 67.10 66.14 66.20 65.99 65.55 65.38 65.27 65.83 66.00 65.54 63.14 63.02 62.10 61.06 59.66 57.97 57.82 57.88 58.13 58.53 58.15 58.97 59.78 59.82 63.13 66.01 68.39 68.96 68.35 67.92 68.03 68.15
58.01 58.05 58.77 59.61 60.04 60.43 60.10 59.74 60.56 63.14 65.15 67.00 66.06 65.71 65.87 65.39 65.02 64.92 64.33 64.18 63.96 62.70 62.15 61.43 60.15 59.40 58.15 57.53 57.31 58.59 59.13 59.21 59.16 59.56 59.33 59.95 64.55 66.45 68.28 67.94 67.82 68.01 67.81
58.57 58.64 59.08 59.68 60.17 60.09 60.19 60.33 60.94 62.31 65.60 65.90 66.14 65.57 65.10 65.09 64.90 64.27 64.00 63.55 62.62 61.52 61.87 60.33 59.60 58.05 57.14 57.34 57.13 58.80 59.88 59.83 60.09 59.76 60.20 59.71 62.15 63.34 65.68 67.45 67.87 67.74 67.01
58.61 58.55 59.29 61.69 62.64 61.16 60.69 61.04 61.45 62.87 65.17 65.94 66.12 65.73 64.35 64.98 65.01 64.06 63.72 63.40 62.75 60.79 60.28 58.92 58.23 57.32 58.04 58.50 58.49 59.49 60.35 60.58 60.63 61.06 61.32 60.59 60.82 61.66 63.33 65.61 66.72 66.70 65.92
59.27 59.21 59.31 60.15 62.08 63.30 62.76 63.86 63.59 63.17 63.65 64.89 65.47 64.93 64.67 64.39 64.38 62.93 62.77 62.13 60.93 60.73 59.94 59.34 58.56 58.64 58.08 58.12 58.96 59.67 59.96 60.35 61.47 61.36 59.77 60.01 60.21 59.89 59.61 62.88 63.34 63.04 63.93
58.82 58.99 59.34 60.93 62.58 61.96 62.63 63.88 63.88 62.43 62.61 63.18 63.58 63.67 63.78 63.89 63.04 62.22 61.21 61.21 61.34 60.53 60.16 59.68 58.76 58.65 58.45 58.30 59.12 59.62 60.06 60.82 60.23 58.78 58.97 59.02 59.01 59.40 58.80 59.60 59.63 60.52 63.27
57.82 58.40 59.26 59.94 60.08 60.96 60.87 61.04 61.70 61.21 61.91 62.22 62.31 62.96 62.73 62.76 62.35 62.21 62.10 62.27 62.07 61.08 60.47 60.12 59.65 58.49 57.49 57.79 58.17 58.87 59.27 58.90 58.07 58.57 57.56 57.38 58.29 58.09 58.82 59.53 59.21 58.62 59.19
57.50 57.89 59.32 60.32 59.43 60.54 60.97 61.78 62.07 62.48 62.09 62.80 63.09 63.46 62.89 63.03 63.12 64.04 63.38 63.28 62.69 61.80 60.96 60.65 59.54 58.61 58.33 58.89 58.11 56.23 54.80 55.80 56.04 56.25 55.33 56.85 56.72 57.43 58.03 59.38 58.36 57.13 56.33
57.07 57.59 58.63 59.50 59.14 60.17 60.79 61.67 61.68 61.92 61.56 61.32 61.83 62.32 63.17 63.85 63.70 64.19 64.24 63.89 63.19 62.59 61.77 60.99 59.56 59.09 58.49 59.63 59.90 57.84 53.43 52.25 53.08 55.25 54.96 54.48 55.06 55.86 56.17 57.11 57.75 56.51 55.05
56.90 58.94 59.91 60.16 60.33 60.64 61.25 60.61 59.01 57.16 57.91 59.61 61.06 61.70 62.29 63.39 64.08 64.30 64.35 63.64 63.19 62.47 61.57 61.31 61.28 60.09 59.94 58.62 58.95 59.42 58.28 54.87 50.93 50.52 53.99 53.76 54.24 55.09 56.03 56.50 55.72 54.20 53.86
57.41 58.61 59.96 60.64 60.84 59.95 61.11 61.33 59.44 58.26 59.86 60.88 60.88 60.76 60.88 61.43 62.29 63.00 63.25 62.69 61.93 61.13 60.63 60.52 60.15 59.83 60.16 59.16 58.51 57.10 56.68 56.25 55.77 51.13 50.08 52.23 54.38 54.78 54.98 55.20 54.92 53.26 52.92
58.24 58.48 59.39 59.75 59.46 60.55 60.87 60.66 59.88 59.81 59.56 59.61 59.76 59.73 59.92 60.13 60.63 61.08 61.50 61.46 61.42 60.92 60.50 60.18 59.96 60.02 59.49 59.47 60.49 57.47 54.98 52.94 52.03 51.46 49.33 49.37 52.28 52.66 52.95 52.77 52.31 51.84 51.33

GFSSE_sfc_wetblb_111.txt.gz
Wetbulb
68.45 71.71 75.12 74.69 75.22 75.74 75.40 75.30 75.36 75.17 75.18 74.93 74.05 74.26 73.71 72.64 72.06 72.53 72.40 72.28 72.19 71.89 71.40 71.41 70.74 71.10 71.48 72.14 72.23 71.81 71.33 71.19 71.22 71.43 71.42 71.81 71.99 72.02 71.83 71.77 71.50 69.74 71.68
70.11 72.41 74.63 74.68 74.81 75.45 75.65 75.51 75.54 75.18 75.03 74.84 73.47 73.57 73.59 72.24 72.45 73.42 73.07 72.51 72.29 72.23 73.22 72.33 70.97 70.86 71.17 70.96 71.02 70.91 70.33 70.24 70.14 70.07 69.90 70.03 71.04 71.86 71.88 71.38 71.59 70.53 71.68
70.79 72.52 72.92 74.30 74.50 75.10 75.53 75.64 75.22 75.06 75.14 74.80 73.96 73.40 73.50 72.15 72.74 73.58 73.65 73.19 72.77 72.88 72.49 71.99 70.59 70.85 70.64 70.75 70.48 70.14 69.57 69.53 69.28 68.84 68.29 66.66 68.87 71.63 71.69 71.37 71.45 71.11 70.65
71.48 72.31 72.29 74.07 74.22 74.08 74.32 74.77 75.16 74.83 74.54 74.71 74.64 74.15 73.92 72.88 73.38 73.80 73.61 73.35 73.07 72.09 71.29 70.80 70.73 70.93 71.04 69.81 68.13 68.08 68.01 68.32 67.73 66.77 64.43 65.58 68.12 70.57 70.46 69.81 70.09 69.41 69.09
70.96 71.92 72.24 74.12 74.27 73.91 73.33 73.92 74.71 74.93 74.76 74.51 74.11 74.49 74.36 73.84 73.55 73.63 73.37 73.13 72.11 71.96 70.02 70.62 70.37 70.66 70.02 68.23 68.87 68.57 68.99 67.87 66.53 63.62 61.87 62.90 64.79 68.05 69.01 68.75 67.94 67.61 67.12
70.32 70.91 73.12 73.99 74.14 73.96 73.71 73.29 73.94 74.55 74.51 74.56 74.00 73.77 73.97 73.45 73.81 73.29 73.24 72.02 71.41 71.20 70.47 70.00 70.13 69.32 68.01 69.05 68.90 68.24 67.89 66.88 64.82 61.98 62.32 64.25 62.63 67.48 67.79 67.09 66.90 66.77 66.95
69.98 71.08 72.61 74.00 74.05 74.19 74.18 73.55 73.10 74.16 74.53 74.32 74.13 73.61 73.65 73.68 73.48 73.20 72.41 71.56 71.10 70.33 69.33 69.05 68.39 67.36 67.96 68.60 68.68 68.54 67.79 65.88 61.55 61.24 61.56 62.16 63.33 67.64 67.53 67.39 67.27 67.30 67.13
69.97 71.23 72.09 72.81 73.47 73.93 73.82 74.18 73.32 73.88 74.43 74.11 73.57 73.88 73.81 73.45 72.87 73.01 71.84 71.62 70.82 69.81 68.51 68.20 67.68 67.50 68.22 68.24 68.01 67.99 66.93 65.21 62.54 61.56 62.06 62.75 67.87 67.92 67.78 67.51 67.43 67.37 67.08
69.03 69.76 69.96 71.20 71.92 72.42 72.76 73.10 73.37 73.33 73.84 73.52 73.13 73.28 72.60 72.54 72.04 72.41 71.78 71.44 70.53 69.33 68.76 68.53 68.07 67.86 67.95 67.83 67.33 67.18 66.70 65.02 60.84 62.01 63.44 63.33 68.59 68.06 67.74 67.34 67.06 66.80 66.56
65.93 66.33 65.71 65.49 66.86 68.20 69.35 70.70 71.40 72.29 72.07 72.34 71.76 71.64 69.93 69.76 70.20 71.54 70.90 70.85 70.79 70.03 69.92 69.60 68.63 68.33 68.20 67.76 67.25 66.71 65.65 65.09 60.39 61.94 62.53 62.92 68.19 67.60 67.30 66.99 66.63 66.31 65.89
64.58 64.13 63.45 63.21 62.94 63.28 65.16 66.23 68.27 69.58 70.15 70.22 69.83 68.78 67.62 69.08 69.39 69.16 68.66 69.34 70.22 70.48 70.46 69.57 69.14 69.11 68.37 66.94 66.27 65.30 63.42 60.09 59.95 61.31 61.98 65.91 68.13 67.61 67.12 66.65 66.26 65.80 65.36
61.73 62.16 61.40 61.74 61.61 61.87 62.60 61.23 63.51 67.98 67.51 67.93 68.59 67.90 68.74 68.30 68.12 67.27 66.94 68.06 70.21 70.15 70.05 70.13 69.82 69.24 66.46 61.32 60.31 62.63 58.46 58.28 58.33 61.24 61.83 66.98 68.05 68.07 67.61 67.15 66.70 66.31 65.99
60.98 61.96 60.84 61.49 61.13 61.16 60.79 60.74 62.54 64.89 66.77 67.49 66.66 67.53 67.33 67.31 65.79 64.47 66.44 67.26 67.95 66.62 67.17 67.49 66.66 63.69 60.69 58.34 57.37 56.13 56.78 56.54 57.07 60.47 62.74 66.75 68.55 68.71 68.97 68.77 68.51 68.32 68.08
59.73 60.70 61.25 60.49 60.54 60.64 61.19 60.27 60.60 63.79 64.75 66.53 67.10 66.52 65.39 65.74 65.63 64.23 65.24 65.71 66.06 66.19 65.37 63.63 62.43 60.95 59.16 57.96 56.77 56.82 56.34 56.14 56.81 59.96 61.19 65.11 68.42 68.81 69.02 69.21 69.25 69.13 69.14
57.76 60.13 60.27 60.34 60.71 60.88 60.71 60.29 60.30 60.08 64.20 64.73 66.76 66.46 65.92 65.71 65.08 65.03 65.13 65.91 65.46 65.52 64.69 63.49 61.01 59.93 58.37 57.19 56.96 56.75 57.03 57.00 56.86 58.31 59.82 62.10 65.80 68.45 69.04 68.77 68.53 68.11 68.22
57.49 57.94 59.76 60.29 60.59 60.58 60.18 60.13 60.20 61.33 63.56 65.57 66.09 66.33 65.91 66.21 65.36 65.02 65.16 64.78 65.05 64.71 63.02 63.34 60.49 59.42 58.13 56.86 57.08 56.90 57.46 57.52 57.63 58.63 59.02 59.55 64.22 66.32 68.47 68.57 68.03 67.94 68.09
57.17 57.95 58.06 59.30 60.05 59.66 59.56 59.37 58.82 60.61 63.89 65.55 65.65 65.89 65.99 66.25 65.68 65.04 64.23 64.28 64.25 63.72 62.80 62.21 60.10 58.90 57.67 57.51 56.09 56.39 57.90 58.59 59.11 59.00 59.37 58.86 59.87 62.96 65.30 67.53 67.91 68.02 67.81
55.69 57.62 58.45 60.06 59.65 59.20 59.36 59.49 59.79 59.87 61.30 65.18 65.36 65.42 65.53 65.82 65.42 64.81 64.13 63.87 63.23 62.52 61.81 61.15 59.27 58.08 56.76 56.15 55.88 56.93 58.30 59.23 59.73 59.75 59.87 59.73 59.53 60.76 63.11 65.85 66.95 66.97 66.74
55.91 57.82 58.08 59.14 60.11 59.92 60.06 60.12 60.06 60.24 60.26 62.52 65.56 65.30 64.64 65.20 65.66 64.65 64.11 63.60 62.73 61.75 60.45 60.25 58.58 57.58 56.86 56.91 57.90 58.42 59.01 59.58 60.05 61.00 59.33 59.77 60.11 60.28 60.17 61.95 63.18 63.05 63.71
55.26 58.10 58.34 58.87 59.64 61.59 62.13 62.37 62.50 62.14 61.89 62.53 64.96 64.32 64.99 64.74 64.65 64.11 63.73 63.13 62.31 61.73 60.05 58.41 57.85 58.05 57.71 57.82 58.79 58.65 58.80 59.58 59.94 58.96 58.26 59.42 59.47 59.16 59.08 59.80 59.45 60.09 63.13
54.52 57.33 58.08 58.80 60.26 61.31 61.49 60.85 60.94 61.96 61.63 60.98 64.55 64.40 64.66 64.57 64.18 63.24 62.52 62.01 61.49 61.28 60.74 60.09 58.70 57.88 57.77 56.93 56.71 56.86 58.48 58.12 57.78 57.39 57.09 57.54 58.15 58.16 58.08 58.61 58.33 57.93 58.70
55.20 57.26 58.01 59.36 60.00 61.25 60.31 59.64 60.18 61.28 62.27 61.37 62.08 63.22 63.84 64.12 62.56 61.72 62.13 61.42 61.09 60.74 60.00 59.82 59.36 57.97 57.85 57.91 57.00 55.49 54.46 56.12 56.12 56.30 55.41 56.62 56.75 56.87 58.25 58.30 57.45 56.63 55.97
54.97 56.47 57.79 59.58 59.00 59.87 59.93 60.18 60.39 61.42 60.98 61.31 61.12 61.55 61.89 63.21 62.80 62.56 62.79 62.52 61.61 61.34 60.59 60.07 59.67 58.59 56.82 57.90 58.98 57.34 53.16 52.97 53.84 55.31 54.66 54.81 55.59 55.58 56.19 57.50 57.02 55.94 55.20
55.47 56.78 57.76 59.17 58.52 58.89 59.48 59.60 59.48 58.28 58.60 59.74 60.82 61.67 61.80 62.45 62.50 63.23 63.29 62.86 62.23 62.06 60.74 60.77 60.30 59.08 59.25 57.82 58.59 59.22 57.12 54.73 52.52 50.96 53.47 53.74 54.10 54.76 55.45 56.82 56.55 55.76 54.57
55.51 56.74 57.66 58.26 58.69 58.96 59.73 59.81 59.57 57.50 59.04 59.83 60.51 60.22 60.54 61.19 61.87 62.24 62.60 62.75 62.65 62.56 61.55 60.79 59.92 59.41 59.23 58.53 57.93 56.64 56.55 56.26 55.62 51.57 51.90 52.63 53.77 53.97 56.38 56.38 55.67 54.11 53.46
54.00 55.32 56.84 57.90 58.59 60.05 60.07 60.30 59.90 58.22 58.85 58.92 59.54 59.31 59.29 59.77 60.09 61.02 61.11 60.57 60.41 60.53 59.77 59.60 59.53 59.35 59.32 59.21 58.87 57.88 57.37 55.55 54.36 53.40 50.66 50.51 52.16 53.01 53.47 53.85 53.81 52.89 52.32

GFSSE_sfc_wetblb_114.txt.gz
Wetbulb
67.12 71.61 75.49 75.41 75.57 75.30 75.24 74.81 75.22 75.45 75.44 74.94 74.51 74.04 73.79 72.83 71.85 71.66 71.47 71.44 71.95 71.92 71.03 70.79 70.59 71.56 72.29 72.26 71.77 71.33 71.38 71.34 71.69 71.68 71.67 72.05 72.12 71.66 72.16 71.66 71.28 69.82 71.76
69.21 72.24 75.06 75.40 76.06 75.90 75.60 75.32 75.16 75.04 74.83 74.67 74.06 73.61 73.22 72.39 72.49 72.76 72.18 71.37 71.48 71.90 71.63 70.92 71.04 72.06 71.29 71.24 71.00 70.64 70.57 70.71 70.81 70.70 70.41 70.36 71.14 71.84 71.89 71.41 71.43 70.35 71.44
70.60 72.45 73.15 74.80 75.45 75.39 75.23 75.16 75.15 74.99 74.77 74.11 73.58 73.05 72.91 72.73 73.16 73.20 72.25 72.20 72.59 73.07 71.74 70.87 70.83 69.94 71.00 70.37 70.06 69.62 70.07 69.91 69.55 69.21 68.72 67.57 69.12 71.66 71.59 70.98 70.92 70.01 69.59
71.32 72.08 72.02 74.51 75.18 75.42 75.47 75.03 74.56 74.96 74.84 74.29 72.91 73.52 72.78 72.40 73.42 73.65 72.99 73.01 72.93 72.80 72.13 70.82 70.75 70.49 70.47 69.62 68.90 68.88 68.75 68.61 68.19 67.45 65.11 66.02 67.37 70.52 69.96 69.57 68.86 68.77 67.89
70.52 71.34 71.79 74.19 74.59 74.90 75.17 74.72 74.53 74.57 74.50 74.21 74.17 74.28 73.79 73.00 73.82 73.56 73.38 73.24 72.76 71.99 71.03 71.21 70.92 70.64 68.78 69.07 68.74 68.89 68.38 67.45 66.60 64.10 62.84 63.80 64.77 68.09 68.89 68.07 67.24 67.21 67.10
69.25 70.39 72.65 73.93 74.18 74.16 74.54 74.98 74.79 74.33 73.96 73.91 73.87 73.25 73.83 74.02 73.93 73.25 72.93 72.47 71.65 71.07 70.71 70.75 70.69 69.52 68.67 69.17 68.80 69.04 67.95 66.47 64.43 61.43 61.99 64.55 62.93 67.80 67.58 67.27 67.07 67.24 67.05
70.17 69.73 72.15 73.96 74.16 73.91 73.71 74.18 74.81 74.81 74.63 74.20 73.86 73.50 73.39 73.49 73.34 72.90 72.47 71.87 71.49 70.92 70.18 70.45 69.99 68.15 68.98 68.98 68.71 68.23 67.35 65.77 61.04 60.56 60.97 61.61 62.68 67.48 67.53 67.60 67.69 67.59 67.24
70.18 71.25 71.75 72.68 73.59 73.82 73.62 73.22 73.79 74.62 74.75 74.41 74.20 73.84 73.56 73.49 72.79 72.69 71.75 71.42 70.47 69.99 69.82 69.59 68.53 68.06 68.77 68.74 68.80 68.29 66.52 64.80 62.01 60.82 61.20 62.04 67.74 67.87 67.80 67.59 67.56 67.28 66.95
69.26 69.73 69.65 70.93 71.81 72.06 73.01 73.25 72.64 73.77 74.15 73.95 73.65 73.56 72.59 71.82 72.08 72.45 71.59 70.93 69.98 69.39 68.76 68.53 67.85 68.60 68.60 68.28 68.26 68.25 66.68 64.72 60.18 61.43 62.90 62.89 68.55 67.86 67.63 67.29 66.99 66.71 66.49
66.24 66.87 67.20 68.46 69.52 69.27 69.60 71.58 71.82 71.91 72.66 72.88 72.31 71.70 70.38 69.76 70.23 71.52 70.51 70.44 70.61 69.70 69.47 69.23 68.81 68.49 68.66 68.17 67.64 67.45 66.19 64.80 59.89 61.29 62.03 62.61 67.85 67.56 67.33 66.91 66.41 66.21 65.99
64.24 64.83 64.78 65.64 66.90 67.44 67.03 68.20 69.73 70.87 70.69 70.48 70.21 68.63 67.99 69.15 69.51 68.80 68.69 69.14 69.69 69.54 69.70 69.29 69.15 69.05 68.29 67.01 66.72 65.65 64.99 60.61 59.37 60.57 61.30 64.69 67.96 67.52 67.22 66.81 66.26 65.72 65.38
61.89 63.18 63.17 63.29 63.36 64.11 63.95 64.58 66.74 68.25 68.08 68.32 68.51 68.14 68.19 68.27 68.69 69.28 67.29 67.90 69.43 69.39 69.51 69.67 69.42 69.08 66.15 61.34 60.74 63.14 58.67 58.55 58.74 60.54 60.96 65.29 68.15 67.97 67.61 67.15 66.74 66.41 66.16
59.59 62.65 62.44 62.13 61.40 61.66 61.26 61.04 63.73 65.92 67.24 67.20 66.99 66.95 67.26 67.90 67.58 68.00 67.70 67.97 68.03 66.58 67.37 67.89 67.35 64.26 60.95 59.15 58.15 57.09 57.47 56.93 56.54 58.88 62.19 65.28 67.88 68.52 68.64 68.32 67.95 67.75 67.76
56.78 60.09 62.36 62.15 60.90 60.41 61.86 60.09 60.89 63.82 66.89 67.58 67.18 67.09 65.43 64.88 65.72 64.98 66.00 65.73 66.43 66.89 65.71 64.52 64.68 61.56 59.49 57.59 55.93 55.34 55.09 55.00 55.70 56.78 60.34 64.06 66.94 68.57 69.08 69.40 69.47 69.44 69.28
55.41 59.41 61.12 61.61 60.16 61.09 60.42 60.90 59.83 59.61 62.86 65.94 67.55 67.48 65.93 65.20 65.49 64.50 64.09 64.24 64.29 65.11 64.82 64.18 62.21 60.80 58.20 57.00 56.36 55.99 56.08 56.08 55.93 56.76 58.92 61.59 64.86 67.71 68.79 69.10 69.03 68.54 68.20
54.43 57.53 60.01 60.84 60.40 60.87 60.04 59.47 59.17 59.05 60.71 63.48 65.42 66.66 66.82 65.96 65.43 64.58 64.78 65.00 63.84 64.28 63.80 63.65 61.58 59.42 58.22 56.90 55.99 56.16 56.21 56.35 56.67 56.73 57.93 59.07 63.08 65.91 67.27 68.26 68.92 68.23 68.11
50.44 56.57 58.18 60.44 60.87 60.28 60.43 60.31 59.44 59.36 61.73 62.91 64.24 66.08 66.05 65.45 64.94 64.88 64.84 64.98 64.91 64.91 63.77 62.36 61.48 59.21 57.73 57.03 55.59 56.14 56.16 56.60 57.49 57.49 58.35 58.58 59.28 62.21 64.74 66.67 68.15 68.25 68.08
49.75 54.53 57.45 59.82 60.60 60.32 60.32 59.70 59.35 59.06 59.10 62.48 65.51 64.49 65.63 66.05 65.84 65.16 64.40 64.77 65.14 64.57 63.53 62.52 61.09 58.85 57.51 56.36 55.72 55.84 56.04 56.88 58.11 58.52 58.97 58.89 58.74 59.36 62.11 65.52 67.26 67.68 67.39
47.39 50.50 55.64 57.98 58.71 59.13 58.98 58.63 58.51 58.79 58.54 59.08 63.90 65.18 65.40 65.60 65.91 65.21 64.72 64.50 64.08 63.81 62.91 62.30 60.29 59.66 57.25 56.41 56.51 56.80 56.95 57.73 58.86 60.12 59.27 59.16 59.16 59.17 59.41 61.82 63.70 63.71 64.13
46.06 50.61 54.67 57.55 58.31 58.68 58.96 58.96 59.26 60.01 59.55 59.34 60.81 64.36 65.04 65.23 65.70 65.47 65.01 64.18 63.45 62.80 61.51 61.00 60.18 58.53 57.81 57.25 58.04 57.96 57.96 58.68 59.09 59.31 59.34 59.27 59.52 59.50 59.38 59.65 59.97 60.20 62.80
47.59 50.51 55.17 56.47 57.76 59.79 59.94 59.55 59.52 59.95 60.70 61.16 61.07 63.42 64.35 64.50 64.51 64.35 64.09 63.50 63.00 62.09 61.01 60.53 59.37 58.53 57.08 56.73 55.92 55.93 56.97 58.42 58.04 58.14 57.37 57.60 57.95 58.25 58.39 58.61 58.67 58.77 58.46
47.60 50.80 54.54 57.05 58.14 59.55 60.01 60.27 61.06 61.28 61.51 61.60 61.45 63.03 64.30 64.14 63.99 63.79 63.06 61.68 62.04 61.66 60.85 59.97 59.26 57.90 57.87 57.02 55.51 54.74 53.13 55.61 56.46 56.82 56.02 56.77 57.15 57.10 57.48 57.84 57.75 56.91 56.19
48.19 50.88 55.01 57.38 58.96 59.93 60.39 60.80 61.29 61.33 60.71 60.47 61.14 61.84 63.16 63.93 63.42 62.67 61.70 61.50 61.22 61.56 60.77 60.71 59.58 58.74 56.80 56.65 58.26 56.88 52.82 52.58 53.91 54.89 54.70 55.10 56.05 55.92 56.14 57.44 57.00 56.29 56.08
49.35 52.13 55.43 57.69 59.22 59.26 59.47 60.02 59.70 57.85 57.55 58.75 61.26 61.58 61.63 63.28 63.03 61.02 60.53 59.85 60.41 61.18 60.72 60.60 60.23 59.42 58.55 56.59 57.72 58.79 57.43 55.03 52.60 51.74 53.94 54.42 54.30 55.03 55.57 56.11 57.64 56.80 55.89
52.00 53.24 55.77 57.55 58.56 58.09 59.35 60.22 59.07 56.75 57.21 57.93 59.21 60.40 60.25 61.36 62.20 61.96 61.00 60.34 60.54 61.66 61.25 60.83 59.59 58.81 59.08 58.03 57.67 55.93 55.82 55.28 54.40 51.91 51.22 53.00 53.34 54.26 55.97 56.75 57.74 56.15 54.74
51.75 54.73 55.61 56.94 58.08 57.53 58.11 58.64 57.96 57.04 57.06 58.00 58.26 59.43 59.65 60.32 61.18 62.05 62.31 62.54 62.47 62.03 61.53 60.69 59.48 59.16 59.01 58.73 58.32 57.46 56.93 55.35 54.01 53.31 51.81 52.53 53.57 54.09 54.61 55.88 55.51 54.23 53.71

GFSSE_sfc_wetblb_117.txt.gz
Wetbulb
70.03 74.04 75.66 76.03 75.31 75.32 74.87 75.40 75.59 75.64 75.44 74.88 74.69 74.31 73.82 72.98 72.11 71.61 71.42 71.20 72.04 72.03 71.61 72.09 73.04 72.76 72.31 72.05 72.27 71.74 71.54 71.61 71.88 71.93 72.23 72.40 72.49 72.33 72.08 71.66 72.03 71.34 71.41
71.22 74.07 75.37 75.83 75.77 75.59 75.44 75.46 75.30 74.99 74.87 75.01 74.74 74.12 73.29 72.69 71.85 71.69 71.72 71.42 71.70 71.28 71.07 70.74 72.37 72.41 71.86 71.37 70.63 70.96 71.26 71.32 71.28 71.02 70.80 70.65 71.11 72.02 71.92 71.46 71.86 70.83 70.31
71.80 73.96 74.16 75.58 75.20 75.38 75.12 75.37 75.12 74.99 74.68 74.58 74.48 73.59 73.11 72.41 72.53 72.58 71.91 71.92 72.95 71.69 71.15 71.60 71.61 70.64 70.89 70.35 70.36 70.54 70.65 70.58 70.26 69.93 69.84 71.20 71.39 71.70 71.23 70.60 70.20 69.70 68.87
72.53 73.88 73.47 75.30 75.38 75.31 75.01 74.87 74.83 74.86 74.62 74.17 74.10 73.49 72.79 72.92 73.34 72.63 72.66 72.85 73.20 72.83 72.09 71.89 70.46 70.25 70.05 70.00 69.55 69.91 69.78 69.46 69.02 68.55 69.92 69.86 69.62 70.31 69.86 69.26 68.45 67.78 67.70
72.51 73.32 73.27 74.89 75.26 75.21 74.97 74.69 74.66 74.73 74.52 74.08 73.33 73.91 73.59 73.79 73.67 73.33 73.64 73.18 73.12 72.46 71.75 71.11 70.06 70.38 69.27 69.08 69.02 68.57 68.48 68.44 67.32 68.17 68.88 68.98 69.23 69.00 68.56 67.76 67.45 67.62 67.39
72.18 72.80 73.22 74.20 74.40 74.63 74.57 74.84 74.72 74.60 74.64 74.45 74.18 74.14 73.71 73.77 73.76 73.51 73.02 72.88 72.29 71.54 71.60 71.26 70.64 69.09 69.83 69.86 69.48 69.02 67.67 67.02 66.02 67.60 68.30 68.14 68.14 68.02 67.89 67.70 67.76 67.56 67.46
71.58 72.48 73.02 74.13 74.20 73.87 74.70 74.75 74.82 74.68 74.61 74.37 74.37 73.76 74.00 73.99 73.06 73.32 72.89 72.10 71.59 71.22 71.51 70.96 69.98 68.90 69.37 69.81 69.32 68.44 66.98 65.68 65.72 66.05 66.37 66.90 67.56 67.85 68.17 68.11 68.01 67.81 67.59
70.98 71.98 72.73 72.43 73.12 73.63 73.40 73.67 74.15 74.54 74.40 74.32 74.14 74.17 73.97 73.84 73.03 72.55 72.50 71.84 71.28 70.90 70.74 70.58 69.38 69.03 69.13 69.17 68.78 68.10 66.67 65.07 64.77 66.02 66.79 67.60 68.81 68.16 68.19 68.02 67.70 67.35 67.24
69.94 71.04 72.03 72.41 72.21 72.40 72.75 72.64 73.07 73.46 73.51 73.46 73.39 73.32 72.81 72.53 72.51 72.16 72.10 71.76 71.14 70.54 70.47 70.36 68.94 69.22 69.07 68.98 69.59 67.78 66.35 64.75 65.52 66.06 66.17 67.75 68.60 68.15 67.92 67.55 67.23 67.03 66.82
66.22 67.41 69.50 71.53 72.08 72.49 72.68 71.45 71.37 71.73 72.13 72.46 72.35 71.37 70.65 69.80 70.22 71.46 70.61 70.68 70.82 70.53 70.30 69.78 69.34 69.55 69.16 68.93 69.41 67.70 65.96 64.59 65.22 65.79 66.80 67.46 67.64 67.78 67.54 67.24 66.84 66.56 66.37
65.31 65.31 65.59 67.35 70.41 71.12 71.39 71.06 69.82 70.21 70.52 70.80 70.91 69.26 69.44 71.80 71.54 70.86 68.95 68.97 69.85 69.63 69.58 69.34 69.33 69.64 68.72 67.50 67.44 66.71 65.51 65.60 64.92 65.50 65.87 65.45 67.94 67.87 67.60 67.14 66.61 66.19 65.82
58.17 64.01 64.68 64.59 66.21 68.46 69.00 70.16 71.00 71.29 71.81 72.59 72.39 72.31 72.03 71.77 71.45 70.75 67.98 67.81 69.42 69.11 69.07 69.52 69.37 69.13 67.18 66.52 66.17 64.83 65.85 65.60 65.10 65.33 65.67 64.88 67.65 68.22 67.92 67.49 67.03 66.64 66.40
55.07 60.74 64.63 64.08 63.82 64.48 65.91 67.44 69.14 70.04 70.04 71.28 71.31 70.91 71.44 71.19 70.86 70.74 70.30 69.70 69.32 66.64 68.24 68.52 68.48 67.71 66.66 65.29 64.71 64.64 64.30 64.30 64.41 64.76 65.34 64.69 67.00 68.65 68.56 68.35 67.96 67.79 67.72
52.91 55.58 62.25 64.75 63.70 63.84 64.19 64.57 66.96 67.51 69.56 70.21 70.21 70.29 70.17 70.08 70.14 69.76 69.57 69.04 69.11 68.77 67.75 68.17 67.96 67.66 65.96 63.57 63.60 63.26 62.98 63.11 62.98 63.00 63.87 63.84 66.17 68.09 69.00 69.36 69.69 69.43 69.19
50.92 54.83 60.35 63.87 64.35 63.86 63.63 63.80 63.01 64.11 67.75 69.52 69.94 69.82 69.19 68.89 69.11 68.55 68.96 68.00 68.79 68.68 67.69 67.43 67.55 66.78 64.66 62.35 61.87 61.23 61.20 61.48 61.80 62.36 63.33 61.64 64.15 66.70 68.20 69.43 69.26 68.97 68.61
49.98 53.72 59.38 62.62 63.86 63.63 63.56 63.49 62.47 62.00 63.43 65.69 68.86 69.49 69.07 68.70 68.40 67.93 67.47 66.39 67.95 68.51 67.56 67.23 66.49 65.67 63.81 62.75 61.39 61.19 61.49 61.99 62.26 62.52 62.99 63.54 62.76 64.83 66.87 67.67 68.63 69.14 68.51
49.67 52.39 56.82 61.18 63.25 62.70 63.06 63.49 62.75 62.18 62.86 63.92 65.21 66.97 67.65 66.54 66.85 67.16 67.21 67.31 66.83 67.89 66.35 65.74 66.37 65.37 63.05 62.23 61.24 60.86 61.27 62.06 62.17 62.66 63.04 63.27 63.56 61.85 64.27 66.92 67.48 68.56 68.68
49.51 51.10 56.12 59.81 62.40 62.82 62.94 63.13 63.09 62.60 63.04 64.03 65.48 65.75 66.01 66.96 66.34 65.75 66.21 67.03 67.59 65.76 66.60 63.97 63.43 64.03 61.75 61.17 60.19 61.12 61.30 61.80 62.02 62.63 63.51 63.38 63.57 63.48 63.04 64.47 67.08 68.01 68.50
49.00 50.17 52.87 57.35 60.17 62.16 62.76 62.94 62.45 62.30 62.21 62.19 63.40 65.43 65.71 66.08 67.26 66.47 66.12 66.63 66.81 65.40 65.80 64.51 62.03 63.18 61.45 61.02 59.58 60.70 62.00 61.65 61.64 61.88 62.83 63.42 63.79 63.30 63.46 62.53 63.30 64.77 65.89
48.78 49.53 51.35 54.96 57.90 60.44 61.79 61.90 61.90 61.65 61.81 61.88 61.68 63.48 65.16 66.11 66.43 66.52 67.01 65.79 66.21 65.81 64.66 64.13 62.11 61.49 61.59 60.91 60.35 60.07 62.04 62.05 62.65 62.65 63.04 63.41 63.40 63.19 63.38 63.37 63.83 63.43 62.50
48.37 48.64 49.67 52.41 56.71 59.42 59.72 59.63 59.70 59.90 61.44 61.97 62.02 62.35 63.84 65.31 65.69 66.44 66.61 65.37 65.22 64.15 63.59 63.09 61.76 60.66 60.24 61.53 60.30 60.59 60.72 61.57 61.95 62.39 62.92 62.93 62.22 62.43 63.06 62.96 63.81 64.13 64.10
47.94 48.79 50.20 53.07 56.04 59.01 61.00 61.35 61.80 61.64 62.25 62.75 63.14 62.48 63.51 64.43 65.22 65.21 65.26 64.65 64.00 63.41 62.46 61.63 61.08 59.33 59.92 59.85 59.89 58.52 56.74 59.23 60.83 61.24 61.57 60.67 61.27 61.29 61.48 62.19 62.15 62.86 62.98
48.03 49.08 50.18 52.80 56.55 58.98 60.47 60.36 61.40 62.54 62.83 62.15 62.37 62.17 63.22 64.30 64.48 64.29 64.22 63.96 63.84 63.15 62.78 62.28 61.49 60.28 58.68 59.24 60.28 59.67 56.34 55.13 56.95 58.61 58.42 59.22 58.98 58.95 60.18 60.78 61.57 61.60 61.43
48.54 50.11 51.58 54.10 56.63 59.30 60.37 59.39 59.07 59.40 58.68 60.42 62.01 62.28 63.21 64.34 63.90 63.82 63.68 63.66 63.26 63.38 62.17 62.29 61.44 60.85 59.82 58.29 58.88 59.26 60.08 58.91 56.03 55.38 57.57 58.21 57.86 57.48 59.42 60.20 60.81 60.70 60.52
50.91 51.18 52.86 55.16 57.25 59.15 59.34 59.16 59.21 58.18 59.19 60.92 61.90 62.16 62.49 63.14 63.54 62.79 62.33 61.47 61.48 61.89 61.33 61.17 60.11 59.86 60.05 58.80 59.32 58.13 58.83 59.09 57.09 54.96 54.98 56.20 56.12 58.13 59.10 59.73 60.53 59.29 57.68
53.49 53.86 54.85 56.09 57.30 58.69 58.37 58.64 58.74 58.27 58.78 59.05 60.42 60.36 60.95 61.78 62.49 62.32 61.95 61.72 61.05 60.78 60.41 61.45 60.31 60.23 60.50 59.94 60.06 59.33 58.84 57.12 56.31 54.87 54.15 56.30 56.80 58.71 57.36 57.83 58.69 58.41 57.37